<?xml version='1.0' encoding='UTF-8'?><gpx version="1.1" creator="JPX - https://github.com/jenetics/jpx" xmlns="http://www.topografix.com/GPX/1/1"><trk><trkseg><trkpt lat="44.83051124567382" lon="4.809393433251048"><ele>97.0</ele><time>2026-04-06T07:45:29Z</time></trkpt><trkpt lat="44.830593440704355" lon="4.809345298852048"><ele>97.0</ele><time>2026-04-06T07:45:33Z</time></trkpt><trkpt lat="44.83064725176139" lon="4.809291448635758"><ele>97.0</ele><time>2026-04-06T07:45:35Z</time></trkpt><trkpt lat="44.83070229837722" lon="4.809245191339519"><ele>97.0</ele><time>2026-04-06T07:45:37Z</time></trkpt><trkpt lat="44.83075882058081" lon="4.809201593248201"><ele>97.0</ele><time>2026-04-06T07:45:39Z</time></trkpt><trkpt lat="44.830824232766005" lon="4.809140661092548"><ele>97.0</ele><time>2026-04-06T07:45:41Z</time></trkpt><trkpt lat="44.830886874197624" lon="4.8090777689359205"><ele>97.0</ele><time>2026-04-06T07:45:43Z</time></trkpt><trkpt lat="44.83095574524363" lon="4.809040339112593"><ele>97.00000000000001</ele><time>2026-04-06T07:45:45Z</time></trkpt><trkpt lat="44.83103060484823" lon="4.8090189088366975"><ele>97.0</ele><time>2026-04-06T07:45:47Z</time></trkpt><trkpt lat="44.83111401305848" lon="4.808978740842165"><ele>97.0</ele><time>2026-04-06T07:45:49Z</time></trkpt><trkpt lat="44.83118365655232" lon="4.808901876040323"><ele>97.0</ele><time>2026-04-06T07:45:51Z</time></trkpt><trkpt lat="44.831257973137774" lon="4.808832448497666"><ele>97.00000000000001</ele><time>2026-04-06T07:45:53Z</time></trkpt><trkpt lat="44.83133394237824" lon="4.808750134986608"><ele>97.0</ele><time>2026-04-06T07:45:55Z</time></trkpt><trkpt lat="44.83140327571351" lon="4.808672666769482"><ele>97.00000000000001</ele><time>2026-04-06T07:45:57Z</time></trkpt><trkpt lat="44.83148092836942" lon="4.808598071258246"><ele>97.0</ele><time>2026-04-06T07:45:59Z</time></trkpt><trkpt lat="44.831540390097" lon="4.80853503066381"><ele>97.0</ele><time>2026-04-06T07:46:01Z</time></trkpt><trkpt lat="44.8316094040178" lon="4.80846812698134"><ele>97.0</ele><time>2026-04-06T07:46:03Z</time></trkpt><trkpt lat="44.83166024993756" lon="4.8084104177801255"><ele>97.00000000000001</ele><time>2026-04-06T07:46:05Z</time></trkpt><trkpt lat="44.831721848775175" lon="4.80834491121165"><ele>97.0</ele><time>2026-04-06T07:46:08Z</time></trkpt><trkpt lat="44.831732050759314" lon="4.808257013342764"><ele>97.33333333333334</ele><time>2026-04-06T07:46:11Z</time></trkpt><trkpt lat="44.83170325393869" lon="4.808147399554153"><ele>97.66666666666667</ele><time>2026-04-06T07:46:14Z</time></trkpt><trkpt lat="44.8316812589219" lon="4.808063632824814"><ele>98.0</ele><time>2026-04-06T07:46:16Z</time></trkpt><trkpt lat="44.83163114694101" lon="4.807979322329953"><ele>98.33333333333334</ele><time>2026-04-06T07:46:18Z</time></trkpt><trkpt lat="44.83158095804872" lon="4.807900148853503"><ele>98.66666666666667</ele><time>2026-04-06T07:46:20Z</time></trkpt><trkpt lat="44.83152426349871" lon="4.807821508893645"><ele>99.0</ele><time>2026-04-06T07:46:22Z</time></trkpt><trkpt lat="44.83147167956093" lon="4.807739867639702"><ele>99.0</ele><time>2026-04-06T07:46:24Z</time></trkpt><trkpt lat="44.83140615972869" lon="4.807669625086274"><ele>99.0</ele><time>2026-04-06T07:46:26Z</time></trkpt><trkpt lat="44.83133412969712" lon="4.807594185454187"><ele>99.0</ele><time>2026-04-06T07:46:28Z</time></trkpt><trkpt lat="44.83126425042" lon="4.807525038625563"><ele>99.0</ele><time>2026-04-06T07:46:30Z</time></trkpt><trkpt lat="44.831193099986265" lon="4.807460436906145"><ele>99.0</ele><time>2026-04-06T07:46:32Z</time></trkpt><trkpt lat="44.83111700276404" lon="4.807399448479197"><ele>99.0</ele><time>2026-04-06T07:46:34Z</time></trkpt><trkpt lat="44.83103383383372" lon="4.807314891067903"><ele>98.80000000000001</ele><time>2026-04-06T07:46:36Z</time></trkpt><trkpt lat="44.83094819716323" lon="4.807250388713223"><ele>98.60000000000001</ele><time>2026-04-06T07:46:38Z</time></trkpt><trkpt lat="44.83086833895395" lon="4.80716974982929"><ele>98.4</ele><time>2026-04-06T07:46:40Z</time></trkpt><trkpt lat="44.830773235016046" lon="4.8071094671504015"><ele>98.2</ele><time>2026-04-06T07:46:42Z</time></trkpt><trkpt lat="44.830685982588726" lon="4.807033865983571"><ele>98.0</ele><time>2026-04-06T07:46:44Z</time></trkpt><trkpt lat="44.83059975186901" lon="4.806964766909824"><ele>98.0</ele><time>2026-04-06T07:46:46Z</time></trkpt><trkpt lat="44.83051066814148" lon="4.806900564541754"><ele>98.0</ele><time>2026-04-06T07:46:48Z</time></trkpt><trkpt lat="44.83042887710175" lon="4.806827548612258"><ele>98.0</ele><time>2026-04-06T07:46:50Z</time></trkpt><trkpt lat="44.83035407404526" lon="4.806742609251994"><ele>98.0</ele><time>2026-04-06T07:46:52Z</time></trkpt><trkpt lat="44.8302641519327" lon="4.8066888418590485"><ele>98.0</ele><time>2026-04-06T07:46:54Z</time></trkpt><trkpt lat="44.83018140193029" lon="4.806616024758837"><ele>98.60000000000001</ele><time>2026-04-06T07:46:56Z</time></trkpt><trkpt lat="44.830086452461714" lon="4.806542368311752"><ele>99.2</ele><time>2026-04-06T07:46:58Z</time></trkpt><trkpt lat="44.82999425718609" lon="4.80646603816207"><ele>99.8</ele><time>2026-04-06T07:47:00Z</time></trkpt><trkpt lat="44.829905111076926" lon="4.806385785699452"><ele>100.4</ele><time>2026-04-06T07:47:02Z</time></trkpt><trkpt lat="44.82981333719163" lon="4.806305327437221"><ele>101.0</ele><time>2026-04-06T07:47:04Z</time></trkpt><trkpt lat="44.82971629045394" lon="4.806228590572381"><ele>101.0</ele><time>2026-04-06T07:47:06Z</time></trkpt><trkpt lat="44.82962357518557" lon="4.806156041675778"><ele>101.0</ele><time>2026-04-06T07:47:08Z</time></trkpt><trkpt lat="44.82953089568474" lon="4.8060787371425615"><ele>101.0</ele><time>2026-04-06T07:47:10Z</time></trkpt><trkpt lat="44.82943353702413" lon="4.806004709805407"><ele>101.0</ele><time>2026-04-06T07:47:12Z</time></trkpt><trkpt lat="44.8293370906277" lon="4.805936668205534"><ele>101.0</ele><time>2026-04-06T07:47:14Z</time></trkpt><trkpt lat="44.82923371772015" lon="4.80587771089392"><ele>102.5</ele><time>2026-04-06T07:47:16Z</time></trkpt><trkpt lat="44.82912992998096" lon="4.805812776120827"><ele>104.0</ele><time>2026-04-06T07:47:18Z</time></trkpt><trkpt lat="44.82902554153791" lon="4.805741293775863"><ele>105.5</ele><time>2026-04-06T07:47:20Z</time></trkpt><trkpt lat="44.828921233983976" lon="4.805677178939679"><ele>107.0</ele><time>2026-04-06T07:47:22Z</time></trkpt><trkpt lat="44.82881719391369" lon="4.80562702702165"><ele>107.0</ele><time>2026-04-06T07:47:24Z</time></trkpt><trkpt lat="44.828716855750436" lon="4.805550991546768"><ele>106.99999999999999</ele><time>2026-04-06T07:47:26Z</time></trkpt><trkpt lat="44.828633625581055" lon="4.805484051255789"><ele>106.99999999999999</ele><time>2026-04-06T07:47:28Z</time></trkpt><trkpt lat="44.82854710124105" lon="4.805409633974808"><ele>107.0</ele><time>2026-04-06T07:47:30Z</time></trkpt><trkpt lat="44.82845943769063" lon="4.805343858075915"><ele>107.0</ele><time>2026-04-06T07:47:32Z</time></trkpt><trkpt lat="44.82836806306494" lon="4.8052757274388185"><ele>107.8</ele><time>2026-04-06T07:47:34Z</time></trkpt><trkpt lat="44.82828382157883" lon="4.805185957503561"><ele>108.6</ele><time>2026-04-06T07:47:36Z</time></trkpt><trkpt lat="44.82820357753408" lon="4.805103564900496"><ele>109.39999999999999</ele><time>2026-04-06T07:47:38Z</time></trkpt><trkpt lat="44.828122720817326" lon="4.805018638357953"><ele>110.19999999999999</ele><time>2026-04-06T07:47:40Z</time></trkpt><trkpt lat="44.82803627291156" lon="4.8049582891782086"><ele>111.0</ele><time>2026-04-06T07:47:42Z</time></trkpt><trkpt lat="44.82794014270207" lon="4.804890802668664"><ele>111.0</ele><time>2026-04-06T07:47:44Z</time></trkpt><trkpt lat="44.82785078503805" lon="4.804806391562718"><ele>111.0</ele><time>2026-04-06T07:47:46Z</time></trkpt><trkpt lat="44.82775837794578" lon="4.804730640438824"><ele>111.0</ele><time>2026-04-06T07:47:48Z</time></trkpt><trkpt lat="44.82767749457119" lon="4.804639448449905"><ele>111.0</ele><time>2026-04-06T07:47:50Z</time></trkpt><trkpt lat="44.827597731312906" lon="4.804564220262693"><ele>111.0</ele><time>2026-04-06T07:47:52Z</time></trkpt><trkpt lat="44.82752010047722" lon="4.804491526791441"><ele>110.8</ele><time>2026-04-06T07:47:54Z</time></trkpt><trkpt lat="44.82744130071175" lon="4.804413080255153"><ele>110.6</ele><time>2026-04-06T07:47:56Z</time></trkpt><trkpt lat="44.827362338379075" lon="4.80433016721386"><ele>110.4</ele><time>2026-04-06T07:47:58Z</time></trkpt><trkpt lat="44.8272854330281" lon="4.804244718656667"><ele>110.2</ele><time>2026-04-06T07:48:00Z</time></trkpt><trkpt lat="44.827211705146624" lon="4.804160011487829"><ele>110.0</ele><time>2026-04-06T07:48:02Z</time></trkpt><trkpt lat="44.82715549383852" lon="4.804060001352289"><ele>109.99999999999999</ele><time>2026-04-06T07:48:04Z</time></trkpt><trkpt lat="44.82709806167515" lon="4.803983557371723"><ele>110.0</ele><time>2026-04-06T07:48:06Z</time></trkpt><trkpt lat="44.82705046085597" lon="4.803922069771216"><ele>110.0</ele><time>2026-04-06T07:48:08Z</time></trkpt><trkpt lat="44.8269860693165" lon="4.803842836952433"><ele>110.0</ele><time>2026-04-06T07:48:11Z</time></trkpt><trkpt lat="44.826919570182575" lon="4.80377509035624"><ele>109.99999999999999</ele><time>2026-04-06T07:48:14Z</time></trkpt><trkpt lat="44.826860880307855" lon="4.803724837049725"><ele>110.0</ele><time>2026-04-06T07:48:17Z</time></trkpt><trkpt lat="44.82680770268488" lon="4.803660054365695"><ele>108.99999999999999</ele><time>2026-04-06T07:48:19Z</time></trkpt><trkpt lat="44.82675507384433" lon="4.803584518363212"><ele>108.0</ele><time>2026-04-06T07:48:21Z</time></trkpt><trkpt lat="44.8267003718789" lon="4.80349720450412"><ele>107.0</ele><time>2026-04-06T07:48:23Z</time></trkpt><trkpt lat="44.82664361632523" lon="4.803400701712139"><ele>106.0</ele><time>2026-04-06T07:48:25Z</time></trkpt><trkpt lat="44.82656767978906" lon="4.803304866673526"><ele>104.99999999999999</ele><time>2026-04-06T07:48:27Z</time></trkpt><trkpt lat="44.82650579519936" lon="4.8032224373451005"><ele>104.0</ele><time>2026-04-06T07:48:29Z</time></trkpt><trkpt lat="44.826454480981496" lon="4.803107879889419"><ele>103.99999999999999</ele><time>2026-04-06T07:48:31Z</time></trkpt><trkpt lat="44.82640955714182" lon="4.803018647898757"><ele>104.0</ele><time>2026-04-06T07:48:32.999Z</time></trkpt><trkpt lat="44.826350288936354" lon="4.802914126607558"><ele>104.0</ele><time>2026-04-06T07:48:34.999Z</time></trkpt><trkpt lat="44.8262884837118" lon="4.802856307320221"><ele>104.0</ele><time>2026-04-06T07:48:36.999Z</time></trkpt><trkpt lat="44.82620581312717" lon="4.8028318801202206"><ele>103.99999999999999</ele><time>2026-04-06T07:48:38.999Z</time></trkpt><trkpt lat="44.82614608511476" lon="4.802788938330087"><ele>104.0</ele><time>2026-04-06T07:48:40.999Z</time></trkpt><trkpt lat="44.82605743961099" lon="4.802783869188256"><ele>103.0</ele><time>2026-04-06T07:48:42.999Z</time></trkpt><trkpt lat="44.82596758718014" lon="4.802878827929328"><ele>102.0</ele><time>2026-04-06T07:48:44.999Z</time></trkpt><trkpt lat="44.82588868262391" lon="4.802954820207185"><ele>101.0</ele><time>2026-04-06T07:48:46.999Z</time></trkpt><trkpt lat="44.82579668449518" lon="4.80304888766275"><ele>100.0</ele><time>2026-04-06T07:48:48.999Z</time></trkpt><trkpt lat="44.82570986314691" lon="4.803143229968588"><ele>99.0</ele><time>2026-04-06T07:48:50.999Z</time></trkpt><trkpt lat="44.82566059468014" lon="4.803272341765539"><ele>99.0</ele><time>2026-04-06T07:48:52.999Z</time></trkpt><trkpt lat="44.825621328541295" lon="4.803415214062629"><ele>99.0</ele><time>2026-04-06T07:48:54.999Z</time></trkpt><trkpt lat="44.825577236648634" lon="4.803539687313602"><ele>99.0</ele><time>2026-04-06T07:48:56.999Z</time></trkpt><trkpt lat="44.825537148596126" lon="4.80366972439348"><ele>99.0</ele><time>2026-04-06T07:48:58.999Z</time></trkpt><trkpt lat="44.82549946283922" lon="4.803801142173393"><ele>99.0</ele><time>2026-04-06T07:49:00.999Z</time></trkpt><trkpt lat="44.82546346416518" lon="4.803935189219863"><ele>98.80000000000001</ele><time>2026-04-06T07:49:02.999Z</time></trkpt><trkpt lat="44.825421806105986" lon="4.804069009157492"><ele>98.60000000000001</ele><time>2026-04-06T07:49:04.999Z</time></trkpt><trkpt lat="44.82539544401522" lon="4.804202305554098"><ele>98.4</ele><time>2026-04-06T07:49:06.999Z</time></trkpt><trkpt lat="44.82535016797795" lon="4.804334518284691"><ele>98.2</ele><time>2026-04-06T07:49:08.999Z</time></trkpt><trkpt lat="44.82531505506179" lon="4.804470500861522"><ele>98.0</ele><time>2026-04-06T07:49:10.999Z</time></trkpt><trkpt lat="44.825276501876786" lon="4.804610873263987"><ele>98.0</ele><time>2026-04-06T07:49:12.999Z</time></trkpt><trkpt lat="44.82523921311948" lon="4.8047475427771715"><ele>98.0</ele><time>2026-04-06T07:49:14.999Z</time></trkpt><trkpt lat="44.8252012888156" lon="4.80488043278354"><ele>98.0</ele><time>2026-04-06T07:49:16.999Z</time></trkpt><trkpt lat="44.82516282540183" lon="4.805010481911837"><ele>98.0</ele><time>2026-04-06T07:49:18.999Z</time></trkpt><trkpt lat="44.82511859188417" lon="4.805135217766971"><ele>98.0</ele><time>2026-04-06T07:49:20.999Z</time></trkpt><trkpt lat="44.82506118329282" lon="4.805246785810797"><ele>98.0</ele><time>2026-04-06T07:49:22.999Z</time></trkpt><trkpt lat="44.824991851809514" lon="4.805347242751429"><ele>98.0</ele><time>2026-04-06T07:49:24.999Z</time></trkpt><trkpt lat="44.82492505977456" lon="4.805439762899983"><ele>98.0</ele><time>2026-04-06T07:49:26.999Z</time></trkpt><trkpt lat="44.82485182410837" lon="4.80551801733361"><ele>98.0</ele><time>2026-04-06T07:49:28.999Z</time></trkpt><trkpt lat="44.82478227463482" lon="4.80560330298377"><ele>98.0</ele><time>2026-04-06T07:49:30.999Z</time></trkpt><trkpt lat="44.82471396023815" lon="4.805673642248685"><ele>98.0</ele><time>2026-04-06T07:49:32.999Z</time></trkpt><trkpt lat="44.824652029944964" lon="4.805770392015276"><ele>98.0</ele><time>2026-04-06T07:49:34.999Z</time></trkpt><trkpt lat="44.824589711495925" lon="4.805874165862145"><ele>98.0</ele><time>2026-04-06T07:49:36.999Z</time></trkpt><trkpt lat="44.82453329147182" lon="4.805968857696211"><ele>98.0</ele><time>2026-04-06T07:49:38.999Z</time></trkpt><trkpt lat="44.824483542624215" lon="4.806079466851405"><ele>98.0</ele><time>2026-04-06T07:49:40.999Z</time></trkpt><trkpt lat="44.824445086562335" lon="4.806191868552701"><ele>97.83333333333333</ele><time>2026-04-06T07:49:42.999Z</time></trkpt><trkpt lat="44.824412051933045" lon="4.806311705015174"><ele>97.66666666666666</ele><time>2026-04-06T07:49:44.999Z</time></trkpt><trkpt lat="44.82439120274421" lon="4.80643255999112"><ele>97.5</ele><time>2026-04-06T07:49:46.999Z</time></trkpt><trkpt lat="44.824372910697534" lon="4.806546302342504"><ele>97.33333333333334</ele><time>2026-04-06T07:49:48.999Z</time></trkpt><trkpt lat="44.824347991005595" lon="4.806665628796353"><ele>97.16666666666667</ele><time>2026-04-06T07:49:50.999Z</time></trkpt><trkpt lat="44.824325219398595" lon="4.806788345078549"><ele>97.0</ele><time>2026-04-06T07:49:52.999Z</time></trkpt><trkpt lat="44.824296381890136" lon="4.806908990316892"><ele>96.8</ele><time>2026-04-06T07:49:54.999Z</time></trkpt><trkpt lat="44.82427296709443" lon="4.807030976218687"><ele>96.6</ele><time>2026-04-06T07:49:56.999Z</time></trkpt><trkpt lat="44.824253984335364" lon="4.8071599470764586"><ele>96.39999999999999</ele><time>2026-04-06T07:49:58.999Z</time></trkpt><trkpt lat="44.824230218917506" lon="4.807286158593925"><ele>96.19999999999999</ele><time>2026-04-06T07:50:00.999Z</time></trkpt><trkpt lat="44.82420810951428" lon="4.807411782437217"><ele>96.0</ele><time>2026-04-06T07:50:02.999Z</time></trkpt><trkpt lat="44.8241790585724" lon="4.80755002702319"><ele>96.0</ele><time>2026-04-06T07:50:04.999Z</time></trkpt><trkpt lat="44.824153215302765" lon="4.807705831245818"><ele>96.0</ele><time>2026-04-06T07:50:06.999Z</time></trkpt><trkpt lat="44.82412055108989" lon="4.8078671512598845"><ele>96.0</ele><time>2026-04-06T07:50:08.999Z</time></trkpt><trkpt lat="44.82408488965863" lon="4.808037437173863"><ele>96.0</ele><time>2026-04-06T07:50:10.999Z</time></trkpt><trkpt lat="44.82405493714109" lon="4.808205729409997"><ele>96.0</ele><time>2026-04-06T07:50:12.999Z</time></trkpt><trkpt lat="44.824038745978356" lon="4.808355147887448"><ele>96.0</ele><time>2026-04-06T07:50:14.999Z</time></trkpt><trkpt lat="44.82401299145304" lon="4.808478279687829"><ele>96.0</ele><time>2026-04-06T07:50:16.999Z</time></trkpt><trkpt lat="44.823992329214384" lon="4.808595151006479"><ele>96.0</ele><time>2026-04-06T07:50:18.999Z</time></trkpt><trkpt lat="44.82397764574712" lon="4.808689763551539"><ele>96.0</ele><time>2026-04-06T07:50:20.999Z</time></trkpt><trkpt lat="44.82395216903736" lon="4.808783001078259"><ele>96.0</ele><time>2026-04-06T07:50:22.999Z</time></trkpt><trkpt lat="44.82395514733413" lon="4.808883209075908"><ele>96.16666666666667</ele><time>2026-04-06T07:50:25.999Z</time></trkpt><trkpt lat="44.82402300927527" lon="4.808914435362397"><ele>96.33333333333334</ele><time>2026-04-06T07:50:28.999Z</time></trkpt><trkpt lat="44.82408320781465" lon="4.808944316069356"><ele>96.5</ele><time>2026-04-06T07:50:30.999Z</time></trkpt><trkpt lat="44.8241551992711" lon="4.809014854148444"><ele>96.66666666666667</ele><time>2026-04-06T07:50:33.999Z</time></trkpt><trkpt lat="44.82423535524238" lon="4.809089983154037"><ele>96.83333333333334</ele><time>2026-04-06T07:50:36.999Z</time></trkpt><trkpt lat="44.824295628658824" lon="4.809146926954111"><ele>97.0</ele><time>2026-04-06T07:50:38.999Z</time></trkpt><trkpt lat="44.824352436369935" lon="4.809199033745199"><ele>97.00000000000001</ele><time>2026-04-06T07:50:40.999Z</time></trkpt><trkpt lat="44.82441176093728" lon="4.8092594423196635"><ele>97.0</ele><time>2026-04-06T07:50:42.999Z</time></trkpt><trkpt lat="44.824470328348696" lon="4.809320820354904"><ele>97.0</ele><time>2026-04-06T07:50:44.999Z</time></trkpt><trkpt lat="44.82452761682063" lon="4.809384080218295"><ele>97.0</ele><time>2026-04-06T07:50:46.999Z</time></trkpt><trkpt lat="44.824590695911894" lon="4.809453437051421"><ele>97.00000000000001</ele><time>2026-04-06T07:50:48.999Z</time></trkpt><trkpt lat="44.82465012482221" lon="4.8095190139001245"><ele>97.0</ele><time>2026-04-06T07:50:50.999Z</time></trkpt><trkpt lat="44.82470823020132" lon="4.809587996332747"><ele>97.00000000000001</ele><time>2026-04-06T07:50:52.999Z</time></trkpt><trkpt lat="44.824768861725424" lon="4.809659700514487"><ele>97.0</ele><time>2026-04-06T07:50:54.999Z</time></trkpt><trkpt lat="44.82483258636441" lon="4.8097219492797185"><ele>97.0</ele><time>2026-04-06T07:50:56.999Z</time></trkpt><trkpt lat="44.82488044931733" lon="4.809810435758636"><ele>97.0</ele><time>2026-04-06T07:50:58.999Z</time></trkpt><trkpt lat="44.82493707392592" lon="4.809893011960868"><ele>97.00000000000001</ele><time>2026-04-06T07:51:00.999Z</time></trkpt><trkpt lat="44.82500016394021" lon="4.809959787522498"><ele>97.0</ele><time>2026-04-06T07:51:02.999Z</time></trkpt><trkpt lat="44.82506244562889" lon="4.809997196532691"><ele>97.0</ele><time>2026-04-06T07:51:04.999Z</time></trkpt><trkpt lat="44.825132047814996" lon="4.8100291902132355"><ele>97.0</ele><time>2026-04-06T07:51:06.999Z</time></trkpt><trkpt lat="44.82519838228559" lon="4.810063041762431"><ele>97.0</ele><time>2026-04-06T07:51:08.999Z</time></trkpt><trkpt lat="44.82526781290289" lon="4.8100833055566"><ele>97.0</ele><time>2026-04-06T07:51:10.999Z</time></trkpt><trkpt lat="44.825339947802334" lon="4.810114063295821"><ele>97.0</ele><time>2026-04-06T07:51:12.999Z</time></trkpt><trkpt lat="44.82540951865973" lon="4.810134159905199"><ele>97.0</ele><time>2026-04-06T07:51:14.999Z</time></trkpt><trkpt lat="44.82547617002482" lon="4.810157930486331"><ele>97.0</ele><time>2026-04-06T07:51:16.999Z</time></trkpt><trkpt lat="44.82554433581887" lon="4.810184105044588"><ele>96.85714285714285</ele><time>2026-04-06T07:51:18.999Z</time></trkpt><trkpt lat="44.82563857505841" lon="4.810221140497418"><ele>96.71428571428572</ele><time>2026-04-06T07:51:21.999Z</time></trkpt><trkpt lat="44.825703383101896" lon="4.810229345138345"><ele>96.57142857142857</ele><time>2026-04-06T07:51:23.999Z</time></trkpt><trkpt lat="44.82576738412874" lon="4.810217022404959"><ele>96.42857142857142</ele><time>2026-04-06T07:51:25.999Z</time></trkpt><trkpt lat="44.82582829129636" lon="4.8101917765695665"><ele>96.28571428571428</ele><time>2026-04-06T07:51:27.999Z</time></trkpt><trkpt lat="44.82589481207445" lon="4.81015717361508"><ele>96.14285714285714</ele><time>2026-04-06T07:51:29.999Z</time></trkpt><trkpt lat="44.8259603630001" lon="4.810114709521562"><ele>96.0</ele><time>2026-04-06T07:51:31.999Z</time></trkpt><trkpt lat="44.826016649738754" lon="4.810051686205828"><ele>96.83333333333333</ele><time>2026-04-06T07:51:33.999Z</time></trkpt><trkpt lat="44.82607367630266" lon="4.809992470341011"><ele>97.66666666666666</ele><time>2026-04-06T07:51:35.999Z</time></trkpt><trkpt lat="44.826132814944174" lon="4.809931839603781"><ele>98.5</ele><time>2026-04-06T07:51:37.999Z</time></trkpt><trkpt lat="44.82620149822821" lon="4.809881033932118"><ele>99.33333333333333</ele><time>2026-04-06T07:51:39.999Z</time></trkpt><trkpt lat="44.826275831784464" lon="4.809838024191822"><ele>100.16666666666666</ele><time>2026-04-06T07:51:41.999Z</time></trkpt><trkpt lat="44.826354146362775" lon="4.809810377576096"><ele>101.0</ele><time>2026-04-06T07:51:43.999Z</time></trkpt><trkpt lat="44.82643655327079" lon="4.809797342921822"><ele>100.99999999999999</ele><time>2026-04-06T07:51:45.999Z</time></trkpt><trkpt lat="44.826515711282745" lon="4.809804610441856"><ele>101.0</ele><time>2026-04-06T07:51:47.999Z</time></trkpt><trkpt lat="44.826598000979125" lon="4.8098206444357725"><ele>101.0</ele><time>2026-04-06T07:51:49.999Z</time></trkpt><trkpt lat="44.82667371645306" lon="4.80984995654499"><ele>101.0</ele><time>2026-04-06T07:51:51.999Z</time></trkpt><trkpt lat="44.826750837635814" lon="4.80988264093229"><ele>100.99999999999999</ele><time>2026-04-06T07:51:53.999Z</time></trkpt><trkpt lat="44.82682661508409" lon="4.809921665337318"><ele>101.0</ele><time>2026-04-06T07:51:55.999Z</time></trkpt><trkpt lat="44.82690180088169" lon="4.809952110220543"><ele>100.83333333333333</ele><time>2026-04-06T07:51:57.999Z</time></trkpt><trkpt lat="44.826974792067574" lon="4.809986088637645"><ele>100.66666666666666</ele><time>2026-04-06T07:51:59.999Z</time></trkpt><trkpt lat="44.82704959237066" lon="4.810021856384489"><ele>100.5</ele><time>2026-04-06T07:52:01.999Z</time></trkpt><trkpt lat="44.827131556663815" lon="4.810052067437241"><ele>100.33333333333334</ele><time>2026-04-06T07:52:03.999Z</time></trkpt><trkpt lat="44.82720890814989" lon="4.810087265710153"><ele>100.16666666666667</ele><time>2026-04-06T07:52:05.999Z</time></trkpt><trkpt lat="44.82728008234747" lon="4.810122040014271"><ele>100.0</ele><time>2026-04-06T07:52:07.999Z</time></trkpt><trkpt lat="44.82735456377053" lon="4.810150786491312"><ele>100.33333333333334</ele><time>2026-04-06T07:52:09.999Z</time></trkpt><trkpt lat="44.827434804323886" lon="4.810182494650567"><ele>100.66666666666667</ele><time>2026-04-06T07:52:11.999Z</time></trkpt><trkpt lat="44.827515306542544" lon="4.810213635084917"><ele>101.0</ele><time>2026-04-06T07:52:13.999Z</time></trkpt><trkpt lat="44.82759756835356" lon="4.810242986563667"><ele>101.33333333333334</ele><time>2026-04-06T07:52:15.999Z</time></trkpt><trkpt lat="44.82767565849608" lon="4.8102905966606855"><ele>101.66666666666667</ele><time>2026-04-06T07:52:17.999Z</time></trkpt><trkpt lat="44.82775043362608" lon="4.8103239959922615"><ele>102.0</ele><time>2026-04-06T07:52:19.999Z</time></trkpt><trkpt lat="44.82782516416238" lon="4.810361315709676"><ele>102.0</ele><time>2026-04-06T07:52:21.999Z</time></trkpt><trkpt lat="44.82790623995797" lon="4.8103940339146956"><ele>102.0</ele><time>2026-04-06T07:52:23.999Z</time></trkpt><trkpt lat="44.82798545150552" lon="4.810430913653038"><ele>102.0</ele><time>2026-04-06T07:52:25.999Z</time></trkpt><trkpt lat="44.828070421018104" lon="4.810463838751982"><ele>102.0</ele><time>2026-04-06T07:52:27.999Z</time></trkpt><trkpt lat="44.828147627853" lon="4.8105009694038765"><ele>102.0</ele><time>2026-04-06T07:52:29.999Z</time></trkpt><trkpt lat="44.82823354497099" lon="4.810537788644324"><ele>102.0</ele><time>2026-04-06T07:52:31.999Z</time></trkpt><trkpt lat="44.828312808647084" lon="4.810569945243667"><ele>102.0</ele><time>2026-04-06T07:52:33.999Z</time></trkpt><trkpt lat="44.82839533228809" lon="4.810600652879473"><ele>102.0</ele><time>2026-04-06T07:52:35.999Z</time></trkpt><trkpt lat="44.82847776495336" lon="4.810638059712432"><ele>102.0</ele><time>2026-04-06T07:52:37.999Z</time></trkpt><trkpt lat="44.82856409669066" lon="4.810672469202098"><ele>102.0</ele><time>2026-04-06T07:52:39.999Z</time></trkpt><trkpt lat="44.82864413986196" lon="4.810713012701952"><ele>102.0</ele><time>2026-04-06T07:52:41.999Z</time></trkpt><trkpt lat="44.82871626499358" lon="4.810751335320517"><ele>102.0</ele><time>2026-04-06T07:52:43.999Z</time></trkpt><trkpt lat="44.82879119685447" lon="4.81078614797041"><ele>101.66666666666667</ele><time>2026-04-06T07:52:45.999Z</time></trkpt><trkpt lat="44.82886561178815" lon="4.810824942322569"><ele>101.33333333333334</ele><time>2026-04-06T07:52:47.999Z</time></trkpt><trkpt lat="44.82894044796378" lon="4.810864690691815"><ele>101.0</ele><time>2026-04-06T07:52:49.999Z</time></trkpt><trkpt lat="44.82901769611659" lon="4.8109046955365065"><ele>100.66666666666667</ele><time>2026-04-06T07:52:51.999Z</time></trkpt><trkpt lat="44.8290942216665" lon="4.810945348388192"><ele>100.33333333333334</ele><time>2026-04-06T07:52:53.999Z</time></trkpt><trkpt lat="44.829173373596966" lon="4.8109890745400605"><ele>100.0</ele><time>2026-04-06T07:52:55.999Z</time></trkpt><trkpt lat="44.82924989998645" lon="4.811035878248533"><ele>99.83333333333334</ele><time>2026-04-06T07:52:57.999Z</time></trkpt><trkpt lat="44.829328278958165" lon="4.811079165652014"><ele>99.66666666666667</ele><time>2026-04-06T07:52:59.999Z</time></trkpt><trkpt lat="44.829400640918486" lon="4.811129833467314"><ele>99.5</ele><time>2026-04-06T07:53:01.999Z</time></trkpt><trkpt lat="44.82947689508605" lon="4.811172596204264"><ele>99.33333333333334</ele><time>2026-04-06T07:53:03.999Z</time></trkpt><trkpt lat="44.829560366346286" lon="4.811217509903271"><ele>99.16666666666667</ele><time>2026-04-06T07:53:05.999Z</time></trkpt><trkpt lat="44.829641487822805" lon="4.811264629794453"><ele>99.0</ele><time>2026-04-06T07:53:07.999Z</time></trkpt><trkpt lat="44.829722563761074" lon="4.811325649393961"><ele>99.0</ele><time>2026-04-06T07:53:09.999Z</time></trkpt><trkpt lat="44.82980549608308" lon="4.8113777569769605"><ele>99.0</ele><time>2026-04-06T07:53:11.999Z</time></trkpt><trkpt lat="44.82988213770604" lon="4.811438752225754"><ele>99.0</ele><time>2026-04-06T07:53:13.999Z</time></trkpt><trkpt lat="44.82996435404681" lon="4.811497040749998"><ele>99.0</ele><time>2026-04-06T07:53:15.999Z</time></trkpt><trkpt lat="44.83003905163461" lon="4.811553019929342"><ele>99.0</ele><time>2026-04-06T07:53:17.999Z</time></trkpt><trkpt lat="44.83010614660523" lon="4.811612804335665"><ele>99.0</ele><time>2026-04-06T07:53:19.999Z</time></trkpt><trkpt lat="44.83018039119713" lon="4.811675983496951"><ele>98.83333333333333</ele><time>2026-04-06T07:53:21.999Z</time></trkpt><trkpt lat="44.83025345676575" lon="4.811731111199036"><ele>98.66666666666666</ele><time>2026-04-06T07:53:23.999Z</time></trkpt><trkpt lat="44.8303261019519" lon="4.811795205979262"><ele>98.5</ele><time>2026-04-06T07:53:25.999Z</time></trkpt><trkpt lat="44.83039690633266" lon="4.811863764603231"><ele>98.33333333333333</ele><time>2026-04-06T07:53:27.999Z</time></trkpt><trkpt lat="44.83047181984683" lon="4.811926635315247"><ele>98.16666666666666</ele><time>2026-04-06T07:53:29.999Z</time></trkpt><trkpt lat="44.830543184433544" lon="4.811992535084583"><ele>98.0</ele><time>2026-04-06T07:53:31.999Z</time></trkpt><trkpt lat="44.83061298935748" lon="4.812059651754494"><ele>98.16666666666666</ele><time>2026-04-06T07:53:33.999Z</time></trkpt><trkpt lat="44.830682579545844" lon="4.812131472320439"><ele>98.33333333333333</ele><time>2026-04-06T07:53:35.999Z</time></trkpt><trkpt lat="44.83075385150364" lon="4.81219941165463"><ele>98.5</ele><time>2026-04-06T07:53:37.999Z</time></trkpt><trkpt lat="44.830825446775044" lon="4.812268910700011"><ele>98.66666666666666</ele><time>2026-04-06T07:53:39.999Z</time></trkpt><trkpt lat="44.83088996111859" lon="4.81233943749881"><ele>98.83333333333333</ele><time>2026-04-06T07:53:41.999Z</time></trkpt><trkpt lat="44.830959327920525" lon="4.8124057008091485"><ele>99.0</ele><time>2026-04-06T07:53:43.999Z</time></trkpt><trkpt lat="44.83103263684403" lon="4.812479391502088"><ele>99.0</ele><time>2026-04-06T07:53:45.999Z</time></trkpt><trkpt lat="44.83110046452924" lon="4.81255227007097"><ele>99.0</ele><time>2026-04-06T07:53:47.999Z</time></trkpt><trkpt lat="44.83116999302892" lon="4.812624985740577"><ele>99.0</ele><time>2026-04-06T07:53:49.999Z</time></trkpt><trkpt lat="44.83124328162363" lon="4.812696407294159"><ele>99.0</ele><time>2026-04-06T07:53:51.999Z</time></trkpt><trkpt lat="44.83131207498294" lon="4.812767350580913"><ele>99.0</ele><time>2026-04-06T07:53:53.999Z</time></trkpt><trkpt lat="44.83138774058199" lon="4.812840072909939"><ele>99.0</ele><time>2026-04-06T07:53:55.999Z</time></trkpt><trkpt lat="44.83146447049165" lon="4.81291823245949"><ele>98.4</ele><time>2026-04-06T07:53:57.999Z</time></trkpt><trkpt lat="44.83154227624532" lon="4.812996693382564"><ele>97.80000000000001</ele><time>2026-04-06T07:53:59.999Z</time></trkpt><trkpt lat="44.831616939964256" lon="4.813069973939019"><ele>97.19999999999999</ele><time>2026-04-06T07:54:01.999Z</time></trkpt><trkpt lat="44.83169014897204" lon="4.813143880646325"><ele>96.6</ele><time>2026-04-06T07:54:03.999Z</time></trkpt><trkpt lat="44.83176888521868" lon="4.813222050344675"><ele>96.0</ele><time>2026-04-06T07:54:05.999Z</time></trkpt><trkpt lat="44.8318446480045" lon="4.81329784070326"><ele>96.0</ele><time>2026-04-06T07:54:07.999Z</time></trkpt><trkpt lat="44.831916046016744" lon="4.813372365982685"><ele>96.0</ele><time>2026-04-06T07:54:09.999Z</time></trkpt><trkpt lat="44.83199187465048" lon="4.8134519586620375"><ele>96.0</ele><time>2026-04-06T07:54:11.999Z</time></trkpt><trkpt lat="44.83206704167464" lon="4.81352960272218"><ele>96.0</ele><time>2026-04-06T07:54:13.999Z</time></trkpt><trkpt lat="44.83214324449018" lon="4.813599786343378"><ele>96.0</ele><time>2026-04-06T07:54:15.999Z</time></trkpt><trkpt lat="44.83221733486169" lon="4.8136754743930545"><ele>96.0</ele><time>2026-04-06T07:54:17.999Z</time></trkpt><trkpt lat="44.83229109308668" lon="4.813750774652041"><ele>96.0</ele><time>2026-04-06T07:54:19.999Z</time></trkpt><trkpt lat="44.83236758804362" lon="4.813823775033013"><ele>96.0</ele><time>2026-04-06T07:54:21.999Z</time></trkpt><trkpt lat="44.832437530804896" lon="4.813888715599425"><ele>96.0</ele><time>2026-04-06T07:54:23.999Z</time></trkpt><trkpt lat="44.832514063350494" lon="4.813958924167461"><ele>96.0</ele><time>2026-04-06T07:54:25.999Z</time></trkpt><trkpt lat="44.83259247775116" lon="4.814026492732804"><ele>96.16666666666667</ele><time>2026-04-06T07:54:27.999Z</time></trkpt><trkpt lat="44.83267110549116" lon="4.8140947822394065"><ele>96.33333333333334</ele><time>2026-04-06T07:54:29.999Z</time></trkpt><trkpt lat="44.832747541957986" lon="4.814163421669518"><ele>96.5</ele><time>2026-04-06T07:54:31.999Z</time></trkpt><trkpt lat="44.83282122106875" lon="4.8142265259762596"><ele>96.66666666666667</ele><time>2026-04-06T07:54:33.999Z</time></trkpt><trkpt lat="44.832893584174066" lon="4.814288812378991"><ele>96.83333333333334</ele><time>2026-04-06T07:54:35.999Z</time></trkpt><trkpt lat="44.83297077400178" lon="4.8143481610103995"><ele>97.0</ele><time>2026-04-06T07:54:37.999Z</time></trkpt><trkpt lat="44.83304695237454" lon="4.814410863552502"><ele>97.00000000000001</ele><time>2026-04-06T07:54:39.999Z</time></trkpt><trkpt lat="44.83311961737271" lon="4.814468530654351"><ele>97.0</ele><time>2026-04-06T07:54:41.999Z</time></trkpt><trkpt lat="44.83319621058686" lon="4.814529064742089"><ele>97.0</ele><time>2026-04-06T07:54:43.999Z</time></trkpt><trkpt lat="44.833269980914864" lon="4.814584778847767"><ele>97.0</ele><time>2026-04-06T07:54:45.999Z</time></trkpt><trkpt lat="44.83335352879109" lon="4.814639536241308"><ele>97.00000000000001</ele><time>2026-04-06T07:54:47.999Z</time></trkpt><trkpt lat="44.833432298252205" lon="4.814694215656971"><ele>97.0</ele><time>2026-04-06T07:54:49.999Z</time></trkpt><trkpt lat="44.83350554638761" lon="4.81474713147226"><ele>97.16666666666667</ele><time>2026-04-06T07:54:51.999Z</time></trkpt><trkpt lat="44.83358464343234" lon="4.814795766714078"><ele>97.33333333333334</ele><time>2026-04-06T07:54:53.999Z</time></trkpt><trkpt lat="44.833668211254555" lon="4.8148472092641414"><ele>97.5</ele><time>2026-04-06T07:54:55.999Z</time></trkpt><trkpt lat="44.83375104061031" lon="4.814896768261293"><ele>97.66666666666666</ele><time>2026-04-06T07:54:57.999Z</time></trkpt><trkpt lat="44.833831843800716" lon="4.81494871916086"><ele>97.83333333333333</ele><time>2026-04-06T07:54:59.999Z</time></trkpt><trkpt lat="44.83391057371769" lon="4.815002338557454"><ele>98.0</ele><time>2026-04-06T07:55:01.999Z</time></trkpt><trkpt lat="44.83399192182766" lon="4.815049764124289"><ele>97.99999999999999</ele><time>2026-04-06T07:55:03.999Z</time></trkpt><trkpt lat="44.83407145874711" lon="4.815095655569999"><ele>98.0</ele><time>2026-04-06T07:55:05.999Z</time></trkpt><trkpt lat="44.834153759524796" lon="4.815145678758657"><ele>98.0</ele><time>2026-04-06T07:55:07.999Z</time></trkpt><trkpt lat="44.83423824311556" lon="4.8151880461108325"><ele>98.0</ele><time>2026-04-06T07:55:09.999Z</time></trkpt><trkpt lat="44.834318472708986" lon="4.815227949314088"><ele>97.99999999999999</ele><time>2026-04-06T07:55:11.999Z</time></trkpt><trkpt lat="44.834404403037375" lon="4.815272917811487"><ele>98.0</ele><time>2026-04-06T07:55:13.999Z</time></trkpt><trkpt lat="44.83448573381092" lon="4.815318490884805"><ele>97.49999999999999</ele><time>2026-04-06T07:55:15.999Z</time></trkpt><trkpt lat="44.83456846029177" lon="4.815355810953178"><ele>97.0</ele><time>2026-04-06T07:55:17.999Z</time></trkpt><trkpt lat="44.834649360878274" lon="4.815396063324327"><ele>96.5</ele><time>2026-04-06T07:55:19.999Z</time></trkpt><trkpt lat="44.8347278535122" lon="4.815433367768417"><ele>96.0</ele><time>2026-04-06T07:55:21.999Z</time></trkpt><trkpt lat="44.83481083127694" lon="4.815466283927247"><ele>95.5</ele><time>2026-04-06T07:55:23.999Z</time></trkpt><trkpt lat="44.83489175025118" lon="4.815496738817551"><ele>95.0</ele><time>2026-04-06T07:55:25.999Z</time></trkpt><trkpt lat="44.83497039631563" lon="4.815529949074797"><ele>95.0</ele><time>2026-04-06T07:55:27.999Z</time></trkpt><trkpt lat="44.835054588575865" lon="4.815564382088885"><ele>95.0</ele><time>2026-04-06T07:55:29.999Z</time></trkpt><trkpt lat="44.835132482634684" lon="4.815597009966516"><ele>95.0</ele><time>2026-04-06T07:55:31.999Z</time></trkpt><trkpt lat="44.83521472448541" lon="4.815634273209926"><ele>95.0</ele><time>2026-04-06T07:55:33.999Z</time></trkpt><trkpt lat="44.83529554679457" lon="4.815668004576423"><ele>95.0</ele><time>2026-04-06T07:55:35.999Z</time></trkpt><trkpt lat="44.83537632032508" lon="4.8157038851647185"><ele>95.0</ele><time>2026-04-06T07:55:37.999Z</time></trkpt><trkpt lat="44.83545706091852" lon="4.815739763317224"><ele>95.0</ele><time>2026-04-06T07:55:39.999Z</time></trkpt><trkpt lat="44.835540389318965" lon="4.815775017365985"><ele>95.0</ele><time>2026-04-06T07:55:41.999Z</time></trkpt><trkpt lat="44.83562770774767" lon="4.81581149743444"><ele>95.0</ele><time>2026-04-06T07:55:43.999Z</time></trkpt><trkpt lat="44.835713269647755" lon="4.815845427906272"><ele>95.0</ele><time>2026-04-06T07:55:45.999Z</time></trkpt><trkpt lat="44.83579557897841" lon="4.815879760536642"><ele>95.0</ele><time>2026-04-06T07:55:47.999Z</time></trkpt><trkpt lat="44.835880013952426" lon="4.815913921588664"><ele>95.0</ele><time>2026-04-06T07:55:49.999Z</time></trkpt><trkpt lat="44.83596161744829" lon="4.815950265559383"><ele>95.0</ele><time>2026-04-06T07:55:51.999Z</time></trkpt><trkpt lat="44.8360477538218" lon="4.815989561964061"><ele>95.0</ele><time>2026-04-06T07:55:53.999Z</time></trkpt><trkpt lat="44.83613460314654" lon="4.816015579468372"><ele>95.0</ele><time>2026-04-06T07:55:55.999Z</time></trkpt><trkpt lat="44.83621482642864" lon="4.816042743124011"><ele>95.0</ele><time>2026-04-06T07:55:57.999Z</time></trkpt><trkpt lat="44.83630089015569" lon="4.816075727342748"><ele>95.0</ele><time>2026-04-06T07:55:59.999Z</time></trkpt><trkpt lat="44.83638298168033" lon="4.816106791854669"><ele>95.0</ele><time>2026-04-06T07:56:01.999Z</time></trkpt><trkpt lat="44.836462724622166" lon="4.816145386681532"><ele>95.0</ele><time>2026-04-06T07:56:03.999Z</time></trkpt><trkpt lat="44.836543007251706" lon="4.816175191062183"><ele>95.0</ele><time>2026-04-06T07:56:05.999Z</time></trkpt><trkpt lat="44.83662066549144" lon="4.816205409679142"><ele>95.0</ele><time>2026-04-06T07:56:07.999Z</time></trkpt><trkpt lat="44.83669690168349" lon="4.81623624077872"><ele>95.0</ele><time>2026-04-06T07:56:09.999Z</time></trkpt><trkpt lat="44.836781553017275" lon="4.816271173908155"><ele>95.0</ele><time>2026-04-06T07:56:11.999Z</time></trkpt><trkpt lat="44.83686309053028" lon="4.816306904238073"><ele>95.0</ele><time>2026-04-06T07:56:13.999Z</time></trkpt><trkpt lat="44.83694227263415" lon="4.816341175940655"><ele>95.66666666666667</ele><time>2026-04-06T07:56:15.999Z</time></trkpt><trkpt lat="44.837024836848016" lon="4.816377861548752"><ele>96.33333333333334</ele><time>2026-04-06T07:56:17.999Z</time></trkpt><trkpt lat="44.837108753333446" lon="4.816401199492699"><ele>97.0</ele><time>2026-04-06T07:56:19.999Z</time></trkpt><trkpt lat="44.837190908140826" lon="4.816433546467073"><ele>97.66666666666667</ele><time>2026-04-06T07:56:21.999Z</time></trkpt><trkpt lat="44.83727481241552" lon="4.816470338025468"><ele>98.33333333333333</ele><time>2026-04-06T07:56:23.999Z</time></trkpt><trkpt lat="44.837353478915006" lon="4.816511123881589"><ele>99.0</ele><time>2026-04-06T07:56:25.999Z</time></trkpt><trkpt lat="44.83743570223797" lon="4.816539367662499"><ele>99.0</ele><time>2026-04-06T07:56:27.999Z</time></trkpt><trkpt lat="44.83751406431267" lon="4.816571587913769"><ele>99.0</ele><time>2026-04-06T07:56:29.999Z</time></trkpt><trkpt lat="44.83758974399582" lon="4.816606560656432"><ele>99.0</ele><time>2026-04-06T07:56:31.999Z</time></trkpt><trkpt lat="44.837666561628176" lon="4.816637747291947"><ele>99.0</ele><time>2026-04-06T07:56:33.999Z</time></trkpt><trkpt lat="44.83774922223752" lon="4.816680889233226"><ele>99.0</ele><time>2026-04-06T07:56:35.999Z</time></trkpt><trkpt lat="44.837828913719946" lon="4.816716862996571"><ele>99.0</ele><time>2026-04-06T07:56:37.999Z</time></trkpt><trkpt lat="44.83791325653724" lon="4.816761182978343"><ele>98.5</ele><time>2026-04-06T07:56:39.999Z</time></trkpt><trkpt lat="44.83799535313669" lon="4.816796161051635"><ele>98.0</ele><time>2026-04-06T07:56:41.999Z</time></trkpt><trkpt lat="44.83807493307459" lon="4.816835523187109"><ele>97.5</ele><time>2026-04-06T07:56:43.999Z</time></trkpt><trkpt lat="44.838154527357595" lon="4.8168783527118615"><ele>97.0</ele><time>2026-04-06T07:56:45.998Z</time></trkpt><trkpt lat="44.8382379975129" lon="4.816921515777957"><ele>96.5</ele><time>2026-04-06T07:56:47.998Z</time></trkpt><trkpt lat="44.838321276202144" lon="4.816963929898572"><ele>96.0</ele><time>2026-04-06T07:56:49.998Z</time></trkpt><trkpt lat="44.838405392263915" lon="4.817006597788235"><ele>97.0</ele><time>2026-04-06T07:56:51.998Z</time></trkpt><trkpt lat="44.838489876624884" lon="4.817053289895545"><ele>98.0</ele><time>2026-04-06T07:56:53.998Z</time></trkpt><trkpt lat="44.838569564060364" lon="4.817099030998113"><ele>99.0</ele><time>2026-04-06T07:56:55.998Z</time></trkpt><trkpt lat="44.838650121204616" lon="4.817148814545867"><ele>100.0</ele><time>2026-04-06T07:56:57.998Z</time></trkpt><trkpt lat="44.838732582121104" lon="4.8171990020785165"><ele>101.0</ele><time>2026-04-06T07:56:59.998Z</time></trkpt><trkpt lat="44.83880983334071" lon="4.817251594493741"><ele>102.0</ele><time>2026-04-06T07:57:01.998Z</time></trkpt><trkpt lat="44.83888841193083" lon="4.817294399484151"><ele>102.0</ele><time>2026-04-06T07:57:03.998Z</time></trkpt><trkpt lat="44.83896113071528" lon="4.8173486299420585"><ele>102.0</ele><time>2026-04-06T07:57:05.998Z</time></trkpt><trkpt lat="44.839040660824175" lon="4.8173970856705"><ele>102.0</ele><time>2026-04-06T07:57:07.998Z</time></trkpt><trkpt lat="44.839118862717406" lon="4.817449876614295"><ele>102.0</ele><time>2026-04-06T07:57:09.998Z</time></trkpt><trkpt lat="44.839191677310154" lon="4.817505511051113"><ele>102.0</ele><time>2026-04-06T07:57:11.998Z</time></trkpt><trkpt lat="44.83926897915094" lon="4.817557878174427"><ele>102.0</ele><time>2026-04-06T07:57:13.998Z</time></trkpt><trkpt lat="44.83934755019816" lon="4.817615077337158"><ele>101.5</ele><time>2026-04-06T07:57:15.998Z</time></trkpt><trkpt lat="44.83942785885579" lon="4.817674086645568"><ele>101.0</ele><time>2026-04-06T07:57:17.998Z</time></trkpt><trkpt lat="44.839503227090745" lon="4.817734161274844"><ele>100.5</ele><time>2026-04-06T07:57:19.998Z</time></trkpt><trkpt lat="44.83958191916952" lon="4.817792725597238"><ele>100.0</ele><time>2026-04-06T07:57:21.998Z</time></trkpt><trkpt lat="44.839655991996004" lon="4.8178521461595185"><ele>99.5</ele><time>2026-04-06T07:57:23.998Z</time></trkpt><trkpt lat="44.839736311144684" lon="4.817914390809752"><ele>99.0</ele><time>2026-04-06T07:57:25.998Z</time></trkpt><trkpt lat="44.83981497681391" lon="4.817975293632863"><ele>99.0</ele><time>2026-04-06T07:57:27.998Z</time></trkpt><trkpt lat="44.8398860998272" lon="4.818040209853613"><ele>99.0</ele><time>2026-04-06T07:57:29.998Z</time></trkpt><trkpt lat="44.83996268132084" lon="4.818098021384673"><ele>99.0</ele><time>2026-04-06T07:57:31.998Z</time></trkpt><trkpt lat="44.840038431504446" lon="4.818154097938464"><ele>99.0</ele><time>2026-04-06T07:57:33.998Z</time></trkpt><trkpt lat="44.84011766104514" lon="4.818209078923908"><ele>99.0</ele><time>2026-04-06T07:57:35.998Z</time></trkpt><trkpt lat="44.840199389974934" lon="4.818254625752223"><ele>99.0</ele><time>2026-04-06T07:57:37.998Z</time></trkpt><trkpt lat="44.84027965582127" lon="4.818296047859106"><ele>99.66666666666667</ele><time>2026-04-06T07:57:39.998Z</time></trkpt><trkpt lat="44.8403597450406" lon="4.818334855338222"><ele>100.33333333333334</ele><time>2026-04-06T07:57:41.998Z</time></trkpt><trkpt lat="44.84043750783928" lon="4.818360388871005"><ele>101.0</ele><time>2026-04-06T07:57:43.998Z</time></trkpt><trkpt lat="44.84051853519555" lon="4.818387370615412"><ele>101.66666666666667</ele><time>2026-04-06T07:57:45.998Z</time></trkpt><trkpt lat="44.840598708187116" lon="4.818419806553376"><ele>102.33333333333334</ele><time>2026-04-06T07:57:47.998Z</time></trkpt><trkpt lat="44.84067179926986" lon="4.818458459407709"><ele>103.0</ele><time>2026-04-06T07:57:49.998Z</time></trkpt><trkpt lat="44.8407549644297" lon="4.818492812436222"><ele>103.0</ele><time>2026-04-06T07:57:51.998Z</time></trkpt><trkpt lat="44.84082622290579" lon="4.818540089460072"><ele>103.0</ele><time>2026-04-06T07:57:53.998Z</time></trkpt><trkpt lat="44.840911602845885" lon="4.81860262457346"><ele>103.0</ele><time>2026-04-06T07:57:55.998Z</time></trkpt><trkpt lat="44.84099349967577" lon="4.818668016118102"><ele>103.0</ele><time>2026-04-06T07:57:57.998Z</time></trkpt><trkpt lat="44.84107032181908" lon="4.818725502034163"><ele>103.0</ele><time>2026-04-06T07:57:59.998Z</time></trkpt><trkpt lat="44.841157811696604" lon="4.818792479168533"><ele>103.33333333333334</ele><time>2026-04-06T07:58:01.998Z</time></trkpt><trkpt lat="44.8412375979518" lon="4.81885021266965"><ele>103.66666666666667</ele><time>2026-04-06T07:58:03.998Z</time></trkpt><trkpt lat="44.84131748984648" lon="4.818908508644152"><ele>104.0</ele><time>2026-04-06T07:58:05.998Z</time></trkpt><trkpt lat="44.841394536868194" lon="4.818968015615868"><ele>104.33333333333334</ele><time>2026-04-06T07:58:07.998Z</time></trkpt><trkpt lat="44.84147834084917" lon="4.819021590877431"><ele>104.66666666666667</ele><time>2026-04-06T07:58:09.998Z</time></trkpt><trkpt lat="44.84155360292505" lon="4.8190853094230786"><ele>105.0</ele><time>2026-04-06T07:58:11.998Z</time></trkpt><trkpt lat="44.84163254997703" lon="4.819143690563068"><ele>105.0</ele><time>2026-04-06T07:58:13.998Z</time></trkpt><trkpt lat="44.84170971875504" lon="4.819201910730015"><ele>105.0</ele><time>2026-04-06T07:58:15.998Z</time></trkpt><trkpt lat="44.84179097755952" lon="4.819264194406291"><ele>105.0</ele><time>2026-04-06T07:58:17.998Z</time></trkpt><trkpt lat="44.841871018188975" lon="4.819318967344736"><ele>105.0</ele><time>2026-04-06T07:58:19.998Z</time></trkpt><trkpt lat="44.841954150266965" lon="4.819380390464877"><ele>105.0</ele><time>2026-04-06T07:58:21.998Z</time></trkpt><trkpt lat="44.84204711803796" lon="4.819447144374948"><ele>104.6</ele><time>2026-04-06T07:58:23.998Z</time></trkpt><trkpt lat="44.84213444719547" lon="4.819512877526457"><ele>104.2</ele><time>2026-04-06T07:58:25.998Z</time></trkpt><trkpt lat="44.84221774339553" lon="4.819577906594768"><ele>103.80000000000001</ele><time>2026-04-06T07:58:27.998Z</time></trkpt><trkpt lat="44.84229085650904" lon="4.819631655065988"><ele>103.4</ele><time>2026-04-06T07:58:29.998Z</time></trkpt><trkpt lat="44.842355443110115" lon="4.819708250979836"><ele>103.0</ele><time>2026-04-06T07:58:31.998Z</time></trkpt><trkpt lat="44.842443361278995" lon="4.819727879504183"><ele>103.00000000000001</ele><time>2026-04-06T07:58:33.998Z</time></trkpt><trkpt lat="44.84251010119678" lon="4.819744098276499"><ele>103.0</ele><time>2026-04-06T07:58:35.998Z</time></trkpt><trkpt lat="44.84259990319152" lon="4.819811822051808"><ele>103.0</ele><time>2026-04-06T07:58:38.998Z</time></trkpt><trkpt lat="44.842663998088284" lon="4.8198611829276095"><ele>103.0</ele><time>2026-04-06T07:58:40.998Z</time></trkpt><trkpt lat="44.842735227057446" lon="4.819914994182356"><ele>103.00000000000001</ele><time>2026-04-06T07:58:42.998Z</time></trkpt><trkpt lat="44.84280668553458" lon="4.819968509347277"><ele>103.0</ele><time>2026-04-06T07:58:44.998Z</time></trkpt><trkpt lat="44.84287763115466" lon="4.820026206412495"><ele>103.2</ele><time>2026-04-06T07:58:46.998Z</time></trkpt><trkpt lat="44.84294950255908" lon="4.820087339400762"><ele>103.4</ele><time>2026-04-06T07:58:48.998Z</time></trkpt><trkpt lat="44.84302444063611" lon="4.820152400979109"><ele>103.60000000000001</ele><time>2026-04-06T07:58:50.998Z</time></trkpt><trkpt lat="44.84310124073132" lon="4.820231005780939"><ele>103.80000000000001</ele><time>2026-04-06T07:58:52.998Z</time></trkpt><trkpt lat="44.843188574558354" lon="4.820308929362514"><ele>104.0</ele><time>2026-04-06T07:58:54.998Z</time></trkpt><trkpt lat="44.843272750616485" lon="4.820388310832288"><ele>104.2</ele><time>2026-04-06T07:58:56.998Z</time></trkpt><trkpt lat="44.84336605883419" lon="4.820464382317445"><ele>104.4</ele><time>2026-04-06T07:58:58.998Z</time></trkpt><trkpt lat="44.84345764843051" lon="4.820534077771284"><ele>104.6</ele><time>2026-04-06T07:59:00.998Z</time></trkpt><trkpt lat="44.843554053724276" lon="4.820611834441755"><ele>104.8</ele><time>2026-04-06T07:59:02.998Z</time></trkpt><trkpt lat="44.84365181568873" lon="4.820697173029464"><ele>105.0</ele><time>2026-04-06T07:59:04.998Z</time></trkpt><trkpt lat="44.843754822424245" lon="4.820759887880246"><ele>105.0</ele><time>2026-04-06T07:59:06.998Z</time></trkpt><trkpt lat="44.843860228589016" lon="4.820826449033335"><ele>105.0</ele><time>2026-04-06T07:59:08.998Z</time></trkpt><trkpt lat="44.84395959845802" lon="4.820901539350493"><ele>105.0</ele><time>2026-04-06T07:59:10.998Z</time></trkpt><trkpt lat="44.84405804612614" lon="4.820976103847791"><ele>105.0</ele><time>2026-04-06T07:59:12.998Z</time></trkpt><trkpt lat="44.84415265235956" lon="4.821034616047505"><ele>105.0</ele><time>2026-04-06T07:59:14.998Z</time></trkpt><trkpt lat="44.8442510868036" lon="4.821103369913172"><ele>105.2</ele><time>2026-04-06T07:59:16.998Z</time></trkpt><trkpt lat="44.844354724564624" lon="4.821177902764666"><ele>105.4</ele><time>2026-04-06T07:59:18.998Z</time></trkpt><trkpt lat="44.84444122938173" lon="4.82128321481957"><ele>105.6</ele><time>2026-04-06T07:59:20.998Z</time></trkpt><trkpt lat="44.84448331542184" lon="4.821450566943568"><ele>105.8</ele><time>2026-04-06T07:59:22.998Z</time></trkpt><trkpt lat="44.844471842837386" lon="4.8215501645197545"><ele>106.0</ele><time>2026-04-06T07:59:23.998Z</time></trkpt><trkpt lat="44.84444150946517" lon="4.8216501923776836"><ele>106.00000000000001</ele><time>2026-04-06T07:59:24.998Z</time></trkpt><trkpt lat="44.84439230660218" lon="4.821741248784175"><ele>106.0</ele><time>2026-04-06T07:59:25.998Z</time></trkpt><trkpt lat="44.844327563653835" lon="4.8218165491256775"><ele>106.0</ele><time>2026-04-06T07:59:26.998Z</time></trkpt><trkpt lat="44.84425551440798" lon="4.821889096478903"><ele>106.0</ele><time>2026-04-06T07:59:27.998Z</time></trkpt><trkpt lat="44.844192152146924" lon="4.821971201981702"><ele>106.00000000000001</ele><time>2026-04-06T07:59:28.998Z</time></trkpt><trkpt lat="44.844135452312976" lon="4.822038961906963"><ele>106.0</ele><time>2026-04-06T07:59:29.998Z</time></trkpt><trkpt lat="44.84412939691171" lon="4.82221271359006"><ele>105.42857142857143</ele><time>2026-04-06T07:59:31.998Z</time></trkpt><trkpt lat="44.844162358239444" lon="4.822309803765828"><ele>104.85714285714285</ele><time>2026-04-06T07:59:32.998Z</time></trkpt><trkpt lat="44.84421113726685" lon="4.822388315993027"><ele>104.28571428571428</ele><time>2026-04-06T07:59:33.998Z</time></trkpt><trkpt lat="44.84426637150019" lon="4.822444057266486"><ele>103.71428571428572</ele><time>2026-04-06T07:59:34.998Z</time></trkpt><trkpt lat="44.84432385019547" lon="4.822484299435867"><ele>103.14285714285714</ele><time>2026-04-06T07:59:35.998Z</time></trkpt><trkpt lat="44.84438151644518" lon="4.822531194466883"><ele>102.57142857142857</ele><time>2026-04-06T07:59:36.998Z</time></trkpt><trkpt lat="44.84443129299043" lon="4.822588183228066"><ele>102.0</ele><time>2026-04-06T07:59:37.998Z</time></trkpt><trkpt lat="44.84447837727543" lon="4.822661910068479"><ele>101.0</ele><time>2026-04-06T07:59:38.998Z</time></trkpt><trkpt lat="44.8445757391695" lon="4.8227971222238075"><ele>100.0</ele><time>2026-04-06T07:59:40.998Z</time></trkpt><trkpt lat="44.84465672794625" lon="4.822915492492425"><ele>99.0</ele><time>2026-04-06T07:59:42.998Z</time></trkpt><trkpt lat="44.84472624949118" lon="4.823038041913566"><ele>98.0</ele><time>2026-04-06T07:59:44.998Z</time></trkpt><trkpt lat="44.844791606290144" lon="4.8231483536688025"><ele>98.0</ele><time>2026-04-06T07:59:46.998Z</time></trkpt><trkpt lat="44.844851247789926" lon="4.823250850782963"><ele>98.0</ele><time>2026-04-06T07:59:48.998Z</time></trkpt><trkpt lat="44.84491430772529" lon="4.823326649830799"><ele>98.0</ele><time>2026-04-06T07:59:50.998Z</time></trkpt><trkpt lat="44.84497676468517" lon="4.8234204140767165"><ele>98.0</ele><time>2026-04-06T07:59:52.998Z</time></trkpt><trkpt lat="44.84504112822953" lon="4.823511546530358"><ele>98.0</ele><time>2026-04-06T07:59:54.998Z</time></trkpt><trkpt lat="44.84510798876798" lon="4.823597662068302"><ele>98.0</ele><time>2026-04-06T07:59:56.998Z</time></trkpt><trkpt lat="44.8451833964196" lon="4.823683348018018"><ele>98.0</ele><time>2026-04-06T07:59:58.998Z</time></trkpt><trkpt lat="44.84524682048414" lon="4.823781468389748"><ele>98.0</ele><time>2026-04-06T08:00:00.998Z</time></trkpt><trkpt lat="44.84531590618811" lon="4.8238836992898"><ele>98.0</ele><time>2026-04-06T08:00:02.998Z</time></trkpt><trkpt lat="44.845383980981616" lon="4.8239704376379935"><ele>98.0</ele><time>2026-04-06T08:00:04.998Z</time></trkpt><trkpt lat="44.84544044891281" lon="4.824052977697878"><ele>97.99999999999999</ele><time>2026-04-06T08:00:06.998Z</time></trkpt><trkpt lat="44.84549911056001" lon="4.82412940590209"><ele>98.0</ele><time>2026-04-06T08:00:08.998Z</time></trkpt><trkpt lat="44.845543287378135" lon="4.824214228533145"><ele>98.0</ele><time>2026-04-06T08:00:10.998Z</time></trkpt><trkpt lat="44.845585659103406" lon="4.824283023061257"><ele>98.0</ele><time>2026-04-06T08:00:12.998Z</time></trkpt><trkpt lat="44.845630460913696" lon="4.82436156992158"><ele>97.99999999999999</ele><time>2026-04-06T08:00:14.998Z</time></trkpt><trkpt lat="44.84568861639964" lon="4.824429784812323"><ele>98.0</ele><time>2026-04-06T08:00:16.998Z</time></trkpt><trkpt lat="44.84574597828171" lon="4.824520582816766"><ele>97.99999999999999</ele><time>2026-04-06T08:00:18.998Z</time></trkpt><trkpt lat="44.845813922524215" lon="4.82459911738077"><ele>98.0</ele><time>2026-04-06T08:00:20.998Z</time></trkpt><trkpt lat="44.84587295168647" lon="4.824706579104812"><ele>98.0</ele><time>2026-04-06T08:00:22.998Z</time></trkpt><trkpt lat="44.84594189051055" lon="4.824781621818027"><ele>98.0</ele><time>2026-04-06T08:00:24.998Z</time></trkpt><trkpt lat="44.84598705575454" lon="4.824879026825643"><ele>97.99999999999999</ele><time>2026-04-06T08:00:26.998Z</time></trkpt><trkpt lat="44.84604469786107" lon="4.824979203117466"><ele>98.0</ele><time>2026-04-06T08:00:28.998Z</time></trkpt><trkpt lat="44.84611106321371" lon="4.825079058508754"><ele>97.60000000000001</ele><time>2026-04-06T08:00:30.998Z</time></trkpt><trkpt lat="44.84617792311053" lon="4.8251775149935225"><ele>97.2</ele><time>2026-04-06T08:00:32.998Z</time></trkpt><trkpt lat="44.846233064568295" lon="4.825288216180096"><ele>96.8</ele><time>2026-04-06T08:00:34.998Z</time></trkpt><trkpt lat="44.84630250200489" lon="4.825398791759423"><ele>96.4</ele><time>2026-04-06T08:00:36.998Z</time></trkpt><trkpt lat="44.84636683743953" lon="4.825506485884052"><ele>96.0</ele><time>2026-04-06T08:00:38.998Z</time></trkpt><trkpt lat="44.8464358615464" lon="4.82561726815427"><ele>96.0</ele><time>2026-04-06T08:00:40.998Z</time></trkpt><trkpt lat="44.846498722297106" lon="4.825726322627405"><ele>96.0</ele><time>2026-04-06T08:00:42.998Z</time></trkpt><trkpt lat="44.84656632400931" lon="4.825836736299931"><ele>96.0</ele><time>2026-04-06T08:00:44.998Z</time></trkpt><trkpt lat="44.846633983180325" lon="4.8259400138693325"><ele>96.0</ele><time>2026-04-06T08:00:46.998Z</time></trkpt><trkpt lat="44.846699091637774" lon="4.826039559305939"><ele>96.0</ele><time>2026-04-06T08:00:48.998Z</time></trkpt><trkpt lat="44.846759529657206" lon="4.826144638075291"><ele>96.19999999999999</ele><time>2026-04-06T08:00:50.998Z</time></trkpt><trkpt lat="44.84682049117713" lon="4.826247487200538"><ele>96.39999999999999</ele><time>2026-04-06T08:00:52.998Z</time></trkpt><trkpt lat="44.846878869331334" lon="4.826347521106618"><ele>96.6</ele><time>2026-04-06T08:00:54.998Z</time></trkpt><trkpt lat="44.84694201109466" lon="4.826441321194758"><ele>96.8</ele><time>2026-04-06T08:00:56.998Z</time></trkpt><trkpt lat="44.84700635535051" lon="4.826544071660724"><ele>97.0</ele><time>2026-04-06T08:00:58.998Z</time></trkpt><trkpt lat="44.84707083129214" lon="4.826646063378396"><ele>97.0</ele><time>2026-04-06T08:01:00.998Z</time></trkpt><trkpt lat="44.84713474803602" lon="4.826745806995354"><ele>97.0</ele><time>2026-04-06T08:01:02.998Z</time></trkpt><trkpt lat="44.84719633520004" lon="4.826848996461622"><ele>97.0</ele><time>2026-04-06T08:01:04.998Z</time></trkpt><trkpt lat="44.84726054263925" lon="4.826946585982208"><ele>97.0</ele><time>2026-04-06T08:01:06.998Z</time></trkpt><trkpt lat="44.84732127581926" lon="4.827045254511792"><ele>97.0</ele><time>2026-04-06T08:01:08.998Z</time></trkpt><trkpt lat="44.847387227376885" lon="4.827139694694188"><ele>97.0</ele><time>2026-04-06T08:01:10.998Z</time></trkpt><trkpt lat="44.847447506211104" lon="4.8272468633084324"><ele>97.0</ele><time>2026-04-06T08:01:12.998Z</time></trkpt><trkpt lat="44.847510085509604" lon="4.827358895765848"><ele>97.0</ele><time>2026-04-06T08:01:14.998Z</time></trkpt><trkpt lat="44.84757304085097" lon="4.827463058491807"><ele>97.0</ele><time>2026-04-06T08:01:16.998Z</time></trkpt><trkpt lat="44.84763409397067" lon="4.827557404185318"><ele>97.0</ele><time>2026-04-06T08:01:18.998Z</time></trkpt><trkpt lat="44.84770026899762" lon="4.827662647034847"><ele>97.19999999999999</ele><time>2026-04-06T08:01:20.998Z</time></trkpt><trkpt lat="44.84776172703816" lon="4.827762881345334"><ele>97.4</ele><time>2026-04-06T08:01:22.998Z</time></trkpt><trkpt lat="44.84782007407286" lon="4.827863703974649"><ele>97.6</ele><time>2026-04-06T08:01:24.998Z</time></trkpt><trkpt lat="44.84787668176936" lon="4.82796338868592"><ele>97.80000000000001</ele><time>2026-04-06T08:01:26.998Z</time></trkpt><trkpt lat="44.847935819665665" lon="4.828054647144313"><ele>98.0</ele><time>2026-04-06T08:01:28.998Z</time></trkpt><trkpt lat="44.84800265967927" lon="4.828161338625117"><ele>98.0</ele><time>2026-04-06T08:01:30.998Z</time></trkpt><trkpt lat="44.8480660075021" lon="4.828255120176944"><ele>98.0</ele><time>2026-04-06T08:01:32.998Z</time></trkpt><trkpt lat="44.84814085223282" lon="4.828344371004532"><ele>98.0</ele><time>2026-04-06T08:01:34.998Z</time></trkpt><trkpt lat="44.84821860504944" lon="4.82844210581328"><ele>98.0</ele><time>2026-04-06T08:01:36.998Z</time></trkpt><trkpt lat="44.84827597016691" lon="4.828563227096571"><ele>98.0</ele><time>2026-04-06T08:01:38.998Z</time></trkpt><trkpt lat="44.84834821333277" lon="4.828671712656849"><ele>98.2</ele><time>2026-04-06T08:01:40.998Z</time></trkpt><trkpt lat="44.8484081869451" lon="4.8287873603951"><ele>98.4</ele><time>2026-04-06T08:01:42.998Z</time></trkpt><trkpt lat="44.84848130600853" lon="4.828890461600587"><ele>98.60000000000001</ele><time>2026-04-06T08:01:44.998Z</time></trkpt><trkpt lat="44.848542471542146" lon="4.829010858106676"><ele>98.80000000000001</ele><time>2026-04-06T08:01:46.998Z</time></trkpt><trkpt lat="44.848604358304485" lon="4.829112728950896"><ele>99.0</ele><time>2026-04-06T08:01:48.998Z</time></trkpt><trkpt lat="44.84866496166477" lon="4.829221968395413"><ele>99.0</ele><time>2026-04-06T08:01:50.998Z</time></trkpt><trkpt lat="44.848726506390896" lon="4.829327850711655"><ele>99.0</ele><time>2026-04-06T08:01:52.998Z</time></trkpt><trkpt lat="44.84879413821385" lon="4.829436151291243"><ele>99.0</ele><time>2026-04-06T08:01:54.998Z</time></trkpt><trkpt lat="44.84885139806579" lon="4.829531078430942"><ele>99.0</ele><time>2026-04-06T08:01:56.998Z</time></trkpt><trkpt lat="44.84890450664341" lon="4.829614900739036"><ele>99.0</ele><time>2026-04-06T08:01:58.998Z</time></trkpt><trkpt lat="44.84895081282075" lon="4.829718316195608"><ele>99.0</ele><time>2026-04-06T08:02:00.998Z</time></trkpt><trkpt lat="44.84902522550189" lon="4.829812505206479"><ele>99.0</ele><time>2026-04-06T08:02:02.998Z</time></trkpt><trkpt lat="44.84908952052726" lon="4.829920514806333"><ele>99.0</ele><time>2026-04-06T08:02:04.998Z</time></trkpt><trkpt lat="44.84913204118147" lon="4.830010392683113"><ele>99.0</ele><time>2026-04-06T08:02:06.998Z</time></trkpt><trkpt lat="44.84918198481562" lon="4.830093144571013"><ele>99.0</ele><time>2026-04-06T08:02:08.998Z</time></trkpt><trkpt lat="44.849231508712215" lon="4.830184774491412"><ele>99.0</ele><time>2026-04-06T08:02:10.998Z</time></trkpt><trkpt lat="44.84928593585806" lon="4.830276734230436"><ele>99.33333333333333</ele><time>2026-04-06T08:02:12.998Z</time></trkpt><trkpt lat="44.84935209660727" lon="4.830371301440272"><ele>99.66666666666666</ele><time>2026-04-06T08:02:14.998Z</time></trkpt><trkpt lat="44.849402653934405" lon="4.830468609508074"><ele>100.0</ele><time>2026-04-06T08:02:16.998Z</time></trkpt><trkpt lat="44.84944751185213" lon="4.830556688325871"><ele>100.33333333333333</ele><time>2026-04-06T08:02:18.998Z</time></trkpt><trkpt lat="44.84951398886283" lon="4.830645870888591"><ele>100.66666666666666</ele><time>2026-04-06T08:02:20.998Z</time></trkpt><trkpt lat="44.84957396209018" lon="4.83072867969477"><ele>101.0</ele><time>2026-04-06T08:02:22.998Z</time></trkpt><trkpt lat="44.84962907989883" lon="4.830812553996034"><ele>100.99999999999999</ele><time>2026-04-06T08:02:24.998Z</time></trkpt><trkpt lat="44.8496790132459" lon="4.830895144754709"><ele>101.0</ele><time>2026-04-06T08:02:26.998Z</time></trkpt><trkpt lat="44.849732376858" lon="4.830972579574095"><ele>101.0</ele><time>2026-04-06T08:02:28.998Z</time></trkpt><trkpt lat="44.84978554198282" lon="4.8310520239111305"><ele>101.0</ele><time>2026-04-06T08:02:30.998Z</time></trkpt><trkpt lat="44.84983717450858" lon="4.831133979478384"><ele>100.99999999999999</ele><time>2026-04-06T08:02:32.998Z</time></trkpt><trkpt lat="44.84988525028449" lon="4.831198883497247"><ele>101.0</ele><time>2026-04-06T08:02:34.998Z</time></trkpt><trkpt lat="44.84993587648984" lon="4.831278889763301"><ele>101.0</ele><time>2026-04-06T08:02:36.998Z</time></trkpt><trkpt lat="44.84998355404449" lon="4.831357503046131"><ele>101.0</ele><time>2026-04-06T08:02:38.998Z</time></trkpt><trkpt lat="44.8500290845846" lon="4.831435711522467"><ele>101.0</ele><time>2026-04-06T08:02:40.998Z</time></trkpt><trkpt lat="44.850080046912105" lon="4.831506132212004"><ele>101.0</ele><time>2026-04-06T08:02:42.998Z</time></trkpt><trkpt lat="44.8501295797504" lon="4.831578461277514"><ele>101.0</ele><time>2026-04-06T08:02:44.998Z</time></trkpt><trkpt lat="44.85017592269395" lon="4.831658511020428"><ele>101.0</ele><time>2026-04-06T08:02:46.998Z</time></trkpt><trkpt lat="44.85022416875247" lon="4.831739957725469"><ele>101.0</ele><time>2026-04-06T08:02:48.998Z</time></trkpt><trkpt lat="44.85027494607819" lon="4.831824261224936"><ele>100.99999999999999</ele><time>2026-04-06T08:02:50.998Z</time></trkpt><trkpt lat="44.850330355196014" lon="4.831904773397312"><ele>101.0</ele><time>2026-04-06T08:02:52.998Z</time></trkpt><trkpt lat="44.85038223489918" lon="4.831995667240624"><ele>101.0</ele><time>2026-04-06T08:02:54.998Z</time></trkpt><trkpt lat="44.850438584835636" lon="4.832082934694976"><ele>101.0</ele><time>2026-04-06T08:02:56.998Z</time></trkpt><trkpt lat="44.850500853331745" lon="4.8321646833890135"><ele>100.99999999999999</ele><time>2026-04-06T08:02:58.998Z</time></trkpt><trkpt lat="44.85055268452691" lon="4.832260314676566"><ele>101.0</ele><time>2026-04-06T08:03:00.998Z</time></trkpt><trkpt lat="44.850614065100885" lon="4.832350999019327"><ele>100.99999999999999</ele><time>2026-04-06T08:03:02.998Z</time></trkpt><trkpt lat="44.850671253654035" lon="4.832441791451794"><ele>101.0</ele><time>2026-04-06T08:03:04.998Z</time></trkpt><trkpt lat="44.85073475217446" lon="4.832531382901514"><ele>101.0</ele><time>2026-04-06T08:03:06.998Z</time></trkpt><trkpt lat="44.8507890725196" lon="4.832626226383986"><ele>101.0</ele><time>2026-04-06T08:03:08.998Z</time></trkpt><trkpt lat="44.85084400579102" lon="4.8327251746340485"><ele>100.99999999999999</ele><time>2026-04-06T08:03:10.998Z</time></trkpt><trkpt lat="44.85090481470816" lon="4.832820538894913"><ele>101.0</ele><time>2026-04-06T08:03:12.998Z</time></trkpt><trkpt lat="44.85096313143634" lon="4.832919679693266"><ele>101.16666666666666</ele><time>2026-04-06T08:03:14.998Z</time></trkpt><trkpt lat="44.851021255655986" lon="4.833015244343564"><ele>101.33333333333333</ele><time>2026-04-06T08:03:16.998Z</time></trkpt><trkpt lat="44.85107554904607" lon="4.833116926095299"><ele>101.5</ele><time>2026-04-06T08:03:18.998Z</time></trkpt><trkpt lat="44.85113367134958" lon="4.8332108719683315"><ele>101.66666666666666</ele><time>2026-04-06T08:03:20.998Z</time></trkpt><trkpt lat="44.851191460171215" lon="4.833309462648044"><ele>101.83333333333333</ele><time>2026-04-06T08:03:22.998Z</time></trkpt><trkpt lat="44.851246962427425" lon="4.833406253225618"><ele>102.0</ele><time>2026-04-06T08:03:24.998Z</time></trkpt><trkpt lat="44.851310625393104" lon="4.8335004997109445"><ele>102.0</ele><time>2026-04-06T08:03:26.998Z</time></trkpt><trkpt lat="44.85136220719197" lon="4.833589716186247"><ele>102.0</ele><time>2026-04-06T08:03:28.998Z</time></trkpt><trkpt lat="44.85141510952785" lon="4.833673466765077"><ele>102.0</ele><time>2026-04-06T08:03:30.998Z</time></trkpt><trkpt lat="44.85146572939698" lon="4.833757708646214"><ele>102.0</ele><time>2026-04-06T08:03:32.998Z</time></trkpt><trkpt lat="44.851518536618094" lon="4.8338471034557315"><ele>102.0</ele><time>2026-04-06T08:03:34.998Z</time></trkpt><trkpt lat="44.851574998429385" lon="4.833930244420545"><ele>102.0</ele><time>2026-04-06T08:03:36.998Z</time></trkpt><trkpt lat="44.851629289884514" lon="4.834022244910391"><ele>102.0</ele><time>2026-04-06T08:03:38.998Z</time></trkpt><trkpt lat="44.85168463758293" lon="4.834109254268602"><ele>102.0</ele><time>2026-04-06T08:03:40.998Z</time></trkpt><trkpt lat="44.851743399080526" lon="4.834192263796379"><ele>102.0</ele><time>2026-04-06T08:03:42.998Z</time></trkpt><trkpt lat="44.851797167603976" lon="4.8342762515255036"><ele>102.0</ele><time>2026-04-06T08:03:44.998Z</time></trkpt><trkpt lat="44.85185376670572" lon="4.834366768933092"><ele>102.0</ele><time>2026-04-06T08:03:46.998Z</time></trkpt><trkpt lat="44.851911714106194" lon="4.834453065599933"><ele>102.0</ele><time>2026-04-06T08:03:48.998Z</time></trkpt><trkpt lat="44.85196579933543" lon="4.834545713640656"><ele>102.16666666666667</ele><time>2026-04-06T08:03:50.998Z</time></trkpt><trkpt lat="44.852024576691235" lon="4.834629880546041"><ele>102.33333333333334</ele><time>2026-04-06T08:03:52.998Z</time></trkpt><trkpt lat="44.85207926631962" lon="4.834720233987625"><ele>102.5</ele><time>2026-04-06T08:03:54.998Z</time></trkpt><trkpt lat="44.85213425320702" lon="4.83481347849247"><ele>102.66666666666667</ele><time>2026-04-06T08:03:56.998Z</time></trkpt><trkpt lat="44.85219277697068" lon="4.834905484935445"><ele>102.83333333333334</ele><time>2026-04-06T08:03:58.998Z</time></trkpt><trkpt lat="44.85224863926171" lon="4.834993914728613"><ele>103.0</ele><time>2026-04-06T08:04:00.998Z</time></trkpt><trkpt lat="44.852306258409314" lon="4.835082362157246"><ele>103.00000000000001</ele><time>2026-04-06T08:04:02.998Z</time></trkpt><trkpt lat="44.85236373167067" lon="4.835163848356629"><ele>103.0</ele><time>2026-04-06T08:04:04.998Z</time></trkpt><trkpt lat="44.852425136846755" lon="4.835260253971878"><ele>103.0</ele><time>2026-04-06T08:04:06.998Z</time></trkpt><trkpt lat="44.852480531612755" lon="4.835349489940977"><ele>103.0</ele><time>2026-04-06T08:04:08.998Z</time></trkpt><trkpt lat="44.85253908000142" lon="4.835435854453484"><ele>103.00000000000001</ele><time>2026-04-06T08:04:10.998Z</time></trkpt><trkpt lat="44.85259617164225" lon="4.835533030465053"><ele>103.0</ele><time>2026-04-06T08:04:12.998Z</time></trkpt><trkpt lat="44.852653029014746" lon="4.835617447224156"><ele>103.00000000000001</ele><time>2026-04-06T08:04:14.998Z</time></trkpt><trkpt lat="44.85271345403798" lon="4.8357040317902396"><ele>103.0</ele><time>2026-04-06T08:04:16.998Z</time></trkpt><trkpt lat="44.852766837627364" lon="4.835795540308582"><ele>103.0</ele><time>2026-04-06T08:04:18.998Z</time></trkpt><trkpt lat="44.85283077293432" lon="4.835880476834055"><ele>103.0</ele><time>2026-04-06T08:04:20.998Z</time></trkpt><trkpt lat="44.852899488042546" lon="4.8359599023388835"><ele>103.00000000000001</ele><time>2026-04-06T08:04:22.998Z</time></trkpt><trkpt lat="44.8529754622874" lon="4.836026884277399"><ele>103.0</ele><time>2026-04-06T08:04:24.998Z</time></trkpt><trkpt lat="44.85305602755322" lon="4.836076645026485"><ele>103.0</ele><time>2026-04-06T08:04:26.998Z</time></trkpt><trkpt lat="44.85313602492383" lon="4.836124046642686"><ele>103.0</ele><time>2026-04-06T08:04:28.998Z</time></trkpt><trkpt lat="44.85322829537832" lon="4.836174175014306"><ele>103.0</ele><time>2026-04-06T08:04:30.998Z</time></trkpt><trkpt lat="44.85331723303466" lon="4.83621717575732"><ele>103.0</ele><time>2026-04-06T08:04:32.998Z</time></trkpt><trkpt lat="44.85341529503913" lon="4.8362459508036775"><ele>103.0</ele><time>2026-04-06T08:04:34.998Z</time></trkpt><trkpt lat="44.853516179218694" lon="4.8362568479081265"><ele>102.60000000000001</ele><time>2026-04-06T08:04:36.998Z</time></trkpt><trkpt lat="44.85361568730156" lon="4.836273223864371"><ele>102.2</ele><time>2026-04-06T08:04:38.998Z</time></trkpt><trkpt lat="44.853713786008534" lon="4.836291979874847"><ele>101.8</ele><time>2026-04-06T08:04:40.998Z</time></trkpt><trkpt lat="44.853814814252225" lon="4.836309714846585"><ele>101.4</ele><time>2026-04-06T08:04:42.998Z</time></trkpt><trkpt lat="44.853912375448076" lon="4.836324461141335"><ele>101.0</ele><time>2026-04-06T08:04:44.998Z</time></trkpt><trkpt lat="44.854012440808624" lon="4.836332518444387"><ele>101.0</ele><time>2026-04-06T08:04:46.998Z</time></trkpt><trkpt lat="44.85411388311725" lon="4.836346891814655"><ele>101.0</ele><time>2026-04-06T08:04:48.998Z</time></trkpt><trkpt lat="44.85420446914094" lon="4.836371014253913"><ele>101.0</ele><time>2026-04-06T08:04:50.998Z</time></trkpt><trkpt lat="44.85430347988915" lon="4.8363879724346"><ele>101.0</ele><time>2026-04-06T08:04:52.998Z</time></trkpt><trkpt lat="44.85438776122799" lon="4.836404464330076"><ele>101.0</ele><time>2026-04-06T08:04:54.998Z</time></trkpt><trkpt lat="44.85446451428273" lon="4.836415561816529"><ele>100.83333333333333</ele><time>2026-04-06T08:04:56.997Z</time></trkpt><trkpt lat="44.854537220642165" lon="4.836444931515843"><ele>100.66666666666666</ele><time>2026-04-06T08:04:58.997Z</time></trkpt><trkpt lat="44.85460286376339" lon="4.836459802437247"><ele>100.5</ele><time>2026-04-06T08:05:00.997Z</time></trkpt><trkpt lat="44.85468958517594" lon="4.836492148977069"><ele>100.33333333333334</ele><time>2026-04-06T08:05:03.997Z</time></trkpt><trkpt lat="44.85474380469306" lon="4.83657046506381"><ele>100.16666666666667</ele><time>2026-04-06T08:05:06.997Z</time></trkpt><trkpt lat="44.854748180804755" lon="4.8366908349303435"><ele>100.0</ele><time>2026-04-06T08:05:09.997Z</time></trkpt><trkpt lat="44.85473683349447" lon="4.836789661706364"><ele>100.42857142857143</ele><time>2026-04-06T08:05:11.997Z</time></trkpt><trkpt lat="44.85472342942386" lon="4.836919959101194"><ele>100.85714285714286</ele><time>2026-04-06T08:05:14.997Z</time></trkpt><trkpt lat="44.85471972422523" lon="4.837011799013467"><ele>101.28571428571428</ele><time>2026-04-06T08:05:16.997Z</time></trkpt><trkpt lat="44.854709176714834" lon="4.837102413090483"><ele>101.71428571428572</ele><time>2026-04-06T08:05:18.997Z</time></trkpt><trkpt lat="44.854698061220894" lon="4.837195218227166"><ele>102.14285714285714</ele><time>2026-04-06T08:05:21Z</time></trkpt><trkpt lat="44.85468547587897" lon="4.837321345661716"><ele>102.57142857142857</ele><time>2026-04-06T08:05:24Z</time></trkpt><trkpt lat="44.854670578700606" lon="4.837407705076915"><ele>103.0</ele><time>2026-04-06T08:05:26Z</time></trkpt><trkpt lat="44.854657769511654" lon="4.837535494729179"><ele>103.50000000000001</ele><time>2026-04-06T08:05:29Z</time></trkpt><trkpt lat="44.854650472520724" lon="4.837666759202761"><ele>104.0</ele><time>2026-04-06T08:05:32Z</time></trkpt><trkpt lat="44.8546313758935" lon="4.837784722945074"><ele>104.5</ele><time>2026-04-06T08:05:35Z</time></trkpt><trkpt lat="44.85461037214632" lon="4.837903123845904"><ele>105.0</ele><time>2026-04-06T08:05:38Z</time></trkpt><trkpt lat="44.854586321991555" lon="4.838007566640583"><ele>105.50000000000001</ele><time>2026-04-06T08:05:41Z</time></trkpt><trkpt lat="44.85452418613998" lon="4.8380316040883375"><ele>106.0</ele><time>2026-04-06T08:05:43Z</time></trkpt><trkpt lat="44.85445386983237" lon="4.8380665748895595"><ele>106.0</ele><time>2026-04-06T08:05:45Z</time></trkpt><trkpt lat="44.85438618425019" lon="4.838155912993685"><ele>106.0</ele><time>2026-04-06T08:05:47Z</time></trkpt><trkpt lat="44.854352864610014" lon="4.838318113741791"><ele>106.0</ele><time>2026-04-06T08:05:49Z</time></trkpt><trkpt lat="44.85435343693054" lon="4.838487479107059"><ele>106.0</ele><time>2026-04-06T08:05:51Z</time></trkpt><trkpt lat="44.854348617013564" lon="4.838620676601861"><ele>106.0</ele><time>2026-04-06T08:05:53Z</time></trkpt><trkpt lat="44.854402053877024" lon="4.83874253548309"><ele>105.4</ele><time>2026-04-06T08:05:55Z</time></trkpt><trkpt lat="44.85448131520026" lon="4.838827659982652"><ele>104.8</ele><time>2026-04-06T08:05:57Z</time></trkpt><trkpt lat="44.85457604476105" lon="4.8388814184165465"><ele>104.2</ele><time>2026-04-06T08:05:59Z</time></trkpt><trkpt lat="44.85465105167057" lon="4.838952296395251"><ele>103.60000000000001</ele><time>2026-04-06T08:06:01Z</time></trkpt><trkpt lat="44.854714522837625" lon="4.8390064201287055"><ele>103.0</ele><time>2026-04-06T08:06:03Z</time></trkpt><trkpt lat="44.85478982926504" lon="4.839077431692968"><ele>103.0</ele><time>2026-04-06T08:06:05Z</time></trkpt><trkpt lat="44.85487645312044" lon="4.839166621125186"><ele>103.0</ele><time>2026-04-06T08:06:07.001Z</time></trkpt><trkpt lat="44.85495326354824" lon="4.83924535002299"><ele>103.0</ele><time>2026-04-06T08:06:09.001Z</time></trkpt><trkpt lat="44.85502995645345" lon="4.839324668977174"><ele>103.0</ele><time>2026-04-06T08:06:11.001Z</time></trkpt><trkpt lat="44.85510976171266" lon="4.8394001245270895"><ele>103.0</ele><time>2026-04-06T08:06:13.001Z</time></trkpt><trkpt lat="44.85518757964209" lon="4.839472029226763"><ele>102.42857142857142</ele><time>2026-04-06T08:06:15.001Z</time></trkpt><trkpt lat="44.85525483644109" lon="4.839547200906345"><ele>101.85714285714286</ele><time>2026-04-06T08:06:17.002Z</time></trkpt><trkpt lat="44.85531909141929" lon="4.839616364007708"><ele>101.28571428571428</ele><time>2026-04-06T08:06:19.001Z</time></trkpt><trkpt lat="44.85537907508079" lon="4.839672642896647"><ele>100.71428571428571</ele><time>2026-04-06T08:06:21.001Z</time></trkpt><trkpt lat="44.85544758977513" lon="4.839688408394555"><ele>100.14285714285714</ele><time>2026-04-06T08:06:23.001Z</time></trkpt><trkpt lat="44.8554863943287" lon="4.8396149544364135"><ele>99.57142857142857</ele><time>2026-04-06T08:06:25.001Z</time></trkpt><trkpt lat="44.85545329157395" lon="4.83953164328431"><ele>99.0</ele><time>2026-04-06T08:06:27.001Z</time></trkpt><trkpt lat="44.85540141337352" lon="4.839453490770092"><ele>99.0</ele><time>2026-04-06T08:06:29.001Z</time></trkpt><trkpt lat="44.855345897736576" lon="4.839369769997828"><ele>99.0</ele><time>2026-04-06T08:06:31.001Z</time></trkpt><trkpt lat="44.855285739690885" lon="4.8392840812474835"><ele>99.0</ele><time>2026-04-06T08:06:33.001Z</time></trkpt><trkpt lat="44.85522562652707" lon="4.839196275439842"><ele>99.0</ele><time>2026-04-06T08:06:35.001Z</time></trkpt><trkpt lat="44.85516806196078" lon="4.839107050715753"><ele>99.0</ele><time>2026-04-06T08:06:37.001Z</time></trkpt><trkpt lat="44.85511009983562" lon="4.839018272279646"><ele>99.0</ele><time>2026-04-06T08:06:39.001Z</time></trkpt><trkpt lat="44.8550559041672" lon="4.83893879862445"><ele>99.66666666666667</ele><time>2026-04-06T08:06:41.001Z</time></trkpt><trkpt lat="44.855004974224954" lon="4.838854517848288"><ele>100.33333333333334</ele><time>2026-04-06T08:06:43.001Z</time></trkpt><trkpt lat="44.85496083047302" lon="4.838766400123627"><ele>101.0</ele><time>2026-04-06T08:06:45.001Z</time></trkpt><trkpt lat="44.8549199350303" lon="4.838652711835243"><ele>101.66666666666667</ele><time>2026-04-06T08:06:47.001Z</time></trkpt><trkpt lat="44.85493000816259" lon="4.838523682472163"><ele>102.33333333333334</ele><time>2026-04-06T08:06:49.001Z</time></trkpt><trkpt lat="44.85497686185537" lon="4.83839750187344"><ele>103.0</ele><time>2026-04-06T08:06:51.001Z</time></trkpt><trkpt lat="44.85502904302329" lon="4.838283281350896"><ele>103.4</ele><time>2026-04-06T08:06:53.001Z</time></trkpt><trkpt lat="44.85510040918674" lon="4.83819166191157"><ele>103.80000000000001</ele><time>2026-04-06T08:06:55.001Z</time></trkpt><trkpt lat="44.855198343663616" lon="4.838166200477291"><ele>104.2</ele><time>2026-04-06T08:06:57.001Z</time></trkpt><trkpt lat="44.85529461013843" lon="4.838203911920239"><ele>104.6</ele><time>2026-04-06T08:06:59.001Z</time></trkpt><trkpt lat="44.85538466187436" lon="4.83824577535696"><ele>105.0</ele><time>2026-04-06T08:07:01.001Z</time></trkpt><trkpt lat="44.85546728679297" lon="4.83831670482859"><ele>105.0</ele><time>2026-04-06T08:07:03.001Z</time></trkpt><trkpt lat="44.855534486725965" lon="4.838423407998523"><ele>105.0</ele><time>2026-04-06T08:07:05.001Z</time></trkpt><trkpt lat="44.85559127668244" lon="4.838554028162879"><ele>105.0</ele><time>2026-04-06T08:07:07.001Z</time></trkpt><trkpt lat="44.855656430881595" lon="4.838657696039294"><ele>105.0</ele><time>2026-04-06T08:07:09.001Z</time></trkpt><trkpt lat="44.8557139293353" lon="4.838764478415218"><ele>105.0</ele><time>2026-04-06T08:07:11.001Z</time></trkpt><trkpt lat="44.855779717352526" lon="4.838870889730587"><ele>105.0</ele><time>2026-04-06T08:07:13.001Z</time></trkpt><trkpt lat="44.855838429128234" lon="4.83896641735105"><ele>105.0</ele><time>2026-04-06T08:07:15.001Z</time></trkpt><trkpt lat="44.8559026585051" lon="4.839056392939151"><ele>105.0</ele><time>2026-04-06T08:07:17.001Z</time></trkpt><trkpt lat="44.85596645271252" lon="4.8391506369258535"><ele>105.0</ele><time>2026-04-06T08:07:19.001Z</time></trkpt><trkpt lat="44.85602912155666" lon="4.8392493885526005"><ele>105.0</ele><time>2026-04-06T08:07:21.001Z</time></trkpt><trkpt lat="44.85610040972625" lon="4.839351903331024"><ele>104.2</ele><time>2026-04-06T08:07:23.001Z</time></trkpt><trkpt lat="44.85616759035628" lon="4.8394532255688105"><ele>103.4</ele><time>2026-04-06T08:07:25.001Z</time></trkpt><trkpt lat="44.856238113730356" lon="4.839555692163295"><ele>102.6</ele><time>2026-04-06T08:07:27.001Z</time></trkpt><trkpt lat="44.856319013801496" lon="4.839653457511591"><ele>101.8</ele><time>2026-04-06T08:07:29.001Z</time></trkpt><trkpt lat="44.85639648952242" lon="4.839755019090573"><ele>101.0</ele><time>2026-04-06T08:07:31.001Z</time></trkpt><trkpt lat="44.856490374106784" lon="4.83984814552029"><ele>101.0</ele><time>2026-04-06T08:07:33.001Z</time></trkpt><trkpt lat="44.856578203868025" lon="4.839948979133162"><ele>101.0</ele><time>2026-04-06T08:07:35.001Z</time></trkpt><trkpt lat="44.85666880925522" lon="4.840043616835671"><ele>101.0</ele><time>2026-04-06T08:07:37.001Z</time></trkpt><trkpt lat="44.85676304443361" lon="4.840128364196475"><ele>101.0</ele><time>2026-04-06T08:07:39.001Z</time></trkpt><trkpt lat="44.85685414734816" lon="4.840218572847456"><ele>101.0</ele><time>2026-04-06T08:07:41.001Z</time></trkpt><trkpt lat="44.856945850523914" lon="4.8403014190194265"><ele>101.19999999999999</ele><time>2026-04-06T08:07:43.001Z</time></trkpt><trkpt lat="44.85703978448804" lon="4.8403913185039205"><ele>101.39999999999999</ele><time>2026-04-06T08:07:45.001Z</time></trkpt><trkpt lat="44.85713478058111" lon="4.840480934323347"><ele>101.6</ele><time>2026-04-06T08:07:47.001Z</time></trkpt><trkpt lat="44.85722452203547" lon="4.840567746114244"><ele>101.8</ele><time>2026-04-06T08:07:49.001Z</time></trkpt><trkpt lat="44.8572759569115" lon="4.840619615043493"><ele>102.0</ele><time>2026-04-06T08:07:50.001Z</time></trkpt><trkpt lat="44.857370295885545" lon="4.840704505010628"><ele>102.0</ele><time>2026-04-06T08:07:52.001Z</time></trkpt><trkpt lat="44.85746919286964" lon="4.84079682521062"><ele>102.0</ele><time>2026-04-06T08:07:54.001Z</time></trkpt><trkpt lat="44.85756576923997" lon="4.840891568170112"><ele>102.0</ele><time>2026-04-06T08:07:56.001Z</time></trkpt><trkpt lat="44.85765906241111" lon="4.840981500732944"><ele>102.0</ele><time>2026-04-06T08:07:58.001Z</time></trkpt><trkpt lat="44.857753644103504" lon="4.841071716245061"><ele>102.0</ele><time>2026-04-06T08:08:00.001Z</time></trkpt><trkpt lat="44.85785073168162" lon="4.841164256652834"><ele>102.0</ele><time>2026-04-06T08:08:02.001Z</time></trkpt><trkpt lat="44.857944066217364" lon="4.841246731035537"><ele>102.0</ele><time>2026-04-06T08:08:04.001Z</time></trkpt><trkpt lat="44.85803631903488" lon="4.841339644512302"><ele>102.0</ele><time>2026-04-06T08:08:06.001Z</time></trkpt><trkpt lat="44.85812942487697" lon="4.841427471113207"><ele>102.0</ele><time>2026-04-06T08:08:08.001Z</time></trkpt><trkpt lat="44.85821898910354" lon="4.841518532735155"><ele>102.0</ele><time>2026-04-06T08:08:10.001Z</time></trkpt><trkpt lat="44.85831364481731" lon="4.841601007095185"><ele>102.0</ele><time>2026-04-06T08:08:12.001Z</time></trkpt><trkpt lat="44.85840402959902" lon="4.841682531651697"><ele>102.0</ele><time>2026-04-06T08:08:14.001Z</time></trkpt><trkpt lat="44.85849342805301" lon="4.841770132408929"><ele>102.0</ele><time>2026-04-06T08:08:16.001Z</time></trkpt><trkpt lat="44.858591268798655" lon="4.841852819336771"><ele>101.8</ele><time>2026-04-06T08:08:18.001Z</time></trkpt><trkpt lat="44.858684978719076" lon="4.841925811912705"><ele>101.6</ele><time>2026-04-06T08:08:20Z</time></trkpt><trkpt lat="44.858771864722144" lon="4.842011427642081"><ele>101.39999999999999</ele><time>2026-04-06T08:08:22.001Z</time></trkpt><trkpt lat="44.858858446617596" lon="4.842091688707068"><ele>101.19999999999999</ele><time>2026-04-06T08:08:24.001Z</time></trkpt><trkpt lat="44.85894756628709" lon="4.842162938111018"><ele>101.0</ele><time>2026-04-06T08:08:26.001Z</time></trkpt><trkpt lat="44.85903744882561" lon="4.842221785148746"><ele>100.99999999999999</ele><time>2026-04-06T08:08:28.001Z</time></trkpt><trkpt lat="44.859136528518185" lon="4.84227173839712"><ele>101.0</ele><time>2026-04-06T08:08:30.001Z</time></trkpt><trkpt lat="44.85921685910748" lon="4.842281324720839"><ele>101.0</ele><time>2026-04-06T08:08:32.001Z</time></trkpt><trkpt lat="44.85929445029184" lon="4.8423069178585845"><ele>101.0</ele><time>2026-04-06T08:08:34.001Z</time></trkpt><trkpt lat="44.859359770363774" lon="4.84239108814093"><ele>100.99999999999999</ele><time>2026-04-06T08:08:36.001Z</time></trkpt><trkpt lat="44.85941779892914" lon="4.8424887389572335"><ele>101.0</ele><time>2026-04-06T08:08:38.001Z</time></trkpt><trkpt lat="44.859483254550646" lon="4.842579325121627"><ele>101.4</ele><time>2026-04-06T08:08:40.001Z</time></trkpt><trkpt lat="44.859563064532594" lon="4.842679750986116"><ele>101.8</ele><time>2026-04-06T08:08:42.001Z</time></trkpt><trkpt lat="44.85964326806887" lon="4.8427578791368004"><ele>102.2</ele><time>2026-04-06T08:08:44.001Z</time></trkpt><trkpt lat="44.8597280895027" lon="4.842835218814917"><ele>102.60000000000001</ele><time>2026-04-06T08:08:46.001Z</time></trkpt><trkpt lat="44.859825376480394" lon="4.842925383021425"><ele>103.0</ele><time>2026-04-06T08:08:48.001Z</time></trkpt><trkpt lat="44.859923042333456" lon="4.842989937813832"><ele>103.0</ele><time>2026-04-06T08:08:50.001Z</time></trkpt><trkpt lat="44.86001568644337" lon="4.843065271571772"><ele>103.0</ele><time>2026-04-06T08:08:52.001Z</time></trkpt><trkpt lat="44.860105288022865" lon="4.843122994894197"><ele>103.0</ele><time>2026-04-06T08:08:54.001Z</time></trkpt><trkpt lat="44.860185341174706" lon="4.843204678066389"><ele>103.0</ele><time>2026-04-06T08:08:56.001Z</time></trkpt><trkpt lat="44.860278282667565" lon="4.843274766611966"><ele>103.0</ele><time>2026-04-06T08:08:58.001Z</time></trkpt><trkpt lat="44.86036625133678" lon="4.843341030892566"><ele>103.2</ele><time>2026-04-06T08:09:00.001Z</time></trkpt><trkpt lat="44.86045008824112" lon="4.8434088074597845"><ele>103.4</ele><time>2026-04-06T08:09:02.001Z</time></trkpt><trkpt lat="44.86054163465599" lon="4.843479645413197"><ele>103.60000000000001</ele><time>2026-04-06T08:09:04.001Z</time></trkpt><trkpt lat="44.86062455737823" lon="4.843538970845105"><ele>103.80000000000001</ele><time>2026-04-06T08:09:06.001Z</time></trkpt><trkpt lat="44.86070632361799" lon="4.843592750693442"><ele>104.0</ele><time>2026-04-06T08:09:08.001Z</time></trkpt><trkpt lat="44.86079168750478" lon="4.843655580400562"><ele>104.0</ele><time>2026-04-06T08:09:10.001Z</time></trkpt><trkpt lat="44.86087636977553" lon="4.843709192502752"><ele>104.0</ele><time>2026-04-06T08:09:12.001Z</time></trkpt><trkpt lat="44.860960435227035" lon="4.843769948512118"><ele>104.0</ele><time>2026-04-06T08:09:14.001Z</time></trkpt><trkpt lat="44.86105721087629" lon="4.843827079369258"><ele>104.0</ele><time>2026-04-06T08:09:16.001Z</time></trkpt><trkpt lat="44.86114099021842" lon="4.843875194910891"><ele>104.0</ele><time>2026-04-06T08:09:18.001Z</time></trkpt><trkpt lat="44.86123113970543" lon="4.843934370650582"><ele>103.80000000000001</ele><time>2026-04-06T08:09:20.001Z</time></trkpt><trkpt lat="44.86132573144974" lon="4.8439885234575994"><ele>103.60000000000001</ele><time>2026-04-06T08:09:22.001Z</time></trkpt><trkpt lat="44.86141467974607" lon="4.844037981749362"><ele>103.4</ele><time>2026-04-06T08:09:24.001Z</time></trkpt><trkpt lat="44.86150650523961" lon="4.844092064140259"><ele>103.2</ele><time>2026-04-06T08:09:26.001Z</time></trkpt><trkpt lat="44.86159471560189" lon="4.844139672124862"><ele>103.0</ele><time>2026-04-06T08:09:28.001Z</time></trkpt><trkpt lat="44.86168353275693" lon="4.844195005528114"><ele>103.0</ele><time>2026-04-06T08:09:30.001Z</time></trkpt><trkpt lat="44.86177427061115" lon="4.84424993947044"><ele>103.0</ele><time>2026-04-06T08:09:32.001Z</time></trkpt><trkpt lat="44.861862395365144" lon="4.844308768744427"><ele>103.0</ele><time>2026-04-06T08:09:34.001Z</time></trkpt><trkpt lat="44.86194441219717" lon="4.844365766646673"><ele>103.0</ele><time>2026-04-06T08:09:36.001Z</time></trkpt><trkpt lat="44.862031856764446" lon="4.844423093673807"><ele>103.0</ele><time>2026-04-06T08:09:38.001Z</time></trkpt><trkpt lat="44.86211968437456" lon="4.844484185282858"><ele>103.4</ele><time>2026-04-06T08:09:40.001Z</time></trkpt><trkpt lat="44.8622069421625" lon="4.84454059528315"><ele>103.80000000000001</ele><time>2026-04-06T08:09:42.001Z</time></trkpt><trkpt lat="44.862292175840345" lon="4.844597387100412"><ele>104.2</ele><time>2026-04-06T08:09:44.001Z</time></trkpt><trkpt lat="44.862378001490384" lon="4.844658991690628"><ele>104.6</ele><time>2026-04-06T08:09:46.001Z</time></trkpt><trkpt lat="44.86245939575715" lon="4.844719276777715"><ele>105.0</ele><time>2026-04-06T08:09:48.001Z</time></trkpt><trkpt lat="44.86254409726027" lon="4.8447751734943525"><ele>105.0</ele><time>2026-04-06T08:09:50.001Z</time></trkpt><trkpt lat="44.86262883775382" lon="4.844828214520143"><ele>105.0</ele><time>2026-04-06T08:09:52.001Z</time></trkpt><trkpt lat="44.86271333613703" lon="4.844889178598295"><ele>105.0</ele><time>2026-04-06T08:09:54.001Z</time></trkpt><trkpt lat="44.86279847031143" lon="4.844947764847121"><ele>105.0</ele><time>2026-04-06T08:09:56.001Z</time></trkpt><trkpt lat="44.86288467163474" lon="4.845007200598261"><ele>105.0</ele><time>2026-04-06T08:09:58.001Z</time></trkpt><trkpt lat="44.86296661228811" lon="4.845075991169368"><ele>105.0</ele><time>2026-04-06T08:10:00.001Z</time></trkpt><trkpt lat="44.86304478730741" lon="4.845137549356734"><ele>105.0</ele><time>2026-04-06T08:10:02.001Z</time></trkpt><trkpt lat="44.863126130103836" lon="4.84519927095629"><ele>105.0</ele><time>2026-04-06T08:10:04.001Z</time></trkpt><trkpt lat="44.86320856138065" lon="4.845249287038623"><ele>105.0</ele><time>2026-04-06T08:10:06.001Z</time></trkpt><trkpt lat="44.86327822389954" lon="4.8453106217482995"><ele>105.0</ele><time>2026-04-06T08:10:08.001Z</time></trkpt><trkpt lat="44.863363581457676" lon="4.845362368993989"><ele>105.0</ele><time>2026-04-06T08:10:10.001Z</time></trkpt><trkpt lat="44.86343997154112" lon="4.845401104940664"><ele>104.8</ele><time>2026-04-06T08:10:12.001Z</time></trkpt><trkpt lat="44.86351622652773" lon="4.8454524270198265"><ele>104.6</ele><time>2026-04-06T08:10:14.001Z</time></trkpt><trkpt lat="44.86360178133996" lon="4.845515625866599"><ele>104.4</ele><time>2026-04-06T08:10:16.001Z</time></trkpt><trkpt lat="44.86367330113731" lon="4.845580978339019"><ele>104.2</ele><time>2026-04-06T08:10:18.002Z</time></trkpt><trkpt lat="44.863758302903996" lon="4.845643893189513"><ele>104.0</ele><time>2026-04-06T08:10:20.001Z</time></trkpt><trkpt lat="44.863837745831304" lon="4.845705697255395"><ele>104.0</ele><time>2026-04-06T08:10:22.001Z</time></trkpt><trkpt lat="44.86391644635425" lon="4.845777889359364"><ele>104.0</ele><time>2026-04-06T08:10:24.001Z</time></trkpt><trkpt lat="44.86399404137951" lon="4.84584301553573"><ele>104.0</ele><time>2026-04-06T08:10:26.001Z</time></trkpt><trkpt lat="44.86407443028122" lon="4.84590724748281"><ele>104.0</ele><time>2026-04-06T08:10:28.002Z</time></trkpt><trkpt lat="44.8641499401638" lon="4.845972148970558"><ele>104.0</ele><time>2026-04-06T08:10:30.002Z</time></trkpt><trkpt lat="44.864225004192676" lon="4.846032538546723"><ele>103.80000000000001</ele><time>2026-04-06T08:10:32.002Z</time></trkpt><trkpt lat="44.86429885898065" lon="4.8460987853163795"><ele>103.60000000000001</ele><time>2026-04-06T08:10:34.002Z</time></trkpt><trkpt lat="44.86437903828906" lon="4.8461603318470345"><ele>103.4</ele><time>2026-04-06T08:10:36.002Z</time></trkpt><trkpt lat="44.86445456157347" lon="4.846233152174282"><ele>103.2</ele><time>2026-04-06T08:10:38.002Z</time></trkpt><trkpt lat="44.86454187544083" lon="4.846292468547833"><ele>103.0</ele><time>2026-04-06T08:10:40.002Z</time></trkpt><trkpt lat="44.86463574723298" lon="4.846336625002474"><ele>103.0</ele><time>2026-04-06T08:10:42.002Z</time></trkpt><trkpt lat="44.864731313019035" lon="4.846377538358953"><ele>103.0</ele><time>2026-04-06T08:10:44.002Z</time></trkpt><trkpt lat="44.864823795674546" lon="4.8464157130765075"><ele>103.0</ele><time>2026-04-06T08:10:46.002Z</time></trkpt><trkpt lat="44.864917962819725" lon="4.846469847133488"><ele>103.0</ele><time>2026-04-06T08:10:48.002Z</time></trkpt><trkpt lat="44.86500932362307" lon="4.846515187195097"><ele>103.0</ele><time>2026-04-06T08:10:50.002Z</time></trkpt><trkpt lat="44.86510335838109" lon="4.8465587253523985"><ele>103.00000000000001</ele><time>2026-04-06T08:10:52.002Z</time></trkpt><trkpt lat="44.86518963727388" lon="4.846602674282585"><ele>103.0</ele><time>2026-04-06T08:10:54.002Z</time></trkpt><trkpt lat="44.86527942819887" lon="4.8466477387081905"><ele>103.0</ele><time>2026-04-06T08:10:56.002Z</time></trkpt><trkpt lat="44.86535645400583" lon="4.846676647410967"><ele>103.0</ele><time>2026-04-06T08:10:58.002Z</time></trkpt><trkpt lat="44.86544404620945" lon="4.846691342709804"><ele>103.00000000000001</ele><time>2026-04-06T08:11:00.002Z</time></trkpt><trkpt lat="44.86550307777876" lon="4.846735547437592"><ele>103.0</ele><time>2026-04-06T08:11:02.002Z</time></trkpt><trkpt lat="44.865581352646174" lon="4.8467955571716965"><ele>103.0</ele><time>2026-04-06T08:11:04.002Z</time></trkpt><trkpt lat="44.86566584792676" lon="4.846822039231597"><ele>103.0</ele><time>2026-04-06T08:11:06.002Z</time></trkpt><trkpt lat="44.8657473493272" lon="4.84687213435753"><ele>103.0</ele><time>2026-04-06T08:11:08.002Z</time></trkpt><trkpt lat="44.86582512051242" lon="4.846931841793812"><ele>103.0</ele><time>2026-04-06T08:11:10.002Z</time></trkpt><trkpt lat="44.86590988065183" lon="4.846985049469885"><ele>103.0</ele><time>2026-04-06T08:11:12.002Z</time></trkpt><trkpt lat="44.86600153058901" lon="4.8470207004228865"><ele>102.66666666666667</ele><time>2026-04-06T08:11:14.002Z</time></trkpt><trkpt lat="44.86607915127809" lon="4.847082054533679"><ele>102.33333333333334</ele><time>2026-04-06T08:11:16.002Z</time></trkpt><trkpt lat="44.866155629321675" lon="4.847162224318648"><ele>102.0</ele><time>2026-04-06T08:11:18.002Z</time></trkpt><trkpt lat="44.86622902979322" lon="4.847233877171321"><ele>101.66666666666666</ele><time>2026-04-06T08:11:20.002Z</time></trkpt><trkpt lat="44.866300059460016" lon="4.8473072835559705"><ele>101.33333333333333</ele><time>2026-04-06T08:11:22.002Z</time></trkpt><trkpt lat="44.86636594232216" lon="4.847375228875475"><ele>101.0</ele><time>2026-04-06T08:11:24.002Z</time></trkpt><trkpt lat="44.86643993079919" lon="4.847431095928398"><ele>100.99999999999999</ele><time>2026-04-06T08:11:26.002Z</time></trkpt><trkpt lat="44.86649867185283" lon="4.8475127613736335"><ele>101.0</ele><time>2026-04-06T08:11:28.002Z</time></trkpt><trkpt lat="44.86657009771051" lon="4.8475872248715515"><ele>101.0</ele><time>2026-04-06T08:11:30.002Z</time></trkpt><trkpt lat="44.86665193990355" lon="4.84762860971025"><ele>101.0</ele><time>2026-04-06T08:11:32.002Z</time></trkpt><trkpt lat="44.86672780724471" lon="4.847682574770145"><ele>100.99999999999999</ele><time>2026-04-06T08:11:34.002Z</time></trkpt><trkpt lat="44.86678982860782" lon="4.847764783720968"><ele>101.0</ele><time>2026-04-06T08:11:36.001Z</time></trkpt><trkpt lat="44.866850618763046" lon="4.847843085540901"><ele>101.49999999999999</ele><time>2026-04-06T08:11:39.001Z</time></trkpt><trkpt lat="44.86690743320392" lon="4.8479206400214805"><ele>102.0</ele><time>2026-04-06T08:11:43.001Z</time></trkpt><trkpt lat="44.86698426608982" lon="4.8479715973438315"><ele>102.5</ele><time>2026-04-06T08:11:48.001Z</time></trkpt><trkpt lat="44.86704586266802" lon="4.84799772606775"><ele>103.0</ele><time>2026-04-06T08:11:50.001Z</time></trkpt><trkpt lat="44.867109750484225" lon="4.848038022944524"><ele>103.49999999999999</ele><time>2026-04-06T08:11:52.001Z</time></trkpt><trkpt lat="44.86718254851576" lon="4.848081915705279"><ele>104.0</ele><time>2026-04-06T08:11:54.001Z</time></trkpt><trkpt lat="44.86725662808531" lon="4.848122345983061"><ele>103.99999999999999</ele><time>2026-04-06T08:11:56.001Z</time></trkpt><trkpt lat="44.86732461848373" lon="4.84816894079524"><ele>104.0</ele><time>2026-04-06T08:11:58.001Z</time></trkpt><trkpt lat="44.86738719069557" lon="4.8482338702453225"><ele>104.0</ele><time>2026-04-06T08:12:00.001Z</time></trkpt><trkpt lat="44.86745972659064" lon="4.848271746464382"><ele>104.0</ele><time>2026-04-06T08:12:02.001Z</time></trkpt><trkpt lat="44.867537801349165" lon="4.8483128906978195"><ele>103.99999999999999</ele><time>2026-04-06T08:12:04.001Z</time></trkpt><trkpt lat="44.86762316170342" lon="4.848346703200501"><ele>104.0</ele><time>2026-04-06T08:12:06.001Z</time></trkpt><trkpt lat="44.86769908122805" lon="4.848356995671763"><ele>104.33333333333333</ele><time>2026-04-06T08:12:08.001Z</time></trkpt><trkpt lat="44.867779134109476" lon="4.84836396198351"><ele>104.66666666666666</ele><time>2026-04-06T08:12:10.001Z</time></trkpt><trkpt lat="44.867858923252754" lon="4.84837825257469"><ele>105.0</ele><time>2026-04-06T08:12:12.001Z</time></trkpt><trkpt lat="44.867937094964915" lon="4.8483945334467435"><ele>105.33333333333334</ele><time>2026-04-06T08:12:14.001Z</time></trkpt><trkpt lat="44.868013122661836" lon="4.848416436435713"><ele>105.66666666666667</ele><time>2026-04-06T08:12:16.001Z</time></trkpt><trkpt lat="44.86810245052945" lon="4.848435710430216"><ele>106.0</ele><time>2026-04-06T08:12:18.001Z</time></trkpt><trkpt lat="44.86817421459005" lon="4.848451834599219"><ele>106.00000000000001</ele><time>2026-04-06T08:12:20.001Z</time></trkpt><trkpt lat="44.86824556248956" lon="4.848475508025293"><ele>106.0</ele><time>2026-04-06T08:12:22.001Z</time></trkpt><trkpt lat="44.868334242047474" lon="4.848499341525832"><ele>106.0</ele><time>2026-04-06T08:12:24.002Z</time></trkpt><trkpt lat="44.86841474701832" lon="4.848521833383543"><ele>106.0</ele><time>2026-04-06T08:12:26.001Z</time></trkpt><trkpt lat="44.86849389413089" lon="4.8485310904960315"><ele>106.00000000000001</ele><time>2026-04-06T08:12:28.001Z</time></trkpt><trkpt lat="44.86857128841315" lon="4.848545152887126"><ele>106.0</ele><time>2026-04-06T08:12:30.001Z</time></trkpt><trkpt lat="44.86864958459952" lon="4.848547994189514"><ele>106.16666666666667</ele><time>2026-04-06T08:12:32.002Z</time></trkpt><trkpt lat="44.868728905916434" lon="4.848561121109485"><ele>106.33333333333334</ele><time>2026-04-06T08:12:34.001Z</time></trkpt><trkpt lat="44.868810935421195" lon="4.848575606888416"><ele>106.5</ele><time>2026-04-06T08:12:36.001Z</time></trkpt><trkpt lat="44.86888836422728" lon="4.8486082612562695"><ele>106.66666666666666</ele><time>2026-04-06T08:12:38.001Z</time></trkpt><trkpt lat="44.868965639329055" lon="4.848592118960563"><ele>106.83333333333333</ele><time>2026-04-06T08:12:40.001Z</time></trkpt><trkpt lat="44.86904601190417" lon="4.848599009365264"><ele>107.0</ele><time>2026-04-06T08:12:42.001Z</time></trkpt><trkpt lat="44.86913593015969" lon="4.848629364589995"><ele>107.0</ele><time>2026-04-06T08:12:44.001Z</time></trkpt><trkpt lat="44.86921975252602" lon="4.84867598342022"><ele>106.99999999999999</ele><time>2026-04-06T08:12:46.001Z</time></trkpt><trkpt lat="44.869303897837945" lon="4.848740834405635"><ele>106.99999999999999</ele><time>2026-04-06T08:12:48.001Z</time></trkpt><trkpt lat="44.869395190891716" lon="4.848790794876742"><ele>107.0</ele><time>2026-04-06T08:12:50.001Z</time></trkpt><trkpt lat="44.86948360179669" lon="4.848818016743439"><ele>107.0</ele><time>2026-04-06T08:12:52.001Z</time></trkpt><trkpt lat="44.86956503038566" lon="4.84882223603161"><ele>106.66666666666666</ele><time>2026-04-06T08:12:54.001Z</time></trkpt><trkpt lat="44.86965351795959" lon="4.848846192707713"><ele>106.33333333333333</ele><time>2026-04-06T08:12:56.001Z</time></trkpt><trkpt lat="44.86973923328461" lon="4.848853060846464"><ele>106.0</ele><time>2026-04-06T08:12:58.001Z</time></trkpt><trkpt lat="44.869824059947454" lon="4.848894343133963"><ele>105.66666666666666</ele><time>2026-04-06T08:13:00.001Z</time></trkpt><trkpt lat="44.869909432018524" lon="4.8488859666479165"><ele>105.33333333333333</ele><time>2026-04-06T08:13:02.001Z</time></trkpt><trkpt lat="44.86999503173477" lon="4.848908281978519"><ele>105.0</ele><time>2026-04-06T08:13:04.001Z</time></trkpt><trkpt lat="44.87007909385028" lon="4.848933053218136"><ele>105.0</ele><time>2026-04-06T08:13:06.001Z</time></trkpt><trkpt lat="44.870161402080704" lon="4.8489467995665345"><ele>105.0</ele><time>2026-04-06T08:13:08.001Z</time></trkpt><trkpt lat="44.87024204588421" lon="4.848966971619494"><ele>105.0</ele><time>2026-04-06T08:13:10.001Z</time></trkpt><trkpt lat="44.87032846998634" lon="4.848988038669448"><ele>105.0</ele><time>2026-04-06T08:13:12.001Z</time></trkpt><trkpt lat="44.870405937676296" lon="4.84900737366548"><ele>105.0</ele><time>2026-04-06T08:13:14.001Z</time></trkpt><trkpt lat="44.87049243082039" lon="4.8490314515212045"><ele>105.0</ele><time>2026-04-06T08:13:16.001Z</time></trkpt><trkpt lat="44.87057410442213" lon="4.849048411117716"><ele>105.0</ele><time>2026-04-06T08:13:18.001Z</time></trkpt><trkpt lat="44.87066824034185" lon="4.849060199828064"><ele>105.0</ele><time>2026-04-06T08:13:20.001Z</time></trkpt><trkpt lat="44.87075633314141" lon="4.849066549539605"><ele>105.0</ele><time>2026-04-06T08:13:22.001Z</time></trkpt><trkpt lat="44.87084147768488" lon="4.849077585240785"><ele>105.0</ele><time>2026-04-06T08:13:24.001Z</time></trkpt><trkpt lat="44.87092861080767" lon="4.849103068294874"><ele>105.0</ele><time>2026-04-06T08:13:26.001Z</time></trkpt><trkpt lat="44.87101290148139" lon="4.849117549283735"><ele>105.0</ele><time>2026-04-06T08:13:28.001Z</time></trkpt><trkpt lat="44.871097175276844" lon="4.849132239379418"><ele>104.83333333333333</ele><time>2026-04-06T08:13:30.001Z</time></trkpt><trkpt lat="44.87118668007371" lon="4.849159666567679"><ele>104.66666666666666</ele><time>2026-04-06T08:13:32.001Z</time></trkpt><trkpt lat="44.87127412394845" lon="4.849167031976391"><ele>104.5</ele><time>2026-04-06T08:13:34.001Z</time></trkpt><trkpt lat="44.871353673315504" lon="4.849176924908309"><ele>104.33333333333333</ele><time>2026-04-06T08:13:36.001Z</time></trkpt><trkpt lat="44.87144160911608" lon="4.849201692818792"><ele>104.16666666666666</ele><time>2026-04-06T08:13:38.001Z</time></trkpt><trkpt lat="44.87152932799338" lon="4.849231472906795"><ele>104.0</ele><time>2026-04-06T08:13:40.001Z</time></trkpt><trkpt lat="44.87161865450423" lon="4.849242798965151"><ele>103.99999999999999</ele><time>2026-04-06T08:13:42.001Z</time></trkpt><trkpt lat="44.87170491852058" lon="4.849270768872308"><ele>104.0</ele><time>2026-04-06T08:13:44.001Z</time></trkpt><trkpt lat="44.87179094275935" lon="4.8493014853546414"><ele>104.0</ele><time>2026-04-06T08:13:46.001Z</time></trkpt><trkpt lat="44.871877508706355" lon="4.849320259103375"><ele>104.0</ele><time>2026-04-06T08:13:48.001Z</time></trkpt><trkpt lat="44.871954054623025" lon="4.849357208325545"><ele>103.99999999999999</ele><time>2026-04-06T08:13:50.001Z</time></trkpt><trkpt lat="44.87203240388599" lon="4.84938120811482"><ele>104.0</ele><time>2026-04-06T08:13:52.001Z</time></trkpt><trkpt lat="44.872109300935485" lon="4.849404123639978"><ele>103.99999999999999</ele><time>2026-04-06T08:13:54.001Z</time></trkpt><trkpt lat="44.87219065500329" lon="4.84942760357213"><ele>104.0</ele><time>2026-04-06T08:13:56.001Z</time></trkpt><trkpt lat="44.87226598509808" lon="4.84945640382535"><ele>104.0</ele><time>2026-04-06T08:13:58.001Z</time></trkpt><trkpt lat="44.872344645627784" lon="4.849482340015691"><ele>104.0</ele><time>2026-04-06T08:14:00.001Z</time></trkpt><trkpt lat="44.87243257654453" lon="4.849500561759218"><ele>103.99999999999999</ele><time>2026-04-06T08:14:02.001Z</time></trkpt><trkpt lat="44.87252660760641" lon="4.849517948345538"><ele>104.0</ele><time>2026-04-06T08:14:04.001Z</time></trkpt><trkpt lat="44.87261877584591" lon="4.849541746224792"><ele>103.99999999999999</ele><time>2026-04-06T08:14:06.001Z</time></trkpt><trkpt lat="44.872704053554045" lon="4.849562355760405"><ele>104.0</ele><time>2026-04-06T08:14:08.001Z</time></trkpt><trkpt lat="44.872789021622964" lon="4.849576362780837"><ele>104.0</ele><time>2026-04-06T08:14:10.001Z</time></trkpt><trkpt lat="44.8728737283367" lon="4.84960226248225"><ele>104.0</ele><time>2026-04-06T08:14:12.001Z</time></trkpt><trkpt lat="44.87295681597202" lon="4.849645952945132"><ele>103.99999999999999</ele><time>2026-04-06T08:14:14.001Z</time></trkpt><trkpt lat="44.87303436872723" lon="4.849709995195518"><ele>104.0</ele><time>2026-04-06T08:14:16.001Z</time></trkpt><trkpt lat="44.8731086675495" lon="4.849790648361301"><ele>103.99999999999999</ele><time>2026-04-06T08:14:18.001Z</time></trkpt><trkpt lat="44.87318573329213" lon="4.849870997925548"><ele>104.0</ele><time>2026-04-06T08:14:20.001Z</time></trkpt><trkpt lat="44.87325572170379" lon="4.849944044043194"><ele>104.0</ele><time>2026-04-06T08:14:22.001Z</time></trkpt><trkpt lat="44.8733325832522" lon="4.849996230609107"><ele>104.0</ele><time>2026-04-06T08:14:24.001Z</time></trkpt><trkpt lat="44.873411448450526" lon="4.8500379553148605"><ele>103.99999999999999</ele><time>2026-04-06T08:14:26.001Z</time></trkpt><trkpt lat="44.873493699161095" lon="4.850068386263787"><ele>104.0</ele><time>2026-04-06T08:14:28.001Z</time></trkpt><trkpt lat="44.873575701407354" lon="4.850103268779953"><ele>103.2</ele><time>2026-04-06T08:14:30.001Z</time></trkpt><trkpt lat="44.87366738841329" lon="4.850127425761586"><ele>102.4</ele><time>2026-04-06T08:14:32.001Z</time></trkpt><trkpt lat="44.87375939207684" lon="4.8501597534121315"><ele>101.6</ele><time>2026-04-06T08:14:34.001Z</time></trkpt><trkpt lat="44.87384919687406" lon="4.850189535887498"><ele>100.8</ele><time>2026-04-06T08:14:36.001Z</time></trkpt><trkpt lat="44.87393657920431" lon="4.85021144486865"><ele>100.0</ele><time>2026-04-06T08:14:38.002Z</time></trkpt><trkpt lat="44.87402916746023" lon="4.850237454634183"><ele>100.0</ele><time>2026-04-06T08:14:40.002Z</time></trkpt><trkpt lat="44.87410991456666" lon="4.850266424904666"><ele>100.0</ele><time>2026-04-06T08:14:42.001Z</time></trkpt><trkpt lat="44.8741943590921" lon="4.8502907244391915"><ele>100.0</ele><time>2026-04-06T08:14:44.001Z</time></trkpt><trkpt lat="44.87427734204175" lon="4.850315367091678"><ele>100.0</ele><time>2026-04-06T08:14:46.001Z</time></trkpt><trkpt lat="44.874372755521634" lon="4.850353724716084"><ele>100.0</ele><time>2026-04-06T08:14:48.001Z</time></trkpt><trkpt lat="44.874483428401184" lon="4.850378128448712"><ele>100.4</ele><time>2026-04-06T08:14:50.001Z</time></trkpt><trkpt lat="44.87459733684949" lon="4.850422392552115"><ele>100.8</ele><time>2026-04-06T08:14:52.001Z</time></trkpt><trkpt lat="44.87470283014703" lon="4.850461893748527"><ele>101.19999999999999</ele><time>2026-04-06T08:14:54.001Z</time></trkpt><trkpt lat="44.874808478685146" lon="4.850492486380824"><ele>101.6</ele><time>2026-04-06T08:14:56.001Z</time></trkpt><trkpt lat="44.87491523818348" lon="4.850527457701068"><ele>102.0</ele><time>2026-04-06T08:14:58.001Z</time></trkpt><trkpt lat="44.87501654162528" lon="4.850559123049647"><ele>102.19999999999999</ele><time>2026-04-06T08:15:00.001Z</time></trkpt><trkpt lat="44.87511963778963" lon="4.850574934730943"><ele>102.4</ele><time>2026-04-06T08:15:02.001Z</time></trkpt><trkpt lat="44.875216770507755" lon="4.85057759738649"><ele>102.6</ele><time>2026-04-06T08:15:04.001Z</time></trkpt><trkpt lat="44.875312869938725" lon="4.850575946525553"><ele>102.80000000000001</ele><time>2026-04-06T08:15:06.001Z</time></trkpt><trkpt lat="44.87539991155897" lon="4.850592685732576"><ele>103.0</ele><time>2026-04-06T08:15:08.001Z</time></trkpt><trkpt lat="44.87547831678085" lon="4.8505866587966695"><ele>103.0</ele><time>2026-04-06T08:15:10.001Z</time></trkpt><trkpt lat="44.875568658818466" lon="4.850607327862377"><ele>103.0</ele><time>2026-04-06T08:15:12.001Z</time></trkpt><trkpt lat="44.87566686674587" lon="4.850604377069589"><ele>103.0</ele><time>2026-04-06T08:15:14.001Z</time></trkpt><trkpt lat="44.87577024167509" lon="4.850612099231645"><ele>103.0</ele><time>2026-04-06T08:15:16.001Z</time></trkpt><trkpt lat="44.875854425679236" lon="4.850590689702488"><ele>103.0</ele><time>2026-04-06T08:15:18.001Z</time></trkpt><trkpt lat="44.8759409191873" lon="4.850581291843461"><ele>103.00000000000001</ele><time>2026-04-06T08:15:20.001Z</time></trkpt><trkpt lat="44.87601410717386" lon="4.850580742957542"><ele>103.0</ele><time>2026-04-06T08:15:22.001Z</time></trkpt><trkpt lat="44.87608085240941" lon="4.850569072450132"><ele>103.0</ele><time>2026-04-06T08:15:24.001Z</time></trkpt><trkpt lat="44.876151853856015" lon="4.850556215894313"><ele>103.0</ele><time>2026-04-06T08:15:26.001Z</time></trkpt><trkpt lat="44.87624089032691" lon="4.850532557331821"><ele>103.00000000000001</ele><time>2026-04-06T08:15:28.001Z</time></trkpt><trkpt lat="44.87633059638097" lon="4.850517070173127"><ele>103.0</ele><time>2026-04-06T08:15:30.001Z</time></trkpt><trkpt lat="44.87642157660974" lon="4.850488296700673"><ele>103.0</ele><time>2026-04-06T08:15:32.001Z</time></trkpt><trkpt lat="44.876510636619315" lon="4.850453238133637"><ele>103.0</ele><time>2026-04-06T08:15:34.001Z</time></trkpt><trkpt lat="44.87659364223551" lon="4.850426354552975"><ele>103.0</ele><time>2026-04-06T08:15:36.001Z</time></trkpt><trkpt lat="44.87669561161819" lon="4.850393479900153"><ele>103.0</ele><time>2026-04-06T08:15:38.001Z</time></trkpt><trkpt lat="44.87678127983416" lon="4.850356816830841"><ele>103.0</ele><time>2026-04-06T08:15:40.001Z</time></trkpt><trkpt lat="44.87687892343051" lon="4.850315423273701"><ele>102.80000000000001</ele><time>2026-04-06T08:15:42.001Z</time></trkpt><trkpt lat="44.87697459680134" lon="4.850272801974644"><ele>102.6</ele><time>2026-04-06T08:15:44.001Z</time></trkpt><trkpt lat="44.877064493884475" lon="4.850242918127622"><ele>102.4</ele><time>2026-04-06T08:15:46.001Z</time></trkpt><trkpt lat="44.87715663853436" lon="4.850192651784065"><ele>102.19999999999999</ele><time>2026-04-06T08:15:48.001Z</time></trkpt><trkpt lat="44.87725042350056" lon="4.8501493010408785"><ele>102.0</ele><time>2026-04-06T08:15:50.001Z</time></trkpt><trkpt lat="44.87734085501706" lon="4.85010783064892"><ele>102.39999999999999</ele><time>2026-04-06T08:15:52.001Z</time></trkpt><trkpt lat="44.87743397721446" lon="4.850075062565296"><ele>102.8</ele><time>2026-04-06T08:15:54.001Z</time></trkpt><trkpt lat="44.877527983379764" lon="4.85002774263754"><ele>103.2</ele><time>2026-04-06T08:15:56.001Z</time></trkpt><trkpt lat="44.87762052321812" lon="4.849999760931548"><ele>103.6</ele><time>2026-04-06T08:15:58.001Z</time></trkpt><trkpt lat="44.87771408350018" lon="4.8499756878319085"><ele>104.0</ele><time>2026-04-06T08:16:00.001Z</time></trkpt><trkpt lat="44.877816641417446" lon="4.849962539246998"><ele>104.2</ele><time>2026-04-06T08:16:02.001Z</time></trkpt><trkpt lat="44.87790904007329" lon="4.849964834450489"><ele>104.4</ele><time>2026-04-06T08:16:04.001Z</time></trkpt><trkpt lat="44.87800411054297" lon="4.849978974793896"><ele>104.6</ele><time>2026-04-06T08:16:06.001Z</time></trkpt><trkpt lat="44.878100048683294" lon="4.849990382976097"><ele>104.8</ele><time>2026-04-06T08:16:08.001Z</time></trkpt><trkpt lat="44.878184030850164" lon="4.850004822536227"><ele>105.0</ele><time>2026-04-06T08:16:10.001Z</time></trkpt><trkpt lat="44.87828158014181" lon="4.850036623828283"><ele>105.0</ele><time>2026-04-06T08:16:12.001Z</time></trkpt><trkpt lat="44.87836940099927" lon="4.850066796799889"><ele>105.0</ele><time>2026-04-06T08:16:14.001Z</time></trkpt><trkpt lat="44.87845490252629" lon="4.850102864251057"><ele>105.0</ele><time>2026-04-06T08:16:16.001Z</time></trkpt><trkpt lat="44.87853695612151" lon="4.850135487281345"><ele>105.0</ele><time>2026-04-06T08:16:18.001Z</time></trkpt><trkpt lat="44.878623984357105" lon="4.85016783890397"><ele>105.0</ele><time>2026-04-06T08:16:20.001Z</time></trkpt><trkpt lat="44.8787168919063" lon="4.85019871197554"><ele>105.4</ele><time>2026-04-06T08:16:22.001Z</time></trkpt><trkpt lat="44.8788136344754" lon="4.850213177699451"><ele>105.8</ele><time>2026-04-06T08:16:24.001Z</time></trkpt><trkpt lat="44.87891133956252" lon="4.850238432502843"><ele>106.19999999999999</ele><time>2026-04-06T08:16:26.001Z</time></trkpt><trkpt lat="44.87900657726427" lon="4.850254343177326"><ele>106.6</ele><time>2026-04-06T08:16:28.001Z</time></trkpt><trkpt lat="44.87910698682432" lon="4.850273893862943"><ele>107.0</ele><time>2026-04-06T08:16:30.001Z</time></trkpt><trkpt lat="44.87920485580463" lon="4.850296790730556"><ele>107.0</ele><time>2026-04-06T08:16:32Z</time></trkpt><trkpt lat="44.8792970119878" lon="4.850314462374972"><ele>106.99999999999999</ele><time>2026-04-06T08:16:34Z</time></trkpt><trkpt lat="44.87939428554254" lon="4.850347323809514"><ele>106.99999999999999</ele><time>2026-04-06T08:16:36.002Z</time></trkpt><trkpt lat="44.8794887816611" lon="4.850367784444795"><ele>107.0</ele><time>2026-04-06T08:16:38.001Z</time></trkpt><trkpt lat="44.879584320120564" lon="4.850389458135424"><ele>107.0</ele><time>2026-04-06T08:16:40.002Z</time></trkpt><trkpt lat="44.87967733252792" lon="4.8504166346897835"><ele>107.0</ele><time>2026-04-06T08:16:42.002Z</time></trkpt><trkpt lat="44.879767878866346" lon="4.850441454042357"><ele>106.99999999999999</ele><time>2026-04-06T08:16:44.001Z</time></trkpt><trkpt lat="44.879858645032364" lon="4.850464154179862"><ele>106.99999999999999</ele><time>2026-04-06T08:16:46.001Z</time></trkpt><trkpt lat="44.87994645484001" lon="4.850489380222754"><ele>107.0</ele><time>2026-04-06T08:16:48.002Z</time></trkpt><trkpt lat="44.88003499750405" lon="4.850506519964425"><ele>107.0</ele><time>2026-04-06T08:16:50.002Z</time></trkpt><trkpt lat="44.88012078986968" lon="4.8505262944369845"><ele>106.83333333333333</ele><time>2026-04-06T08:16:52.002Z</time></trkpt><trkpt lat="44.880203862590484" lon="4.850533564665579"><ele>106.66666666666666</ele><time>2026-04-06T08:16:54.001Z</time></trkpt><trkpt lat="44.8802878891454" lon="4.850552186350162"><ele>106.5</ele><time>2026-04-06T08:16:56.001Z</time></trkpt><trkpt lat="44.88037005972388" lon="4.850559501768743"><ele>106.33333333333334</ele><time>2026-04-06T08:16:58.001Z</time></trkpt><trkpt lat="44.88045164826019" lon="4.85057015733812"><ele>106.16666666666667</ele><time>2026-04-06T08:17:00.001Z</time></trkpt><trkpt lat="44.880518921285926" lon="4.8505826854873275"><ele>106.0</ele><time>2026-04-06T08:17:02.001Z</time></trkpt><trkpt lat="44.88061603298785" lon="4.850610125250241"><ele>106.00000000000001</ele><time>2026-04-06T08:17:05.001Z</time></trkpt><trkpt lat="44.88067430676419" lon="4.85065987873933"><ele>106.0</ele><time>2026-04-06T08:17:09.001Z</time></trkpt><trkpt lat="44.88058948936431" lon="4.850704649233273"><ele>106.0</ele><time>2026-04-06T08:17:12.001Z</time></trkpt><trkpt lat="44.880511608716226" lon="4.850694690315515"><ele>106.0</ele><time>2026-04-06T08:17:14.001Z</time></trkpt><trkpt lat="44.88042343906889" lon="4.85068232905529"><ele>106.00000000000001</ele><time>2026-04-06T08:17:16.001Z</time></trkpt><trkpt lat="44.88033025799227" lon="4.850675536037329"><ele>106.0</ele><time>2026-04-06T08:17:18.001Z</time></trkpt><trkpt lat="44.88024173645695" lon="4.850692373506818"><ele>106.0</ele><time>2026-04-06T08:17:20.001Z</time></trkpt><trkpt lat="44.88013055093745" lon="4.850727737623393"><ele>106.0</ele><time>2026-04-06T08:17:22.001Z</time></trkpt><trkpt lat="44.8800353136791" lon="4.850813536484903"><ele>106.0</ele><time>2026-04-06T08:17:24.001Z</time></trkpt><trkpt lat="44.879942174534456" lon="4.850902616524401"><ele>106.0</ele><time>2026-04-06T08:17:26.001Z</time></trkpt><trkpt lat="44.879843822389205" lon="4.850974931982617"><ele>106.8</ele><time>2026-04-06T08:17:28.001Z</time></trkpt><trkpt lat="44.879737697030336" lon="4.851054923687883"><ele>107.6</ele><time>2026-04-06T08:17:30.001Z</time></trkpt><trkpt lat="44.87964207786314" lon="4.851129244962699"><ele>108.4</ele><time>2026-04-06T08:17:32.001Z</time></trkpt><trkpt lat="44.87955320747246" lon="4.851224285384304"><ele>109.2</ele><time>2026-04-06T08:17:34.001Z</time></trkpt><trkpt lat="44.87946436643227" lon="4.851299533919886"><ele>110.0</ele><time>2026-04-06T08:17:36.001Z</time></trkpt><trkpt lat="44.879397384641166" lon="4.851416422542911"><ele>110.0</ele><time>2026-04-06T08:17:38.001Z</time></trkpt><trkpt lat="44.87937515116267" lon="4.85158537005317"><ele>110.0</ele><time>2026-04-06T08:17:40.001Z</time></trkpt><trkpt lat="44.87938388760963" lon="4.8517343525460825"><ele>110.0</ele><time>2026-04-06T08:17:42.001Z</time></trkpt><trkpt lat="44.879368025370056" lon="4.851893605279073"><ele>110.0</ele><time>2026-04-06T08:17:44.001Z</time></trkpt><trkpt lat="44.87938724725998" lon="4.8520246063155374"><ele>110.0</ele><time>2026-04-06T08:17:46.001Z</time></trkpt><trkpt lat="44.879428368403524" lon="4.852138234808574"><ele>109.16666666666666</ele><time>2026-04-06T08:17:48.001Z</time></trkpt><trkpt lat="44.87947022019164" lon="4.852223806154115"><ele>108.33333333333333</ele><time>2026-04-06T08:17:50.001Z</time></trkpt><trkpt lat="44.879532153995115" lon="4.8522899725206585"><ele>107.5</ele><time>2026-04-06T08:17:52.001Z</time></trkpt><trkpt lat="44.879600743722435" lon="4.852340231999455"><ele>106.66666666666666</ele><time>2026-04-06T08:17:54.001Z</time></trkpt><trkpt lat="44.87967503235786" lon="4.852395492293873"><ele>105.83333333333333</ele><time>2026-04-06T08:17:56.001Z</time></trkpt><trkpt lat="44.879750778674506" lon="4.852396071423821"><ele>105.0</ele><time>2026-04-06T08:17:58.001Z</time></trkpt><trkpt lat="44.87982786839316" lon="4.8523749139282"><ele>105.0</ele><time>2026-04-06T08:18:00.001Z</time></trkpt><trkpt lat="44.87991942142594" lon="4.85234788577081"><ele>105.0</ele><time>2026-04-06T08:18:02.001Z</time></trkpt><trkpt lat="44.87999286500256" lon="4.852353731527303"><ele>105.0</ele><time>2026-04-06T08:18:04.001Z</time></trkpt><trkpt lat="44.880056961615914" lon="4.852390629218196"><ele>105.0</ele><time>2026-04-06T08:18:06.001Z</time></trkpt><trkpt lat="44.88012213552575" lon="4.852455924661602"><ele>105.0</ele><time>2026-04-06T08:18:08.001Z</time></trkpt><trkpt lat="44.880187613413604" lon="4.852548811434763"><ele>105.0</ele><time>2026-04-06T08:18:10.001Z</time></trkpt><trkpt lat="44.880240579582285" lon="4.852627749500368"><ele>104.5</ele><time>2026-04-06T08:18:12.001Z</time></trkpt><trkpt lat="44.88029364346981" lon="4.852726232827207"><ele>104.0</ele><time>2026-04-06T08:18:14.001Z</time></trkpt><trkpt lat="44.88033451791022" lon="4.852804571209487"><ele>103.5</ele><time>2026-04-06T08:18:16.001Z</time></trkpt><trkpt lat="44.88039234563841" lon="4.852891137844087"><ele>103.0</ele><time>2026-04-06T08:18:18.001Z</time></trkpt><trkpt lat="44.88044604472233" lon="4.8529900133683395"><ele>102.5</ele><time>2026-04-06T08:18:20.001Z</time></trkpt><trkpt lat="44.88049495186595" lon="4.853079332697865"><ele>102.0</ele><time>2026-04-06T08:18:22.001Z</time></trkpt><trkpt lat="44.880553887920364" lon="4.853160613530321"><ele>102.0</ele><time>2026-04-06T08:18:24.001Z</time></trkpt><trkpt lat="44.88058145854904" lon="4.853254422053367"><ele>102.0</ele><time>2026-04-06T08:18:26.001Z</time></trkpt><trkpt lat="44.88064334653482" lon="4.853359667639467"><ele>102.0</ele><time>2026-04-06T08:18:28.001Z</time></trkpt><trkpt lat="44.88071471659447" lon="4.85345830760487"><ele>102.0</ele><time>2026-04-06T08:18:30.001Z</time></trkpt><trkpt lat="44.88075994946394" lon="4.85357440910906"><ele>102.0</ele><time>2026-04-06T08:18:32.001Z</time></trkpt><trkpt lat="44.880812174475544" lon="4.8536929787436485"><ele>102.0</ele><time>2026-04-06T08:18:34.001Z</time></trkpt><trkpt lat="44.8808621229786" lon="4.853791570277045"><ele>102.0</ele><time>2026-04-06T08:18:36.001Z</time></trkpt><trkpt lat="44.8809016245746" lon="4.8539046835981035"><ele>102.0</ele><time>2026-04-06T08:18:39.001Z</time></trkpt><trkpt lat="44.88096561599429" lon="4.853960792106001"><ele>102.0</ele><time>2026-04-06T08:18:41.002Z</time></trkpt><trkpt lat="44.881041474358454" lon="4.853976285836127"><ele>102.0</ele><time>2026-04-06T08:18:43.001Z</time></trkpt><trkpt lat="44.88112083789751" lon="4.854002132336651"><ele>102.0</ele><time>2026-04-06T08:18:45.001Z</time></trkpt><trkpt lat="44.88119667251466" lon="4.854028843865151"><ele>102.0</ele><time>2026-04-06T08:18:47.002Z</time></trkpt><trkpt lat="44.881272181051465" lon="4.854041368864167"><ele>102.0</ele><time>2026-04-06T08:18:49.001Z</time></trkpt><trkpt lat="44.88134596917398" lon="4.8540618146869035"><ele>102.0</ele><time>2026-04-06T08:18:51.001Z</time></trkpt><trkpt lat="44.88142186267829" lon="4.8540850377530615"><ele>102.0</ele><time>2026-04-06T08:18:53.002Z</time></trkpt><trkpt lat="44.881500050554685" lon="4.8541032856964765"><ele>102.0</ele><time>2026-04-06T08:18:55.001Z</time></trkpt><trkpt lat="44.88157604002292" lon="4.854125947503429"><ele>102.0</ele><time>2026-04-06T08:18:57.001Z</time></trkpt><trkpt lat="44.88165246808929" lon="4.854138644022084"><ele>102.0</ele><time>2026-04-06T08:18:59.001Z</time></trkpt><trkpt lat="44.88173300959187" lon="4.854181556969378"><ele>102.0</ele><time>2026-04-06T08:19:01.001Z</time></trkpt><trkpt lat="44.8818207721095" lon="4.8542212862061085"><ele>102.0</ele><time>2026-04-06T08:19:03.001Z</time></trkpt><trkpt lat="44.88191021943139" lon="4.854262425097215"><ele>102.0</ele><time>2026-04-06T08:19:05.001Z</time></trkpt><trkpt lat="44.88199864108487" lon="4.854308867701845"><ele>102.0</ele><time>2026-04-06T08:19:07.001Z</time></trkpt><trkpt lat="44.882085204552155" lon="4.854352773220124"><ele>102.16666666666667</ele><time>2026-04-06T08:19:09.001Z</time></trkpt><trkpt lat="44.88217011209886" lon="4.854404016854555"><ele>102.33333333333334</ele><time>2026-04-06T08:19:11.001Z</time></trkpt><trkpt lat="44.8822473244492" lon="4.854445209608307"><ele>102.5</ele><time>2026-04-06T08:19:13.001Z</time></trkpt><trkpt lat="44.882319307814974" lon="4.854475641724364"><ele>102.66666666666667</ele><time>2026-04-06T08:19:15.001Z</time></trkpt><trkpt lat="44.88239346501348" lon="4.854513480265097"><ele>102.83333333333334</ele><time>2026-04-06T08:19:17.001Z</time></trkpt><trkpt lat="44.88247806617762" lon="4.85455235368896"><ele>103.0</ele><time>2026-04-06T08:19:19.001Z</time></trkpt><trkpt lat="44.88255910617646" lon="4.85460310665681"><ele>103.00000000000001</ele><time>2026-04-06T08:19:21.001Z</time></trkpt><trkpt lat="44.88264198079912" lon="4.854640733648699"><ele>103.0</ele><time>2026-04-06T08:19:23.001Z</time></trkpt><trkpt lat="44.88272243141722" lon="4.854693110346149"><ele>103.0</ele><time>2026-04-06T08:19:25.001Z</time></trkpt><trkpt lat="44.88280230788853" lon="4.8547512846661585"><ele>103.0</ele><time>2026-04-06T08:19:27.001Z</time></trkpt><trkpt lat="44.88288088377805" lon="4.85479972089056"><ele>103.00000000000001</ele><time>2026-04-06T08:19:29.001Z</time></trkpt><trkpt lat="44.88296461753699" lon="4.854853485939352"><ele>103.0</ele><time>2026-04-06T08:19:31.001Z</time></trkpt><trkpt lat="44.883050294452595" lon="4.854885160986491"><ele>103.00000000000001</ele><time>2026-04-06T08:19:33.001Z</time></trkpt><trkpt lat="44.88313027249426" lon="4.854897866448859"><ele>103.0</ele><time>2026-04-06T08:19:35.001Z</time></trkpt><trkpt lat="44.88322896097314" lon="4.854909646944508"><ele>103.0</ele><time>2026-04-06T08:19:37.001Z</time></trkpt><trkpt lat="44.8833159335265" lon="4.8549194565326115"><ele>103.0</ele><time>2026-04-06T08:19:39.001Z</time></trkpt><trkpt lat="44.88340218995919" lon="4.854928589633991"><ele>103.00000000000001</ele><time>2026-04-06T08:19:41.001Z</time></trkpt><trkpt lat="44.88348379921947" lon="4.854942389646803"><ele>103.0</ele><time>2026-04-06T08:19:43.001Z</time></trkpt><trkpt lat="44.88357012572326" lon="4.854932702204479"><ele>102.80000000000001</ele><time>2026-04-06T08:19:45.001Z</time></trkpt><trkpt lat="44.88365954514504" lon="4.854933885353126"><ele>102.6</ele><time>2026-04-06T08:19:47.001Z</time></trkpt><trkpt lat="44.88375235130864" lon="4.854915890893983"><ele>102.4</ele><time>2026-04-06T08:19:49.001Z</time></trkpt><trkpt lat="44.883839840803084" lon="4.854899429683121"><ele>102.19999999999999</ele><time>2026-04-06T08:19:51.001Z</time></trkpt><trkpt lat="44.88392317851979" lon="4.8548871929765"><ele>102.0</ele><time>2026-04-06T08:19:53.001Z</time></trkpt><trkpt lat="44.88402138664024" lon="4.854880321756201"><ele>102.0</ele><time>2026-04-06T08:19:55.001Z</time></trkpt><trkpt lat="44.884114733086065" lon="4.854871400451807"><ele>102.0</ele><time>2026-04-06T08:19:57.001Z</time></trkpt><trkpt lat="44.88421265341653" lon="4.854862008290953"><ele>102.0</ele><time>2026-04-06T08:19:59.001Z</time></trkpt><trkpt lat="44.884306605988655" lon="4.854853090385224"><ele>102.0</ele><time>2026-04-06T08:20:01.001Z</time></trkpt><trkpt lat="44.88440078844489" lon="4.8548410049258255"><ele>102.0</ele><time>2026-04-06T08:20:03.001Z</time></trkpt><trkpt lat="44.88448857396354" lon="4.854824725222157"><ele>102.66666666666667</ele><time>2026-04-06T08:20:05.001Z</time></trkpt><trkpt lat="44.88457512018515" lon="4.854793768532795"><ele>103.33333333333334</ele><time>2026-04-06T08:20:07.001Z</time></trkpt><trkpt lat="44.88465118361957" lon="4.85474828396555"><ele>104.0</ele><time>2026-04-06T08:20:09.001Z</time></trkpt><trkpt lat="44.88472586108111" lon="4.854704579001933"><ele>104.66666666666667</ele><time>2026-04-06T08:20:11.001Z</time></trkpt><trkpt lat="44.884811692390265" lon="4.854669073927419"><ele>105.33333333333334</ele><time>2026-04-06T08:20:13.001Z</time></trkpt><trkpt lat="44.88489144141483" lon="4.854648727622179"><ele>106.0</ele><time>2026-04-06T08:20:15.001Z</time></trkpt><trkpt lat="44.88496800355999" lon="4.854628957238474"><ele>106.00000000000001</ele><time>2026-04-06T08:20:17.001Z</time></trkpt><trkpt lat="44.885035947678844" lon="4.854617147668919"><ele>106.0</ele><time>2026-04-06T08:20:19.001Z</time></trkpt><trkpt lat="44.885110038032984" lon="4.854609395020486"><ele>106.0</ele><time>2026-04-06T08:20:21.001Z</time></trkpt><trkpt lat="44.885182755365015" lon="4.854638397642721"><ele>106.0</ele><time>2026-04-06T08:20:23.001Z</time></trkpt><trkpt lat="44.88525674435002" lon="4.854627686381412"><ele>106.00000000000001</ele><time>2026-04-06T08:20:25.001Z</time></trkpt><trkpt lat="44.88533251004649" lon="4.854601196728853"><ele>106.0</ele><time>2026-04-06T08:20:27.001Z</time></trkpt><trkpt lat="44.885416526970644" lon="4.8545680193814915"><ele>105.66666666666667</ele><time>2026-04-06T08:20:29.001Z</time></trkpt><trkpt lat="44.88548907667471" lon="4.854510004747882"><ele>105.33333333333334</ele><time>2026-04-06T08:20:31.001Z</time></trkpt><trkpt lat="44.88556757128183" lon="4.854457976095148"><ele>105.0</ele><time>2026-04-06T08:20:33.001Z</time></trkpt><trkpt lat="44.885649421004345" lon="4.854399597659908"><ele>104.66666666666666</ele><time>2026-04-06T08:20:35.001Z</time></trkpt><trkpt lat="44.88572315297233" lon="4.854347383625982"><ele>104.33333333333333</ele><time>2026-04-06T08:20:37.001Z</time></trkpt><trkpt lat="44.88580074390991" lon="4.854287142588813"><ele>104.0</ele><time>2026-04-06T08:20:39.001Z</time></trkpt><trkpt lat="44.88587962432435" lon="4.854230921910214"><ele>104.16666666666666</ele><time>2026-04-06T08:20:41.001Z</time></trkpt><trkpt lat="44.885957614101834" lon="4.854183094191259"><ele>104.33333333333333</ele><time>2026-04-06T08:20:43.001Z</time></trkpt><trkpt lat="44.88604902052306" lon="4.85413000200175"><ele>104.5</ele><time>2026-04-06T08:20:45.001Z</time></trkpt><trkpt lat="44.886121135924995" lon="4.854067938236208"><ele>104.66666666666666</ele><time>2026-04-06T08:20:47.002Z</time></trkpt><trkpt lat="44.88620603108364" lon="4.85401332744438"><ele>104.83333333333333</ele><time>2026-04-06T08:20:49.002Z</time></trkpt><trkpt lat="44.88628507816214" lon="4.8539646032481345"><ele>105.0</ele><time>2026-04-06T08:20:51.002Z</time></trkpt><trkpt lat="44.88636268434279" lon="4.853904266391632"><ele>105.0</ele><time>2026-04-06T08:20:53.002Z</time></trkpt><trkpt lat="44.8864397107929" lon="4.85385969143926"><ele>105.0</ele><time>2026-04-06T08:20:55.002Z</time></trkpt><trkpt lat="44.88651096426053" lon="4.853798346665452"><ele>105.0</ele><time>2026-04-06T08:20:57.002Z</time></trkpt><trkpt lat="44.8866100010612" lon="4.853741846405603"><ele>105.0</ele><time>2026-04-06T08:20:59.002Z</time></trkpt><trkpt lat="44.88669070008676" lon="4.85370343080462"><ele>105.0</ele><time>2026-04-06T08:21:01.002Z</time></trkpt><trkpt lat="44.88677244356018" lon="4.85365959582722"><ele>105.0</ele><time>2026-04-06T08:21:03.002Z</time></trkpt><trkpt lat="44.88685332532049" lon="4.853596418279456"><ele>105.0</ele><time>2026-04-06T08:21:05.002Z</time></trkpt><trkpt lat="44.886940141132" lon="4.853535664454884"><ele>105.0</ele><time>2026-04-06T08:21:07.002Z</time></trkpt><trkpt lat="44.88703119148041" lon="4.853480454797438"><ele>105.0</ele><time>2026-04-06T08:21:09.002Z</time></trkpt><trkpt lat="44.88713072703095" lon="4.853437127348822"><ele>105.0</ele><time>2026-04-06T08:21:11.002Z</time></trkpt><trkpt lat="44.88722070934091" lon="4.853399865532668"><ele>105.0</ele><time>2026-04-06T08:21:13.002Z</time></trkpt><trkpt lat="44.88731326873433" lon="4.853345060679723"><ele>105.0</ele><time>2026-04-06T08:21:15.002Z</time></trkpt><trkpt lat="44.8874022823088" lon="4.853299674407441"><ele>105.0</ele><time>2026-04-06T08:21:17.002Z</time></trkpt><trkpt lat="44.88748972912516" lon="4.853248685025181"><ele>105.0</ele><time>2026-04-06T08:21:19.002Z</time></trkpt><trkpt lat="44.88757096181811" lon="4.853202491174211"><ele>105.0</ele><time>2026-04-06T08:21:21.002Z</time></trkpt><trkpt lat="44.88765099660464" lon="4.853151791325768"><ele>105.0</ele><time>2026-04-06T08:21:23.002Z</time></trkpt><trkpt lat="44.88772600749094" lon="4.853095515528389"><ele>105.0</ele><time>2026-04-06T08:21:25.002Z</time></trkpt><trkpt lat="44.887807195376894" lon="4.853060185013671"><ele>105.16666666666667</ele><time>2026-04-06T08:21:27.002Z</time></trkpt><trkpt lat="44.88788234822059" lon="4.853029320091953"><ele>105.33333333333334</ele><time>2026-04-06T08:21:29.002Z</time></trkpt><trkpt lat="44.88795794181331" lon="4.852989684153014"><ele>105.5</ele><time>2026-04-06T08:21:31.002Z</time></trkpt><trkpt lat="44.888036465086415" lon="4.852942357336856"><ele>105.66666666666667</ele><time>2026-04-06T08:21:33.002Z</time></trkpt><trkpt lat="44.88812641899785" lon="4.852907443852181"><ele>105.83333333333334</ele><time>2026-04-06T08:21:35.002Z</time></trkpt><trkpt lat="44.88821139508811" lon="4.8528611552621514"><ele>106.0</ele><time>2026-04-06T08:21:37.002Z</time></trkpt><trkpt lat="44.88827333195814" lon="4.852812999307806"><ele>106.0</ele><time>2026-04-06T08:21:39.002Z</time></trkpt><trkpt lat="44.888362913062714" lon="4.852764571281486"><ele>106.0</ele><time>2026-04-06T08:21:41.002Z</time></trkpt><trkpt lat="44.88844420046715" lon="4.85271739979095"><ele>106.0</ele><time>2026-04-06T08:21:43.002Z</time></trkpt><trkpt lat="44.88853486326184" lon="4.852669640322662"><ele>106.0</ele><time>2026-04-06T08:21:45.002Z</time></trkpt><trkpt lat="44.88861709311504" lon="4.852630677570907"><ele>106.0</ele><time>2026-04-06T08:21:47.002Z</time></trkpt><trkpt lat="44.88870828827826" lon="4.8526038569181305"><ele>106.16666666666667</ele><time>2026-04-06T08:21:49.002Z</time></trkpt><trkpt lat="44.88879177344991" lon="4.852569289001209"><ele>106.33333333333334</ele><time>2026-04-06T08:21:51.002Z</time></trkpt><trkpt lat="44.88887641196337" lon="4.852547915104727"><ele>106.5</ele><time>2026-04-06T08:21:53.002Z</time></trkpt><trkpt lat="44.8889603538764" lon="4.852521950502475"><ele>106.66666666666666</ele><time>2026-04-06T08:21:55.002Z</time></trkpt><trkpt lat="44.88903251279787" lon="4.852494148570621"><ele>106.83333333333333</ele><time>2026-04-06T08:21:57.002Z</time></trkpt><trkpt lat="44.88911525973833" lon="4.8524785034293085"><ele>107.0</ele><time>2026-04-06T08:21:59.002Z</time></trkpt><trkpt lat="44.889212437978" lon="4.852477883743237"><ele>107.6</ele><time>2026-04-06T08:22:02.002Z</time></trkpt><trkpt lat="44.889296874468045" lon="4.852472304872045"><ele>108.19999999999999</ele><time>2026-04-06T08:22:07.002Z</time></trkpt><trkpt lat="44.88942439187367" lon="4.852479339649906"><ele>108.8</ele><time>2026-04-06T08:24:02.002Z</time></trkpt><trkpt lat="44.88951553016721" lon="4.852427541223549"><ele>109.4</ele><time>2026-04-06T08:24:05.002Z</time></trkpt><trkpt lat="44.889588254244174" lon="4.852388024474515"><ele>110.0</ele><time>2026-04-06T08:24:07.002Z</time></trkpt><trkpt lat="44.88966563604766" lon="4.852367088329434"><ele>110.0</ele><time>2026-04-06T08:24:09.002Z</time></trkpt><trkpt lat="44.88974261540577" lon="4.85234722786169"><ele>110.0</ele><time>2026-04-06T08:24:11.002Z</time></trkpt><trkpt lat="44.88982383040581" lon="4.852319341074862"><ele>110.0</ele><time>2026-04-06T08:24:13.002Z</time></trkpt><trkpt lat="44.889907679582215" lon="4.852278341584877"><ele>110.0</ele><time>2026-04-06T08:24:15.002Z</time></trkpt><trkpt lat="44.89008361837225" lon="4.852298201222374"><ele>110.0</ele><time>2026-04-06T08:24:19.002Z</time></trkpt><trkpt lat="44.89017999759013" lon="4.8522591900990735"><ele>109.2</ele><time>2026-04-06T08:24:21.002Z</time></trkpt><trkpt lat="44.89027356049524" lon="4.85223267366118"><ele>108.4</ele><time>2026-04-06T08:24:23.002Z</time></trkpt><trkpt lat="44.89036667873191" lon="4.852211496240303"><ele>107.6</ele><time>2026-04-06T08:24:25.002Z</time></trkpt><trkpt lat="44.89045809360771" lon="4.852192311376237"><ele>106.8</ele><time>2026-04-06T08:24:27.002Z</time></trkpt><trkpt lat="44.89055513665945" lon="4.852172792184848"><ele>106.0</ele><time>2026-04-06T08:24:29.002Z</time></trkpt><trkpt lat="44.890640623312024" lon="4.852153534037206"><ele>106.00000000000001</ele><time>2026-04-06T08:24:31.002Z</time></trkpt><trkpt lat="44.890728286389944" lon="4.852132241630902"><ele>106.0</ele><time>2026-04-06T08:24:33.002Z</time></trkpt><trkpt lat="44.890816334528644" lon="4.852111864843703"><ele>106.0</ele><time>2026-04-06T08:24:35.002Z</time></trkpt><trkpt lat="44.89090302127521" lon="4.852091122996992"><ele>106.0</ele><time>2026-04-06T08:24:37.002Z</time></trkpt><trkpt lat="44.890991234049636" lon="4.852071466756569"><ele>106.00000000000001</ele><time>2026-04-06T08:24:39.002Z</time></trkpt><trkpt lat="44.891076712426575" lon="4.8520510051205425"><ele>106.0</ele><time>2026-04-06T08:24:41.002Z</time></trkpt><trkpt lat="44.89116605994728" lon="4.852030484864919"><ele>106.6</ele><time>2026-04-06T08:24:43.002Z</time></trkpt><trkpt lat="44.89126033726021" lon="4.852008155808025"><ele>107.19999999999999</ele><time>2026-04-06T08:24:45.002Z</time></trkpt><trkpt lat="44.89135672559558" lon="4.851987361375768"><ele>107.80000000000001</ele><time>2026-04-06T08:24:47.002Z</time></trkpt><trkpt lat="44.89144773161509" lon="4.851962780550644"><ele>108.4</ele><time>2026-04-06T08:24:49.002Z</time></trkpt><trkpt lat="44.89154095039176" lon="4.851944841013257"><ele>109.0</ele><time>2026-04-06T08:24:51.002Z</time></trkpt><trkpt lat="44.891634260043276" lon="4.851930551361312"><ele>109.00000000000001</ele><time>2026-04-06T08:24:53.002Z</time></trkpt><trkpt lat="44.89172219727778" lon="4.851910762728775"><ele>109.0</ele><time>2026-04-06T08:24:55.002Z</time></trkpt><trkpt lat="44.89181159357337" lon="4.851890998174122"><ele>109.0</ele><time>2026-04-06T08:24:57.002Z</time></trkpt><trkpt lat="44.89189916196329" lon="4.851870867901192"><ele>109.0</ele><time>2026-04-06T08:24:59.002Z</time></trkpt><trkpt lat="44.8919814430733" lon="4.851842025207848"><ele>109.00000000000001</ele><time>2026-04-06T08:25:01.002Z</time></trkpt><trkpt lat="44.89207561989018" lon="4.8518243010472855"><ele>109.0</ele><time>2026-04-06T08:25:03.002Z</time></trkpt><trkpt lat="44.89216399478417" lon="4.851803121465788"><ele>108.66666666666667</ele><time>2026-04-06T08:25:05.002Z</time></trkpt><trkpt lat="44.89224879500867" lon="4.85178245737738"><ele>108.33333333333334</ele><time>2026-04-06T08:25:07.002Z</time></trkpt><trkpt lat="44.89233476270842" lon="4.851769616345432"><ele>108.0</ele><time>2026-04-06T08:25:09.002Z</time></trkpt><trkpt lat="44.892410875521755" lon="4.851755395879155"><ele>107.66666666666666</ele><time>2026-04-06T08:25:11.002Z</time></trkpt><trkpt lat="44.89248902995851" lon="4.851747024684179"><ele>107.33333333333333</ele><time>2026-04-06T08:25:13.002Z</time></trkpt><trkpt lat="44.892568793819216" lon="4.8517338361450895"><ele>107.0</ele><time>2026-04-06T08:25:15.002Z</time></trkpt><trkpt lat="44.89264589859578" lon="4.85172159822041"><ele>106.66666666666666</ele><time>2026-04-06T08:25:17.002Z</time></trkpt><trkpt lat="44.8927097858733" lon="4.851723047470948"><ele>106.33333333333333</ele><time>2026-04-06T08:25:19.002Z</time></trkpt><trkpt lat="44.892788348693045" lon="4.85171818120822"><ele>106.0</ele><time>2026-04-06T08:25:21.002Z</time></trkpt><trkpt lat="44.89286569053973" lon="4.851713508354302"><ele>105.66666666666666</ele><time>2026-04-06T08:25:23.002Z</time></trkpt><trkpt lat="44.89294501297619" lon="4.851707164798124"><ele>105.33333333333333</ele><time>2026-04-06T08:25:25.002Z</time></trkpt><trkpt lat="44.89302461158153" lon="4.851706977990726"><ele>105.0</ele><time>2026-04-06T08:25:27.002Z</time></trkpt><trkpt lat="44.89310354621154" lon="4.851715781765053"><ele>105.0</ele><time>2026-04-06T08:25:29.002Z</time></trkpt><trkpt lat="44.893183262587286" lon="4.851726600443154"><ele>105.0</ele><time>2026-04-06T08:25:31.002Z</time></trkpt><trkpt lat="44.89325850583337" lon="4.851735438902057"><ele>105.0</ele><time>2026-04-06T08:25:33.002Z</time></trkpt><trkpt lat="44.893332763155996" lon="4.851742734060282"><ele>105.0</ele><time>2026-04-06T08:25:35.002Z</time></trkpt><trkpt lat="44.89340693606232" lon="4.851750935530826"><ele>105.0</ele><time>2026-04-06T08:25:37.002Z</time></trkpt><trkpt lat="44.89348231017472" lon="4.851761605276565"><ele>105.0</ele><time>2026-04-06T08:25:39.002Z</time></trkpt><trkpt lat="44.893556741640765" lon="4.851760962562268"><ele>105.42857142857143</ele><time>2026-04-06T08:25:41.002Z</time></trkpt><trkpt lat="44.893633542025" lon="4.851765497626325"><ele>105.85714285714286</ele><time>2026-04-06T08:25:43.002Z</time></trkpt><trkpt lat="44.8936991803121" lon="4.851765495568161"><ele>106.28571428571428</ele><time>2026-04-06T08:25:45.002Z</time></trkpt><trkpt lat="44.89376473499625" lon="4.85176580361374"><ele>106.71428571428572</ele><time>2026-04-06T08:25:47.002Z</time></trkpt><trkpt lat="44.893832091712106" lon="4.851764263731109"><ele>107.14285714285714</ele><time>2026-04-06T08:25:49.002Z</time></trkpt><trkpt lat="44.89389997228491" lon="4.851771722012164"><ele>107.57142857142857</ele><time>2026-04-06T08:25:51.002Z</time></trkpt><trkpt lat="44.8939742542245" lon="4.851766301692093"><ele>108.0</ele><time>2026-04-06T08:25:53.002Z</time></trkpt><trkpt lat="44.89404587693235" lon="4.85176873836993"><ele>108.0</ele><time>2026-04-06T08:25:55.002Z</time></trkpt><trkpt lat="44.894116742666405" lon="4.851763047150023"><ele>108.0</ele><time>2026-04-06T08:25:57.002Z</time></trkpt><trkpt lat="44.894192034374235" lon="4.851760721016695"><ele>108.0</ele><time>2026-04-06T08:25:59.002Z</time></trkpt><trkpt lat="44.89426154361855" lon="4.851754350687439"><ele>108.0</ele><time>2026-04-06T08:26:01.002Z</time></trkpt><trkpt lat="44.89433666499275" lon="4.851764350147802"><ele>108.0</ele><time>2026-04-06T08:26:03.002Z</time></trkpt><trkpt lat="44.89440977966223" lon="4.851765213479261"><ele>108.0</ele><time>2026-04-06T08:26:05.002Z</time></trkpt><trkpt lat="44.894492064472" lon="4.8517671276567365"><ele>108.0</ele><time>2026-04-06T08:26:07.002Z</time></trkpt><trkpt lat="44.89456903406248" lon="4.851768146215239"><ele>107.85714285714286</ele><time>2026-04-06T08:26:09.002Z</time></trkpt><trkpt lat="44.89464684978024" lon="4.851766962788941"><ele>107.71428571428571</ele><time>2026-04-06T08:26:11.002Z</time></trkpt><trkpt lat="44.89471632319993" lon="4.851770415505716"><ele>107.57142857142858</ele><time>2026-04-06T08:26:13.001Z</time></trkpt><trkpt lat="44.89478804477797" lon="4.851783826506781"><ele>107.42857142857143</ele><time>2026-04-06T08:26:15.001Z</time></trkpt><trkpt lat="44.89486714047826" lon="4.851789726481375"><ele>107.28571428571429</ele><time>2026-04-06T08:26:17.001Z</time></trkpt><trkpt lat="44.89493985071939" lon="4.8518006847733"><ele>107.14285714285715</ele><time>2026-04-06T08:26:19.001Z</time></trkpt><trkpt lat="44.89501146870538" lon="4.851811011043109"><ele>107.0</ele><time>2026-04-06T08:26:21.001Z</time></trkpt><trkpt lat="44.8950830308598" lon="4.851812767170388"><ele>106.16666666666666</ele><time>2026-04-06T08:26:23.001Z</time></trkpt><trkpt lat="44.89515211900281" lon="4.851838894222918"><ele>105.33333333333333</ele><time>2026-04-06T08:26:25.001Z</time></trkpt><trkpt lat="44.89523658199182" lon="4.851844797186903"><ele>104.5</ele><time>2026-04-06T08:26:27.001Z</time></trkpt><trkpt lat="44.89532990697405" lon="4.851851367810691"><ele>103.66666666666666</ele><time>2026-04-06T08:26:29.001Z</time></trkpt><trkpt lat="44.8954149975299" lon="4.851866550071667"><ele>102.83333333333333</ele><time>2026-04-06T08:26:31.001Z</time></trkpt><trkpt lat="44.89550718098401" lon="4.851876113084549"><ele>102.0</ele><time>2026-04-06T08:26:33.001Z</time></trkpt><trkpt lat="44.89560056544673" lon="4.851881228535033"><ele>102.0</ele><time>2026-04-06T08:26:35.001Z</time></trkpt><trkpt lat="44.89570014729351" lon="4.851887375254496"><ele>102.0</ele><time>2026-04-06T08:26:37.001Z</time></trkpt><trkpt lat="44.89578242418847" lon="4.851892502778345"><ele>102.0</ele><time>2026-04-06T08:26:39.001Z</time></trkpt><trkpt lat="44.89587583621164" lon="4.851894716154763"><ele>102.0</ele><time>2026-04-06T08:26:41.001Z</time></trkpt><trkpt lat="44.895960141395825" lon="4.851899825333805"><ele>102.0</ele><time>2026-04-06T08:26:43.001Z</time></trkpt><trkpt lat="44.89604799166055" lon="4.85191478232078"><ele>102.0</ele><time>2026-04-06T08:26:45.001Z</time></trkpt><trkpt lat="44.89613805048489" lon="4.851916045555678"><ele>102.0</ele><time>2026-04-06T08:26:47.001Z</time></trkpt><trkpt lat="44.89622438207398" lon="4.851924318044697"><ele>102.0</ele><time>2026-04-06T08:26:49.001Z</time></trkpt><trkpt lat="44.896314229674566" lon="4.851932800805845"><ele>102.0</ele><time>2026-04-06T08:26:51.001Z</time></trkpt><trkpt lat="44.89640077373318" lon="4.851944367411596"><ele>102.0</ele><time>2026-04-06T08:26:53.001Z</time></trkpt><trkpt lat="44.896492558933836" lon="4.85194694724415"><ele>102.0</ele><time>2026-04-06T08:26:55.001Z</time></trkpt><trkpt lat="44.89658027371702" lon="4.85195383096192"><ele>102.0</ele><time>2026-04-06T08:26:57.001Z</time></trkpt><trkpt lat="44.896670733149726" lon="4.851964412817377"><ele>102.19999999999999</ele><time>2026-04-06T08:26:59.001Z</time></trkpt><trkpt lat="44.89675910855754" lon="4.851969791725642"><ele>102.4</ele><time>2026-04-06T08:27:01.001Z</time></trkpt><trkpt lat="44.89684629390959" lon="4.8519809399617"><ele>102.6</ele><time>2026-04-06T08:27:03.001Z</time></trkpt><trkpt lat="44.89693720642399" lon="4.851992511915408"><ele>102.80000000000001</ele><time>2026-04-06T08:27:05.002Z</time></trkpt><trkpt lat="44.89703184306986" lon="4.852001604137574"><ele>103.0</ele><time>2026-04-06T08:27:07.002Z</time></trkpt><trkpt lat="44.89712700584858" lon="4.8520057784164194"><ele>103.00000000000001</ele><time>2026-04-06T08:27:09.001Z</time></trkpt><trkpt lat="44.89721523222491" lon="4.852011711182061"><ele>103.0</ele><time>2026-04-06T08:27:11.002Z</time></trkpt><trkpt lat="44.8973060215719" lon="4.85202352057216"><ele>103.0</ele><time>2026-04-06T08:27:13.002Z</time></trkpt><trkpt lat="44.89738969090298" lon="4.852037440646176"><ele>103.0</ele><time>2026-04-06T08:27:15.002Z</time></trkpt><trkpt lat="44.89747746117328" lon="4.852036903362364"><ele>103.00000000000001</ele><time>2026-04-06T08:27:17.002Z</time></trkpt><trkpt lat="44.89756484486512" lon="4.8520477218618705"><ele>103.0</ele><time>2026-04-06T08:27:19.001Z</time></trkpt><trkpt lat="44.89765993160438" lon="4.852057365125027"><ele>103.00000000000001</ele><time>2026-04-06T08:27:21.001Z</time></trkpt><trkpt lat="44.897744487179466" lon="4.8520644892177"><ele>103.0</ele><time>2026-04-06T08:27:23.001Z</time></trkpt><trkpt lat="44.89783663263494" lon="4.852072234662417"><ele>103.0</ele><time>2026-04-06T08:27:25.001Z</time></trkpt><trkpt lat="44.89792539596962" lon="4.852079082375261"><ele>103.0</ele><time>2026-04-06T08:27:27.001Z</time></trkpt><trkpt lat="44.89800647804805" lon="4.852082453338951"><ele>103.00000000000001</ele><time>2026-04-06T08:27:29Z</time></trkpt><trkpt lat="44.89809818403439" lon="4.852099571826698"><ele>103.0</ele><time>2026-04-06T08:27:31Z</time></trkpt><trkpt lat="44.89817843316575" lon="4.852104507279084"><ele>103.00000000000001</ele><time>2026-04-06T08:27:33Z</time></trkpt><trkpt lat="44.89826372066611" lon="4.852115204290458"><ele>103.0</ele><time>2026-04-06T08:27:35Z</time></trkpt><trkpt lat="44.8983487739613" lon="4.852123651336797"><ele>103.0</ele><time>2026-04-06T08:27:37Z</time></trkpt><trkpt lat="44.89843492261165" lon="4.852139413282255"><ele>103.0</ele><time>2026-04-06T08:27:39Z</time></trkpt><trkpt lat="44.89851632699928" lon="4.852142384498336"><ele>103.00000000000001</ele><time>2026-04-06T08:27:41Z</time></trkpt><trkpt lat="44.8986039138157" lon="4.852158863067046"><ele>103.0</ele><time>2026-04-06T08:27:43Z</time></trkpt><trkpt lat="44.89869380052811" lon="4.852169534463831"><ele>103.00000000000001</ele><time>2026-04-06T08:27:45Z</time></trkpt><trkpt lat="44.89878077096901" lon="4.8521677927983164"><ele>103.0</ele><time>2026-04-06T08:27:47Z</time></trkpt><trkpt lat="44.898856168822356" lon="4.852179010779564"><ele>103.0</ele><time>2026-04-06T08:27:49Z</time></trkpt><trkpt lat="44.89894573070006" lon="4.852187703872506"><ele>103.0</ele><time>2026-04-06T08:27:51Z</time></trkpt><trkpt lat="44.89902904673004" lon="4.852194425113659"><ele>103.00000000000001</ele><time>2026-04-06T08:27:53Z</time></trkpt><trkpt lat="44.8991123699708" lon="4.852207902944553"><ele>103.0</ele><time>2026-04-06T08:27:55Z</time></trkpt><trkpt lat="44.89919801125578" lon="4.852210144588635"><ele>104.00000000000001</ele><time>2026-04-06T08:27:57Z</time></trkpt><trkpt lat="44.89928511498668" lon="4.85222331947349"><ele>105.0</ele><time>2026-04-06T08:27:59Z</time></trkpt><trkpt lat="44.8993644685117" lon="4.85222814571403"><ele>106.0</ele><time>2026-04-06T08:28:01Z</time></trkpt><trkpt lat="44.89944348125609" lon="4.8522410679904056"><ele>107.0</ele><time>2026-04-06T08:28:03Z</time></trkpt><trkpt lat="44.899531082106435" lon="4.852244073711153"><ele>108.00000000000001</ele><time>2026-04-06T08:28:05Z</time></trkpt><trkpt lat="44.899615787521654" lon="4.852255002534834"><ele>109.0</ele><time>2026-04-06T08:28:07Z</time></trkpt><trkpt lat="44.899690953746614" lon="4.852264679437593"><ele>109.00000000000001</ele><time>2026-04-06T08:28:09Z</time></trkpt><trkpt lat="44.8997765224692" lon="4.852274616256051"><ele>109.0</ele><time>2026-04-06T08:28:11Z</time></trkpt><trkpt lat="44.89986660460709" lon="4.8522787087356924"><ele>109.0</ele><time>2026-04-06T08:28:13Z</time></trkpt><trkpt lat="44.89995385277262" lon="4.852297646251229"><ele>109.0</ele><time>2026-04-06T08:28:15Z</time></trkpt><trkpt lat="44.90003371008783" lon="4.852312767498672"><ele>109.00000000000001</ele><time>2026-04-06T08:28:17Z</time></trkpt><trkpt lat="44.90011798863245" lon="4.85232503171469"><ele>109.0</ele><time>2026-04-06T08:28:19Z</time></trkpt><trkpt lat="44.90020431913869" lon="4.852346016978045"><ele>109.2</ele><time>2026-04-06T08:28:21Z</time></trkpt><trkpt lat="44.900296558939786" lon="4.852363427785332"><ele>109.4</ele><time>2026-04-06T08:28:23Z</time></trkpt><trkpt lat="44.90038937042501" lon="4.852386195301535"><ele>109.6</ele><time>2026-04-06T08:28:25Z</time></trkpt><trkpt lat="44.90048366186308" lon="4.852402456338511"><ele>109.8</ele><time>2026-04-06T08:28:27Z</time></trkpt><trkpt lat="44.90057622645668" lon="4.8524203978233365"><ele>110.0</ele><time>2026-04-06T08:28:29Z</time></trkpt><trkpt lat="44.90066951790185" lon="4.852443953000288"><ele>110.0</ele><time>2026-04-06T08:28:31Z</time></trkpt><trkpt lat="44.90076657807932" lon="4.852472641203832"><ele>110.0</ele><time>2026-04-06T08:28:33Z</time></trkpt><trkpt lat="44.900861265308656" lon="4.852491412259135"><ele>110.0</ele><time>2026-04-06T08:28:35Z</time></trkpt><trkpt lat="44.90095428234169" lon="4.852510772844232"><ele>110.0</ele><time>2026-04-06T08:28:37Z</time></trkpt><trkpt lat="44.901045417386925" lon="4.852524391278776"><ele>110.0</ele><time>2026-04-06T08:28:39Z</time></trkpt><trkpt lat="44.901143121878" lon="4.8525517180432125"><ele>109.4</ele><time>2026-04-06T08:28:41Z</time></trkpt><trkpt lat="44.9012386086362" lon="4.85256841967326"><ele>108.8</ele><time>2026-04-06T08:28:43Z</time></trkpt><trkpt lat="44.901334373523966" lon="4.852593939848277"><ele>108.19999999999999</ele><time>2026-04-06T08:28:45Z</time></trkpt><trkpt lat="44.90142450218715" lon="4.852627965494248"><ele>107.6</ele><time>2026-04-06T08:28:47Z</time></trkpt><trkpt lat="44.90152351942347" lon="4.852661232789137"><ele>107.0</ele><time>2026-04-06T08:28:49Z</time></trkpt><trkpt lat="44.90162113162639" lon="4.8527058361693545"><ele>107.0</ele><time>2026-04-06T08:28:51Z</time></trkpt><trkpt lat="44.90170543927224" lon="4.852738482698176"><ele>106.99999999999999</ele><time>2026-04-06T08:28:53Z</time></trkpt><trkpt lat="44.901783404131734" lon="4.852767553531533"><ele>106.99999999999999</ele><time>2026-04-06T08:28:55Z</time></trkpt><trkpt lat="44.90187436809392" lon="4.852806343982538"><ele>107.0</ele><time>2026-04-06T08:28:57Z</time></trkpt><trkpt lat="44.90196309814514" lon="4.8528440118673855"><ele>107.0</ele><time>2026-04-06T08:28:59Z</time></trkpt><trkpt lat="44.90205391593219" lon="4.852895730288519"><ele>107.6</ele><time>2026-04-06T08:29:01Z</time></trkpt><trkpt lat="44.90214493360174" lon="4.852932634338584"><ele>108.19999999999999</ele><time>2026-04-06T08:29:03Z</time></trkpt><trkpt lat="44.90223876983611" lon="4.852972097506224"><ele>108.8</ele><time>2026-04-06T08:29:05Z</time></trkpt><trkpt lat="44.902327578101904" lon="4.853012810016477"><ele>109.4</ele><time>2026-04-06T08:29:07Z</time></trkpt><trkpt lat="44.902421243937624" lon="4.853041347455556"><ele>110.0</ele><time>2026-04-06T08:29:09Z</time></trkpt><trkpt lat="44.9025096724515" lon="4.853077660230771"><ele>110.2</ele><time>2026-04-06T08:29:11Z</time></trkpt><trkpt lat="44.90259761767306" lon="4.853120071768536"><ele>110.4</ele><time>2026-04-06T08:29:13Z</time></trkpt><trkpt lat="44.90268431226866" lon="4.85314026971513"><ele>110.6</ele><time>2026-04-06T08:29:15Z</time></trkpt><trkpt lat="44.90278239928639" lon="4.853193686002424"><ele>110.8</ele><time>2026-04-06T08:29:17Z</time></trkpt><trkpt lat="44.902864896936464" lon="4.853226788045423"><ele>111.0</ele><time>2026-04-06T08:29:19Z</time></trkpt><trkpt lat="44.90294986315961" lon="4.853259658104133"><ele>111.0</ele><time>2026-04-06T08:29:21Z</time></trkpt><trkpt lat="44.90303550999443" lon="4.853287990016474"><ele>111.0</ele><time>2026-04-06T08:29:23Z</time></trkpt><trkpt lat="44.9031238398694" lon="4.85331804785501"><ele>111.0</ele><time>2026-04-06T08:29:24.999Z</time></trkpt><trkpt lat="44.903213951893974" lon="4.85335530847095"><ele>111.0</ele><time>2026-04-06T08:29:26.999Z</time></trkpt><trkpt lat="44.90331287366945" lon="4.853377050726438"><ele>111.0</ele><time>2026-04-06T08:29:28.999Z</time></trkpt><trkpt lat="44.90340395722388" lon="4.85341145978861"><ele>111.4</ele><time>2026-04-06T08:29:30.999Z</time></trkpt><trkpt lat="44.90350260807144" lon="4.853434200436545"><ele>111.8</ele><time>2026-04-06T08:29:32.999Z</time></trkpt><trkpt lat="44.90358733646225" lon="4.853472090171342"><ele>112.20000000000002</ele><time>2026-04-06T08:29:34.999Z</time></trkpt><trkpt lat="44.90369598703386" lon="4.853499855300484"><ele>112.60000000000001</ele><time>2026-04-06T08:29:36.999Z</time></trkpt><trkpt lat="44.903814335832436" lon="4.85353344795576"><ele>113.0</ele><time>2026-04-06T08:29:38.999Z</time></trkpt><trkpt lat="44.903917496570386" lon="4.853559268924439"><ele>111.80000000000001</ele><time>2026-04-06T08:29:40.999Z</time></trkpt><trkpt lat="44.90401378174733" lon="4.8535805052995675"><ele>110.60000000000001</ele><time>2026-04-06T08:29:42.999Z</time></trkpt><trkpt lat="44.90411421405119" lon="4.853600112485041"><ele>109.39999999999999</ele><time>2026-04-06T08:29:44.999Z</time></trkpt><trkpt lat="44.90421517161817" lon="4.853621665092862"><ele>108.19999999999999</ele><time>2026-04-06T08:29:46.999Z</time></trkpt><trkpt lat="44.90430724030965" lon="4.853639113875158"><ele>107.0</ele><time>2026-04-06T08:29:48.999Z</time></trkpt><trkpt lat="44.90440602792239" lon="4.853647256125841"><ele>107.0</ele><time>2026-04-06T08:29:50.999Z</time></trkpt><trkpt lat="44.90450137369008" lon="4.853657395488718"><ele>106.99999999999999</ele><time>2026-04-06T08:29:52.999Z</time></trkpt><trkpt lat="44.904599996399064" lon="4.853659995049821"><ele>106.99999999999999</ele><time>2026-04-06T08:29:54.999Z</time></trkpt><trkpt lat="44.904694745497096" lon="4.8536626678924435"><ele>107.0</ele><time>2026-04-06T08:29:56.999Z</time></trkpt><trkpt lat="44.90478630385325" lon="4.8536746723057735"><ele>107.0</ele><time>2026-04-06T08:29:58.999Z</time></trkpt><trkpt lat="44.904888400757045" lon="4.853690910666424"><ele>107.0</ele><time>2026-04-06T08:30:00.999Z</time></trkpt><trkpt lat="44.904988886384686" lon="4.8536991821218285"><ele>106.99999999999999</ele><time>2026-04-06T08:30:02.999Z</time></trkpt><trkpt lat="44.90509168967232" lon="4.853708572365088"><ele>106.99999999999999</ele><time>2026-04-06T08:30:04.999Z</time></trkpt><trkpt lat="44.9051916124309" lon="4.853708404988302"><ele>107.0</ele><time>2026-04-06T08:30:06.999Z</time></trkpt><trkpt lat="44.905298900346764" lon="4.8537218846384045"><ele>107.0</ele><time>2026-04-06T08:30:08.999Z</time></trkpt><trkpt lat="44.905401721596895" lon="4.853726236282922"><ele>106.8</ele><time>2026-04-06T08:30:10.999Z</time></trkpt><trkpt lat="44.90550153727414" lon="4.853726409636408"><ele>106.6</ele><time>2026-04-06T08:30:12.999Z</time></trkpt><trkpt lat="44.905610214650615" lon="4.853736330788636"><ele>106.39999999999999</ele><time>2026-04-06T08:30:14.999Z</time></trkpt><trkpt lat="44.90571163255503" lon="4.853740955063704"><ele>106.19999999999999</ele><time>2026-04-06T08:30:16.999Z</time></trkpt><trkpt lat="44.90581789144568" lon="4.853742990971564"><ele>106.0</ele><time>2026-04-06T08:30:18.999Z</time></trkpt><trkpt lat="44.905932167766636" lon="4.853753836394552"><ele>106.0</ele><time>2026-04-06T08:30:20.999Z</time></trkpt><trkpt lat="44.90604729951076" lon="4.853751949076345"><ele>106.0</ele><time>2026-04-06T08:30:22.999Z</time></trkpt><trkpt lat="44.90614379919278" lon="4.853742934406463"><ele>106.0</ele><time>2026-04-06T08:30:24.999Z</time></trkpt><trkpt lat="44.90621375745764" lon="4.853741902002086"><ele>106.0</ele><time>2026-04-06T08:30:25.999Z</time></trkpt><trkpt lat="44.90627677419923" lon="4.853744597133983"><ele>106.0</ele><time>2026-04-06T08:30:26.999Z</time></trkpt><trkpt lat="44.90638711372103" lon="4.853733507013394"><ele>106.0</ele><time>2026-04-06T08:30:28.999Z</time></trkpt><trkpt lat="44.90649854570484" lon="4.853726224043411"><ele>106.0</ele><time>2026-04-06T08:30:30.999Z</time></trkpt><trkpt lat="44.906601825310744" lon="4.853718381648858"><ele>106.0</ele><time>2026-04-06T08:30:32.999Z</time></trkpt><trkpt lat="44.906711266804564" lon="4.85371520345633"><ele>106.0</ele><time>2026-04-06T08:30:34.999Z</time></trkpt><trkpt lat="44.90681423272166" lon="4.853704947379615"><ele>106.0</ele><time>2026-04-06T08:30:36.999Z</time></trkpt><trkpt lat="44.90690167763802" lon="4.853701389566454"><ele>106.50000000000001</ele><time>2026-04-06T08:30:38.999Z</time></trkpt><trkpt lat="44.90699473056154" lon="4.853705021391875"><ele>107.0</ele><time>2026-04-06T08:30:40.999Z</time></trkpt><trkpt lat="44.907077882960365" lon="4.85370020142383"><ele>107.5</ele><time>2026-04-06T08:30:42.999Z</time></trkpt><trkpt lat="44.907158906722216" lon="4.853700860535274"><ele>108.0</ele><time>2026-04-06T08:30:44.999Z</time></trkpt><trkpt lat="44.90724261331961" lon="4.8537015778130685"><ele>108.50000000000001</ele><time>2026-04-06T08:30:46.999Z</time></trkpt><trkpt lat="44.90733944672722" lon="4.853734893358412"><ele>109.0</ele><time>2026-04-06T08:30:48.999Z</time></trkpt><trkpt lat="44.907429028373414" lon="4.853764493564318"><ele>109.0</ele><time>2026-04-06T08:30:50.999Z</time></trkpt><trkpt lat="44.907527865851094" lon="4.853784932541202"><ele>109.0</ele><time>2026-04-06T08:30:52.999Z</time></trkpt><trkpt lat="44.90763140851526" lon="4.853800988307845"><ele>109.0</ele><time>2026-04-06T08:30:54.999Z</time></trkpt><trkpt lat="44.90775481729443" lon="4.853825065467678"><ele>109.0</ele><time>2026-04-06T08:30:56.999Z</time></trkpt><trkpt lat="44.90786216648287" lon="4.853849327209302"><ele>109.0</ele><time>2026-04-06T08:30:58.999Z</time></trkpt><trkpt lat="44.90796100087919" lon="4.853863734529703"><ele>108.80000000000001</ele><time>2026-04-06T08:31:00.999Z</time></trkpt><trkpt lat="44.908098148663" lon="4.853870007057506"><ele>108.60000000000001</ele><time>2026-04-06T08:31:03.999Z</time></trkpt><trkpt lat="44.90819235689645" lon="4.853882341892246"><ele>108.4</ele><time>2026-04-06T08:31:05.999Z</time></trkpt><trkpt lat="44.908281572523975" lon="4.853887497885684"><ele>108.2</ele><time>2026-04-06T08:31:07.999Z</time></trkpt><trkpt lat="44.908371906246025" lon="4.853901187580271"><ele>108.0</ele><time>2026-04-06T08:31:09.999Z</time></trkpt><trkpt lat="44.90845357494073" lon="4.853926907410277"><ele>108.4</ele><time>2026-04-06T08:31:11.999Z</time></trkpt><trkpt lat="44.90858616352563" lon="4.853945380336109"><ele>108.80000000000001</ele><time>2026-04-06T08:31:14.999Z</time></trkpt><trkpt lat="44.90868605127095" lon="4.853972613991924"><ele>109.2</ele><time>2026-04-06T08:31:17Z</time></trkpt><trkpt lat="44.908774865429024" lon="4.853999704160021"><ele>109.6</ele><time>2026-04-06T08:31:18.999Z</time></trkpt><trkpt lat="44.90887294307818" lon="4.854037690492824"><ele>110.0</ele><time>2026-04-06T08:31:20.999Z</time></trkpt><trkpt lat="44.90896757093817" lon="4.854070605169846"><ele>110.0</ele><time>2026-04-06T08:31:22.999Z</time></trkpt><trkpt lat="44.90905921061711" lon="4.854112220603244"><ele>110.0</ele><time>2026-04-06T08:31:25Z</time></trkpt><trkpt lat="44.909149602763435" lon="4.854152799828078"><ele>110.0</ele><time>2026-04-06T08:31:26.999Z</time></trkpt><trkpt lat="44.90924431418757" lon="4.8541830940106205"><ele>110.0</ele><time>2026-04-06T08:31:29Z</time></trkpt><trkpt lat="44.909326833837305" lon="4.854212194401973"><ele>110.0</ele><time>2026-04-06T08:31:30.999Z</time></trkpt><trkpt lat="44.90940424819687" lon="4.85425126689305"><ele>109.2</ele><time>2026-04-06T08:31:32.999Z</time></trkpt><trkpt lat="44.909496194702804" lon="4.854310127293648"><ele>108.4</ele><time>2026-04-06T08:31:34.999Z</time></trkpt><trkpt lat="44.909587500983534" lon="4.8543794172188655"><ele>107.6</ele><time>2026-04-06T08:31:36.999Z</time></trkpt><trkpt lat="44.909685712889484" lon="4.854458399251755"><ele>106.8</ele><time>2026-04-06T08:31:38.999Z</time></trkpt><trkpt lat="44.90976362923654" lon="4.854504189043147"><ele>106.0</ele><time>2026-04-06T08:31:40.999Z</time></trkpt><trkpt lat="44.90983214997144" lon="4.85455717756208"><ele>106.0</ele><time>2026-04-06T08:31:42.999Z</time></trkpt><trkpt lat="44.90990501307467" lon="4.854612730886006"><ele>106.0</ele><time>2026-04-06T08:31:44.999Z</time></trkpt><trkpt lat="44.91000789473218" lon="4.854674574939489"><ele>106.0</ele><time>2026-04-06T08:31:46.999Z</time></trkpt><trkpt lat="44.91011275640916" lon="4.854742428298883"><ele>106.0</ele><time>2026-04-06T08:31:48.999Z</time></trkpt><trkpt lat="44.91018644746646" lon="4.854798559238507"><ele>106.0</ele><time>2026-04-06T08:31:50.999Z</time></trkpt><trkpt lat="44.91024433041893" lon="4.8548577300457305"><ele>106.16666666666667</ele><time>2026-04-06T08:31:52.999Z</time></trkpt><trkpt lat="44.910282652395544" lon="4.854933941897949"><ele>106.33333333333334</ele><time>2026-04-06T08:31:54.999Z</time></trkpt><trkpt lat="44.910269117750154" lon="4.855055848163402"><ele>106.5</ele><time>2026-04-06T08:31:56.999Z</time></trkpt><trkpt lat="44.91024204228414" lon="4.855168278672225"><ele>106.66666666666666</ele><time>2026-04-06T08:31:58.999Z</time></trkpt><trkpt lat="44.91020372662654" lon="4.855303410296732"><ele>106.83333333333333</ele><time>2026-04-06T08:32:00.999Z</time></trkpt><trkpt lat="44.91016600210125" lon="4.85544588852724"><ele>107.0</ele><time>2026-04-06T08:32:02.999Z</time></trkpt><trkpt lat="44.91013156115915" lon="4.855576763895149"><ele>106.66666666666666</ele><time>2026-04-06T08:32:04.999Z</time></trkpt><trkpt lat="44.910101953956165" lon="4.855686893779324"><ele>106.33333333333333</ele><time>2026-04-06T08:32:06.999Z</time></trkpt><trkpt lat="44.91006938793183" lon="4.855791080134054"><ele>106.0</ele><time>2026-04-06T08:32:08.999Z</time></trkpt><trkpt lat="44.91002591157093" lon="4.8558915416381865"><ele>105.66666666666666</ele><time>2026-04-06T08:32:10.999Z</time></trkpt><trkpt lat="44.91000386333139" lon="4.85600748284716"><ele>105.33333333333333</ele><time>2026-04-06T08:32:12.999Z</time></trkpt><trkpt lat="44.90998374802924" lon="4.856146699076084"><ele>105.0</ele><time>2026-04-06T08:32:14.999Z</time></trkpt><trkpt lat="44.90996717492637" lon="4.856295555741257"><ele>105.4</ele><time>2026-04-06T08:32:16.999Z</time></trkpt><trkpt lat="44.90995227413501" lon="4.856451681929572"><ele>105.8</ele><time>2026-04-06T08:32:18.999Z</time></trkpt><trkpt lat="44.90994455107083" lon="4.856586117843635"><ele>106.19999999999999</ele><time>2026-04-06T08:32:20.999Z</time></trkpt><trkpt lat="44.90993498200856" lon="4.856710215924786"><ele>106.6</ele><time>2026-04-06T08:32:22.999Z</time></trkpt><trkpt lat="44.90993197953389" lon="4.856837469376565"><ele>107.0</ele><time>2026-04-06T08:32:24.999Z</time></trkpt><trkpt lat="44.909928658630136" lon="4.856964880900288"><ele>107.0</ele><time>2026-04-06T08:32:26.999Z</time></trkpt><trkpt lat="44.909926058877595" lon="4.85708913907013"><ele>106.99999999999999</ele><time>2026-04-06T08:32:28.999Z</time></trkpt><trkpt lat="44.909918585909374" lon="4.85722345969694"><ele>106.99999999999999</ele><time>2026-04-06T08:32:30.999Z</time></trkpt><trkpt lat="44.9099075453674" lon="4.857352085298738"><ele>107.0</ele><time>2026-04-06T08:32:32.999Z</time></trkpt><trkpt lat="44.90990116774766" lon="4.857484274286649"><ele>107.0</ele><time>2026-04-06T08:32:34.999Z</time></trkpt><trkpt lat="44.909898929729046" lon="4.857612381579103"><ele>106.8</ele><time>2026-04-06T08:32:36.999Z</time></trkpt><trkpt lat="44.909892122453805" lon="4.857740091772792"><ele>106.6</ele><time>2026-04-06T08:32:38.999Z</time></trkpt><trkpt lat="44.90988459369605" lon="4.857861766218427"><ele>106.39999999999999</ele><time>2026-04-06T08:32:40.999Z</time></trkpt><trkpt lat="44.909882373956" lon="4.857984246233351"><ele>106.19999999999999</ele><time>2026-04-06T08:32:42.999Z</time></trkpt><trkpt lat="44.909874575230816" lon="4.858108588694959"><ele>106.0</ele><time>2026-04-06T08:32:44.999Z</time></trkpt><trkpt lat="44.90986996802586" lon="4.858248662866058"><ele>106.0</ele><time>2026-04-06T08:32:46.999Z</time></trkpt><trkpt lat="44.90986460824867" lon="4.858382108493614"><ele>106.0</ele><time>2026-04-06T08:32:48.999Z</time></trkpt><trkpt lat="44.90986134419848" lon="4.858515036681866"><ele>106.0</ele><time>2026-04-06T08:32:50.999Z</time></trkpt><trkpt lat="44.90985468733978" lon="4.858646627267047"><ele>106.0</ele><time>2026-04-06T08:32:52.999Z</time></trkpt><trkpt lat="44.909845061167054" lon="4.858770516847694"><ele>106.0</ele><time>2026-04-06T08:32:54.999Z</time></trkpt><trkpt lat="44.90983925871918" lon="4.858895022228211"><ele>106.0</ele><time>2026-04-06T08:32:56.999Z</time></trkpt><trkpt lat="44.90983043664957" lon="4.859028872379841"><ele>106.0</ele><time>2026-04-06T08:32:58.999Z</time></trkpt><trkpt lat="44.90983380974405" lon="4.85915710897627"><ele>106.0</ele><time>2026-04-06T08:33:00.999Z</time></trkpt><trkpt lat="44.90982914226205" lon="4.859286682976073"><ele>106.0</ele><time>2026-04-06T08:33:02.999Z</time></trkpt><trkpt lat="44.909823555050735" lon="4.859404759045465"><ele>106.0</ele><time>2026-04-06T08:33:04.999Z</time></trkpt><trkpt lat="44.90981311109059" lon="4.859539763497362"><ele>106.16666666666667</ele><time>2026-04-06T08:33:06.999Z</time></trkpt><trkpt lat="44.909814493330714" lon="4.859654472107561"><ele>106.33333333333334</ele><time>2026-04-06T08:33:08.999Z</time></trkpt><trkpt lat="44.90980733185061" lon="4.859786076260014"><ele>106.5</ele><time>2026-04-06T08:33:10.999Z</time></trkpt><trkpt lat="44.909805633501406" lon="4.859913219781757"><ele>106.66666666666666</ele><time>2026-04-06T08:33:12.998Z</time></trkpt><trkpt lat="44.90979713099083" lon="4.860034838383828"><ele>106.83333333333333</ele><time>2026-04-06T08:33:14.998Z</time></trkpt><trkpt lat="44.90979751298278" lon="4.8601656189587565"><ele>107.0</ele><time>2026-04-06T08:33:16.998Z</time></trkpt><trkpt lat="44.90979527278658" lon="4.860284827260847"><ele>106.99999999999999</ele><time>2026-04-06T08:33:18.998Z</time></trkpt><trkpt lat="44.909788089025035" lon="4.860405851206392"><ele>107.0</ele><time>2026-04-06T08:33:20.998Z</time></trkpt><trkpt lat="44.90976843300854" lon="4.860534471888486"><ele>107.0</ele><time>2026-04-06T08:33:22.999Z</time></trkpt><trkpt lat="44.909760201759795" lon="4.860648412164868"><ele>107.0</ele><time>2026-04-06T08:33:24.999Z</time></trkpt><trkpt lat="44.9097642234913" lon="4.860780586946152"><ele>106.99999999999999</ele><time>2026-04-06T08:33:26.999Z</time></trkpt><trkpt lat="44.90975497685556" lon="4.860900132236339"><ele>107.0</ele><time>2026-04-06T08:33:28.999Z</time></trkpt><trkpt lat="44.90975057795562" lon="4.861040538278212"><ele>107.39999999999999</ele><time>2026-04-06T08:33:30.999Z</time></trkpt><trkpt lat="44.90974847222021" lon="4.861164169432338"><ele>107.79999999999998</ele><time>2026-04-06T08:33:32.999Z</time></trkpt><trkpt lat="44.90974757678733" lon="4.86129538217682"><ele>108.2</ele><time>2026-04-06T08:33:34.999Z</time></trkpt><trkpt lat="44.90973825894538" lon="4.8614385380434815"><ele>108.6</ele><time>2026-04-06T08:33:36.999Z</time></trkpt><trkpt lat="44.90973511630262" lon="4.861580465406659"><ele>109.0</ele><time>2026-04-06T08:33:38.999Z</time></trkpt><trkpt lat="44.909723498823034" lon="4.861706489244696"><ele>108.80000000000001</ele><time>2026-04-06T08:33:40.999Z</time></trkpt><trkpt lat="44.90971480748194" lon="4.86183401990538"><ele>108.60000000000001</ele><time>2026-04-06T08:33:42.999Z</time></trkpt><trkpt lat="44.9097024209034" lon="4.861964991141638"><ele>108.4</ele><time>2026-04-06T08:33:44.999Z</time></trkpt><trkpt lat="44.90970474144285" lon="4.862104026120075"><ele>108.2</ele><time>2026-04-06T08:33:46.999Z</time></trkpt><trkpt lat="44.90970428991756" lon="4.862239595785618"><ele>108.0</ele><time>2026-04-06T08:33:48.999Z</time></trkpt><trkpt lat="44.9097196278076" lon="4.862369439338496"><ele>108.0</ele><time>2026-04-06T08:33:50.999Z</time></trkpt><trkpt lat="44.90975107531227" lon="4.862483067685888"><ele>108.00000000000001</ele><time>2026-04-06T08:33:52.999Z</time></trkpt><trkpt lat="44.90980935676371" lon="4.8625822741375915"><ele>108.00000000000001</ele><time>2026-04-06T08:33:54.999Z</time></trkpt><trkpt lat="44.90986696218546" lon="4.862687706127127"><ele>108.0</ele><time>2026-04-06T08:33:56.999Z</time></trkpt><trkpt lat="44.909914111479786" lon="4.8628067761748826"><ele>108.0</ele><time>2026-04-06T08:33:58.999Z</time></trkpt><trkpt lat="44.90995275552256" lon="4.862912932460934"><ele>107.4</ele><time>2026-04-06T08:34:00.999Z</time></trkpt><trkpt lat="44.910003167561925" lon="4.863020836377374"><ele>106.80000000000001</ele><time>2026-04-06T08:34:02.999Z</time></trkpt><trkpt lat="44.91005373121715" lon="4.8631332408543475"><ele>106.2</ele><time>2026-04-06T08:34:04.999Z</time></trkpt><trkpt lat="44.910094687404786" lon="4.863277632076477"><ele>105.6</ele><time>2026-04-06T08:34:06.999Z</time></trkpt><trkpt lat="44.91014107295238" lon="4.86342533040851"><ele>105.0</ele><time>2026-04-06T08:34:08.999Z</time></trkpt><trkpt lat="44.910203618847675" lon="4.86357434444896"><ele>105.0</ele><time>2026-04-06T08:34:10.999Z</time></trkpt><trkpt lat="44.91026748907458" lon="4.86371013756398"><ele>105.0</ele><time>2026-04-06T08:34:12.999Z</time></trkpt><trkpt lat="44.91030491399375" lon="4.863790292455517"><ele>105.0</ele><time>2026-04-06T08:34:13.999Z</time></trkpt><trkpt lat="44.910341619146315" lon="4.863869716382084"><ele>105.0</ele><time>2026-04-06T08:34:14.999Z</time></trkpt><trkpt lat="44.91040538434989" lon="4.863981149827587"><ele>105.0</ele><time>2026-04-06T08:34:16.999Z</time></trkpt><trkpt lat="44.91045662062653" lon="4.864100293250434"><ele>105.0</ele><time>2026-04-06T08:34:18.999Z</time></trkpt><trkpt lat="44.910513109791225" lon="4.864198519796526"><ele>105.0</ele><time>2026-04-06T08:34:20.999Z</time></trkpt><trkpt lat="44.91054758476876" lon="4.864303527993597"><ele>105.0</ele><time>2026-04-06T08:34:22.999Z</time></trkpt><trkpt lat="44.910591029805694" lon="4.864401018389613"><ele>105.0</ele><time>2026-04-06T08:34:24.999Z</time></trkpt><trkpt lat="44.9106363573672" lon="4.864479120082306"><ele>105.0</ele><time>2026-04-06T08:34:26.999Z</time></trkpt><trkpt lat="44.91070619393929" lon="4.864515999790591"><ele>105.0</ele><time>2026-04-06T08:34:28.999Z</time></trkpt><trkpt lat="44.91079613722265" lon="4.864481999054066"><ele>105.0</ele><time>2026-04-06T08:34:30.999Z</time></trkpt><trkpt lat="44.91089434959537" lon="4.8644504891077816"><ele>105.0</ele><time>2026-04-06T08:34:32.999Z</time></trkpt><trkpt lat="44.911002456036" lon="4.864423301596587"><ele>105.0</ele><time>2026-04-06T08:34:34.999Z</time></trkpt><trkpt lat="44.91110354642691" lon="4.8643777159256745"><ele>105.0</ele><time>2026-04-06T08:34:36.999Z</time></trkpt><trkpt lat="44.91119972203426" lon="4.864287516310524"><ele>105.0</ele><time>2026-04-06T08:34:38.999Z</time></trkpt><trkpt lat="44.91126968109396" lon="4.864171417551988"><ele>105.6</ele><time>2026-04-06T08:34:40.999Z</time></trkpt><trkpt lat="44.91133609283318" lon="4.864046641541063"><ele>106.2</ele><time>2026-04-06T08:34:42.999Z</time></trkpt><trkpt lat="44.91138327671854" lon="4.863917472940428"><ele>106.80000000000001</ele><time>2026-04-06T08:34:44.999Z</time></trkpt><trkpt lat="44.9114169688759" lon="4.863780538763653"><ele>107.4</ele><time>2026-04-06T08:34:46.999Z</time></trkpt><trkpt lat="44.911435796843115" lon="4.8636635491494244"><ele>108.0</ele><time>2026-04-06T08:34:48.999Z</time></trkpt><trkpt lat="44.91144811726516" lon="4.863547694944021"><ele>107.66666666666667</ele><time>2026-04-06T08:34:50.999Z</time></trkpt><trkpt lat="44.91147714461766" lon="4.863437203078176"><ele>107.33333333333334</ele><time>2026-04-06T08:34:52.999Z</time></trkpt><trkpt lat="44.91152968815625" lon="4.8633317550565875"><ele>107.0</ele><time>2026-04-06T08:34:54.999Z</time></trkpt><trkpt lat="44.9116031342059" lon="4.8633161932836755"><ele>106.66666666666667</ele><time>2026-04-06T08:34:56.999Z</time></trkpt><trkpt lat="44.9116997604074" lon="4.8633135077145715"><ele>106.33333333333334</ele><time>2026-04-06T08:34:58.999Z</time></trkpt><trkpt lat="44.911779007547466" lon="4.863325030965245"><ele>106.0</ele><time>2026-04-06T08:35:00.999Z</time></trkpt><trkpt lat="44.9118431359859" lon="4.863328280243739"><ele>105.8</ele><time>2026-04-06T08:35:02.999Z</time></trkpt><trkpt lat="44.91191906829128" lon="4.86333630435453"><ele>105.6</ele><time>2026-04-06T08:35:04.999Z</time></trkpt><trkpt lat="44.91200045855473" lon="4.863338874483252"><ele>105.4</ele><time>2026-04-06T08:35:06.999Z</time></trkpt><trkpt lat="44.91207813602876" lon="4.863339697688695"><ele>105.2</ele><time>2026-04-06T08:35:08.999Z</time></trkpt><trkpt lat="44.91215395144367" lon="4.8633318366499685"><ele>105.0</ele><time>2026-04-06T08:35:10.999Z</time></trkpt><trkpt lat="44.91233410477836" lon="4.863329727610602"><ele>105.0</ele><time>2026-04-06T08:35:14.999Z</time></trkpt><trkpt lat="44.912422798767636" lon="4.863337470228251"><ele>105.0</ele><time>2026-04-06T08:35:16.999Z</time></trkpt><trkpt lat="44.912525998332335" lon="4.863359978150597"><ele>105.0</ele><time>2026-04-06T08:35:18.999Z</time></trkpt><trkpt lat="44.91263287338322" lon="4.863367643454709"><ele>105.0</ele><time>2026-04-06T08:35:20.999Z</time></trkpt><trkpt lat="44.912733478844395" lon="4.8633714748012"><ele>105.0</ele><time>2026-04-06T08:35:22.999Z</time></trkpt><trkpt lat="44.91283298477716" lon="4.863379536991673"><ele>105.2</ele><time>2026-04-06T08:35:24.999Z</time></trkpt><trkpt lat="44.912932865377925" lon="4.863415700381408"><ele>105.4</ele><time>2026-04-06T08:35:26.999Z</time></trkpt><trkpt lat="44.91303575850983" lon="4.8634662344066255"><ele>105.6</ele><time>2026-04-06T08:35:28.999Z</time></trkpt><trkpt lat="44.91311664486068" lon="4.863512056507406"><ele>105.8</ele><time>2026-04-06T08:35:30.999Z</time></trkpt><trkpt lat="44.91320299553488" lon="4.863566010701619"><ele>106.0</ele><time>2026-04-06T08:35:32.999Z</time></trkpt><trkpt lat="44.913282373223446" lon="4.863629272130681"><ele>106.0</ele><time>2026-04-06T08:35:34.999Z</time></trkpt><trkpt lat="44.91336999767334" lon="4.863715975224558"><ele>106.0</ele><time>2026-04-06T08:35:36.999Z</time></trkpt><trkpt lat="44.913456864104496" lon="4.863800412259055"><ele>106.0</ele><time>2026-04-06T08:35:38.998Z</time></trkpt><trkpt lat="44.91355114600739" lon="4.86385408482166"><ele>106.0</ele><time>2026-04-06T08:35:40.999Z</time></trkpt><trkpt lat="44.91363992829731" lon="4.8638487643830945"><ele>106.0</ele><time>2026-04-06T08:35:42.999Z</time></trkpt><trkpt lat="44.91373224281039" lon="4.863849734856997"><ele>105.8</ele><time>2026-04-06T08:35:44.999Z</time></trkpt><trkpt lat="44.913804565826695" lon="4.863837160971934"><ele>105.6</ele><time>2026-04-06T08:35:46.999Z</time></trkpt><trkpt lat="44.913870873875794" lon="4.863834440511934"><ele>105.4</ele><time>2026-04-06T08:35:48.999Z</time></trkpt><trkpt lat="44.91394222461216" lon="4.863824946140525"><ele>105.2</ele><time>2026-04-06T08:35:50.999Z</time></trkpt><trkpt lat="44.91416264910012" lon="4.863860163689743"><ele>105.0</ele><time>2026-04-06T08:35:55.999Z</time></trkpt><trkpt lat="44.91424239153261" lon="4.8638905321190045"><ele>104.6</ele><time>2026-04-06T08:35:57.999Z</time></trkpt><trkpt lat="44.91432867820785" lon="4.8639315214915175"><ele>104.2</ele><time>2026-04-06T08:35:59.999Z</time></trkpt><trkpt lat="44.91440197528471" lon="4.863967733763774"><ele>103.80000000000001</ele><time>2026-04-06T08:36:01.999Z</time></trkpt><trkpt lat="44.91447686359123" lon="4.863998363518486"><ele>103.4</ele><time>2026-04-06T08:36:03.999Z</time></trkpt><trkpt lat="44.91455014639402" lon="4.86404029358485"><ele>103.0</ele><time>2026-04-06T08:36:05.999Z</time></trkpt><trkpt lat="44.914770036376126" lon="4.8640040239724165"><ele>103.00000000000001</ele><time>2026-04-06T08:36:10.999Z</time></trkpt><trkpt lat="44.91484829548355" lon="4.863965001814548"><ele>103.0</ele><time>2026-04-06T08:36:12.999Z</time></trkpt><trkpt lat="44.91492539674519" lon="4.863917055908187"><ele>103.0</ele><time>2026-04-06T08:36:14.999Z</time></trkpt><trkpt lat="44.91500820187814" lon="4.863873946684005"><ele>103.0</ele><time>2026-04-06T08:36:16.999Z</time></trkpt><trkpt lat="44.915082689880414" lon="4.863826129956841"><ele>103.00000000000001</ele><time>2026-04-06T08:36:18.999Z</time></trkpt><trkpt lat="44.91516635921534" lon="4.863784775299634"><ele>103.0</ele><time>2026-04-06T08:36:20.999Z</time></trkpt><trkpt lat="44.91524736755995" lon="4.863761933858315"><ele>103.0</ele><time>2026-04-06T08:36:22.999Z</time></trkpt><trkpt lat="44.91541534420062" lon="4.863771739175086"><ele>103.0</ele><time>2026-04-06T08:36:26.999Z</time></trkpt><trkpt lat="44.915497371128886" lon="4.863770418227053"><ele>103.0</ele><time>2026-04-06T08:36:28.999Z</time></trkpt><trkpt lat="44.915579248767735" lon="4.863764886425842"><ele>103.0</ele><time>2026-04-06T08:36:30.999Z</time></trkpt><trkpt lat="44.9156686608504" lon="4.863761737832238"><ele>103.0</ele><time>2026-04-06T08:36:32.999Z</time></trkpt><trkpt lat="44.91575695925337" lon="4.863768965770729"><ele>103.00000000000001</ele><time>2026-04-06T08:36:34.999Z</time></trkpt><trkpt lat="44.91583906940063" lon="4.863776586077637"><ele>103.0</ele><time>2026-04-06T08:36:36.999Z</time></trkpt><trkpt lat="44.91591618100575" lon="4.863771073174714"><ele>103.0</ele><time>2026-04-06T08:36:38.999Z</time></trkpt><trkpt lat="44.91599433698929" lon="4.863768107669658"><ele>103.0</ele><time>2026-04-06T08:36:40.999Z</time></trkpt><trkpt lat="44.916075492696415" lon="4.863772838817013"><ele>103.00000000000001</ele><time>2026-04-06T08:36:42.999Z</time></trkpt><trkpt lat="44.91614941012539" lon="4.863772698597218"><ele>103.0</ele><time>2026-04-06T08:36:44.999Z</time></trkpt><trkpt lat="44.91621903052498" lon="4.8637853454392905"><ele>103.50000000000001</ele><time>2026-04-06T08:36:46.999Z</time></trkpt><trkpt lat="44.916310080809595" lon="4.8638213734655125"><ele>104.0</ele><time>2026-04-06T08:36:49.999Z</time></trkpt><trkpt lat="44.91637123828028" lon="4.863845799371452"><ele>104.5</ele><time>2026-04-06T08:36:51.999Z</time></trkpt><trkpt lat="44.91645546772473" lon="4.863898566938158"><ele>105.0</ele><time>2026-04-06T08:36:54.999Z</time></trkpt><trkpt lat="44.916507356914124" lon="4.863955972508113"><ele>105.50000000000001</ele><time>2026-04-06T08:36:56.999Z</time></trkpt><trkpt lat="44.91656766461923" lon="4.864000463645412"><ele>106.0</ele><time>2026-04-06T08:36:58.999Z</time></trkpt><trkpt lat="44.916636240435636" lon="4.864055430222065"><ele>106.00000000000001</ele><time>2026-04-06T08:37:00.999Z</time></trkpt><trkpt lat="44.91672182351213" lon="4.864118051864342"><ele>106.0</ele><time>2026-04-06T08:37:03.999Z</time></trkpt><trkpt lat="44.916798534677255" lon="4.864190823076824"><ele>106.0</ele><time>2026-04-06T08:37:06.999Z</time></trkpt><trkpt lat="44.91685086635314" lon="4.864251127151658"><ele>106.0</ele><time>2026-04-06T08:37:08.999Z</time></trkpt><trkpt lat="44.9169188780605" lon="4.864348972331782"><ele>106.00000000000001</ele><time>2026-04-06T08:37:11.999Z</time></trkpt><trkpt lat="44.91697270251916" lon="4.864411594425617"><ele>106.0</ele><time>2026-04-06T08:37:13.999Z</time></trkpt><trkpt lat="44.917023569699886" lon="4.864472399542041"><ele>106.16666666666667</ele><time>2026-04-06T08:37:15.999Z</time></trkpt><trkpt lat="44.917077351451894" lon="4.864540838711481"><ele>106.33333333333334</ele><time>2026-04-06T08:37:17.999Z</time></trkpt><trkpt lat="44.91713968728847" lon="4.864578823977068"><ele>106.5</ele><time>2026-04-06T08:37:19.999Z</time></trkpt><trkpt lat="44.91719668393636" lon="4.864621991892861"><ele>106.66666666666666</ele><time>2026-04-06T08:37:21.999Z</time></trkpt><trkpt lat="44.91728095401154" lon="4.864674410117272"><ele>106.83333333333333</ele><time>2026-04-06T08:37:24.999Z</time></trkpt><trkpt lat="44.917358614844126" lon="4.864721393213299"><ele>107.0</ele><time>2026-04-06T08:37:27.999Z</time></trkpt><trkpt lat="44.9174430429426" lon="4.86477511662322"><ele>106.99999999999999</ele><time>2026-04-06T08:37:30.999Z</time></trkpt><trkpt lat="44.917529033321465" lon="4.86482170555176"><ele>107.0</ele><time>2026-04-06T08:37:33.999Z</time></trkpt><trkpt lat="44.9176095767997" lon="4.8648789925274025"><ele>107.0</ele><time>2026-04-06T08:37:36.998Z</time></trkpt><trkpt lat="44.91769491446672" lon="4.864920243129829"><ele>107.0</ele><time>2026-04-06T08:37:39.999Z</time></trkpt><trkpt lat="44.91775566874176" lon="4.864959636842881"><ele>106.99999999999999</ele><time>2026-04-06T08:37:41.998Z</time></trkpt><trkpt lat="44.91784736006428" lon="4.86501007962274"><ele>107.0</ele><time>2026-04-06T08:37:44.998Z</time></trkpt><trkpt lat="44.91791664443921" lon="4.865056686581503"><ele>107.16666666666666</ele><time>2026-04-06T08:37:46.998Z</time></trkpt><trkpt lat="44.91798616790307" lon="4.8651110351468825"><ele>107.33333333333333</ele><time>2026-04-06T08:37:48.998Z</time></trkpt><trkpt lat="44.9180576143127" lon="4.865155030114619"><ele>107.5</ele><time>2026-04-06T08:37:50.998Z</time></trkpt><trkpt lat="44.91812979153469" lon="4.865206435177053"><ele>107.66666666666666</ele><time>2026-04-06T08:37:52.998Z</time></trkpt><trkpt lat="44.91820216066741" lon="4.865257230028187"><ele>107.83333333333333</ele><time>2026-04-06T08:37:54.998Z</time></trkpt><trkpt lat="44.9182709068392" lon="4.865307483418958"><ele>108.0</ele><time>2026-04-06T08:37:56.998Z</time></trkpt><trkpt lat="44.91836170268923" lon="4.865346702369886"><ele>108.0</ele><time>2026-04-06T08:37:58.998Z</time></trkpt><trkpt lat="44.91843809162062" lon="4.865388204725574"><ele>108.0</ele><time>2026-04-06T08:38:00.998Z</time></trkpt><trkpt lat="44.91851311858745" lon="4.865416777360519"><ele>108.0</ele><time>2026-04-06T08:38:02.998Z</time></trkpt><trkpt lat="44.91858689447958" lon="4.865466419970479"><ele>108.0</ele><time>2026-04-06T08:38:04.998Z</time></trkpt><trkpt lat="44.91865914648096" lon="4.86550991940171"><ele>108.0</ele><time>2026-04-06T08:38:06.998Z</time></trkpt><trkpt lat="44.91874384562164" lon="4.865560085741317"><ele>108.0</ele><time>2026-04-06T08:38:08.998Z</time></trkpt><trkpt lat="44.918823937275654" lon="4.865605959017116"><ele>108.0</ele><time>2026-04-06T08:38:10.998Z</time></trkpt><trkpt lat="44.918909677156826" lon="4.865632999049485"><ele>108.0</ele><time>2026-04-06T08:38:12.998Z</time></trkpt><trkpt lat="44.91898989129107" lon="4.865666008853873"><ele>108.0</ele><time>2026-04-06T08:38:14.998Z</time></trkpt><trkpt lat="44.91906119902916" lon="4.865700449595084"><ele>108.0</ele><time>2026-04-06T08:38:16.998Z</time></trkpt><trkpt lat="44.919130372831766" lon="4.865736877049298"><ele>108.0</ele><time>2026-04-06T08:38:18.998Z</time></trkpt><trkpt lat="44.91920316985185" lon="4.865771605742769"><ele>108.0</ele><time>2026-04-06T08:38:20.998Z</time></trkpt><trkpt lat="44.9192702168413" lon="4.865811187228737"><ele>108.16666666666667</ele><time>2026-04-06T08:38:22.998Z</time></trkpt><trkpt lat="44.91934050508579" lon="4.865855910896217"><ele>108.33333333333334</ele><time>2026-04-06T08:38:24.998Z</time></trkpt><trkpt lat="44.9194087260175" lon="4.8659015172477105"><ele>108.5</ele><time>2026-04-06T08:38:26.998Z</time></trkpt><trkpt lat="44.91948339193553" lon="4.865956346023703"><ele>108.66666666666667</ele><time>2026-04-06T08:38:28.998Z</time></trkpt><trkpt lat="44.919563564636796" lon="4.866009631023539"><ele>108.83333333333334</ele><time>2026-04-06T08:38:30.998Z</time></trkpt><trkpt lat="44.91963907754566" lon="4.866060715240394"><ele>109.0</ele><time>2026-04-06T08:38:32.998Z</time></trkpt><trkpt lat="44.91971593862586" lon="4.866090667252151"><ele>109.00000000000001</ele><time>2026-04-06T08:38:34.998Z</time></trkpt><trkpt lat="44.91979724944499" lon="4.86612463231238"><ele>109.0</ele><time>2026-04-06T08:38:36.998Z</time></trkpt><trkpt lat="44.91986566270363" lon="4.866149405093438"><ele>109.0</ele><time>2026-04-06T08:38:38.998Z</time></trkpt><trkpt lat="44.91992952999602" lon="4.866189172942668"><ele>109.0</ele><time>2026-04-06T08:38:40.998Z</time></trkpt><trkpt lat="44.92000680155067" lon="4.866228764132495"><ele>109.00000000000001</ele><time>2026-04-06T08:38:42.998Z</time></trkpt><trkpt lat="44.920082062809584" lon="4.866275757953954"><ele>109.0</ele><time>2026-04-06T08:38:44.998Z</time></trkpt><trkpt lat="44.920152451857824" lon="4.866316115497219"><ele>109.16666666666667</ele><time>2026-04-06T08:38:46.998Z</time></trkpt><trkpt lat="44.92023357790976" lon="4.866350394807109"><ele>109.33333333333334</ele><time>2026-04-06T08:38:48.998Z</time></trkpt><trkpt lat="44.92031679624763" lon="4.8663714485866825"><ele>109.5</ele><time>2026-04-06T08:38:50.998Z</time></trkpt><trkpt lat="44.92039212434908" lon="4.866415753820654"><ele>109.66666666666666</ele><time>2026-04-06T08:38:52.998Z</time></trkpt><trkpt lat="44.92045536513397" lon="4.866425679802089"><ele>109.83333333333333</ele><time>2026-04-06T08:38:54.998Z</time></trkpt><trkpt lat="44.92054767635216" lon="4.866469130414201"><ele>110.0</ele><time>2026-04-06T08:38:56.998Z</time></trkpt><trkpt lat="44.92063661438381" lon="4.866509460327769"><ele>109.99999999999999</ele><time>2026-04-06T08:38:58.998Z</time></trkpt><trkpt lat="44.92072705897305" lon="4.866544652390474"><ele>110.0</ele><time>2026-04-06T08:39:00.998Z</time></trkpt><trkpt lat="44.920812757085265" lon="4.8665717097765855"><ele>110.0</ele><time>2026-04-06T08:39:02.998Z</time></trkpt><trkpt lat="44.92089098185868" lon="4.866622565781212"><ele>110.0</ele><time>2026-04-06T08:39:04.998Z</time></trkpt><trkpt lat="44.92096301662375" lon="4.866638856862083"><ele>109.99999999999999</ele><time>2026-04-06T08:39:06.998Z</time></trkpt><trkpt lat="44.92097271834402" lon="4.866727769687232"><ele>110.0</ele><time>2026-04-06T08:39:23.998Z</time></trkpt><trkpt lat="44.9209240147093" lon="4.866784814742632"><ele>109.83333333333333</ele><time>2026-04-06T08:39:25.998Z</time></trkpt><trkpt lat="44.92087961978412" lon="4.8668914268028205"><ele>109.66666666666666</ele><time>2026-04-06T08:39:28.998Z</time></trkpt><trkpt lat="44.92085905442021" lon="4.86700170370622"><ele>109.5</ele><time>2026-04-06T08:39:32.998Z</time></trkpt><trkpt lat="44.920868016621995" lon="4.867096012584204"><ele>109.33333333333334</ele><time>2026-04-06T08:39:35.998Z</time></trkpt><trkpt lat="44.92084918268689" lon="4.867197496667633"><ele>109.16666666666667</ele><time>2026-04-06T08:39:38.998Z</time></trkpt><trkpt lat="44.920831385956035" lon="4.867317524195319"><ele>109.0</ele><time>2026-04-06T08:39:41.998Z</time></trkpt><trkpt lat="44.92080681819615" lon="4.867409490074265"><ele>109.00000000000001</ele><time>2026-04-06T08:39:43.998Z</time></trkpt><trkpt lat="44.920779004676405" lon="4.8675047936671625"><ele>109.0</ele><time>2026-04-06T08:39:45.998Z</time></trkpt><trkpt lat="44.92075441018812" lon="4.867607624925776"><ele>109.0</ele><time>2026-04-06T08:39:47.998Z</time></trkpt><trkpt lat="44.92073237552096" lon="4.867716738077648"><ele>109.0</ele><time>2026-04-06T08:39:49.998Z</time></trkpt><trkpt lat="44.920708033636565" lon="4.8678167400093555"><ele>109.00000000000001</ele><time>2026-04-06T08:39:51.998Z</time></trkpt><trkpt lat="44.920680365739706" lon="4.86792471018431"><ele>109.0</ele><time>2026-04-06T08:39:53.998Z</time></trkpt><trkpt lat="44.920663751412825" lon="4.868035713330147"><ele>109.00000000000001</ele><time>2026-04-06T08:39:55.998Z</time></trkpt><trkpt lat="44.920640048745156" lon="4.8681435577759515"><ele>109.0</ele><time>2026-04-06T08:39:57.998Z</time></trkpt><trkpt lat="44.920615826676624" lon="4.868252084786572"><ele>109.0</ele><time>2026-04-06T08:39:59.998Z</time></trkpt><trkpt lat="44.92059032692181" lon="4.8683588367132025"><ele>109.0</ele><time>2026-04-06T08:40:01.998Z</time></trkpt><trkpt lat="44.92056061459293" lon="4.868479328662676"><ele>109.00000000000001</ele><time>2026-04-06T08:40:03.998Z</time></trkpt><trkpt lat="44.92053807172843" lon="4.868585822033722"><ele>109.0</ele><time>2026-04-06T08:40:05.998Z</time></trkpt><trkpt lat="44.92051232824587" lon="4.868703252764895"><ele>109.00000000000001</ele><time>2026-04-06T08:40:07.998Z</time></trkpt><trkpt lat="44.92048727007911" lon="4.868821202014342"><ele>109.0</ele><time>2026-04-06T08:40:09.998Z</time></trkpt><trkpt lat="44.920463926142816" lon="4.868932769858336"><ele>109.0</ele><time>2026-04-06T08:40:11.998Z</time></trkpt><trkpt lat="44.92043570538514" lon="4.869039641882657"><ele>109.0</ele><time>2026-04-06T08:40:13.998Z</time></trkpt><trkpt lat="44.92041135256245" lon="4.869127303011369"><ele>109.00000000000001</ele><time>2026-04-06T08:40:15.998Z</time></trkpt><trkpt lat="44.92038031268111" lon="4.86921523094826"><ele>109.0</ele><time>2026-04-06T08:40:17.998Z</time></trkpt><trkpt lat="44.92033729293926" lon="4.869324063530542"><ele>108.4</ele><time>2026-04-06T08:40:19.998Z</time></trkpt><trkpt lat="44.92027383117607" lon="4.869440280257658"><ele>107.80000000000001</ele><time>2026-04-06T08:40:21.998Z</time></trkpt><trkpt lat="44.920184664661974" lon="4.869531385114586"><ele>107.19999999999999</ele><time>2026-04-06T08:40:23.998Z</time></trkpt><trkpt lat="44.92009266015732" lon="4.86960935958818"><ele>106.6</ele><time>2026-04-06T08:40:25.998Z</time></trkpt><trkpt lat="44.92000172170437" lon="4.869664390538102"><ele>106.0</ele><time>2026-04-06T08:40:27.998Z</time></trkpt><trkpt lat="44.91991971168065" lon="4.869686923143606"><ele>106.0</ele><time>2026-04-06T08:40:29.998Z</time></trkpt><trkpt lat="44.919825013533476" lon="4.86970171960132"><ele>106.0</ele><time>2026-04-06T08:40:31.998Z</time></trkpt><trkpt lat="44.91972702064124" lon="4.869699737593957"><ele>106.0</ele><time>2026-04-06T08:40:33.998Z</time></trkpt><trkpt lat="44.91963792528015" lon="4.869674224816171"><ele>106.0</ele><time>2026-04-06T08:40:35.998Z</time></trkpt><trkpt lat="44.91955267322101" lon="4.869653036099645"><ele>106.0</ele><time>2026-04-06T08:40:37.998Z</time></trkpt><trkpt lat="44.91946803671751" lon="4.869625913678971"><ele>106.0</ele><time>2026-04-06T08:40:39.998Z</time></trkpt><trkpt lat="44.91937760288436" lon="4.869616185318938"><ele>106.0</ele><time>2026-04-06T08:40:41.998Z</time></trkpt><trkpt lat="44.91928677094833" lon="4.869586986666821"><ele>106.0</ele><time>2026-04-06T08:40:43.998Z</time></trkpt><trkpt lat="44.91918930140985" lon="4.8695625611239395"><ele>106.0</ele><time>2026-04-06T08:40:45.998Z</time></trkpt><trkpt lat="44.919093004857544" lon="4.869533653948929"><ele>106.0</ele><time>2026-04-06T08:40:47.998Z</time></trkpt><trkpt lat="44.918996372093154" lon="4.869502685558641"><ele>106.19999999999999</ele><time>2026-04-06T08:40:49.998Z</time></trkpt><trkpt lat="44.91889593182838" lon="4.869466659386798"><ele>106.39999999999999</ele><time>2026-04-06T08:40:51.998Z</time></trkpt><trkpt lat="44.918793247321474" lon="4.869440457686217"><ele>106.6</ele><time>2026-04-06T08:40:53.998Z</time></trkpt><trkpt lat="44.9186793275224" lon="4.869419401321254"><ele>106.8</ele><time>2026-04-06T08:40:55.998Z</time></trkpt><trkpt lat="44.91856446501946" lon="4.869383115760859"><ele>107.0</ele><time>2026-04-06T08:40:57.998Z</time></trkpt><trkpt lat="44.91844482045589" lon="4.869357201806584"><ele>107.0</ele><time>2026-04-06T08:40:59.998Z</time></trkpt><trkpt lat="44.91833402599518" lon="4.869324079203178"><ele>106.99999999999999</ele><time>2026-04-06T08:41:01.998Z</time></trkpt><trkpt lat="44.91822394007237" lon="4.869282556391814"><ele>106.99999999999999</ele><time>2026-04-06T08:41:03.998Z</time></trkpt><trkpt lat="44.91811661223166" lon="4.869256474499208"><ele>107.0</ele><time>2026-04-06T08:41:05.998Z</time></trkpt><trkpt lat="44.918018477595545" lon="4.86922682034601"><ele>107.0</ele><time>2026-04-06T08:41:07.998Z</time></trkpt><trkpt lat="44.91792446181155" lon="4.869201283338061"><ele>107.19999999999999</ele><time>2026-04-06T08:41:09.998Z</time></trkpt><trkpt lat="44.9178280223145" lon="4.869175341361466"><ele>107.39999999999999</ele><time>2026-04-06T08:41:11.998Z</time></trkpt><trkpt lat="44.917727852574444" lon="4.869149363663217"><ele>107.60000000000001</ele><time>2026-04-06T08:41:13.998Z</time></trkpt><trkpt lat="44.91762794897895" lon="4.869127072178541"><ele>107.80000000000001</ele><time>2026-04-06T08:41:15.998Z</time></trkpt><trkpt lat="44.917530436293475" lon="4.869099869882911"><ele>108.0</ele><time>2026-04-06T08:41:17.998Z</time></trkpt><trkpt lat="44.917431235811065" lon="4.869075383049388"><ele>108.0</ele><time>2026-04-06T08:41:19.998Z</time></trkpt><trkpt lat="44.91732942672966" lon="4.869040561092331"><ele>108.00000000000001</ele><time>2026-04-06T08:41:21.998Z</time></trkpt><trkpt lat="44.91724329221257" lon="4.869015530703907"><ele>108.00000000000001</ele><time>2026-04-06T08:41:23.998Z</time></trkpt><trkpt lat="44.91715957002803" lon="4.868978047613428"><ele>108.0</ele><time>2026-04-06T08:41:25.998Z</time></trkpt><trkpt lat="44.91706349055497" lon="4.868950499227032"><ele>108.0</ele><time>2026-04-06T08:41:27.998Z</time></trkpt><trkpt lat="44.916964712328735" lon="4.8689267596214085"><ele>108.0</ele><time>2026-04-06T08:41:29.998Z</time></trkpt><trkpt lat="44.916868537432705" lon="4.868907829722145"><ele>108.00000000000001</ele><time>2026-04-06T08:41:31.998Z</time></trkpt><trkpt lat="44.91677253390527" lon="4.86889504380426"><ele>108.00000000000001</ele><time>2026-04-06T08:41:33.998Z</time></trkpt><trkpt lat="44.916681902650815" lon="4.868886570875905"><ele>108.0</ele><time>2026-04-06T08:41:35.998Z</time></trkpt><trkpt lat="44.916592470546696" lon="4.868872458897376"><ele>108.0</ele><time>2026-04-06T08:41:37.998Z</time></trkpt><trkpt lat="44.91649761616943" lon="4.868859884231361"><ele>107.60000000000001</ele><time>2026-04-06T08:41:39.998Z</time></trkpt><trkpt lat="44.91640525229118" lon="4.868842863294595"><ele>107.20000000000002</ele><time>2026-04-06T08:41:41.998Z</time></trkpt><trkpt lat="44.916305778869194" lon="4.868833628689152"><ele>106.8</ele><time>2026-04-06T08:41:43.998Z</time></trkpt><trkpt lat="44.916203136433666" lon="4.868816033519713"><ele>106.4</ele><time>2026-04-06T08:41:45.998Z</time></trkpt><trkpt lat="44.91610332915984" lon="4.8688097699623425"><ele>106.0</ele><time>2026-04-06T08:41:47.998Z</time></trkpt><trkpt lat="44.91599968929422" lon="4.86877862841397"><ele>106.6</ele><time>2026-04-06T08:41:49.998Z</time></trkpt><trkpt lat="44.91589710115544" lon="4.86874954594338"><ele>107.19999999999999</ele><time>2026-04-06T08:41:51.998Z</time></trkpt><trkpt lat="44.91579305291098" lon="4.868720434878782"><ele>107.80000000000001</ele><time>2026-04-06T08:41:53.998Z</time></trkpt><trkpt lat="44.91569841425143" lon="4.868668238889964"><ele>108.4</ele><time>2026-04-06T08:41:55.998Z</time></trkpt><trkpt lat="44.91560310103611" lon="4.868641664276629"><ele>109.0</ele><time>2026-04-06T08:41:57.998Z</time></trkpt><trkpt lat="44.91551984942575" lon="4.868684328388594"><ele>109.00000000000001</ele><time>2026-04-06T08:41:59.998Z</time></trkpt><trkpt lat="44.91542295690344" lon="4.868679944652783"><ele>109.0</ele><time>2026-04-06T08:42:01.998Z</time></trkpt><trkpt lat="44.91534283942407" lon="4.8686518817334745"><ele>109.0</ele><time>2026-04-06T08:42:03.998Z</time></trkpt><trkpt lat="44.915262740947846" lon="4.868628327356925"><ele>109.0</ele><time>2026-04-06T08:42:05.998Z</time></trkpt><trkpt lat="44.91517764898343" lon="4.868613271185871"><ele>109.00000000000001</ele><time>2026-04-06T08:42:07.998Z</time></trkpt><trkpt lat="44.91509577449158" lon="4.86858559263453"><ele>109.0</ele><time>2026-04-06T08:42:09.998Z</time></trkpt><trkpt lat="44.91501038032335" lon="4.868562177217861"><ele>109.0</ele><time>2026-04-06T08:42:11.998Z</time></trkpt><trkpt lat="44.91492073616375" lon="4.8685394059821006"><ele>109.0</ele><time>2026-04-06T08:42:13.998Z</time></trkpt><trkpt lat="44.91483121363469" lon="4.868515571150389"><ele>109.0</ele><time>2026-04-06T08:42:15.998Z</time></trkpt><trkpt lat="44.91473946999824" lon="4.868485370429889"><ele>109.0</ele><time>2026-04-06T08:42:17.998Z</time></trkpt><trkpt lat="44.91464925889146" lon="4.868453651689228"><ele>109.0</ele><time>2026-04-06T08:42:19.998Z</time></trkpt><trkpt lat="44.91455613606776" lon="4.868429399477417"><ele>109.0</ele><time>2026-04-06T08:42:21.998Z</time></trkpt><trkpt lat="44.914471990628016" lon="4.868386429297376"><ele>109.0</ele><time>2026-04-06T08:42:23.998Z</time></trkpt><trkpt lat="44.91438985947692" lon="4.8683386125003585"><ele>109.0</ele><time>2026-04-06T08:42:25.998Z</time></trkpt><trkpt lat="44.91431111499627" lon="4.868272459144702"><ele>109.0</ele><time>2026-04-06T08:42:27.998Z</time></trkpt><trkpt lat="44.91424881128351" lon="4.8681765583612435"><ele>109.0</ele><time>2026-04-06T08:42:29.998Z</time></trkpt><trkpt lat="44.91417561974724" lon="4.868102948187748"><ele>108.83333333333334</ele><time>2026-04-06T08:42:31.998Z</time></trkpt><trkpt lat="44.91411105409711" lon="4.868013000222441"><ele>108.66666666666667</ele><time>2026-04-06T08:42:33.998Z</time></trkpt><trkpt lat="44.91404117344673" lon="4.867925433849299"><ele>108.5</ele><time>2026-04-06T08:42:35.998Z</time></trkpt><trkpt lat="44.913988496828715" lon="4.867832441308741"><ele>108.33333333333334</ele><time>2026-04-06T08:42:37.998Z</time></trkpt><trkpt lat="44.913922233663705" lon="4.867732593647827"><ele>108.16666666666667</ele><time>2026-04-06T08:42:39.998Z</time></trkpt><trkpt lat="44.913864651982166" lon="4.867650966245434"><ele>108.0</ele><time>2026-04-06T08:42:41.998Z</time></trkpt><trkpt lat="44.913804300791924" lon="4.867573055880558"><ele>108.0</ele><time>2026-04-06T08:42:43.998Z</time></trkpt><trkpt lat="44.91373822451167" lon="4.867507496597553"><ele>108.0</ele><time>2026-04-06T08:42:45.998Z</time></trkpt><trkpt lat="44.91366208446349" lon="4.867461213287971"><ele>108.0</ele><time>2026-04-06T08:42:47.998Z</time></trkpt><trkpt lat="44.913584015305965" lon="4.867424536911478"><ele>108.0</ele><time>2026-04-06T08:42:49.998Z</time></trkpt><trkpt lat="44.9135086540268" lon="4.867385927560864"><ele>108.0</ele><time>2026-04-06T08:42:51.998Z</time></trkpt><trkpt lat="44.91341531811516" lon="4.867356438972662"><ele>108.0</ele><time>2026-04-06T08:42:53.998Z</time></trkpt><trkpt lat="44.9133124162364" lon="4.867344114120299"><ele>107.80000000000001</ele><time>2026-04-06T08:42:55.998Z</time></trkpt><trkpt lat="44.91321292308975" lon="4.8673344481685685"><ele>107.60000000000001</ele><time>2026-04-06T08:42:57.998Z</time></trkpt><trkpt lat="44.91311941416302" lon="4.8673400663131785"><ele>107.39999999999999</ele><time>2026-04-06T08:42:59.998Z</time></trkpt><trkpt lat="44.913030218680355" lon="4.8673318282117775"><ele>107.19999999999999</ele><time>2026-04-06T08:43:01.998Z</time></trkpt><trkpt lat="44.91293757552392" lon="4.867307022319963"><ele>107.0</ele><time>2026-04-06T08:43:03.998Z</time></trkpt><trkpt lat="44.91285342884181" lon="4.867260516784863"><ele>106.99999999999999</ele><time>2026-04-06T08:43:05.998Z</time></trkpt><trkpt lat="44.912771293494444" lon="4.867209145111914"><ele>107.0</ele><time>2026-04-06T08:43:07.998Z</time></trkpt><trkpt lat="44.91268999019053" lon="4.8671571385229635"><ele>107.0</ele><time>2026-04-06T08:43:09.998Z</time></trkpt><trkpt lat="44.91259974829687" lon="4.867118112590534"><ele>107.0</ele><time>2026-04-06T08:43:11.998Z</time></trkpt><trkpt lat="44.912507462416364" lon="4.867076312919632"><ele>106.99999999999999</ele><time>2026-04-06T08:43:13.998Z</time></trkpt><trkpt lat="44.9124537125091" lon="4.8670280323614605"><ele>107.0</ele><time>2026-04-06T08:43:15.998Z</time></trkpt><trkpt lat="44.91237819330215" lon="4.866976533994572"><ele>106.99999999999999</ele><time>2026-04-06T08:43:17.998Z</time></trkpt><trkpt lat="44.912297029524" lon="4.866920658304562"><ele>107.0</ele><time>2026-04-06T08:43:19.998Z</time></trkpt><trkpt lat="44.912220887806505" lon="4.866876940981338"><ele>107.0</ele><time>2026-04-06T08:43:21.998Z</time></trkpt><trkpt lat="44.91213733961459" lon="4.866822564219435"><ele>107.0</ele><time>2026-04-06T08:43:23.998Z</time></trkpt><trkpt lat="44.91205574596277" lon="4.866777462652844"><ele>106.99999999999999</ele><time>2026-04-06T08:43:25.998Z</time></trkpt><trkpt lat="44.91197293886783" lon="4.866729196471408"><ele>107.0</ele><time>2026-04-06T08:43:27.998Z</time></trkpt><trkpt lat="44.911889769813605" lon="4.86667066479284"><ele>106.99999999999999</ele><time>2026-04-06T08:43:29.998Z</time></trkpt><trkpt lat="44.911819432488244" lon="4.866611502603463"><ele>107.0</ele><time>2026-04-06T08:43:31.998Z</time></trkpt><trkpt lat="44.911739394282" lon="4.866570051149467"><ele>107.0</ele><time>2026-04-06T08:43:33.998Z</time></trkpt><trkpt lat="44.91166876795948" lon="4.866522588420905"><ele>107.0</ele><time>2026-04-06T08:43:35.998Z</time></trkpt><trkpt lat="44.911596779255575" lon="4.866462112446688"><ele>106.99999999999999</ele><time>2026-04-06T08:43:37.998Z</time></trkpt><trkpt lat="44.91152209529789" lon="4.866419940857745"><ele>107.0</ele><time>2026-04-06T08:43:39.998Z</time></trkpt><trkpt lat="44.91144973838169" lon="4.8663601651983885"><ele>106.99999999999999</ele><time>2026-04-06T08:43:41.998Z</time></trkpt><trkpt lat="44.911374614047766" lon="4.866297570902245"><ele>107.0</ele><time>2026-04-06T08:43:43.998Z</time></trkpt><trkpt lat="44.91130847542803" lon="4.866233881442965"><ele>107.0</ele><time>2026-04-06T08:43:45.998Z</time></trkpt><trkpt lat="44.91123395755179" lon="4.866182008528328"><ele>107.0</ele><time>2026-04-06T08:43:47.998Z</time></trkpt><trkpt lat="44.91116339771885" lon="4.8661227494538455"><ele>106.99999999999999</ele><time>2026-04-06T08:43:49.998Z</time></trkpt><trkpt lat="44.91109133292481" lon="4.866061582766338"><ele>107.0</ele><time>2026-04-06T08:43:51.998Z</time></trkpt><trkpt lat="44.911015856355014" lon="4.866002658514864"><ele>106.99999999999999</ele><time>2026-04-06T08:43:53.997Z</time></trkpt><trkpt lat="44.910940927401434" lon="4.865942999888165"><ele>107.0</ele><time>2026-04-06T08:43:55.997Z</time></trkpt><trkpt lat="44.91087361685905" lon="4.8658765211800805"><ele>107.0</ele><time>2026-04-06T08:43:57.997Z</time></trkpt><trkpt lat="44.910807694637086" lon="4.8658185320017475"><ele>107.0</ele><time>2026-04-06T08:43:59.998Z</time></trkpt><trkpt lat="44.91073458947527" lon="4.865762362364671"><ele>106.99999999999999</ele><time>2026-04-06T08:44:01.998Z</time></trkpt><trkpt lat="44.91066390757214" lon="4.865692441987893"><ele>107.0</ele><time>2026-04-06T08:44:03.998Z</time></trkpt><trkpt lat="44.910589614609954" lon="4.865616882042555"><ele>106.99999999999999</ele><time>2026-04-06T08:44:05.997Z</time></trkpt><trkpt lat="44.91050765641383" lon="4.86555665532037"><ele>107.0</ele><time>2026-04-06T08:44:07.997Z</time></trkpt><trkpt lat="44.910436414365265" lon="4.865512881213585"><ele>107.0</ele><time>2026-04-06T08:44:09.997Z</time></trkpt><trkpt lat="44.91037627789204" lon="4.865456011469939"><ele>107.0</ele><time>2026-04-06T08:44:11.997Z</time></trkpt><trkpt lat="44.910320458947375" lon="4.865373403388428"><ele>106.99999999999999</ele><time>2026-04-06T08:44:13.997Z</time></trkpt><trkpt lat="44.91028065971277" lon="4.86530221837171"><ele>107.0</ele><time>2026-04-06T08:44:16.997Z</time></trkpt><trkpt lat="44.91032228979596" lon="4.865218315225948"><ele>106.99999999999999</ele><time>2026-04-06T08:44:19.997Z</time></trkpt><trkpt lat="44.910371997078215" lon="4.865150224730534"><ele>107.0</ele><time>2026-04-06T08:44:21.997Z</time></trkpt><trkpt lat="44.910390750131405" lon="4.865059993388356"><ele>107.0</ele><time>2026-04-06T08:44:23.997Z</time></trkpt><trkpt lat="44.910433787463376" lon="4.864956040985759"><ele>107.0</ele><time>2026-04-06T08:44:25.997Z</time></trkpt><trkpt lat="44.910480499042606" lon="4.8648557463142446"><ele>106.99999999999999</ele><time>2026-04-06T08:44:27.997Z</time></trkpt><trkpt lat="44.91052113199378" lon="4.864775548646958"><ele>107.0</ele><time>2026-04-06T08:44:29.997Z</time></trkpt><trkpt lat="44.91057237210231" lon="4.864662704905591"><ele>106.83333333333333</ele><time>2026-04-06T08:44:32.997Z</time></trkpt><trkpt lat="44.91059554537392" lon="4.864536020123021"><ele>106.66666666666666</ele><time>2026-04-06T08:44:35.997Z</time></trkpt><trkpt lat="44.9105681644744" lon="4.864421896083817"><ele>106.5</ele><time>2026-04-06T08:44:38.997Z</time></trkpt><trkpt lat="44.910528039981536" lon="4.864352534615519"><ele>106.33333333333334</ele><time>2026-04-06T08:44:40.997Z</time></trkpt><trkpt lat="44.910486656815586" lon="4.864247667044355"><ele>106.16666666666667</ele><time>2026-04-06T08:44:42.997Z</time></trkpt><trkpt lat="44.910440676704425" lon="4.8641425514716525"><ele>106.0</ele><time>2026-04-06T08:44:44.997Z</time></trkpt><trkpt lat="44.91039131400151" lon="4.864022182589927"><ele>105.8</ele><time>2026-04-06T08:44:46.997Z</time></trkpt><trkpt lat="44.910334905141816" lon="4.86389990598518"><ele>105.6</ele><time>2026-04-06T08:44:48.997Z</time></trkpt><trkpt lat="44.91027998990471" lon="4.863778483344895"><ele>105.4</ele><time>2026-04-06T08:44:50.997Z</time></trkpt><trkpt lat="44.91022427560241" lon="4.863679220204971"><ele>105.2</ele><time>2026-04-06T08:44:52.997Z</time></trkpt><trkpt lat="44.910160752602096" lon="4.863565089410069"><ele>105.0</ele><time>2026-04-06T08:44:54.997Z</time></trkpt><trkpt lat="44.91012009148747" lon="4.863439561176405"><ele>105.0</ele><time>2026-04-06T08:44:56.997Z</time></trkpt><trkpt lat="44.91007758803089" lon="4.863314688377525"><ele>105.0</ele><time>2026-04-06T08:44:58.997Z</time></trkpt><trkpt lat="44.91003989985364" lon="4.863204809791557"><ele>105.0</ele><time>2026-04-06T08:45:00.997Z</time></trkpt><trkpt lat="44.9100093831199" lon="4.8631111590514"><ele>105.0</ele><time>2026-04-06T08:45:02.997Z</time></trkpt><trkpt lat="44.9099623688356" lon="4.863018495759467"><ele>105.0</ele><time>2026-04-06T08:45:04.997Z</time></trkpt><trkpt lat="44.909919316633534" lon="4.862919315150874"><ele>105.0</ele><time>2026-04-06T08:45:06.997Z</time></trkpt><trkpt lat="44.90989119811934" lon="4.862824956084347"><ele>105.0</ele><time>2026-04-06T08:45:08.997Z</time></trkpt><trkpt lat="44.909845294148965" lon="4.862728782397105"><ele>105.0</ele><time>2026-04-06T08:45:10.997Z</time></trkpt><trkpt lat="44.909785264557264" lon="4.862634617110552"><ele>105.0</ele><time>2026-04-06T08:45:12.997Z</time></trkpt><trkpt lat="44.9097311093627" lon="4.862532108069733"><ele>105.0</ele><time>2026-04-06T08:45:14.997Z</time></trkpt><trkpt lat="44.909713096069815" lon="4.862411524658961"><ele>105.0</ele><time>2026-04-06T08:45:16.997Z</time></trkpt><trkpt lat="44.9096960029893" lon="4.862289048294592"><ele>105.0</ele><time>2026-04-06T08:45:18.997Z</time></trkpt><trkpt lat="44.90968351255004" lon="4.862167974287075"><ele>105.5</ele><time>2026-04-06T08:45:20.997Z</time></trkpt><trkpt lat="44.90969098125531" lon="4.862053135096816"><ele>106.0</ele><time>2026-04-06T08:45:22.997Z</time></trkpt><trkpt lat="44.909683183314776" lon="4.86193792477532"><ele>106.5</ele><time>2026-04-06T08:45:24.997Z</time></trkpt><trkpt lat="44.90969524451589" lon="4.861825618070948"><ele>107.0</ele><time>2026-04-06T08:45:26.997Z</time></trkpt><trkpt lat="44.909694659247144" lon="4.861713867291966"><ele>107.5</ele><time>2026-04-06T08:45:28.997Z</time></trkpt><trkpt lat="44.909702351069875" lon="4.861600110117051"><ele>108.0</ele><time>2026-04-06T08:45:30.997Z</time></trkpt><trkpt lat="44.90969825193089" lon="4.86147941045413"><ele>108.16666666666667</ele><time>2026-04-06T08:45:32.997Z</time></trkpt><trkpt lat="44.909709234031574" lon="4.861361347202167"><ele>108.33333333333334</ele><time>2026-04-06T08:45:34.997Z</time></trkpt><trkpt lat="44.909704267921335" lon="4.8612521351017906"><ele>108.5</ele><time>2026-04-06T08:45:36.997Z</time></trkpt><trkpt lat="44.9097038667588" lon="4.86112620028639"><ele>108.66666666666667</ele><time>2026-04-06T08:45:38.997Z</time></trkpt><trkpt lat="44.909710856768854" lon="4.861002264742951"><ele>108.83333333333334</ele><time>2026-04-06T08:45:40.997Z</time></trkpt><trkpt lat="44.909719590127075" lon="4.860874225444296"><ele>109.0</ele><time>2026-04-06T08:45:42.997Z</time></trkpt><trkpt lat="44.909729921837034" lon="4.860731644140649"><ele>109.00000000000001</ele><time>2026-04-06T08:45:44.997Z</time></trkpt><trkpt lat="44.9097331577165" lon="4.860600902012974"><ele>109.0</ele><time>2026-04-06T08:45:46.997Z</time></trkpt><trkpt lat="44.90972663946604" lon="4.860479867008177"><ele>109.0</ele><time>2026-04-06T08:45:48.997Z</time></trkpt><trkpt lat="44.909726088590155" lon="4.860362014174806"><ele>109.0</ele><time>2026-04-06T08:45:50.997Z</time></trkpt><trkpt lat="44.90972211251356" lon="4.860230746050992"><ele>109.00000000000001</ele><time>2026-04-06T08:45:52.997Z</time></trkpt><trkpt lat="44.90973100732481" lon="4.860114419263316"><ele>109.0</ele><time>2026-04-06T08:45:54.997Z</time></trkpt><trkpt lat="44.90972834220924" lon="4.859999796368799"><ele>109.00000000000001</ele><time>2026-04-06T08:45:56.997Z</time></trkpt><trkpt lat="44.90972963273356" lon="4.8598841497314895"><ele>109.0</ele><time>2026-04-06T08:45:58.998Z</time></trkpt><trkpt lat="44.9097422111417" lon="4.859767399361406"><ele>109.0</ele><time>2026-04-06T08:46:00.997Z</time></trkpt><trkpt lat="44.9097469672376" lon="4.859644452999457"><ele>109.0</ele><time>2026-04-06T08:46:02.998Z</time></trkpt><trkpt lat="44.90975171268745" lon="4.859530948663085"><ele>109.00000000000001</ele><time>2026-04-06T08:46:04.997Z</time></trkpt><trkpt lat="44.90976395540562" lon="4.859429036584426"><ele>109.0</ele><time>2026-04-06T08:46:06.997Z</time></trkpt><trkpt lat="44.9097699764623" lon="4.8593088769018244"><ele>108.50000000000001</ele><time>2026-04-06T08:46:08.998Z</time></trkpt><trkpt lat="44.909772227457054" lon="4.8591837838252445"><ele>108.0</ele><time>2026-04-06T08:46:10.997Z</time></trkpt><trkpt lat="44.909780117950895" lon="4.859076418187386"><ele>107.5</ele><time>2026-04-06T08:46:12.997Z</time></trkpt><trkpt lat="44.90977548629075" lon="4.858949189085165"><ele>107.0</ele><time>2026-04-06T08:46:14.997Z</time></trkpt><trkpt lat="44.90977302988357" lon="4.858814950941814"><ele>106.50000000000001</ele><time>2026-04-06T08:46:16.997Z</time></trkpt><trkpt lat="44.9097845500075" lon="4.858681556265599"><ele>106.0</ele><time>2026-04-06T08:46:18.997Z</time></trkpt><trkpt lat="44.90979118931595" lon="4.858565567769616"><ele>106.0</ele><time>2026-04-06T08:46:20.997Z</time></trkpt><trkpt lat="44.90979880924217" lon="4.858422213711078"><ele>106.0</ele><time>2026-04-06T08:46:22.997Z</time></trkpt><trkpt lat="44.9098101932766" lon="4.8582982780283475"><ele>106.0</ele><time>2026-04-06T08:46:24.997Z</time></trkpt><trkpt lat="44.9098190572582" lon="4.8581657799442395"><ele>106.0</ele><time>2026-04-06T08:46:26.997Z</time></trkpt><trkpt lat="44.9098305311416" lon="4.8580491815344296"><ele>106.0</ele><time>2026-04-06T08:46:28.997Z</time></trkpt><trkpt lat="44.90983831762861" lon="4.8579114536076435"><ele>106.00000000000001</ele><time>2026-04-06T08:46:30.997Z</time></trkpt><trkpt lat="44.909836777468435" lon="4.857779959638334"><ele>106.0</ele><time>2026-04-06T08:46:32.997Z</time></trkpt><trkpt lat="44.909835741078425" lon="4.857663769944405"><ele>106.0</ele><time>2026-04-06T08:46:34.997Z</time></trkpt><trkpt lat="44.90984751621148" lon="4.857538905110792"><ele>106.0</ele><time>2026-04-06T08:46:36.997Z</time></trkpt><trkpt lat="44.90985451611031" lon="4.857431471132505"><ele>106.00000000000001</ele><time>2026-04-06T08:46:38.997Z</time></trkpt><trkpt lat="44.90985972618646" lon="4.8573140817760905"><ele>106.0</ele><time>2026-04-06T08:46:40.997Z</time></trkpt><trkpt lat="44.909861951764455" lon="4.857182838434344"><ele>106.19999999999999</ele><time>2026-04-06T08:46:42.997Z</time></trkpt><trkpt lat="44.90987456016788" lon="4.857046636214002"><ele>106.39999999999999</ele><time>2026-04-06T08:46:44.997Z</time></trkpt><trkpt lat="44.909887873486504" lon="4.856915783883641"><ele>106.6</ele><time>2026-04-06T08:46:46.997Z</time></trkpt><trkpt lat="44.9099077455179" lon="4.856794406909353"><ele>106.8</ele><time>2026-04-06T08:46:48.997Z</time></trkpt><trkpt lat="44.909920534361106" lon="4.856654003333341"><ele>107.0</ele><time>2026-04-06T08:46:50.997Z</time></trkpt><trkpt lat="44.90992883520709" lon="4.856518912409466"><ele>107.33333333333333</ele><time>2026-04-06T08:46:52.997Z</time></trkpt><trkpt lat="44.909935652863304" lon="4.856386351996003"><ele>107.66666666666666</ele><time>2026-04-06T08:46:54.997Z</time></trkpt><trkpt lat="44.90995181068847" lon="4.856264056884777"><ele>108.0</ele><time>2026-04-06T08:46:56.997Z</time></trkpt><trkpt lat="44.90996986571169" lon="4.856148434160699"><ele>108.33333333333334</ele><time>2026-04-06T08:46:58.997Z</time></trkpt><trkpt lat="44.909995903006546" lon="4.856051882390405"><ele>108.66666666666667</ele><time>2026-04-06T08:47:00.997Z</time></trkpt><trkpt lat="44.91002611099972" lon="4.855956245058125"><ele>109.0</ele><time>2026-04-06T08:47:02.997Z</time></trkpt><trkpt lat="44.91005825027719" lon="4.855852083179446"><ele>108.33333333333334</ele><time>2026-04-06T08:47:04.997Z</time></trkpt><trkpt lat="44.910084738231035" lon="4.855750286080441"><ele>107.66666666666667</ele><time>2026-04-06T08:47:06.997Z</time></trkpt><trkpt lat="44.910128362131935" lon="4.855645939817699"><ele>107.0</ele><time>2026-04-06T08:47:08.997Z</time></trkpt><trkpt lat="44.91015218529715" lon="4.855541049703608"><ele>106.33333333333334</ele><time>2026-04-06T08:47:10.997Z</time></trkpt><trkpt lat="44.9101852741113" lon="4.855443520407285"><ele>105.66666666666667</ele><time>2026-04-06T08:47:12.997Z</time></trkpt><trkpt lat="44.91021973554957" lon="4.855346316088935"><ele>105.0</ele><time>2026-04-06T08:47:14.997Z</time></trkpt><trkpt lat="44.910250377251714" lon="4.855251851785773"><ele>105.0</ele><time>2026-04-06T08:47:16.997Z</time></trkpt><trkpt lat="44.91027386830573" lon="4.855155846173"><ele>105.0</ele><time>2026-04-06T08:47:18.997Z</time></trkpt><trkpt lat="44.91030245429256" lon="4.855047037501432"><ele>105.0</ele><time>2026-04-06T08:47:21.997Z</time></trkpt><trkpt lat="44.9102969883175" lon="4.854951489160544"><ele>105.0</ele><time>2026-04-06T08:47:24.997Z</time></trkpt><trkpt lat="44.910221130236984" lon="4.854880852502263"><ele>105.0</ele><time>2026-04-06T08:47:27.997Z</time></trkpt><trkpt lat="44.91015151105015" lon="4.854832445674852"><ele>105.0</ele><time>2026-04-06T08:47:29.997Z</time></trkpt><trkpt lat="44.91007785695028" lon="4.8547791671448275"><ele>105.2</ele><time>2026-04-06T08:47:31.997Z</time></trkpt><trkpt lat="44.91000808380643" lon="4.85473425289007"><ele>105.4</ele><time>2026-04-06T08:47:33.997Z</time></trkpt><trkpt lat="44.909925405026144" lon="4.854697541889649"><ele>105.6</ele><time>2026-04-06T08:47:35.997Z</time></trkpt><trkpt lat="44.909839900572514" lon="4.854627431789484"><ele>105.8</ele><time>2026-04-06T08:47:37.997Z</time></trkpt><trkpt lat="44.90975184603654" lon="4.854545102118394"><ele>106.0</ele><time>2026-04-06T08:47:39.997Z</time></trkpt><trkpt lat="44.90966659788922" lon="4.854485703181804"><ele>106.0</ele><time>2026-04-06T08:47:41.997Z</time></trkpt><trkpt lat="44.9095822416156" lon="4.854409022420182"><ele>106.0</ele><time>2026-04-06T08:47:43.997Z</time></trkpt><trkpt lat="44.90949603835767" lon="4.8543376979222135"><ele>106.0</ele><time>2026-04-06T08:47:45.997Z</time></trkpt><trkpt lat="44.90941338801299" lon="4.854288468397255"><ele>106.0</ele><time>2026-04-06T08:47:47.997Z</time></trkpt><trkpt lat="44.90932234165795" lon="4.854241287073583"><ele>106.0</ele><time>2026-04-06T08:47:49.997Z</time></trkpt><trkpt lat="44.9092369065496" lon="4.8542077656490354"><ele>106.8</ele><time>2026-04-06T08:47:51.997Z</time></trkpt><trkpt lat="44.90913030522906" lon="4.854166382395926"><ele>107.6</ele><time>2026-04-06T08:47:53.996Z</time></trkpt><trkpt lat="44.909038445044146" lon="4.854128171414465"><ele>108.4</ele><time>2026-04-06T08:47:55.996Z</time></trkpt><trkpt lat="44.90894131635307" lon="4.854092348430304"><ele>109.2</ele><time>2026-04-06T08:47:57.996Z</time></trkpt><trkpt lat="44.908843984120985" lon="4.85405969001498"><ele>110.0</ele><time>2026-04-06T08:47:59.996Z</time></trkpt><trkpt lat="44.9087564620288" lon="4.854034250639542"><ele>109.99999999999999</ele><time>2026-04-06T08:48:01.996Z</time></trkpt><trkpt lat="44.908661455572876" lon="4.854005578909895"><ele>110.0</ele><time>2026-04-06T08:48:03.996Z</time></trkpt><trkpt lat="44.90857215251693" lon="4.853973303858531"><ele>110.0</ele><time>2026-04-06T08:48:05.997Z</time></trkpt><trkpt lat="44.90849469017419" lon="4.853948641918954"><ele>110.0</ele><time>2026-04-06T08:48:07.997Z</time></trkpt><trkpt lat="44.908410629716876" lon="4.853927792318281"><ele>109.99999999999999</ele><time>2026-04-06T08:48:09.997Z</time></trkpt><trkpt lat="44.90831802208086" lon="4.853924440547889"><ele>110.0</ele><time>2026-04-06T08:48:11.996Z</time></trkpt><trkpt lat="44.908223723269984" lon="4.853902660734316"><ele>109.6</ele><time>2026-04-06T08:48:13.997Z</time></trkpt><trkpt lat="44.90812189254364" lon="4.853892566580076"><ele>109.2</ele><time>2026-04-06T08:48:15.997Z</time></trkpt><trkpt lat="44.90802166864128" lon="4.853877623459906"><ele>108.80000000000001</ele><time>2026-04-06T08:48:17.997Z</time></trkpt><trkpt lat="44.90792575811279" lon="4.853877065858908"><ele>108.4</ele><time>2026-04-06T08:48:19.997Z</time></trkpt><trkpt lat="44.90781747518931" lon="4.853864361119936"><ele>108.0</ele><time>2026-04-06T08:48:21.997Z</time></trkpt><trkpt lat="44.90772177476382" lon="4.853833929935364"><ele>108.0</ele><time>2026-04-06T08:48:23.997Z</time></trkpt><trkpt lat="44.9076342572919" lon="4.853807685839428"><ele>108.0</ele><time>2026-04-06T08:48:25.997Z</time></trkpt><trkpt lat="44.90754119461585" lon="4.853789748598899"><ele>108.0</ele><time>2026-04-06T08:48:27.997Z</time></trkpt><trkpt lat="44.90746557621442" lon="4.853774809930363"><ele>108.0</ele><time>2026-04-06T08:48:29.997Z</time></trkpt><trkpt lat="44.907394614778" lon="4.853754556675577"><ele>108.0</ele><time>2026-04-06T08:48:31.997Z</time></trkpt><trkpt lat="44.90731362242521" lon="4.853741261730363"><ele>108.0</ele><time>2026-04-06T08:48:33.997Z</time></trkpt><trkpt lat="44.907242271647405" lon="4.853742870046281"><ele>108.2</ele><time>2026-04-06T08:48:35.997Z</time></trkpt><trkpt lat="44.90714554189783" lon="4.853750014343634"><ele>108.4</ele><time>2026-04-06T08:48:37.997Z</time></trkpt><trkpt lat="44.90704828312313" lon="4.853744080182442"><ele>108.60000000000001</ele><time>2026-04-06T08:48:39.997Z</time></trkpt><trkpt lat="44.90694433157909" lon="4.853745810683414"><ele>108.80000000000001</ele><time>2026-04-06T08:48:41.997Z</time></trkpt><trkpt lat="44.90683862793609" lon="4.853734021855178"><ele>109.0</ele><time>2026-04-06T08:48:43.997Z</time></trkpt><trkpt lat="44.90673082748451" lon="4.8537350492975"><ele>108.4</ele><time>2026-04-06T08:48:45.997Z</time></trkpt><trkpt lat="44.90663199215579" lon="4.8537357068873614"><ele>107.80000000000001</ele><time>2026-04-06T08:48:47.997Z</time></trkpt><trkpt lat="44.90653316364552" lon="4.853742012810546"><ele>107.19999999999999</ele><time>2026-04-06T08:48:49.997Z</time></trkpt><trkpt lat="44.906436560012345" lon="4.853742631257654"><ele>106.6</ele><time>2026-04-06T08:48:51.997Z</time></trkpt><trkpt lat="44.90634341167363" lon="4.853747393045598"><ele>106.0</ele><time>2026-04-06T08:48:53.997Z</time></trkpt><trkpt lat="44.906250101789745" lon="4.853758184331417"><ele>106.00000000000001</ele><time>2026-04-06T08:48:55.997Z</time></trkpt><trkpt lat="44.90616233700921" lon="4.853753237702425"><ele>106.0</ele><time>2026-04-06T08:48:57.997Z</time></trkpt><trkpt lat="44.90607648249586" lon="4.8537522592257645"><ele>106.0</ele><time>2026-04-06T08:48:59.997Z</time></trkpt><trkpt lat="44.90599624603429" lon="4.85375801908169"><ele>106.0</ele><time>2026-04-06T08:49:01.997Z</time></trkpt><trkpt lat="44.90591125382313" lon="4.853756086118132"><ele>106.00000000000001</ele><time>2026-04-06T08:49:03.997Z</time></trkpt><trkpt lat="44.90582692370575" lon="4.853746564889199"><ele>106.0</ele><time>2026-04-06T08:49:05.997Z</time></trkpt><trkpt lat="44.90574773877376" lon="4.8537461787456735"><ele>106.00000000000001</ele><time>2026-04-06T08:49:07.997Z</time></trkpt><trkpt lat="44.90567161259998" lon="4.853748480886634"><ele>106.0</ele><time>2026-04-06T08:49:09.997Z</time></trkpt><trkpt lat="44.9055943674285" lon="4.853748922214892"><ele>106.0</ele><time>2026-04-06T08:49:11.997Z</time></trkpt><trkpt lat="44.905520228379196" lon="4.853740050720167"><ele>106.0</ele><time>2026-04-06T08:49:13.997Z</time></trkpt><trkpt lat="44.905442471655896" lon="4.853731286639438"><ele>106.00000000000001</ele><time>2026-04-06T08:49:15.997Z</time></trkpt><trkpt lat="44.90536654176022" lon="4.853731313360292"><ele>106.0</ele><time>2026-04-06T08:49:17.997Z</time></trkpt><trkpt lat="44.90529123294093" lon="4.853713574692415"><ele>106.00000000000001</ele><time>2026-04-06T08:49:19.997Z</time></trkpt><trkpt lat="44.90521276532774" lon="4.853716322591403"><ele>106.0</ele><time>2026-04-06T08:49:21.997Z</time></trkpt><trkpt lat="44.90513413949499" lon="4.853704956338395"><ele>106.0</ele><time>2026-04-06T08:49:23.997Z</time></trkpt><trkpt lat="44.90505467110715" lon="4.853698637054498"><ele>106.0</ele><time>2026-04-06T08:49:25.997Z</time></trkpt><trkpt lat="44.90497505016136" lon="4.853698764427959"><ele>106.00000000000001</ele><time>2026-04-06T08:49:27.997Z</time></trkpt><trkpt lat="44.90489901607768" lon="4.853702858916788"><ele>106.0</ele><time>2026-04-06T08:49:29.997Z</time></trkpt><trkpt lat="44.90481653319089" lon="4.853693944038869"><ele>106.16666666666667</ele><time>2026-04-06T08:49:31.997Z</time></trkpt><trkpt lat="44.904734330070795" lon="4.853690391007775"><ele>106.33333333333334</ele><time>2026-04-06T08:49:33.997Z</time></trkpt><trkpt lat="44.904650794303436" lon="4.853683249339658"><ele>106.5</ele><time>2026-04-06T08:49:35.997Z</time></trkpt><trkpt lat="44.9045627007115" lon="4.853674123250316"><ele>106.66666666666666</ele><time>2026-04-06T08:49:37.997Z</time></trkpt><trkpt lat="44.9044691289016" lon="4.853658975904949"><ele>106.83333333333333</ele><time>2026-04-06T08:49:39.997Z</time></trkpt><trkpt lat="44.90437311607138" lon="4.853637260105271"><ele>107.0</ele><time>2026-04-06T08:49:41.997Z</time></trkpt><trkpt lat="44.904277487342874" lon="4.853622620546751"><ele>106.66666666666666</ele><time>2026-04-06T08:49:43.997Z</time></trkpt><trkpt lat="44.904188217792786" lon="4.853597974991868"><ele>106.33333333333333</ele><time>2026-04-06T08:49:45.997Z</time></trkpt><trkpt lat="44.90409996515547" lon="4.853583672130387"><ele>106.0</ele><time>2026-04-06T08:49:47.997Z</time></trkpt><trkpt lat="44.90401447187798" lon="4.853564734367904"><ele>105.66666666666666</ele><time>2026-04-06T08:49:49.997Z</time></trkpt><trkpt lat="44.90393405656373" lon="4.853536667509601"><ele>105.33333333333333</ele><time>2026-04-06T08:49:51.997Z</time></trkpt><trkpt lat="44.90384172294435" lon="4.8535122174479834"><ele>105.0</ele><time>2026-04-06T08:49:53.997Z</time></trkpt><trkpt lat="44.903738948149226" lon="4.8534908642463925"><ele>105.0</ele><time>2026-04-06T08:49:55.997Z</time></trkpt><trkpt lat="44.90365258441004" lon="4.853473019830083"><ele>105.0</ele><time>2026-04-06T08:49:57.997Z</time></trkpt><trkpt lat="44.90357247052728" lon="4.8534449431120805"><ele>105.0</ele><time>2026-04-06T08:49:59.997Z</time></trkpt><trkpt lat="44.903488482186845" lon="4.853415534571755"><ele>105.0</ele><time>2026-04-06T08:50:01.997Z</time></trkpt><trkpt lat="44.90339964298918" lon="4.853392959585056"><ele>105.0</ele><time>2026-04-06T08:50:03.997Z</time></trkpt><trkpt lat="44.903308697164476" lon="4.8533625648688785"><ele>105.0</ele><time>2026-04-06T08:50:05.997Z</time></trkpt><trkpt lat="44.90321669140876" lon="4.853329845168738"><ele>106.2</ele><time>2026-04-06T08:50:07.997Z</time></trkpt><trkpt lat="44.903120226852565" lon="4.853291075969849"><ele>107.4</ele><time>2026-04-06T08:50:09.997Z</time></trkpt><trkpt lat="44.90302549471231" lon="4.853249129078243"><ele>108.6</ele><time>2026-04-06T08:50:11.997Z</time></trkpt><trkpt lat="44.902929273982885" lon="4.853219122861643"><ele>109.8</ele><time>2026-04-06T08:50:13.996Z</time></trkpt><trkpt lat="44.902833625102105" lon="4.853183750208249"><ele>111.0</ele><time>2026-04-06T08:50:15.996Z</time></trkpt><trkpt lat="44.90271922010458" lon="4.8531509000627615"><ele>111.0</ele><time>2026-04-06T08:50:17.997Z</time></trkpt><trkpt lat="44.90263117055243" lon="4.853116887168607"><ele>111.0</ele><time>2026-04-06T08:50:19.997Z</time></trkpt><trkpt lat="44.90255001064734" lon="4.853068698151775"><ele>111.0</ele><time>2026-04-06T08:50:21.996Z</time></trkpt><trkpt lat="44.90246214419664" lon="4.85303527651915"><ele>111.0</ele><time>2026-04-06T08:50:23.996Z</time></trkpt><trkpt lat="44.90237929926358" lon="4.85300311286039"><ele>111.0</ele><time>2026-04-06T08:50:25.996Z</time></trkpt><trkpt lat="44.902292072273234" lon="4.852960427469934"><ele>111.0</ele><time>2026-04-06T08:50:27.996Z</time></trkpt><trkpt lat="44.90220517718728" lon="4.852925000728712"><ele>110.8</ele><time>2026-04-06T08:50:29.996Z</time></trkpt><trkpt lat="44.90211497030384" lon="4.852888719463583"><ele>110.6</ele><time>2026-04-06T08:50:31.996Z</time></trkpt><trkpt lat="44.902026619259836" lon="4.852843500918177"><ele>110.4</ele><time>2026-04-06T08:50:33.996Z</time></trkpt><trkpt lat="44.9019326420533" lon="4.852800461240801"><ele>110.2</ele><time>2026-04-06T08:50:35.996Z</time></trkpt><trkpt lat="44.90183264905061" lon="4.8527567449495885"><ele>110.0</ele><time>2026-04-06T08:50:37.996Z</time></trkpt><trkpt lat="44.901735762360026" lon="4.852716565928747"><ele>109.4</ele><time>2026-04-06T08:50:39.996Z</time></trkpt><trkpt lat="44.90163948560358" lon="4.852665681609015"><ele>108.8</ele><time>2026-04-06T08:50:41.996Z</time></trkpt><trkpt lat="44.901531265174505" lon="4.852627472471029"><ele>108.19999999999999</ele><time>2026-04-06T08:50:43.996Z</time></trkpt><trkpt lat="44.90143176202843" lon="4.852599328438457"><ele>107.6</ele><time>2026-04-06T08:50:45.996Z</time></trkpt><trkpt lat="44.90133840170766" lon="4.852569836971343"><ele>107.0</ele><time>2026-04-06T08:50:47.996Z</time></trkpt><trkpt lat="44.90124234169755" lon="4.852539412272105"><ele>107.6</ele><time>2026-04-06T08:50:49.996Z</time></trkpt><trkpt lat="44.90114309972818" lon="4.852515291215092"><ele>108.19999999999999</ele><time>2026-04-06T08:50:51.996Z</time></trkpt><trkpt lat="44.9010474039202" lon="4.8524876028142705"><ele>108.8</ele><time>2026-04-06T08:50:53.996Z</time></trkpt><trkpt lat="44.90094539624652" lon="4.852475510934435"><ele>109.4</ele><time>2026-04-06T08:50:55.996Z</time></trkpt><trkpt lat="44.90084246676153" lon="4.852454365454968"><ele>110.0</ele><time>2026-04-06T08:50:57.996Z</time></trkpt><trkpt lat="44.90074264122014" lon="4.852454230281096"><ele>109.99999999999999</ele><time>2026-04-06T08:50:59.996Z</time></trkpt><trkpt lat="44.90066046506638" lon="4.852437482883073"><ele>110.0</ele><time>2026-04-06T08:51:01.996Z</time></trkpt><trkpt lat="44.90057282501116" lon="4.8524132505904625"><ele>110.0</ele><time>2026-04-06T08:51:03.996Z</time></trkpt><trkpt lat="44.90048845623382" lon="4.852405103097772"><ele>110.0</ele><time>2026-04-06T08:51:05.996Z</time></trkpt><trkpt lat="44.900395526980105" lon="4.852378882143521"><ele>109.99999999999999</ele><time>2026-04-06T08:51:07.996Z</time></trkpt><trkpt lat="44.90029879116017" lon="4.852372923780324"><ele>110.0</ele><time>2026-04-06T08:51:09.996Z</time></trkpt><trkpt lat="44.900205375617816" lon="4.852353913807318"><ele>110.0</ele><time>2026-04-06T08:51:11.996Z</time></trkpt><trkpt lat="44.9001130559355" lon="4.852339421196804"><ele>110.0</ele><time>2026-04-06T08:51:13.996Z</time></trkpt><trkpt lat="44.90001896286141" lon="4.852327616563269"><ele>110.0</ele><time>2026-04-06T08:51:15.996Z</time></trkpt><trkpt lat="44.899925872336446" lon="4.852315296163622"><ele>110.0</ele><time>2026-04-06T08:51:17.996Z</time></trkpt><trkpt lat="44.89983156957574" lon="4.852298393710936"><ele>110.0</ele><time>2026-04-06T08:51:19.996Z</time></trkpt><trkpt lat="44.899737396347824" lon="4.852290509116995"><ele>109.8</ele><time>2026-04-06T08:51:21.996Z</time></trkpt><trkpt lat="44.899644820182075" lon="4.852277314398198"><ele>109.6</ele><time>2026-04-06T08:51:23.996Z</time></trkpt><trkpt lat="44.89955453592713" lon="4.85226793960056"><ele>109.4</ele><time>2026-04-06T08:51:25.996Z</time></trkpt><trkpt lat="44.89946442518204" lon="4.852248753547505"><ele>109.2</ele><time>2026-04-06T08:51:27.996Z</time></trkpt><trkpt lat="44.89937073518769" lon="4.8522360933209345"><ele>109.0</ele><time>2026-04-06T08:51:29.996Z</time></trkpt><trkpt lat="44.899272808030545" lon="4.85223330894661"><ele>107.80000000000001</ele><time>2026-04-06T08:51:31.996Z</time></trkpt><trkpt lat="44.899177895839664" lon="4.852220731784735"><ele>106.60000000000001</ele><time>2026-04-06T08:51:33.996Z</time></trkpt><trkpt lat="44.899087003832975" lon="4.852210582676016"><ele>105.4</ele><time>2026-04-06T08:51:35.996Z</time></trkpt><trkpt lat="44.89899893710468" lon="4.852208151319586"><ele>104.2</ele><time>2026-04-06T08:51:37.996Z</time></trkpt><trkpt lat="44.89891272655445" lon="4.852197518587279"><ele>103.0</ele><time>2026-04-06T08:51:39.996Z</time></trkpt><trkpt lat="44.89882100579465" lon="4.852184959667601"><ele>103.00000000000001</ele><time>2026-04-06T08:51:41.996Z</time></trkpt><trkpt lat="44.89873496998821" lon="4.852176269135982"><ele>103.0</ele><time>2026-04-06T08:51:43.996Z</time></trkpt><trkpt lat="44.898644328358095" lon="4.852163731192993"><ele>103.0</ele><time>2026-04-06T08:51:45.996Z</time></trkpt><trkpt lat="44.89855545649825" lon="4.852157894998792"><ele>103.0</ele><time>2026-04-06T08:51:47.996Z</time></trkpt><trkpt lat="44.898464847780346" lon="4.852150900100796"><ele>103.00000000000001</ele><time>2026-04-06T08:51:49.996Z</time></trkpt><trkpt lat="44.898377982741486" lon="4.852137652060491"><ele>103.0</ele><time>2026-04-06T08:51:51.996Z</time></trkpt><trkpt lat="44.89827998968291" lon="4.85212925217197"><ele>103.0</ele><time>2026-04-06T08:51:53.996Z</time></trkpt><trkpt lat="44.898179161586064" lon="4.852101110328389"><ele>103.0</ele><time>2026-04-06T08:51:55.996Z</time></trkpt><trkpt lat="44.89808011244796" lon="4.852085293154022"><ele>103.0</ele><time>2026-04-06T08:51:57.996Z</time></trkpt><trkpt lat="44.89797663269575" lon="4.852074913887907"><ele>103.0</ele><time>2026-04-06T08:51:59.996Z</time></trkpt><trkpt lat="44.897875701756405" lon="4.852066033437293"><ele>103.0</ele><time>2026-04-06T08:52:01.996Z</time></trkpt><trkpt lat="44.89777551150147" lon="4.8520646967286485"><ele>103.00000000000001</ele><time>2026-04-06T08:52:03.996Z</time></trkpt><trkpt lat="44.8976798239628" lon="4.852072692573143"><ele>103.0</ele><time>2026-04-06T08:52:05.996Z</time></trkpt><trkpt lat="44.89759513086235" lon="4.85205336324862"><ele>103.0</ele><time>2026-04-06T08:52:07.996Z</time></trkpt><trkpt lat="44.89751581656226" lon="4.852049435824001"><ele>103.0</ele><time>2026-04-06T08:52:09.996Z</time></trkpt><trkpt lat="44.89743983827115" lon="4.852043114529887"><ele>103.00000000000001</ele><time>2026-04-06T08:52:11.996Z</time></trkpt><trkpt lat="44.89736534789032" lon="4.852037325880708"><ele>103.0</ele><time>2026-04-06T08:52:13.996Z</time></trkpt><trkpt lat="44.89728425667772" lon="4.8520293702241535"><ele>103.00000000000001</ele><time>2026-04-06T08:52:15.996Z</time></trkpt><trkpt lat="44.89719831743833" lon="4.852015691052428"><ele>103.0</ele><time>2026-04-06T08:52:17.996Z</time></trkpt><trkpt lat="44.89711019241883" lon="4.8520120419924"><ele>103.0</ele><time>2026-04-06T08:52:19.996Z</time></trkpt><trkpt lat="44.89702521651617" lon="4.852006443380223"><ele>103.0</ele><time>2026-04-06T08:52:21.996Z</time></trkpt><trkpt lat="44.896928676530194" lon="4.8520046234414576"><ele>103.00000000000001</ele><time>2026-04-06T08:52:23.996Z</time></trkpt><trkpt lat="44.896837901987034" lon="4.851992481821359"><ele>103.0</ele><time>2026-04-06T08:52:25.997Z</time></trkpt><trkpt lat="44.89675138920685" lon="4.851989393660005"><ele>102.80000000000001</ele><time>2026-04-06T08:52:27.996Z</time></trkpt><trkpt lat="44.8966529669247" lon="4.8519806430929115"><ele>102.6</ele><time>2026-04-06T08:52:29.996Z</time></trkpt><trkpt lat="44.89657075845406" lon="4.8519673866530075"><ele>102.4</ele><time>2026-04-06T08:52:31.996Z</time></trkpt><trkpt lat="44.89647658202498" lon="4.851964663303061"><ele>102.19999999999999</ele><time>2026-04-06T08:52:33.996Z</time></trkpt><trkpt lat="44.896392940288244" lon="4.851947380045005"><ele>102.0</ele><time>2026-04-06T08:52:35.996Z</time></trkpt><trkpt lat="44.896299416541964" lon="4.851944876242338"><ele>102.0</ele><time>2026-04-06T08:52:37.996Z</time></trkpt><trkpt lat="44.896211517833315" lon="4.851937364330169"><ele>102.0</ele><time>2026-04-06T08:52:39.996Z</time></trkpt><trkpt lat="44.89612415729885" lon="4.851929919257206"><ele>102.0</ele><time>2026-04-06T08:52:41.996Z</time></trkpt><trkpt lat="44.89603441455766" lon="4.8519197692797285"><ele>102.0</ele><time>2026-04-06T08:52:43.996Z</time></trkpt><trkpt lat="44.89594484172136" lon="4.851910657468101"><ele>102.0</ele><time>2026-04-06T08:52:45.996Z</time></trkpt><trkpt lat="44.89585446821971" lon="4.851902202819257"><ele>102.0</ele><time>2026-04-06T08:52:47.996Z</time></trkpt><trkpt lat="44.89576315046923" lon="4.85189868536226"><ele>102.0</ele><time>2026-04-06T08:52:49.996Z</time></trkpt><trkpt lat="44.89567098286774" lon="4.851894672074695"><ele>102.0</ele><time>2026-04-06T08:52:51.996Z</time></trkpt><trkpt lat="44.89558250854275" lon="4.851889433781894"><ele>102.0</ele><time>2026-04-06T08:52:53.996Z</time></trkpt><trkpt lat="44.89549237973137" lon="4.851869989066289"><ele>102.0</ele><time>2026-04-06T08:52:55.996Z</time></trkpt><trkpt lat="44.89540548176139" lon="4.851857992564383"><ele>102.0</ele><time>2026-04-06T08:52:57.996Z</time></trkpt><trkpt lat="44.89531605230527" lon="4.851855178461793"><ele>102.0</ele><time>2026-04-06T08:52:59.996Z</time></trkpt><trkpt lat="44.89522529737445" lon="4.851850486869855"><ele>102.0</ele><time>2026-04-06T08:53:01.996Z</time></trkpt><trkpt lat="44.89513831919657" lon="4.851837610548193"><ele>102.0</ele><time>2026-04-06T08:53:03.996Z</time></trkpt><trkpt lat="44.895046454057265" lon="4.851824131356402"><ele>102.0</ele><time>2026-04-06T08:53:05.996Z</time></trkpt><trkpt lat="44.894960175540106" lon="4.851807735501966"><ele>102.0</ele><time>2026-04-06T08:53:07.996Z</time></trkpt><trkpt lat="44.894875499479944" lon="4.851793367020183"><ele>102.0</ele><time>2026-04-06T08:53:09.996Z</time></trkpt><trkpt lat="44.89479976797052" lon="4.8517876168726"><ele>102.0</ele><time>2026-04-06T08:53:11.996Z</time></trkpt><trkpt lat="44.89472868344997" lon="4.851774302163863"><ele>102.83333333333333</ele><time>2026-04-06T08:53:13.996Z</time></trkpt><trkpt lat="44.894648516136286" lon="4.851775982173288"><ele>103.66666666666666</ele><time>2026-04-06T08:53:15.996Z</time></trkpt><trkpt lat="44.894571516288885" lon="4.851781269989602"><ele>104.5</ele><time>2026-04-06T08:53:17.996Z</time></trkpt><trkpt lat="44.89448648710631" lon="4.851785972629283"><ele>105.33333333333333</ele><time>2026-04-06T08:53:19.996Z</time></trkpt><trkpt lat="44.89440215653966" lon="4.851775312816521"><ele>106.16666666666666</ele><time>2026-04-06T08:53:21.996Z</time></trkpt><trkpt lat="44.89431598758084" lon="4.851770681455772"><ele>107.0</ele><time>2026-04-06T08:53:23.996Z</time></trkpt><trkpt lat="44.89423545636752" lon="4.85177468869176"><ele>107.19999999999999</ele><time>2026-04-06T08:53:25.996Z</time></trkpt><trkpt lat="44.89414891281944" lon="4.851775563481286"><ele>107.39999999999999</ele><time>2026-04-06T08:53:27.996Z</time></trkpt><trkpt lat="44.89405706286607" lon="4.851769761539237"><ele>107.60000000000001</ele><time>2026-04-06T08:53:29.996Z</time></trkpt><trkpt lat="44.8939645009276" lon="4.8517693070953545"><ele>107.80000000000001</ele><time>2026-04-06T08:53:31.996Z</time></trkpt><trkpt lat="44.89387095025774" lon="4.851767788511038"><ele>108.0</ele><time>2026-04-06T08:53:33.996Z</time></trkpt><trkpt lat="44.89377556121782" lon="4.851770216498711"><ele>108.0</ele><time>2026-04-06T08:53:35.996Z</time></trkpt><trkpt lat="44.89368618765587" lon="4.85176778105071"><ele>108.00000000000001</ele><time>2026-04-06T08:53:37.996Z</time></trkpt><trkpt lat="44.893588707908776" lon="4.851761747218269"><ele>108.00000000000001</ele><time>2026-04-06T08:53:39.996Z</time></trkpt><trkpt lat="44.8934766293876" lon="4.851755334943564"><ele>108.0</ele><time>2026-04-06T08:53:41.996Z</time></trkpt><trkpt lat="44.89335121309521" lon="4.851745414558068"><ele>108.0</ele><time>2026-04-06T08:53:43.996Z</time></trkpt><trkpt lat="44.89328539519927" lon="4.851740295309629"><ele>107.5</ele><time>2026-04-06T08:53:44.996Z</time></trkpt><trkpt lat="44.893216335241945" lon="4.85173745908649"><ele>107.0</ele><time>2026-04-06T08:53:45.996Z</time></trkpt><trkpt lat="44.89315083809144" lon="4.851729568583227"><ele>106.5</ele><time>2026-04-06T08:53:46.996Z</time></trkpt><trkpt lat="44.89308490211967" lon="4.851723817118235"><ele>106.0</ele><time>2026-04-06T08:53:47.996Z</time></trkpt><trkpt lat="44.89302006074665" lon="4.851713436335354"><ele>105.5</ele><time>2026-04-06T08:53:48.996Z</time></trkpt><trkpt lat="44.89295691014996" lon="4.851712865012474"><ele>105.0</ele><time>2026-04-06T08:53:49.996Z</time></trkpt><trkpt lat="44.892835940761" lon="4.851719157480579"><ele>105.0</ele><time>2026-04-06T08:53:51.996Z</time></trkpt><trkpt lat="44.89271780804518" lon="4.851731651110888"><ele>105.0</ele><time>2026-04-06T08:53:53.996Z</time></trkpt><trkpt lat="44.89260761977533" lon="4.851749483191843"><ele>105.0</ele><time>2026-04-06T08:53:55.996Z</time></trkpt><trkpt lat="44.892499281771286" lon="4.851753481907169"><ele>105.0</ele><time>2026-04-06T08:53:57.996Z</time></trkpt><trkpt lat="44.89239920341923" lon="4.851769766297497"><ele>105.0</ele><time>2026-04-06T08:53:59.996Z</time></trkpt><trkpt lat="44.892288661551014" lon="4.8517897935315135"><ele>105.0</ele><time>2026-04-06T08:54:01.996Z</time></trkpt><trkpt lat="44.89217112917074" lon="4.851812388761743"><ele>105.0</ele><time>2026-04-06T08:54:03.996Z</time></trkpt><trkpt lat="44.892061507768574" lon="4.851841610891757"><ele>105.0</ele><time>2026-04-06T08:54:05.996Z</time></trkpt><trkpt lat="44.89194641102458" lon="4.8518609352535345"><ele>105.0</ele><time>2026-04-06T08:54:07.996Z</time></trkpt><trkpt lat="44.891833186213645" lon="4.851884944430815"><ele>106.0</ele><time>2026-04-06T08:54:09.996Z</time></trkpt><trkpt lat="44.89171937412761" lon="4.8519076040617355"><ele>107.0</ele><time>2026-04-06T08:54:11.996Z</time></trkpt><trkpt lat="44.89160946944393" lon="4.851938524579011"><ele>108.0</ele><time>2026-04-06T08:54:13.996Z</time></trkpt><trkpt lat="44.89149724146127" lon="4.851962932541534"><ele>109.0</ele><time>2026-04-06T08:54:15.996Z</time></trkpt><trkpt lat="44.89139031268582" lon="4.851996487005511"><ele>109.0</ele><time>2026-04-06T08:54:17.996Z</time></trkpt><trkpt lat="44.89127809949909" lon="4.85201530279098"><ele>109.0</ele><time>2026-04-06T08:54:19.996Z</time></trkpt><trkpt lat="44.891168180609014" lon="4.852042774720039"><ele>109.0</ele><time>2026-04-06T08:54:21.996Z</time></trkpt><trkpt lat="44.891059410377345" lon="4.852074082558777"><ele>109.0</ele><time>2026-04-06T08:54:23.996Z</time></trkpt><trkpt lat="44.89095397877968" lon="4.852106216670687"><ele>109.0</ele><time>2026-04-06T08:54:25.996Z</time></trkpt><trkpt lat="44.890848146939035" lon="4.852132959772057"><ele>108.4</ele><time>2026-04-06T08:54:27.996Z</time></trkpt><trkpt lat="44.8907461176733" lon="4.852154888895238"><ele>107.80000000000001</ele><time>2026-04-06T08:54:29.996Z</time></trkpt><trkpt lat="44.89064342363216" lon="4.852182434094841"><ele>107.19999999999999</ele><time>2026-04-06T08:54:31.996Z</time></trkpt><trkpt lat="44.89053975929592" lon="4.852199841713047"><ele>106.6</ele><time>2026-04-06T08:54:33.996Z</time></trkpt><trkpt lat="44.89043686619206" lon="4.852223322937474"><ele>106.0</ele><time>2026-04-06T08:54:35.995Z</time></trkpt><trkpt lat="44.89032540451809" lon="4.852249618534958"><ele>106.0</ele><time>2026-04-06T08:54:37.995Z</time></trkpt><trkpt lat="44.890211393570276" lon="4.8522716163984"><ele>106.0</ele><time>2026-04-06T08:54:39.995Z</time></trkpt><trkpt lat="44.890094538387565" lon="4.852273987674758"><ele>106.0</ele><time>2026-04-06T08:54:41.995Z</time></trkpt><trkpt lat="44.88999422579563" lon="4.852271059385836"><ele>106.0</ele><time>2026-04-06T08:54:43.995Z</time></trkpt><trkpt lat="44.88990316962804" lon="4.852297436204719"><ele>106.0</ele><time>2026-04-06T08:54:45.995Z</time></trkpt><trkpt lat="44.889817081383654" lon="4.852342248196487"><ele>106.66666666666667</ele><time>2026-04-06T08:54:47.995Z</time></trkpt><trkpt lat="44.88973035690605" lon="4.852348984091498"><ele>107.33333333333334</ele><time>2026-04-06T08:54:49.995Z</time></trkpt><trkpt lat="44.88964377243622" lon="4.852343525104319"><ele>108.0</ele><time>2026-04-06T08:54:52.995Z</time></trkpt><trkpt lat="44.88958686284423" lon="4.852386443549622"><ele>108.66666666666666</ele><time>2026-04-06T08:54:54.995Z</time></trkpt><trkpt lat="44.889491408837635" lon="4.8524353089016925"><ele>109.33333333333333</ele><time>2026-04-06T08:54:57.995Z</time></trkpt><trkpt lat="44.88942045497842" lon="4.852447530728118"><ele>110.0</ele><time>2026-04-06T08:54:59.995Z</time></trkpt><trkpt lat="44.88933657920225" lon="4.852462233599171"><ele>109.99999999999999</ele><time>2026-04-06T08:55:01.995Z</time></trkpt><trkpt lat="44.88925969140182" lon="4.852469040249557"><ele>110.0</ele><time>2026-04-06T08:55:03.995Z</time></trkpt><trkpt lat="44.889184421642746" lon="4.852478168875816"><ele>110.0</ele><time>2026-04-06T08:55:05.995Z</time></trkpt><trkpt lat="44.889116728261946" lon="4.85248751974367"><ele>110.0</ele><time>2026-04-06T08:55:07.995Z</time></trkpt><trkpt lat="44.889043348997376" lon="4.852513408114272"><ele>110.0</ele><time>2026-04-06T08:55:09.995Z</time></trkpt><trkpt lat="44.88896443604024" lon="4.852531043037084"><ele>109.99999999999999</ele><time>2026-04-06T08:55:11.995Z</time></trkpt><trkpt lat="44.888894723494765" lon="4.852562662934979"><ele>110.0</ele><time>2026-04-06T08:55:13.995Z</time></trkpt><trkpt lat="44.88882624167956" lon="4.852593225829999"><ele>109.33333333333333</ele><time>2026-04-06T08:55:15.995Z</time></trkpt><trkpt lat="44.88875187078994" lon="4.852634361632658"><ele>108.66666666666666</ele><time>2026-04-06T08:55:17.995Z</time></trkpt><trkpt lat="44.88866900196941" lon="4.8526630961270065"><ele>108.0</ele><time>2026-04-06T08:55:19.995Z</time></trkpt><trkpt lat="44.88858383802731" lon="4.852710324260667"><ele>107.33333333333334</ele><time>2026-04-06T08:55:21.995Z</time></trkpt><trkpt lat="44.88850271089886" lon="4.8527509507755715"><ele>106.66666666666667</ele><time>2026-04-06T08:55:23.995Z</time></trkpt><trkpt lat="44.888424299625655" lon="4.852794980688877"><ele>106.0</ele><time>2026-04-06T08:55:25.995Z</time></trkpt><trkpt lat="44.888343979525835" lon="4.852841986483228"><ele>106.0</ele><time>2026-04-06T08:55:27.995Z</time></trkpt><trkpt lat="44.888265750444965" lon="4.852892203193844"><ele>106.0</ele><time>2026-04-06T08:55:29.995Z</time></trkpt><trkpt lat="44.88817249418519" lon="4.852931137344187"><ele>106.0</ele><time>2026-04-06T08:55:31.995Z</time></trkpt><trkpt lat="44.88808049839757" lon="4.852977705416455"><ele>106.0</ele><time>2026-04-06T08:55:33.995Z</time></trkpt><trkpt lat="44.88798926940342" lon="4.853032852951155"><ele>106.0</ele><time>2026-04-06T08:55:35.995Z</time></trkpt><trkpt lat="44.88789704284552" lon="4.853065056274137"><ele>106.0</ele><time>2026-04-06T08:55:37.995Z</time></trkpt><trkpt lat="44.88781058460836" lon="4.853109748262832"><ele>106.0</ele><time>2026-04-06T08:55:39.995Z</time></trkpt><trkpt lat="44.88772119715504" lon="4.853159751208525"><ele>106.0</ele><time>2026-04-06T08:55:41.995Z</time></trkpt><trkpt lat="44.887630067710695" lon="4.853208757890469"><ele>106.0</ele><time>2026-04-06T08:55:43.995Z</time></trkpt><trkpt lat="44.88754795743634" lon="4.853244344075595"><ele>106.0</ele><time>2026-04-06T08:55:45.995Z</time></trkpt><trkpt lat="44.8874692039415" lon="4.853294496426988"><ele>105.8</ele><time>2026-04-06T08:55:47.995Z</time></trkpt><trkpt lat="44.887373091967646" lon="4.8533506457731255"><ele>105.6</ele><time>2026-04-06T08:55:49.995Z</time></trkpt><trkpt lat="44.88728640555465" lon="4.853392259523901"><ele>105.4</ele><time>2026-04-06T08:55:51.995Z</time></trkpt><trkpt lat="44.88720072867301" lon="4.85343383892467"><ele>105.2</ele><time>2026-04-06T08:55:53.995Z</time></trkpt><trkpt lat="44.88712277304677" lon="4.853479351795391"><ele>105.0</ele><time>2026-04-06T08:55:55.995Z</time></trkpt><trkpt lat="44.887037643908236" lon="4.853534744324382"><ele>105.0</ele><time>2026-04-06T08:55:57.995Z</time></trkpt><trkpt lat="44.88695422038434" lon="4.853585029937914"><ele>105.0</ele><time>2026-04-06T08:55:59.995Z</time></trkpt><trkpt lat="44.88688326863883" lon="4.853627689679126"><ele>105.0</ele><time>2026-04-06T08:56:01.995Z</time></trkpt><trkpt lat="44.88680404530784" lon="4.853680706536929"><ele>105.0</ele><time>2026-04-06T08:56:03.995Z</time></trkpt><trkpt lat="44.886726788406364" lon="4.85373128790032"><ele>105.0</ele><time>2026-04-06T08:56:05.995Z</time></trkpt><trkpt lat="44.886640339983394" lon="4.853778086211622"><ele>105.0</ele><time>2026-04-06T08:56:07.995Z</time></trkpt><trkpt lat="44.8865660509814" lon="4.853828041419622"><ele>105.0</ele><time>2026-04-06T08:56:09.995Z</time></trkpt><trkpt lat="44.88648341953208" lon="4.853887292305333"><ele>105.0</ele><time>2026-04-06T08:56:11.995Z</time></trkpt><trkpt lat="44.88641027470357" lon="4.853943067137637"><ele>105.0</ele><time>2026-04-06T08:56:13.995Z</time></trkpt><trkpt lat="44.886331991788985" lon="4.853997200456326"><ele>105.0</ele><time>2026-04-06T08:56:15.995Z</time></trkpt><trkpt lat="44.88624684741905" lon="4.854052189916168"><ele>105.0</ele><time>2026-04-06T08:56:17.995Z</time></trkpt><trkpt lat="44.886174306836146" lon="4.854106444067352"><ele>105.0</ele><time>2026-04-06T08:56:19.995Z</time></trkpt><trkpt lat="44.88608923332421" lon="4.85416375218127"><ele>105.0</ele><time>2026-04-06T08:56:21.995Z</time></trkpt><trkpt lat="44.886004024587045" lon="4.854223001944556"><ele>105.0</ele><time>2026-04-06T08:56:23.995Z</time></trkpt><trkpt lat="44.885924108429975" lon="4.8542773346957775"><ele>105.0</ele><time>2026-04-06T08:56:25.995Z</time></trkpt><trkpt lat="44.88585432323645" lon="4.854339820480437"><ele>105.0</ele><time>2026-04-06T08:56:27.995Z</time></trkpt><trkpt lat="44.88577783607732" lon="4.854394518642981"><ele>105.0</ele><time>2026-04-06T08:56:29.995Z</time></trkpt><trkpt lat="44.88570264945815" lon="4.854446310109854"><ele>105.0</ele><time>2026-04-06T08:56:31.996Z</time></trkpt><trkpt lat="44.88562327004189" lon="4.854502817852131"><ele>104.8</ele><time>2026-04-06T08:56:33.996Z</time></trkpt><trkpt lat="44.88555050450348" lon="4.854565644297229"><ele>104.6</ele><time>2026-04-06T08:56:35.995Z</time></trkpt><trkpt lat="44.88547448563301" lon="4.854619369464071"><ele>104.4</ele><time>2026-04-06T08:56:37.996Z</time></trkpt><trkpt lat="44.885389917133494" lon="4.8546635673125405"><ele>104.2</ele><time>2026-04-06T08:56:39.996Z</time></trkpt><trkpt lat="44.88530014287698" lon="4.854691737055942"><ele>104.0</ele><time>2026-04-06T08:56:41.996Z</time></trkpt><trkpt lat="44.88520197080047" lon="4.854679642060425"><ele>104.0</ele><time>2026-04-06T08:56:43.996Z</time></trkpt><trkpt lat="44.88509926739962" lon="4.854662789788201"><ele>104.0</ele><time>2026-04-06T08:56:45.996Z</time></trkpt><trkpt lat="44.885002091569895" lon="4.854703898053525"><ele>104.0</ele><time>2026-04-06T08:56:47.996Z</time></trkpt><trkpt lat="44.8848954048329" lon="4.85472416528854"><ele>104.0</ele><time>2026-04-06T08:56:49.996Z</time></trkpt><trkpt lat="44.8847919822219" lon="4.85475624874221"><ele>104.0</ele><time>2026-04-06T08:56:51.995Z</time></trkpt><trkpt lat="44.88469260712987" lon="4.854799864947744"><ele>104.4</ele><time>2026-04-06T08:56:53.994Z</time></trkpt><trkpt lat="44.88460027178191" lon="4.8548457495566915"><ele>104.80000000000001</ele><time>2026-04-06T08:56:55.994Z</time></trkpt><trkpt lat="44.884491451611595" lon="4.85485499112147"><ele>105.19999999999999</ele><time>2026-04-06T08:56:57.993Z</time></trkpt><trkpt lat="44.88438805171075" lon="4.85487021146991"><ele>105.6</ele><time>2026-04-06T08:56:59.993Z</time></trkpt><trkpt lat="44.884287293377795" lon="4.854884779323717"><ele>106.0</ele><time>2026-04-06T08:57:01.992Z</time></trkpt><trkpt lat="44.884198127211604" lon="4.854890403161083"><ele>105.19999999999999</ele><time>2026-04-06T08:57:03.992Z</time></trkpt><trkpt lat="44.88411110361356" lon="4.8548982892424695"><ele>104.39999999999999</ele><time>2026-04-06T08:57:05.992Z</time></trkpt><trkpt lat="44.8840228044776" lon="4.8549117629363305"><ele>103.6</ele><time>2026-04-06T08:57:07.992Z</time></trkpt><trkpt lat="44.88392631502236" lon="4.854918051021687"><ele>102.8</ele><time>2026-04-06T08:57:09.991Z</time></trkpt><trkpt lat="44.88383553856219" lon="4.854933976474559"><ele>102.0</ele><time>2026-04-06T08:57:11.991Z</time></trkpt><trkpt lat="44.88373770625627" lon="4.854946124674814"><ele>102.0</ele><time>2026-04-06T08:57:13.991Z</time></trkpt><trkpt lat="44.88364724312221" lon="4.8549450896550335"><ele>102.0</ele><time>2026-04-06T08:57:15.991Z</time></trkpt><trkpt lat="44.88355192779195" lon="4.854932757462722"><ele>102.0</ele><time>2026-04-06T08:57:17.991Z</time></trkpt><trkpt lat="44.88345321675663" lon="4.8549387066025735"><ele>102.0</ele><time>2026-04-06T08:57:19.991Z</time></trkpt><trkpt lat="44.88335437695051" lon="4.854947538109289"><ele>102.0</ele><time>2026-04-06T08:57:21.99Z</time></trkpt><trkpt lat="44.88324911044317" lon="4.854943028144909"><ele>102.19999999999999</ele><time>2026-04-06T08:57:23.99Z</time></trkpt><trkpt lat="44.88314938870736" lon="4.854945202579286"><ele>102.4</ele><time>2026-04-06T08:57:25.99Z</time></trkpt><trkpt lat="44.88306603251191" lon="4.854917987573635"><ele>102.6</ele><time>2026-04-06T08:57:27.99Z</time></trkpt><trkpt lat="44.88298389044004" lon="4.8548527652129785"><ele>102.80000000000001</ele><time>2026-04-06T08:57:29.99Z</time></trkpt><trkpt lat="44.88289759782476" lon="4.854810667703692"><ele>103.0</ele><time>2026-04-06T08:57:31.99Z</time></trkpt><trkpt lat="44.882801627843016" lon="4.854757368981146"><ele>103.00000000000001</ele><time>2026-04-06T08:57:33.99Z</time></trkpt><trkpt lat="44.8827094807465" lon="4.854709604273329"><ele>103.0</ele><time>2026-04-06T08:57:35.99Z</time></trkpt><trkpt lat="44.88264484098688" lon="4.8546645605489465"><ele>103.0</ele><time>2026-04-06T08:57:37.99Z</time></trkpt><trkpt lat="44.882568866443485" lon="4.854621448572267"><ele>103.0</ele><time>2026-04-06T08:57:39.99Z</time></trkpt><trkpt lat="44.88248477619567" lon="4.854580334099416"><ele>103.00000000000001</ele><time>2026-04-06T08:57:41.99Z</time></trkpt><trkpt lat="44.88240303130236" lon="4.8545353656700785"><ele>103.0</ele><time>2026-04-06T08:57:43.99Z</time></trkpt><trkpt lat="44.88231657929005" lon="4.854495510253855"><ele>103.00000000000001</ele><time>2026-04-06T08:57:45.99Z</time></trkpt><trkpt lat="44.88223132241492" lon="4.85446153636978"><ele>103.0</ele><time>2026-04-06T08:57:47.99Z</time></trkpt><trkpt lat="44.88215475974528" lon="4.854421674140999"><ele>103.0</ele><time>2026-04-06T08:57:49.99Z</time></trkpt><trkpt lat="44.882074294896" lon="4.854380092326032"><ele>103.0</ele><time>2026-04-06T08:57:51.99Z</time></trkpt><trkpt lat="44.8819965956065" lon="4.854344016086191"><ele>103.00000000000001</ele><time>2026-04-06T08:57:53.99Z</time></trkpt><trkpt lat="44.88192204138634" lon="4.8543060381079295"><ele>103.0</ele><time>2026-04-06T08:57:55.99Z</time></trkpt><trkpt lat="44.88184601345077" lon="4.8542705009637475"><ele>102.83333333333334</ele><time>2026-04-06T08:57:57.99Z</time></trkpt><trkpt lat="44.88177820020295" lon="4.85423248479047"><ele>102.66666666666667</ele><time>2026-04-06T08:57:59.99Z</time></trkpt><trkpt lat="44.881701369186786" lon="4.854199901549677"><ele>102.5</ele><time>2026-04-06T08:58:01.99Z</time></trkpt><trkpt lat="44.88162829177894" lon="4.854168942830154"><ele>102.33333333333334</ele><time>2026-04-06T08:58:03.99Z</time></trkpt><trkpt lat="44.881546398351055" lon="4.854146979601024"><ele>102.16666666666667</ele><time>2026-04-06T08:58:05.989Z</time></trkpt><trkpt lat="44.88146073933835" lon="4.854129314100171"><ele>102.0</ele><time>2026-04-06T08:58:07.989Z</time></trkpt><trkpt lat="44.88137477456968" lon="4.854102542726686"><ele>102.0</ele><time>2026-04-06T08:58:09.989Z</time></trkpt><trkpt lat="44.88128211964158" lon="4.85408618238353"><ele>102.0</ele><time>2026-04-06T08:58:11.989Z</time></trkpt><trkpt lat="44.88119498599976" lon="4.854063820993032"><ele>102.0</ele><time>2026-04-06T08:58:13.989Z</time></trkpt><trkpt lat="44.88110193850582" lon="4.854044231612155"><ele>102.0</ele><time>2026-04-06T08:58:15.989Z</time></trkpt><trkpt lat="44.88101542189509" lon="4.854011732060567"><ele>102.0</ele><time>2026-04-06T08:58:17.989Z</time></trkpt><trkpt lat="44.88093585224792" lon="4.853966864231391"><ele>102.0</ele><time>2026-04-06T08:58:19.989Z</time></trkpt><trkpt lat="44.88087952814874" lon="4.8538786273039465"><ele>102.0</ele><time>2026-04-06T08:58:21.989Z</time></trkpt><trkpt lat="44.880832443194215" lon="4.8537877030597265"><ele>102.0</ele><time>2026-04-06T08:58:23.989Z</time></trkpt><trkpt lat="44.88079665260742" lon="4.853691778241304"><ele>102.0</ele><time>2026-04-06T08:58:25.989Z</time></trkpt><trkpt lat="44.88074840196485" lon="4.853579905001746"><ele>102.0</ele><time>2026-04-06T08:58:27.989Z</time></trkpt><trkpt lat="44.880696903049135" lon="4.853479786927449"><ele>102.0</ele><time>2026-04-06T08:58:29.989Z</time></trkpt><trkpt lat="44.88064978751555" lon="4.853403594745006"><ele>102.0</ele><time>2026-04-06T08:58:31.989Z</time></trkpt><trkpt lat="44.880611903368106" lon="4.853318688690259"><ele>102.0</ele><time>2026-04-06T08:58:33.989Z</time></trkpt><trkpt lat="44.88056433090948" lon="4.853240827060155"><ele>102.0</ele><time>2026-04-06T08:58:35.989Z</time></trkpt><trkpt lat="44.880510196071455" lon="4.853155668434447"><ele>102.0</ele><time>2026-04-06T08:58:37.989Z</time></trkpt><trkpt lat="44.880464618243614" lon="4.853048448872349"><ele>102.0</ele><time>2026-04-06T08:58:39.989Z</time></trkpt><trkpt lat="44.88042297572073" lon="4.852946287573585"><ele>102.0</ele><time>2026-04-06T08:58:41.989Z</time></trkpt><trkpt lat="44.88038562425194" lon="4.852852957655997"><ele>102.0</ele><time>2026-04-06T08:58:43.99Z</time></trkpt><trkpt lat="44.88032903701998" lon="4.8527827705654945"><ele>102.0</ele><time>2026-04-06T08:58:45.99Z</time></trkpt><trkpt lat="44.88027162948485" lon="4.852682038409557"><ele>102.0</ele><time>2026-04-06T08:58:47.989Z</time></trkpt><trkpt lat="44.880211375323256" lon="4.852599047301578"><ele>102.0</ele><time>2026-04-06T08:58:49.989Z</time></trkpt><trkpt lat="44.88016039435516" lon="4.852532658026588"><ele>102.0</ele><time>2026-04-06T08:58:51.989Z</time></trkpt><trkpt lat="44.88010195496234" lon="4.852462939704207"><ele>102.0</ele><time>2026-04-06T08:58:53.989Z</time></trkpt><trkpt lat="44.880013832529194" lon="4.852441709726095"><ele>102.5</ele><time>2026-04-06T08:58:55.989Z</time></trkpt><trkpt lat="44.87992642047557" lon="4.852455952408951"><ele>103.0</ele><time>2026-04-06T08:58:57.989Z</time></trkpt><trkpt lat="44.87984800923327" lon="4.8524636122209355"><ele>103.5</ele><time>2026-04-06T08:58:59.989Z</time></trkpt><trkpt lat="44.87976919048741" lon="4.852450918309799"><ele>104.0</ele><time>2026-04-06T08:59:01.989Z</time></trkpt><trkpt lat="44.87969321196163" lon="4.852439927917696"><ele>104.5</ele><time>2026-04-06T08:59:03.989Z</time></trkpt><trkpt lat="44.87962064205735" lon="4.852385856535706"><ele>105.0</ele><time>2026-04-06T08:59:05.989Z</time></trkpt><trkpt lat="44.87955042149422" lon="4.852338195162613"><ele>105.0</ele><time>2026-04-06T08:59:07.989Z</time></trkpt><trkpt lat="44.87948757042682" lon="4.852277970584196"><ele>105.0</ele><time>2026-04-06T08:59:09.989Z</time></trkpt><trkpt lat="44.87943661793921" lon="4.852205874078615"><ele>105.0</ele><time>2026-04-06T08:59:11.989Z</time></trkpt><trkpt lat="44.879397054468555" lon="4.8520884857562505"><ele>105.0</ele><time>2026-04-06T08:59:13.989Z</time></trkpt><trkpt lat="44.879368190561024" lon="4.851988019148477"><ele>105.0</ele><time>2026-04-06T08:59:15.989Z</time></trkpt><trkpt lat="44.8793676004451" lon="4.851872172565155"><ele>105.0</ele><time>2026-04-06T08:59:17.989Z</time></trkpt><trkpt lat="44.8793636865026" lon="4.851763839104516"><ele>105.83333333333333</ele><time>2026-04-06T08:59:19.989Z</time></trkpt><trkpt lat="44.87936213241166" lon="4.8516526627166945"><ele>106.66666666666666</ele><time>2026-04-06T08:59:21.989Z</time></trkpt><trkpt lat="44.87936683139132" lon="4.851544061187059"><ele>107.5</ele><time>2026-04-06T08:59:23.989Z</time></trkpt><trkpt lat="44.879385998902784" lon="4.851443443992472"><ele>108.33333333333333</ele><time>2026-04-06T08:59:25.989Z</time></trkpt><trkpt lat="44.87942991916422" lon="4.851360611794636"><ele>109.16666666666666</ele><time>2026-04-06T08:59:27.989Z</time></trkpt><trkpt lat="44.87950711002605" lon="4.851298093408606"><ele>110.0</ele><time>2026-04-06T08:59:29.989Z</time></trkpt><trkpt lat="44.87956771328136" lon="4.851230125659757"><ele>109.99999999999999</ele><time>2026-04-06T08:59:31.989Z</time></trkpt><trkpt lat="44.87963416560532" lon="4.851168983575595"><ele>110.0</ele><time>2026-04-06T08:59:33.989Z</time></trkpt><trkpt lat="44.879702049966625" lon="4.851107726450565"><ele>110.0</ele><time>2026-04-06T08:59:35.989Z</time></trkpt><trkpt lat="44.87977090853879" lon="4.851046367089888"><ele>110.0</ele><time>2026-04-06T08:59:37.989Z</time></trkpt><trkpt lat="44.879837944806475" lon="4.850991138287114"><ele>109.99999999999999</ele><time>2026-04-06T08:59:39.989Z</time></trkpt><trkpt lat="44.87990378382496" lon="4.850940420638899"><ele>110.0</ele><time>2026-04-06T08:59:41.989Z</time></trkpt><trkpt lat="44.87996968497033" lon="4.850864580007188"><ele>109.4</ele><time>2026-04-06T08:59:43.989Z</time></trkpt><trkpt lat="44.88004746718251" lon="4.850813808726685"><ele>108.8</ele><time>2026-04-06T08:59:45.989Z</time></trkpt><trkpt lat="44.880116932074976" lon="4.850761521137882"><ele>108.19999999999999</ele><time>2026-04-06T08:59:47.989Z</time></trkpt><trkpt lat="44.88018346497471" lon="4.850730981244195"><ele>107.6</ele><time>2026-04-06T08:59:49.989Z</time></trkpt><trkpt lat="44.880279421005774" lon="4.850706988253817"><ele>107.0</ele><time>2026-04-06T08:59:52.989Z</time></trkpt><trkpt lat="44.88048478974821" lon="4.850710354564484"><ele>106.8</ele><time>2026-04-06T08:59:58.989Z</time></trkpt><trkpt lat="44.88066403290739" lon="4.850705408414348"><ele>106.6</ele><time>2026-04-06T09:00:04.989Z</time></trkpt><trkpt lat="44.8806277220747" lon="4.850615151821809"><ele>106.39999999999999</ele><time>2026-04-06T09:00:09.989Z</time></trkpt><trkpt lat="44.8805478464284" lon="4.850615357974244"><ele>106.19999999999999</ele><time>2026-04-06T09:00:12.989Z</time></trkpt><trkpt lat="44.88047562521611" lon="4.850608762403489"><ele>106.0</ele><time>2026-04-06T09:00:15.989Z</time></trkpt><trkpt lat="44.880412174636916" lon="4.850605967964593"><ele>106.00000000000001</ele><time>2026-04-06T09:00:17.989Z</time></trkpt><trkpt lat="44.88034823956362" lon="4.850588430813534"><ele>106.0</ele><time>2026-04-06T09:00:19.989Z</time></trkpt><trkpt lat="44.88026981384337" lon="4.850574610298373"><ele>106.0</ele><time>2026-04-06T09:00:21.989Z</time></trkpt><trkpt lat="44.88019586712406" lon="4.850559488210507"><ele>106.0</ele><time>2026-04-06T09:00:23.989Z</time></trkpt><trkpt lat="44.88011971644848" lon="4.850541511059932"><ele>106.00000000000001</ele><time>2026-04-06T09:00:25.989Z</time></trkpt><trkpt lat="44.88003927940058" lon="4.850526371131153"><ele>106.0</ele><time>2026-04-06T09:00:27.989Z</time></trkpt><trkpt lat="44.879954912349824" lon="4.850508277776014"><ele>106.16666666666667</ele><time>2026-04-06T09:00:29.989Z</time></trkpt><trkpt lat="44.8798741987184" lon="4.850485362229784"><ele>106.33333333333334</ele><time>2026-04-06T09:00:31.989Z</time></trkpt><trkpt lat="44.87979025233745" lon="4.850464117132576"><ele>106.5</ele><time>2026-04-06T09:00:33.989Z</time></trkpt><trkpt lat="44.87970350060906" lon="4.850440312707054"><ele>106.66666666666666</ele><time>2026-04-06T09:00:35.988Z</time></trkpt><trkpt lat="44.87961951907879" lon="4.850421100377111"><ele>106.83333333333333</ele><time>2026-04-06T09:00:37.988Z</time></trkpt><trkpt lat="44.87952917687191" lon="4.850393538834681"><ele>107.0</ele><time>2026-04-06T09:00:39.988Z</time></trkpt><trkpt lat="44.879450214128624" lon="4.85037771998811"><ele>106.99999999999999</ele><time>2026-04-06T09:00:41.989Z</time></trkpt><trkpt lat="44.87936626941933" lon="4.8503569311245345"><ele>107.0</ele><time>2026-04-06T09:00:43.989Z</time></trkpt><trkpt lat="44.87928422152468" lon="4.850332853129266"><ele>107.0</ele><time>2026-04-06T09:00:45.989Z</time></trkpt><trkpt lat="44.87920260157569" lon="4.850316080869547"><ele>107.0</ele><time>2026-04-06T09:00:47.989Z</time></trkpt><trkpt lat="44.87911863968134" lon="4.850295502205125"><ele>106.99999999999999</ele><time>2026-04-06T09:00:49.989Z</time></trkpt><trkpt lat="44.87903238305127" lon="4.850280962839025"><ele>107.0</ele><time>2026-04-06T09:00:51.989Z</time></trkpt><trkpt lat="44.87894398113085" lon="4.850259894295113"><ele>107.0</ele><time>2026-04-06T09:00:53.989Z</time></trkpt><trkpt lat="44.87885933309749" lon="4.8502473136936235"><ele>106.99999999999999</ele><time>2026-04-06T09:00:55.989Z</time></trkpt><trkpt lat="44.8787665925039" lon="4.8502239651123125"><ele>106.99999999999999</ele><time>2026-04-06T09:00:57.989Z</time></trkpt><trkpt lat="44.87867664227264" lon="4.850197416385075"><ele>107.0</ele><time>2026-04-06T09:00:59.989Z</time></trkpt><trkpt lat="44.878588412575" lon="4.850164778179411"><ele>107.0</ele><time>2026-04-06T09:01:01.989Z</time></trkpt><trkpt lat="44.87849815009674" lon="4.850129164925653"><ele>106.6</ele><time>2026-04-06T09:01:03.989Z</time></trkpt><trkpt lat="44.87840848578018" lon="4.850096243416129"><ele>106.19999999999999</ele><time>2026-04-06T09:01:05.989Z</time></trkpt><trkpt lat="44.87832056187751" lon="4.8500666220043875"><ele>105.8</ele><time>2026-04-06T09:01:07.989Z</time></trkpt><trkpt lat="44.878227551159554" lon="4.850042169504875"><ele>105.4</ele><time>2026-04-06T09:01:09.989Z</time></trkpt><trkpt lat="44.87813220086308" lon="4.850029340785798"><ele>105.0</ele><time>2026-04-06T09:01:11.989Z</time></trkpt><trkpt lat="44.87804057171385" lon="4.850015600098376"><ele>105.0</ele><time>2026-04-06T09:01:13.989Z</time></trkpt><trkpt lat="44.87793865558541" lon="4.850000307634154"><ele>105.0</ele><time>2026-04-06T09:01:15.989Z</time></trkpt><trkpt lat="44.87784139977446" lon="4.849994865445334"><ele>105.0</ele><time>2026-04-06T09:01:17.989Z</time></trkpt><trkpt lat="44.87773899448566" lon="4.850003938350606"><ele>105.0</ele><time>2026-04-06T09:01:19.989Z</time></trkpt><trkpt lat="44.877640937577134" lon="4.850020427247744"><ele>105.0</ele><time>2026-04-06T09:01:21.989Z</time></trkpt><trkpt lat="44.877550696952795" lon="4.850060154427675"><ele>104.8</ele><time>2026-04-06T09:01:23.989Z</time></trkpt><trkpt lat="44.87745322858511" lon="4.850092317014496"><ele>104.6</ele><time>2026-04-06T09:01:25.989Z</time></trkpt><trkpt lat="44.87735775793362" lon="4.850130530724084"><ele>104.4</ele><time>2026-04-06T09:01:27.989Z</time></trkpt><trkpt lat="44.877264979095024" lon="4.850178446397384"><ele>104.2</ele><time>2026-04-06T09:01:29.989Z</time></trkpt><trkpt lat="44.87717182848323" lon="4.850215273368817"><ele>104.0</ele><time>2026-04-06T09:01:31.989Z</time></trkpt><trkpt lat="44.87709105194572" lon="4.850263869092415"><ele>103.80000000000001</ele><time>2026-04-06T09:01:33.989Z</time></trkpt><trkpt lat="44.87699940257007" lon="4.850302493507054"><ele>103.60000000000001</ele><time>2026-04-06T09:01:35.989Z</time></trkpt><trkpt lat="44.87690943680878" lon="4.850339980881679"><ele>103.4</ele><time>2026-04-06T09:01:37.989Z</time></trkpt><trkpt lat="44.876822166459846" lon="4.850376175413287"><ele>103.2</ele><time>2026-04-06T09:01:39.989Z</time></trkpt><trkpt lat="44.87673077096902" lon="4.850405172335896"><ele>103.0</ele><time>2026-04-06T09:01:41.989Z</time></trkpt><trkpt lat="44.87664637772584" lon="4.850441578817424"><ele>103.0</ele><time>2026-04-06T09:01:43.989Z</time></trkpt><trkpt lat="44.87655760254554" lon="4.850472913726896"><ele>103.0</ele><time>2026-04-06T09:01:45.989Z</time></trkpt><trkpt lat="44.876466899915094" lon="4.850499950331501"><ele>103.0</ele><time>2026-04-06T09:01:47.989Z</time></trkpt><trkpt lat="44.876378285597326" lon="4.850523984889174"><ele>103.0</ele><time>2026-04-06T09:01:49.989Z</time></trkpt><trkpt lat="44.87628625590808" lon="4.850555013022092"><ele>103.0</ele><time>2026-04-06T09:01:51.989Z</time></trkpt><trkpt lat="44.87619260257888" lon="4.8505702820983005"><ele>103.0</ele><time>2026-04-06T09:01:53.988Z</time></trkpt><trkpt lat="44.876098710840694" lon="4.850585991142497"><ele>103.0</ele><time>2026-04-06T09:01:55.988Z</time></trkpt><trkpt lat="44.87600427366639" lon="4.850597643630466"><ele>103.0</ele><time>2026-04-06T09:01:57.988Z</time></trkpt><trkpt lat="44.87590896299626" lon="4.85059966349423"><ele>103.0</ele><time>2026-04-06T09:01:59.988Z</time></trkpt><trkpt lat="44.875814932748554" lon="4.850604474498634"><ele>103.0</ele><time>2026-04-06T09:02:01.988Z</time></trkpt><trkpt lat="44.875722647404004" lon="4.850609318396994"><ele>103.00000000000001</ele><time>2026-04-06T09:02:03.988Z</time></trkpt><trkpt lat="44.87562197620807" lon="4.850604363486036"><ele>103.0</ele><time>2026-04-06T09:02:05.988Z</time></trkpt><trkpt lat="44.87553300383013" lon="4.8505970456814955"><ele>103.0</ele><time>2026-04-06T09:02:07.988Z</time></trkpt><trkpt lat="44.87544248097099" lon="4.850595685640338"><ele>103.0</ele><time>2026-04-06T09:02:09.988Z</time></trkpt><trkpt lat="44.87537497523271" lon="4.850591908980543"><ele>103.00000000000001</ele><time>2026-04-06T09:02:11.988Z</time></trkpt><trkpt lat="44.875300949174544" lon="4.850579896386901"><ele>103.0</ele><time>2026-04-06T09:05:27.987Z</time></trkpt><trkpt lat="44.87523258063311" lon="4.850598665319779"><ele>103.00000000000001</ele><time>2026-04-06T09:05:30.987Z</time></trkpt><trkpt lat="44.875153715567784" lon="4.850600297164009"><ele>103.0</ele><time>2026-04-06T09:05:32.987Z</time></trkpt><trkpt lat="44.87507690791853" lon="4.850578337883584"><ele>103.0</ele><time>2026-04-06T09:05:34.987Z</time></trkpt><trkpt lat="44.87499292221373" lon="4.850560059019905"><ele>103.0</ele><time>2026-04-06T09:05:36.987Z</time></trkpt><trkpt lat="44.87491130129817" lon="4.850531398375741"><ele>103.00000000000001</ele><time>2026-04-06T09:05:38.987Z</time></trkpt><trkpt lat="44.87483146942694" lon="4.850510464799001"><ele>103.0</ele><time>2026-04-06T09:05:40.987Z</time></trkpt><trkpt lat="44.874747520909054" lon="4.850483782749946"><ele>102.83333333333334</ele><time>2026-04-06T09:05:42.987Z</time></trkpt><trkpt lat="44.874657965202914" lon="4.850458634578172"><ele>102.66666666666667</ele><time>2026-04-06T09:05:44.987Z</time></trkpt><trkpt lat="44.87457044537304" lon="4.850430166267879"><ele>102.5</ele><time>2026-04-06T09:05:46.987Z</time></trkpt><trkpt lat="44.87447977144995" lon="4.8504052953840375"><ele>102.33333333333334</ele><time>2026-04-06T09:05:48.987Z</time></trkpt><trkpt lat="44.874397198657086" lon="4.850377544968118"><ele>102.16666666666667</ele><time>2026-04-06T09:05:50.987Z</time></trkpt><trkpt lat="44.87430947605058" lon="4.850353692840422"><ele>102.0</ele><time>2026-04-06T09:05:52.987Z</time></trkpt><trkpt lat="44.87422156273276" lon="4.850331511265632"><ele>101.6</ele><time>2026-04-06T09:05:54.987Z</time></trkpt><trkpt lat="44.87414384444985" lon="4.850312045683289"><ele>101.19999999999999</ele><time>2026-04-06T09:05:56.987Z</time></trkpt><trkpt lat="44.874051820677515" lon="4.850279883615383"><ele>100.8</ele><time>2026-04-06T09:05:58.987Z</time></trkpt><trkpt lat="44.87396004186219" lon="4.850256810666723"><ele>100.4</ele><time>2026-04-06T09:06:00.987Z</time></trkpt><trkpt lat="44.87387364384255" lon="4.850228109014393"><ele>100.0</ele><time>2026-04-06T09:06:02.987Z</time></trkpt><trkpt lat="44.87378050849908" lon="4.850204459754684"><ele>100.0</ele><time>2026-04-06T09:06:04.987Z</time></trkpt><trkpt lat="44.873685629561784" lon="4.850176149380822"><ele>100.0</ele><time>2026-04-06T09:06:06.987Z</time></trkpt><trkpt lat="44.873586015691394" lon="4.85015151296686"><ele>100.0</ele><time>2026-04-06T09:06:08.987Z</time></trkpt><trkpt lat="44.87348855616551" lon="4.850103077103765"><ele>100.0</ele><time>2026-04-06T09:06:10.987Z</time></trkpt><trkpt lat="44.87340151339506" lon="4.850069333372403"><ele>100.0</ele><time>2026-04-06T09:06:12.987Z</time></trkpt><trkpt lat="44.87330385490225" lon="4.849996204432376"><ele>100.8</ele><time>2026-04-06T09:06:14.987Z</time></trkpt><trkpt lat="44.87321642822873" lon="4.849918294126276"><ele>101.6</ele><time>2026-04-06T09:06:16.987Z</time></trkpt><trkpt lat="44.87313616211566" lon="4.849838261238022"><ele>102.4</ele><time>2026-04-06T09:06:18.987Z</time></trkpt><trkpt lat="44.87305059681607" lon="4.849751232610023"><ele>103.2</ele><time>2026-04-06T09:06:20.987Z</time></trkpt><trkpt lat="44.872962031320085" lon="4.849686230484024"><ele>104.0</ele><time>2026-04-06T09:06:22.987Z</time></trkpt><trkpt lat="44.87286080431377" lon="4.84965113495342"><ele>104.0</ele><time>2026-04-06T09:06:24.987Z</time></trkpt><trkpt lat="44.872762244708234" lon="4.849627434740734"><ele>104.0</ele><time>2026-04-06T09:06:26.987Z</time></trkpt><trkpt lat="44.87265696621224" lon="4.8496168648203835"><ele>104.0</ele><time>2026-04-06T09:06:28.987Z</time></trkpt><trkpt lat="44.87256245328205" lon="4.849586552079971"><ele>104.0</ele><time>2026-04-06T09:06:30.987Z</time></trkpt><trkpt lat="44.87246017621264" lon="4.849560834738816"><ele>104.0</ele><time>2026-04-06T09:06:32.987Z</time></trkpt><trkpt lat="44.87236347923142" lon="4.849530359232658"><ele>104.2</ele><time>2026-04-06T09:06:34.987Z</time></trkpt><trkpt lat="44.87226401088877" lon="4.849503756772669"><ele>104.4</ele><time>2026-04-06T09:06:36.987Z</time></trkpt><trkpt lat="44.87216404874519" lon="4.8494704305319285"><ele>104.6</ele><time>2026-04-06T09:06:38.987Z</time></trkpt><trkpt lat="44.87205837239324" lon="4.849435741771346"><ele>104.8</ele><time>2026-04-06T09:06:40.987Z</time></trkpt><trkpt lat="44.87195829800622" lon="4.849408370522503"><ele>105.0</ele><time>2026-04-06T09:06:42.987Z</time></trkpt><trkpt lat="44.871855201592304" lon="4.849370745875201"><ele>105.0</ele><time>2026-04-06T09:06:44.987Z</time></trkpt><trkpt lat="44.871755262837056" lon="4.849342526797303"><ele>105.0</ele><time>2026-04-06T09:06:46.987Z</time></trkpt><trkpt lat="44.87165595305594" lon="4.849311410120151"><ele>105.0</ele><time>2026-04-06T09:06:48.987Z</time></trkpt><trkpt lat="44.871552892419906" lon="4.849304048953267"><ele>105.0</ele><time>2026-04-06T09:06:50.987Z</time></trkpt><trkpt lat="44.871434506656044" lon="4.8492655236290485"><ele>105.0</ele><time>2026-04-06T09:06:52.987Z</time></trkpt><trkpt lat="44.87132090255812" lon="4.849240306286197"><ele>105.0</ele><time>2026-04-06T09:06:54.987Z</time></trkpt><trkpt lat="44.87120457641293" lon="4.849217869865092"><ele>105.0</ele><time>2026-04-06T09:06:56.987Z</time></trkpt><trkpt lat="44.87109258653464" lon="4.849206772253154"><ele>105.0</ele><time>2026-04-06T09:06:58.987Z</time></trkpt><trkpt lat="44.87099199945857" lon="4.849182220379824"><ele>105.0</ele><time>2026-04-06T09:07:00.986Z</time></trkpt><trkpt lat="44.870894081296655" lon="4.849151254787909"><ele>105.0</ele><time>2026-04-06T09:07:02.987Z</time></trkpt><trkpt lat="44.87078930853512" lon="4.849138482190923"><ele>105.0</ele><time>2026-04-06T09:07:04.987Z</time></trkpt><trkpt lat="44.8706919442367" lon="4.849122884382925"><ele>105.0</ele><time>2026-04-06T09:07:06.986Z</time></trkpt><trkpt lat="44.87058834453318" lon="4.849101661773788"><ele>105.0</ele><time>2026-04-06T09:07:08.986Z</time></trkpt><trkpt lat="44.87048475494097" lon="4.84907681774147"><ele>105.0</ele><time>2026-04-06T09:07:10.987Z</time></trkpt><trkpt lat="44.870381446948926" lon="4.849046978688592"><ele>105.0</ele><time>2026-04-06T09:07:12.986Z</time></trkpt><trkpt lat="44.87028036513835" lon="4.8490264869359585"><ele>105.0</ele><time>2026-04-06T09:07:14.986Z</time></trkpt><trkpt lat="44.87017543824443" lon="4.849004326175712"><ele>105.0</ele><time>2026-04-06T09:07:16.986Z</time></trkpt><trkpt lat="44.87006746156462" lon="4.848973692404653"><ele>105.0</ele><time>2026-04-06T09:07:18.986Z</time></trkpt><trkpt lat="44.86995826042276" lon="4.848954689742738"><ele>105.0</ele><time>2026-04-06T09:07:20.986Z</time></trkpt><trkpt lat="44.86984796293531" lon="4.848932753394415"><ele>105.0</ele><time>2026-04-06T09:07:22.986Z</time></trkpt><trkpt lat="44.869743619739864" lon="4.848911114603741"><ele>105.0</ele><time>2026-04-06T09:07:24.986Z</time></trkpt><trkpt lat="44.8696339996648" lon="4.848882363005533"><ele>105.0</ele><time>2026-04-06T09:07:26.986Z</time></trkpt><trkpt lat="44.869534397685065" lon="4.848857361294984"><ele>105.0</ele><time>2026-04-06T09:07:28.986Z</time></trkpt><trkpt lat="44.86943594805913" lon="4.8488244198512795"><ele>105.0</ele><time>2026-04-06T09:07:30.986Z</time></trkpt><trkpt lat="44.8693392176114" lon="4.848779277200806"><ele>105.0</ele><time>2026-04-06T09:07:32.986Z</time></trkpt><trkpt lat="44.86925182767593" lon="4.848716253655055"><ele>105.33333333333333</ele><time>2026-04-06T09:07:34.986Z</time></trkpt><trkpt lat="44.86916907289707" lon="4.848655417214752"><ele>105.66666666666666</ele><time>2026-04-06T09:07:36.986Z</time></trkpt><trkpt lat="44.86907322841972" lon="4.848635267920237"><ele>106.0</ele><time>2026-04-06T09:07:38.986Z</time></trkpt><trkpt lat="44.86898961396967" lon="4.848649972745834"><ele>106.33333333333333</ele><time>2026-04-06T09:07:40.986Z</time></trkpt><trkpt lat="44.86891211157281" lon="4.848652218622975"><ele>106.66666666666666</ele><time>2026-04-06T09:07:42.986Z</time></trkpt><trkpt lat="44.86884369482655" lon="4.8486079066379295"><ele>107.0</ele><time>2026-04-06T09:07:44.986Z</time></trkpt><trkpt lat="44.86875996336601" lon="4.848622612980592"><ele>107.0</ele><time>2026-04-06T09:07:46.986Z</time></trkpt><trkpt lat="44.868669905557006" lon="4.848627351560693"><ele>106.99999999999999</ele><time>2026-04-06T09:07:48.986Z</time></trkpt><trkpt lat="44.868570859954296" lon="4.848599961028529"><ele>106.99999999999999</ele><time>2026-04-06T09:07:50.986Z</time></trkpt><trkpt lat="44.868472197471505" lon="4.8485804431894755"><ele>107.0</ele><time>2026-04-06T09:07:52.986Z</time></trkpt><trkpt lat="44.868384486688406" lon="4.848565567694188"><ele>107.0</ele><time>2026-04-06T09:07:54.986Z</time></trkpt><trkpt lat="44.868295077357885" lon="4.848533581971848"><ele>106.8</ele><time>2026-04-06T09:07:56.986Z</time></trkpt><trkpt lat="44.86820121176625" lon="4.848515977115359"><ele>106.6</ele><time>2026-04-06T09:07:58.986Z</time></trkpt><trkpt lat="44.86811259949262" lon="4.8484967057890715"><ele>106.39999999999999</ele><time>2026-04-06T09:08:00.986Z</time></trkpt><trkpt lat="44.868020918218626" lon="4.848475075652126"><ele>106.19999999999999</ele><time>2026-04-06T09:08:02.986Z</time></trkpt><trkpt lat="44.86793501561953" lon="4.848462024442546"><ele>106.0</ele><time>2026-04-06T09:08:04.986Z</time></trkpt><trkpt lat="44.86784303658263" lon="4.848445939560896"><ele>106.0</ele><time>2026-04-06T09:08:06.986Z</time></trkpt><trkpt lat="44.86774875132591" lon="4.848422037731867"><ele>106.0</ele><time>2026-04-06T09:08:08.986Z</time></trkpt><trkpt lat="44.86765872944201" lon="4.848383057778618"><ele>106.0</ele><time>2026-04-06T09:08:10.986Z</time></trkpt><trkpt lat="44.867559663637266" lon="4.848363244966133"><ele>106.0</ele><time>2026-04-06T09:08:12.986Z</time></trkpt><trkpt lat="44.8674755590135" lon="4.848318064081988"><ele>106.0</ele><time>2026-04-06T09:08:14.986Z</time></trkpt><trkpt lat="44.86739640830132" lon="4.848274438064937"><ele>105.66666666666667</ele><time>2026-04-06T09:08:16.986Z</time></trkpt><trkpt lat="44.86732214716179" lon="4.8482208259102535"><ele>105.33333333333334</ele><time>2026-04-06T09:08:18.986Z</time></trkpt><trkpt lat="44.86726471456198" lon="4.84815487006293"><ele>105.0</ele><time>2026-04-06T09:08:20.986Z</time></trkpt><trkpt lat="44.867192079639665" lon="4.848100631946207"><ele>104.66666666666666</ele><time>2026-04-06T09:08:22.986Z</time></trkpt><trkpt lat="44.86711474027348" lon="4.848040853715056"><ele>104.33333333333333</ele><time>2026-04-06T09:08:24.986Z</time></trkpt><trkpt lat="44.86704200177294" lon="4.848005011944134"><ele>104.0</ele><time>2026-04-06T09:08:26.986Z</time></trkpt><trkpt lat="44.86696971958126" lon="4.847954422981255"><ele>103.99999999999999</ele><time>2026-04-06T09:08:28.986Z</time></trkpt><trkpt lat="44.86689756616227" lon="4.8479078115492"><ele>104.0</ele><time>2026-04-06T09:08:30.986Z</time></trkpt><trkpt lat="44.86683024967974" lon="4.8478630959724525"><ele>104.0</ele><time>2026-04-06T09:08:32.986Z</time></trkpt><trkpt lat="44.866772117905604" lon="4.847801457087534"><ele>104.0</ele><time>2026-04-06T09:08:34.986Z</time></trkpt><trkpt lat="44.86670006267112" lon="4.8477615542168655"><ele>103.99999999999999</ele><time>2026-04-06T09:08:36.986Z</time></trkpt><trkpt lat="44.86664087515123" lon="4.847690574996845"><ele>104.0</ele><time>2026-04-06T09:08:38.986Z</time></trkpt><trkpt lat="44.86658574894389" lon="4.847622462811679"><ele>103.49999999999999</ele><time>2026-04-06T09:08:40.986Z</time></trkpt><trkpt lat="44.86652228753518" lon="4.847566573193472"><ele>103.0</ele><time>2026-04-06T09:08:42.986Z</time></trkpt><trkpt lat="44.86645987421486" lon="4.847497416849298"><ele>102.5</ele><time>2026-04-06T09:08:44.986Z</time></trkpt><trkpt lat="44.86639204851103" lon="4.847437559598459"><ele>102.0</ele><time>2026-04-06T09:08:46.986Z</time></trkpt><trkpt lat="44.86633855953142" lon="4.847373522400477"><ele>101.49999999999999</ele><time>2026-04-06T09:08:48.986Z</time></trkpt><trkpt lat="44.86626911123403" lon="4.847320096080231"><ele>101.0</ele><time>2026-04-06T09:08:50.986Z</time></trkpt><trkpt lat="44.866205346012805" lon="4.847252736407818"><ele>100.99999999999999</ele><time>2026-04-06T09:08:52.986Z</time></trkpt><trkpt lat="44.86612996170546" lon="4.84720283295471"><ele>101.0</ele><time>2026-04-06T09:08:54.986Z</time></trkpt><trkpt lat="44.86605624942754" lon="4.8471452693511266"><ele>101.0</ele><time>2026-04-06T09:08:56.986Z</time></trkpt><trkpt lat="44.86598132120032" lon="4.847097940098116"><ele>101.0</ele><time>2026-04-06T09:08:58.986Z</time></trkpt><trkpt lat="44.86591172191947" lon="4.847055150374214"><ele>100.99999999999999</ele><time>2026-04-06T09:09:00.986Z</time></trkpt><trkpt lat="44.865855507656526" lon="4.846993880516067"><ele>101.0</ele><time>2026-04-06T09:09:02.986Z</time></trkpt><trkpt lat="44.865793446167096" lon="4.846954844624918"><ele>101.33333333333333</ele><time>2026-04-06T09:09:04.986Z</time></trkpt><trkpt lat="44.865717377890505" lon="4.846912523885872"><ele>101.66666666666666</ele><time>2026-04-06T09:09:06.986Z</time></trkpt><trkpt lat="44.86564625894964" lon="4.846865993881046"><ele>102.0</ele><time>2026-04-06T09:09:08.986Z</time></trkpt><trkpt lat="44.865577973170836" lon="4.846829811586607"><ele>102.33333333333334</ele><time>2026-04-06T09:09:10.986Z</time></trkpt><trkpt lat="44.86550304300975" lon="4.846795155474152"><ele>102.66666666666667</ele><time>2026-04-06T09:09:12.986Z</time></trkpt><trkpt lat="44.865426188071304" lon="4.846764319720839"><ele>103.0</ele><time>2026-04-06T09:09:14.986Z</time></trkpt><trkpt lat="44.86535736472079" lon="4.846728468000996"><ele>102.99999999999999</ele><time>2026-04-06T09:09:16.986Z</time></trkpt><trkpt lat="44.86528977825652" lon="4.846687113857248"><ele>103.0</ele><time>2026-04-06T09:09:18.986Z</time></trkpt><trkpt lat="44.86522745563473" lon="4.8466599350926725"><ele>103.0</ele><time>2026-04-06T09:09:20.986Z</time></trkpt><trkpt lat="44.865151154733084" lon="4.846638596297266"><ele>103.0</ele><time>2026-04-06T09:09:22.986Z</time></trkpt><trkpt lat="44.86508363600519" lon="4.84659403405032"><ele>103.0</ele><time>2026-04-06T09:09:24.986Z</time></trkpt><trkpt lat="44.865017393462345" lon="4.846563321531442"><ele>102.99999999999999</ele><time>2026-04-06T09:09:26.986Z</time></trkpt><trkpt lat="44.8649455568525" lon="4.846525976720127"><ele>103.0</ele><time>2026-04-06T09:09:28.986Z</time></trkpt><trkpt lat="44.86486747839035" lon="4.846488573717721"><ele>103.00000000000001</ele><time>2026-04-06T09:09:30.986Z</time></trkpt><trkpt lat="44.864789447898005" lon="4.846439729990718"><ele>103.0</ele><time>2026-04-06T09:09:32.986Z</time></trkpt><trkpt lat="44.86470665623077" lon="4.8464013504787875"><ele>103.0</ele><time>2026-04-06T09:09:34.986Z</time></trkpt><trkpt lat="44.86462595159475" lon="4.846362647191741"><ele>103.0</ele><time>2026-04-06T09:09:36.986Z</time></trkpt><trkpt lat="44.864548688239566" lon="4.8463139514827605"><ele>103.00000000000001</ele><time>2026-04-06T09:09:38.986Z</time></trkpt><trkpt lat="44.86447231580668" lon="4.846262310936763"><ele>103.0</ele><time>2026-04-06T09:09:40.986Z</time></trkpt><trkpt lat="44.86439995138133" lon="4.8462009985847"><ele>103.0</ele><time>2026-04-06T09:09:42.986Z</time></trkpt><trkpt lat="44.864325167630334" lon="4.84613487200614"><ele>103.0</ele><time>2026-04-06T09:09:44.986Z</time></trkpt><trkpt lat="44.86424296619608" lon="4.846065812089854"><ele>103.0</ele><time>2026-04-06T09:09:46.986Z</time></trkpt><trkpt lat="44.864161757713454" lon="4.84600274579926"><ele>103.0</ele><time>2026-04-06T09:09:48.986Z</time></trkpt><trkpt lat="44.86408120729072" lon="4.845937152034712"><ele>103.0</ele><time>2026-04-06T09:09:50.986Z</time></trkpt><trkpt lat="44.86399876954256" lon="4.84586995491355"><ele>103.2</ele><time>2026-04-06T09:09:52.986Z</time></trkpt><trkpt lat="44.86392274712543" lon="4.8458002027899445"><ele>103.4</ele><time>2026-04-06T09:09:54.986Z</time></trkpt><trkpt lat="44.863839007430514" lon="4.845734481629714"><ele>103.60000000000001</ele><time>2026-04-06T09:09:56.986Z</time></trkpt><trkpt lat="44.86376423563746" lon="4.845669959413367"><ele>103.80000000000001</ele><time>2026-04-06T09:09:58.986Z</time></trkpt><trkpt lat="44.86368192554328" lon="4.845605312195871"><ele>104.0</ele><time>2026-04-06T09:10:00.986Z</time></trkpt><trkpt lat="44.863597107003386" lon="4.8455432549090744"><ele>104.0</ele><time>2026-04-06T09:10:02.986Z</time></trkpt><trkpt lat="44.86351882265084" lon="4.845483785306102"><ele>104.0</ele><time>2026-04-06T09:10:04.986Z</time></trkpt><trkpt lat="44.86344261450542" lon="4.845418119621971"><ele>104.0</ele><time>2026-04-06T09:10:06.986Z</time></trkpt><trkpt lat="44.86336632946628" lon="4.845373777223742"><ele>104.0</ele><time>2026-04-06T09:10:08.986Z</time></trkpt><trkpt lat="44.86328062487292" lon="4.845319157184647"><ele>104.0</ele><time>2026-04-06T09:10:10.986Z</time></trkpt><trkpt lat="44.8631877344595" lon="4.845267925361332"><ele>104.2</ele><time>2026-04-06T09:10:12.986Z</time></trkpt><trkpt lat="44.86310239145041" lon="4.8451933248116825"><ele>104.4</ele><time>2026-04-06T09:10:14.986Z</time></trkpt><trkpt lat="44.86301888115582" lon="4.845124952089377"><ele>104.6</ele><time>2026-04-06T09:10:16.986Z</time></trkpt><trkpt lat="44.86292899336077" lon="4.8450818550108785"><ele>104.8</ele><time>2026-04-06T09:10:18.986Z</time></trkpt><trkpt lat="44.86284238242497" lon="4.84500092704139"><ele>105.0</ele><time>2026-04-06T09:10:20.986Z</time></trkpt><trkpt lat="44.86275976633308" lon="4.844928787514303"><ele>105.0</ele><time>2026-04-06T09:10:22.986Z</time></trkpt><trkpt lat="44.862669338794184" lon="4.844871240413143"><ele>105.0</ele><time>2026-04-06T09:10:24.986Z</time></trkpt><trkpt lat="44.86258205096877" lon="4.844803276515316"><ele>105.0</ele><time>2026-04-06T09:10:26.986Z</time></trkpt><trkpt lat="44.86249939691226" lon="4.844737326080583"><ele>105.0</ele><time>2026-04-06T09:10:28.986Z</time></trkpt><trkpt lat="44.86240244474451" lon="4.844689843987426"><ele>105.0</ele><time>2026-04-06T09:10:30.986Z</time></trkpt><trkpt lat="44.86231116495921" lon="4.844622862851587"><ele>105.0</ele><time>2026-04-06T09:10:32.986Z</time></trkpt><trkpt lat="44.8622171120882" lon="4.844575100611009"><ele>105.0</ele><time>2026-04-06T09:10:34.986Z</time></trkpt><trkpt lat="44.86212205256022" lon="4.844514202639049"><ele>105.0</ele><time>2026-04-06T09:10:36.986Z</time></trkpt><trkpt lat="44.86203492169892" lon="4.844442150347496"><ele>105.0</ele><time>2026-04-06T09:10:38.986Z</time></trkpt><trkpt lat="44.86194087503245" lon="4.844378397076882"><ele>105.0</ele><time>2026-04-06T09:10:40.986Z</time></trkpt><trkpt lat="44.86184482547441" lon="4.844312076806295"><ele>104.6</ele><time>2026-04-06T09:10:42.986Z</time></trkpt><trkpt lat="44.86174800684005" lon="4.8442519176108485"><ele>104.2</ele><time>2026-04-06T09:10:44.986Z</time></trkpt><trkpt lat="44.861649224921585" lon="4.844190462376814"><ele>103.80000000000001</ele><time>2026-04-06T09:10:46.986Z</time></trkpt><trkpt lat="44.86155218941625" lon="4.844123977374385"><ele>103.4</ele><time>2026-04-06T09:10:48.986Z</time></trkpt><trkpt lat="44.86145615763667" lon="4.844056029224152"><ele>103.0</ele><time>2026-04-06T09:10:50.986Z</time></trkpt><trkpt lat="44.86135112958552" lon="4.844006559510344"><ele>103.0</ele><time>2026-04-06T09:10:52.986Z</time></trkpt><trkpt lat="44.86125215731451" lon="4.843946590996977"><ele>103.0</ele><time>2026-04-06T09:10:54.986Z</time></trkpt><trkpt lat="44.86115398384991" lon="4.84389140027011"><ele>103.0</ele><time>2026-04-06T09:10:56.986Z</time></trkpt><trkpt lat="44.86105520802748" lon="4.843842213412474"><ele>103.0</ele><time>2026-04-06T09:10:58.986Z</time></trkpt><trkpt lat="44.860960882939374" lon="4.843781485799773"><ele>103.0</ele><time>2026-04-06T09:11:00.986Z</time></trkpt><trkpt lat="44.86086682823645" lon="4.843723226409001"><ele>103.2</ele><time>2026-04-06T09:11:02.986Z</time></trkpt><trkpt lat="44.860779504687926" lon="4.843655678839716"><ele>103.4</ele><time>2026-04-06T09:11:04.986Z</time></trkpt><trkpt lat="44.86068877071575" lon="4.843588617511827"><ele>103.60000000000001</ele><time>2026-04-06T09:11:06.986Z</time></trkpt><trkpt lat="44.860596556796125" lon="4.843514769010289"><ele>103.80000000000001</ele><time>2026-04-06T09:11:08.986Z</time></trkpt><trkpt lat="44.86050789985446" lon="4.843448107337482"><ele>104.0</ele><time>2026-04-06T09:11:10.985Z</time></trkpt><trkpt lat="44.86041931899012" lon="4.843374422463133"><ele>104.0</ele><time>2026-04-06T09:11:12.985Z</time></trkpt><trkpt lat="44.86033202085215" lon="4.843305901210609"><ele>104.0</ele><time>2026-04-06T09:11:14.985Z</time></trkpt><trkpt lat="44.860245227676245" lon="4.843233628421901"><ele>104.0</ele><time>2026-04-06T09:11:16.986Z</time></trkpt><trkpt lat="44.86015964725045" lon="4.843155786978307"><ele>104.0</ele><time>2026-04-06T09:11:18.985Z</time></trkpt><trkpt lat="44.86006997443261" lon="4.843099828668688"><ele>104.0</ele><time>2026-04-06T09:11:20.985Z</time></trkpt><trkpt lat="44.85998381897086" lon="4.843030717699986"><ele>103.80000000000001</ele><time>2026-04-06T09:11:22.986Z</time></trkpt><trkpt lat="44.85989907099672" lon="4.84294596540051"><ele>103.60000000000001</ele><time>2026-04-06T09:11:24.985Z</time></trkpt><trkpt lat="44.85980803315048" lon="4.8428782878627255"><ele>103.4</ele><time>2026-04-06T09:11:26.985Z</time></trkpt><trkpt lat="44.859724334327645" lon="4.842805329157848"><ele>103.2</ele><time>2026-04-06T09:11:28.985Z</time></trkpt><trkpt lat="44.85964553080666" lon="4.842724538309152"><ele>103.0</ele><time>2026-04-06T09:11:30.985Z</time></trkpt><trkpt lat="44.85958465365974" lon="4.842635107950204"><ele>103.33333333333334</ele><time>2026-04-06T09:11:32.985Z</time></trkpt><trkpt lat="44.85952749803157" lon="4.842547243168167"><ele>103.66666666666667</ele><time>2026-04-06T09:11:34.985Z</time></trkpt><trkpt lat="44.85947677832807" lon="4.842480220708413"><ele>104.0</ele><time>2026-04-06T09:11:36.985Z</time></trkpt><trkpt lat="44.85944633654418" lon="4.842388115964367"><ele>104.33333333333334</ele><time>2026-04-06T09:11:38.985Z</time></trkpt><trkpt lat="44.85940653858241" lon="4.8422937883634605"><ele>104.66666666666667</ele><time>2026-04-06T09:11:40.985Z</time></trkpt><trkpt lat="44.85935127974948" lon="4.842232619465303"><ele>105.0</ele><time>2026-04-06T09:11:42.985Z</time></trkpt><trkpt lat="44.859263953197306" lon="4.842225296545565"><ele>104.2</ele><time>2026-04-06T09:11:44.985Z</time></trkpt><trkpt lat="44.85916555651855" lon="4.842217987817185"><ele>103.4</ele><time>2026-04-06T09:11:46.985Z</time></trkpt><trkpt lat="44.859063572008026" lon="4.842183583799377"><ele>102.6</ele><time>2026-04-06T09:11:48.985Z</time></trkpt><trkpt lat="44.85896695084021" lon="4.842116380148901"><ele>101.8</ele><time>2026-04-06T09:11:50.985Z</time></trkpt><trkpt lat="44.85887134267318" lon="4.84204801411839"><ele>101.0</ele><time>2026-04-06T09:11:52.985Z</time></trkpt><trkpt lat="44.85878118995276" lon="4.841979815743508"><ele>101.0</ele><time>2026-04-06T09:11:54.985Z</time></trkpt><trkpt lat="44.858695036429474" lon="4.841904294425895"><ele>101.0</ele><time>2026-04-06T09:11:56.985Z</time></trkpt><trkpt lat="44.85860823753815" lon="4.84182934040013"><ele>101.0</ele><time>2026-04-06T09:11:58.985Z</time></trkpt><trkpt lat="44.85852507740693" lon="4.841762681242347"><ele>101.0</ele><time>2026-04-06T09:12:00.985Z</time></trkpt><trkpt lat="44.85844653152473" lon="4.841704589657198"><ele>101.0</ele><time>2026-04-06T09:12:02.985Z</time></trkpt><trkpt lat="44.85838442727779" lon="4.841630617569163"><ele>101.19999999999999</ele><time>2026-04-06T09:12:04.985Z</time></trkpt><trkpt lat="44.8583176699401" lon="4.841544915157379"><ele>101.39999999999999</ele><time>2026-04-06T09:12:06.985Z</time></trkpt><trkpt lat="44.858233104018716" lon="4.841464897913311"><ele>101.6</ele><time>2026-04-06T09:12:08.985Z</time></trkpt><trkpt lat="44.85814742475745" lon="4.841385022750985"><ele>101.8</ele><time>2026-04-06T09:12:10.985Z</time></trkpt><trkpt lat="44.85806653326038" lon="4.841311394599767"><ele>102.0</ele><time>2026-04-06T09:12:12.985Z</time></trkpt><trkpt lat="44.857978991461" lon="4.8412258690341945"><ele>102.0</ele><time>2026-04-06T09:12:14.985Z</time></trkpt><trkpt lat="44.857892380548144" lon="4.841144536890387"><ele>102.0</ele><time>2026-04-06T09:12:16.985Z</time></trkpt><trkpt lat="44.857805939694" lon="4.841060401236057"><ele>102.0</ele><time>2026-04-06T09:12:18.985Z</time></trkpt><trkpt lat="44.85771515372835" lon="4.840974615900027"><ele>102.0</ele><time>2026-04-06T09:12:20.985Z</time></trkpt><trkpt lat="44.857628048657006" lon="4.840897604907307"><ele>102.0</ele><time>2026-04-06T09:12:22.985Z</time></trkpt><trkpt lat="44.85754112796016" lon="4.840815649773383"><ele>102.0</ele><time>2026-04-06T09:12:24.985Z</time></trkpt><trkpt lat="44.857445925504706" lon="4.840746924864475"><ele>102.0</ele><time>2026-04-06T09:12:26.985Z</time></trkpt><trkpt lat="44.85736315662925" lon="4.840664039098866"><ele>102.0</ele><time>2026-04-06T09:12:28.985Z</time></trkpt><trkpt lat="44.85728767350058" lon="4.84058629255517"><ele>102.0</ele><time>2026-04-06T09:12:30.985Z</time></trkpt><trkpt lat="44.8572122905938" lon="4.840503839454721"><ele>102.0</ele><time>2026-04-06T09:12:32.985Z</time></trkpt><trkpt lat="44.857133193163264" lon="4.840420622159518"><ele>102.0</ele><time>2026-04-06T09:12:34.985Z</time></trkpt><trkpt lat="44.85705718882718" lon="4.84034068936883"><ele>102.0</ele><time>2026-04-06T09:12:36.985Z</time></trkpt><trkpt lat="44.85697421827478" lon="4.840270256128086"><ele>102.0</ele><time>2026-04-06T09:12:38.985Z</time></trkpt><trkpt lat="44.856898303432764" lon="4.840197044394466"><ele>102.0</ele><time>2026-04-06T09:12:40.985Z</time></trkpt><trkpt lat="44.85682012311647" lon="4.840117243001038"><ele>102.0</ele><time>2026-04-06T09:12:42.985Z</time></trkpt><trkpt lat="44.85674099482172" lon="4.840043195187902"><ele>101.8</ele><time>2026-04-06T09:12:44.985Z</time></trkpt><trkpt lat="44.856665013293075" lon="4.839967175323114"><ele>101.6</ele><time>2026-04-06T09:12:46.985Z</time></trkpt><trkpt lat="44.85658089072952" lon="4.8398936405727575"><ele>101.39999999999999</ele><time>2026-04-06T09:12:48.985Z</time></trkpt><trkpt lat="44.856508259583165" lon="4.839808695149217"><ele>101.19999999999999</ele><time>2026-04-06T09:12:50.984Z</time></trkpt><trkpt lat="44.856426110981005" lon="4.8397231512931205"><ele>101.0</ele><time>2026-04-06T09:12:52.984Z</time></trkpt><trkpt lat="44.8563533224325" lon="4.839634896145606"><ele>100.99999999999999</ele><time>2026-04-06T09:12:54.984Z</time></trkpt><trkpt lat="44.85628349306887" lon="4.839546319483762"><ele>101.0</ele><time>2026-04-06T09:12:56.984Z</time></trkpt><trkpt lat="44.856216667668576" lon="4.839461133119932"><ele>101.0</ele><time>2026-04-06T09:12:58.984Z</time></trkpt><trkpt lat="44.85615603898586" lon="4.8393759908957525"><ele>101.0</ele><time>2026-04-06T09:13:00.984Z</time></trkpt><trkpt lat="44.856096695095005" lon="4.839284436444438"><ele>100.99999999999999</ele><time>2026-04-06T09:13:02.984Z</time></trkpt><trkpt lat="44.85603595451934" lon="4.839198041816261"><ele>101.0</ele><time>2026-04-06T09:13:04.984Z</time></trkpt><trkpt lat="44.85597443230927" lon="4.839119964245111"><ele>101.28571428571428</ele><time>2026-04-06T09:13:06.984Z</time></trkpt><trkpt lat="44.855922045487716" lon="4.839048448953152"><ele>101.57142857142857</ele><time>2026-04-06T09:13:08.984Z</time></trkpt><trkpt lat="44.85586768728913" lon="4.8389683582644"><ele>101.85714285714286</ele><time>2026-04-06T09:13:10.984Z</time></trkpt><trkpt lat="44.8558215927087" lon="4.838889019340706"><ele>102.14285714285714</ele><time>2026-04-06T09:13:12.984Z</time></trkpt><trkpt lat="44.85577954372169" lon="4.838809327310986"><ele>102.42857142857143</ele><time>2026-04-06T09:13:14.984Z</time></trkpt><trkpt lat="44.85573309739797" lon="4.8387428916693365"><ele>102.71428571428571</ele><time>2026-04-06T09:13:16.984Z</time></trkpt><trkpt lat="44.855693632472146" lon="4.838671659725344"><ele>103.0</ele><time>2026-04-06T09:13:18.984Z</time></trkpt><trkpt lat="44.85564882965058" lon="4.838592676634152"><ele>103.00000000000001</ele><time>2026-04-06T09:13:20.985Z</time></trkpt><trkpt lat="44.855590817264236" lon="4.8385002163925925"><ele>103.0</ele><time>2026-04-06T09:13:22.985Z</time></trkpt><trkpt lat="44.85553530605989" lon="4.838404923554538"><ele>103.0</ele><time>2026-04-06T09:13:24.985Z</time></trkpt><trkpt lat="44.855469496356534" lon="4.838318148025381"><ele>103.0</ele><time>2026-04-06T09:13:26.985Z</time></trkpt><trkpt lat="44.85539630076999" lon="4.8382494460815835"><ele>103.00000000000001</ele><time>2026-04-06T09:13:28.985Z</time></trkpt><trkpt lat="44.85531289740524" lon="4.838205048962165"><ele>103.0</ele><time>2026-04-06T09:13:30.985Z</time></trkpt><trkpt lat="44.85522928162527" lon="4.838171589993492"><ele>103.0</ele><time>2026-04-06T09:13:32.985Z</time></trkpt><trkpt lat="44.85513700953138" lon="4.838165074648925"><ele>103.0</ele><time>2026-04-06T09:13:34.985Z</time></trkpt><trkpt lat="44.85505922990308" lon="4.838233548298612"><ele>103.0</ele><time>2026-04-06T09:13:36.985Z</time></trkpt><trkpt lat="44.85499462140293" lon="4.83833007439801"><ele>103.0</ele><time>2026-04-06T09:13:38.985Z</time></trkpt><trkpt lat="44.85495041028095" lon="4.838457349990674"><ele>103.0</ele><time>2026-04-06T09:13:40.985Z</time></trkpt><trkpt lat="44.85493075456068" lon="4.838585691439027"><ele>103.00000000000001</ele><time>2026-04-06T09:13:42.985Z</time></trkpt><trkpt lat="44.85494727222529" lon="4.838714875121985"><ele>103.0</ele><time>2026-04-06T09:13:44.985Z</time></trkpt><trkpt lat="44.8550009276588" lon="4.838830335546256"><ele>103.0</ele><time>2026-04-06T09:13:46.985Z</time></trkpt><trkpt lat="44.855071470983106" lon="4.838915113123788"><ele>103.0</ele><time>2026-04-06T09:13:48.985Z</time></trkpt><trkpt lat="44.85512864678947" lon="4.8390051999765396"><ele>103.00000000000001</ele><time>2026-04-06T09:13:50.985Z</time></trkpt><trkpt lat="44.855169184650066" lon="4.839092905111858"><ele>103.0</ele><time>2026-04-06T09:13:52.985Z</time></trkpt><trkpt lat="44.85521654109171" lon="4.839161586764267"><ele>103.00000000000001</ele><time>2026-04-06T09:13:54.985Z</time></trkpt><trkpt lat="44.855269246644234" lon="4.839221424682818"><ele>103.0</ele><time>2026-04-06T09:13:56.985Z</time></trkpt><trkpt lat="44.855325466292825" lon="4.83931571497502"><ele>103.0</ele><time>2026-04-06T09:13:59.985Z</time></trkpt><trkpt lat="44.8553890958316" lon="4.839410523377355"><ele>103.0</ele><time>2026-04-06T09:14:02.984Z</time></trkpt><trkpt lat="44.85543698915059" lon="4.839468975617035"><ele>103.00000000000001</ele><time>2026-04-06T09:14:04.984Z</time></trkpt><trkpt lat="44.85547736280923" lon="4.839550762783713"><ele>103.0</ele><time>2026-04-06T09:14:06.984Z</time></trkpt><trkpt lat="44.8555017844501" lon="4.839650179524686"><ele>102.33333333333334</ele><time>2026-04-06T09:14:08.984Z</time></trkpt><trkpt lat="44.85545737472132" lon="4.839735236791397"><ele>101.66666666666667</ele><time>2026-04-06T09:14:10.984Z</time></trkpt><trkpt lat="44.85537669855758" lon="4.839702826801791"><ele>101.0</ele><time>2026-04-06T09:14:12.984Z</time></trkpt><trkpt lat="44.855315959028324" lon="4.839637554087447"><ele>100.33333333333334</ele><time>2026-04-06T09:14:14.984Z</time></trkpt><trkpt lat="44.85525747737205" lon="4.839572810846175"><ele>99.66666666666667</ele><time>2026-04-06T09:14:16.984Z</time></trkpt><trkpt lat="44.85520104804391" lon="4.839507934890804"><ele>99.0</ele><time>2026-04-06T09:14:18.984Z</time></trkpt><trkpt lat="44.85513511285738" lon="4.839443175819534"><ele>98.33333333333333</ele><time>2026-04-06T09:14:20.984Z</time></trkpt><trkpt lat="44.85506832947933" lon="4.839370362925561"><ele>97.66666666666667</ele><time>2026-04-06T09:14:22.984Z</time></trkpt><trkpt lat="44.85499932785348" lon="4.839301336643132"><ele>97.0</ele><time>2026-04-06T09:14:24.984Z</time></trkpt><trkpt lat="44.85493253702075" lon="4.839231230754846"><ele>96.33333333333334</ele><time>2026-04-06T09:14:26.984Z</time></trkpt><trkpt lat="44.854860328672146" lon="4.839162852229009"><ele>95.66666666666667</ele><time>2026-04-06T09:14:28.984Z</time></trkpt><trkpt lat="44.854793256147225" lon="4.839090615278916"><ele>95.0</ele><time>2026-04-06T09:14:30.984Z</time></trkpt><trkpt lat="44.85472913523405" lon="4.839032061999677"><ele>96.33333333333334</ele><time>2026-04-06T09:14:32.984Z</time></trkpt><trkpt lat="44.8546697392579" lon="4.838982367986927"><ele>97.66666666666667</ele><time>2026-04-06T09:14:34.984Z</time></trkpt><trkpt lat="44.85459255627801" lon="4.838932311358898"><ele>99.0</ele><time>2026-04-06T09:14:36.984Z</time></trkpt><trkpt lat="44.85450567285958" lon="4.838859279839281"><ele>100.33333333333334</ele><time>2026-04-06T09:14:38.984Z</time></trkpt><trkpt lat="44.8544290686494" lon="4.838780647348551"><ele>101.66666666666667</ele><time>2026-04-06T09:14:40.984Z</time></trkpt><trkpt lat="44.85439861754508" lon="4.83866604179136"><ele>103.0</ele><time>2026-04-06T09:14:42.984Z</time></trkpt><trkpt lat="44.854373146014765" lon="4.838577837684947"><ele>103.50000000000001</ele><time>2026-04-06T09:14:44.984Z</time></trkpt><trkpt lat="44.85437594108342" lon="4.838448059239884"><ele>104.0</ele><time>2026-04-06T09:14:47.984Z</time></trkpt><trkpt lat="44.85437669069742" lon="4.838347687537515"><ele>104.5</ele><time>2026-04-06T09:14:49.984Z</time></trkpt><trkpt lat="44.854381750511195" lon="4.838244742786408"><ele>105.0</ele><time>2026-04-06T09:14:51.984Z</time></trkpt><trkpt lat="44.85440900968055" lon="4.8381294725904755"><ele>105.50000000000001</ele><time>2026-04-06T09:14:54.984Z</time></trkpt><trkpt lat="44.85447545939031" lon="4.838056090035768"><ele>106.0</ele><time>2026-04-06T09:14:57.984Z</time></trkpt><trkpt lat="44.85455733397057" lon="4.838032678797258"><ele>106.00000000000001</ele><time>2026-04-06T09:15:01.984Z</time></trkpt><trkpt lat="44.85461848388306" lon="4.837946564847918"><ele>106.0</ele><time>2026-04-06T09:15:04.984Z</time></trkpt><trkpt lat="44.854631544219984" lon="4.837851392389841"><ele>106.0</ele><time>2026-04-06T09:15:06.984Z</time></trkpt><trkpt lat="44.85463923271811" lon="4.83773693798383"><ele>106.0</ele><time>2026-04-06T09:15:08.984Z</time></trkpt><trkpt lat="44.85465760135957" lon="4.837594768785402"><ele>106.00000000000001</ele><time>2026-04-06T09:15:10.984Z</time></trkpt><trkpt lat="44.854678454855936" lon="4.8374449394681385"><ele>106.0</ele><time>2026-04-06T09:15:12.984Z</time></trkpt><trkpt lat="44.854702104639124" lon="4.837273920731877"><ele>105.57142857142857</ele><time>2026-04-06T09:15:14.984Z</time></trkpt><trkpt lat="44.85470643210825" lon="4.837185183204589"><ele>105.14285714285714</ele><time>2026-04-06T09:15:15.984Z</time></trkpt><trkpt lat="44.85471524006488" lon="4.83709328998425"><ele>104.71428571428571</ele><time>2026-04-06T09:15:16.984Z</time></trkpt><trkpt lat="44.85472545208222" lon="4.836998544268425"><ele>104.28571428571428</ele><time>2026-04-06T09:15:17.984Z</time></trkpt><trkpt lat="44.854737137147254" lon="4.836907460941216"><ele>103.85714285714286</ele><time>2026-04-06T09:15:18.984Z</time></trkpt><trkpt lat="44.85474895217793" lon="4.836818784408604"><ele>103.42857142857142</ele><time>2026-04-06T09:15:19.984Z</time></trkpt><trkpt lat="44.85476286084509" lon="4.836730181491508"><ele>103.0</ele><time>2026-04-06T09:15:20.984Z</time></trkpt><trkpt lat="44.85478067753713" lon="4.836573691143955"><ele>102.4</ele><time>2026-04-06T09:15:22.984Z</time></trkpt><trkpt lat="44.8546877015851" lon="4.836460604961503"><ele>101.80000000000001</ele><time>2026-04-06T09:15:24.984Z</time></trkpt><trkpt lat="44.85460653777042" lon="4.83644346862493"><ele>101.2</ele><time>2026-04-06T09:15:25.984Z</time></trkpt><trkpt lat="44.854514426217435" lon="4.836443331700446"><ele>100.6</ele><time>2026-04-06T09:15:26.984Z</time></trkpt><trkpt lat="44.85442615801225" lon="4.836433764769658"><ele>100.0</ele><time>2026-04-06T09:15:27.984Z</time></trkpt><trkpt lat="44.8543482773314" lon="4.836421881529093"><ele>100.14285714285715</ele><time>2026-04-06T09:15:28.984Z</time></trkpt><trkpt lat="44.854271674872386" lon="4.836410913970633"><ele>100.28571428571429</ele><time>2026-04-06T09:15:29.984Z</time></trkpt><trkpt lat="44.85419919362506" lon="4.836396229059436"><ele>100.42857142857143</ele><time>2026-04-06T09:15:30.984Z</time></trkpt><trkpt lat="44.854129112631625" lon="4.836379695819181"><ele>100.57142857142858</ele><time>2026-04-06T09:15:31.984Z</time></trkpt><trkpt lat="44.85405925396187" lon="4.836371066584485"><ele>100.71428571428571</ele><time>2026-04-06T09:15:32.984Z</time></trkpt><trkpt lat="44.85399093412906" lon="4.836363965555726"><ele>100.85714285714286</ele><time>2026-04-06T09:15:33.984Z</time></trkpt><trkpt lat="44.85392320966845" lon="4.836356269775793"><ele>101.0</ele><time>2026-04-06T09:15:34.984Z</time></trkpt><trkpt lat="44.85380586311573" lon="4.836339295230957"><ele>101.0</ele><time>2026-04-06T09:15:36.984Z</time></trkpt><trkpt lat="44.85369838420733" lon="4.836317579923614"><ele>101.0</ele><time>2026-04-06T09:15:38.984Z</time></trkpt><trkpt lat="44.85360652313126" lon="4.836304158492083"><ele>101.0</ele><time>2026-04-06T09:15:40.984Z</time></trkpt><trkpt lat="44.8535130171194" lon="4.8362983861783535"><ele>101.0</ele><time>2026-04-06T09:15:42.984Z</time></trkpt><trkpt lat="44.85342650108133" lon="4.836296176692489"><ele>101.0</ele><time>2026-04-06T09:15:44.984Z</time></trkpt><trkpt lat="44.853339415484704" lon="4.836261836433287"><ele>101.33333333333333</ele><time>2026-04-06T09:15:46.984Z</time></trkpt><trkpt lat="44.85325656383732" lon="4.836211302179803"><ele>101.66666666666666</ele><time>2026-04-06T09:15:48.984Z</time></trkpt><trkpt lat="44.85317945975504" lon="4.836147617441782"><ele>102.0</ele><time>2026-04-06T09:15:50.984Z</time></trkpt><trkpt lat="44.853099486919234" lon="4.836105466249121"><ele>102.33333333333334</ele><time>2026-04-06T09:15:52.984Z</time></trkpt><trkpt lat="44.853020903345985" lon="4.836057870553738"><ele>102.66666666666667</ele><time>2026-04-06T09:15:54.984Z</time></trkpt><trkpt lat="44.8529518839413" lon="4.835998491140549"><ele>103.0</ele><time>2026-04-06T09:15:56.984Z</time></trkpt><trkpt lat="44.852882450235505" lon="4.83593532893278"><ele>103.00000000000001</ele><time>2026-04-06T09:15:58.984Z</time></trkpt><trkpt lat="44.852818333004116" lon="4.835853933478905"><ele>103.0</ele><time>2026-04-06T09:16:00.984Z</time></trkpt><trkpt lat="44.852758617679555" lon="4.835768716971562"><ele>103.0</ele><time>2026-04-06T09:16:02.984Z</time></trkpt><trkpt lat="44.85269757425384" lon="4.835681401801313"><ele>103.0</ele><time>2026-04-06T09:16:04.984Z</time></trkpt><trkpt lat="44.85263467247061" lon="4.835587588675934"><ele>103.00000000000001</ele><time>2026-04-06T09:16:06.984Z</time></trkpt><trkpt lat="44.85257349174029" lon="4.835493997305001"><ele>103.0</ele><time>2026-04-06T09:16:08.984Z</time></trkpt><trkpt lat="44.85251454523074" lon="4.835404918099374"><ele>103.0</ele><time>2026-04-06T09:16:10.984Z</time></trkpt><trkpt lat="44.85246124107088" lon="4.8353079230676155"><ele>103.0</ele><time>2026-04-06T09:16:12.984Z</time></trkpt><trkpt lat="44.85239292145519" lon="4.835217000572303"><ele>103.0</ele><time>2026-04-06T09:16:14.984Z</time></trkpt><trkpt lat="44.852328913096976" lon="4.83511682246096"><ele>103.0</ele><time>2026-04-06T09:16:16.984Z</time></trkpt><trkpt lat="44.85226311320558" lon="4.83501285247941"><ele>103.0</ele><time>2026-04-06T09:16:18.984Z</time></trkpt><trkpt lat="44.85220475815574" lon="4.83490827216954"><ele>103.0</ele><time>2026-04-06T09:16:20.984Z</time></trkpt><trkpt lat="44.85214062581544" lon="4.834800415612041"><ele>103.0</ele><time>2026-04-06T09:16:22.984Z</time></trkpt><trkpt lat="44.8520796261917" lon="4.834694731234843"><ele>103.0</ele><time>2026-04-06T09:16:24.984Z</time></trkpt><trkpt lat="44.8520160504004" lon="4.834591209114432"><ele>103.0</ele><time>2026-04-06T09:16:26.984Z</time></trkpt><trkpt lat="44.85194545900617" lon="4.834492284024098"><ele>103.0</ele><time>2026-04-06T09:16:28.984Z</time></trkpt><trkpt lat="44.85188965493263" lon="4.834380089126964"><ele>102.80000000000001</ele><time>2026-04-06T09:16:30.984Z</time></trkpt><trkpt lat="44.85181804290961" lon="4.834283944417522"><ele>102.6</ele><time>2026-04-06T09:16:32.984Z</time></trkpt><trkpt lat="44.851752897885554" lon="4.83418090999086"><ele>102.4</ele><time>2026-04-06T09:16:34.984Z</time></trkpt><trkpt lat="44.85168264502702" lon="4.83407888807288"><ele>102.19999999999999</ele><time>2026-04-06T09:16:36.984Z</time></trkpt><trkpt lat="44.851613760506424" lon="4.833978479343068"><ele>102.0</ele><time>2026-04-06T09:16:38.984Z</time></trkpt><trkpt lat="44.85154420691647" lon="4.833877933195862"><ele>102.0</ele><time>2026-04-06T09:16:40.984Z</time></trkpt><trkpt lat="44.85148182211734" lon="4.83377122979993"><ele>102.0</ele><time>2026-04-06T09:16:42.984Z</time></trkpt><trkpt lat="44.85141800904296" lon="4.833656754891773"><ele>102.0</ele><time>2026-04-06T09:16:44.984Z</time></trkpt><trkpt lat="44.851346522373156" lon="4.8335501217257635"><ele>102.0</ele><time>2026-04-06T09:16:46.984Z</time></trkpt><trkpt lat="44.85127660021018" lon="4.833426124142066"><ele>102.0</ele><time>2026-04-06T09:16:48.984Z</time></trkpt><trkpt lat="44.85120058943331" lon="4.833300761523276"><ele>102.0</ele><time>2026-04-06T09:16:50.984Z</time></trkpt><trkpt lat="44.85112842618284" lon="4.833177615891261"><ele>102.0</ele><time>2026-04-06T09:16:52.984Z</time></trkpt><trkpt lat="44.85105207560654" lon="4.833051603674258"><ele>102.0</ele><time>2026-04-06T09:16:54.984Z</time></trkpt><trkpt lat="44.85097481728206" lon="4.832929515463387"><ele>102.0</ele><time>2026-04-06T09:16:56.984Z</time></trkpt><trkpt lat="44.85089668685022" lon="4.8328119414019195"><ele>102.19999999999999</ele><time>2026-04-06T09:16:58.984Z</time></trkpt><trkpt lat="44.85081652471419" lon="4.832688788935156"><ele>102.4</ele><time>2026-04-06T09:17:00.984Z</time></trkpt><trkpt lat="44.85074354609639" lon="4.832575292154829"><ele>102.6</ele><time>2026-04-06T09:17:02.984Z</time></trkpt><trkpt lat="44.85067668657521" lon="4.832457547953244"><ele>102.80000000000001</ele><time>2026-04-06T09:17:04.984Z</time></trkpt><trkpt lat="44.850601016064374" lon="4.832337068127192"><ele>103.0</ele><time>2026-04-06T09:17:06.984Z</time></trkpt><trkpt lat="44.85053691688881" lon="4.832222203373363"><ele>102.60000000000001</ele><time>2026-04-06T09:17:08.984Z</time></trkpt><trkpt lat="44.85047329409168" lon="4.832115393709462"><ele>102.2</ele><time>2026-04-06T09:17:10.984Z</time></trkpt><trkpt lat="44.85040351085489" lon="4.83200668632055"><ele>101.8</ele><time>2026-04-06T09:17:12.984Z</time></trkpt><trkpt lat="44.85033786879137" lon="4.8318863218332115"><ele>101.4</ele><time>2026-04-06T09:17:14.984Z</time></trkpt><trkpt lat="44.850263511849995" lon="4.8317868418608745"><ele>101.0</ele><time>2026-04-06T09:17:16.984Z</time></trkpt><trkpt lat="44.850191443953776" lon="4.831678841274609"><ele>101.0</ele><time>2026-04-06T09:17:18.984Z</time></trkpt><trkpt lat="44.85013195195443" lon="4.831580178961706"><ele>101.0</ele><time>2026-04-06T09:17:20.984Z</time></trkpt><trkpt lat="44.85006110464375" lon="4.831480606076943"><ele>101.0</ele><time>2026-04-06T09:17:22.984Z</time></trkpt><trkpt lat="44.84999542924252" lon="4.831370317835223"><ele>101.0</ele><time>2026-04-06T09:17:24.984Z</time></trkpt><trkpt lat="44.84993033251973" lon="4.831261494611068"><ele>101.0</ele><time>2026-04-06T09:17:26.984Z</time></trkpt><trkpt lat="44.849861708697226" lon="4.831157737301406"><ele>100.99999999999999</ele><time>2026-04-06T09:17:28.984Z</time></trkpt><trkpt lat="44.849793511059374" lon="4.831038180564396"><ele>101.0</ele><time>2026-04-06T09:17:30.983Z</time></trkpt><trkpt lat="44.84971459749926" lon="4.8309073244776615"><ele>101.0</ele><time>2026-04-06T09:17:32.983Z</time></trkpt><trkpt lat="44.84967206329556" lon="4.830839237351503"><ele>101.0</ele><time>2026-04-06T09:17:33.983Z</time></trkpt><trkpt lat="44.84962415220949" lon="4.830773407393187"><ele>100.99999999999999</ele><time>2026-04-06T09:17:34.983Z</time></trkpt><trkpt lat="44.849578170490766" lon="4.830699924860357"><ele>101.0</ele><time>2026-04-06T09:17:35.984Z</time></trkpt><trkpt lat="44.849533750133205" lon="4.830629043572018"><ele>100.99999999999999</ele><time>2026-04-06T09:17:36.984Z</time></trkpt><trkpt lat="44.84949334981548" lon="4.830560258393743"><ele>101.0</ele><time>2026-04-06T09:17:37.984Z</time></trkpt><trkpt lat="44.84944847688731" lon="4.830486331943567"><ele>101.0</ele><time>2026-04-06T09:17:38.984Z</time></trkpt><trkpt lat="44.84937283938356" lon="4.830354275253712"><ele>101.0</ele><time>2026-04-06T09:17:40.984Z</time></trkpt><trkpt lat="44.849334109667026" lon="4.830283745002939"><ele>100.99999999999999</ele><time>2026-04-06T09:17:41.983Z</time></trkpt><trkpt lat="44.84928381068171" lon="4.830208290128682"><ele>101.0</ele><time>2026-04-06T09:17:42.983Z</time></trkpt><trkpt lat="44.84920484417826" lon="4.830068380406133"><ele>100.6</ele><time>2026-04-06T09:17:44.983Z</time></trkpt><trkpt lat="44.849118503586766" lon="4.829930287831006"><ele>100.19999999999999</ele><time>2026-04-06T09:17:46.983Z</time></trkpt><trkpt lat="44.849068165718236" lon="4.829858081125184"><ele>99.80000000000001</ele><time>2026-04-06T09:17:47.983Z</time></trkpt><trkpt lat="44.849012676793215" lon="4.82978576279391"><ele>99.4</ele><time>2026-04-06T09:17:48.983Z</time></trkpt><trkpt lat="44.84897035549005" lon="4.829716242665868"><ele>99.0</ele><time>2026-04-06T09:17:49.983Z</time></trkpt><trkpt lat="44.848902255443065" lon="4.829581991720991"><ele>99.0</ele><time>2026-04-06T09:17:51.983Z</time></trkpt><trkpt lat="44.84881813137648" lon="4.829450412346026"><ele>99.0</ele><time>2026-04-06T09:17:53.983Z</time></trkpt><trkpt lat="44.848770241611156" lon="4.829391909297722"><ele>99.0</ele><time>2026-04-06T09:17:54.983Z</time></trkpt><trkpt lat="44.848724080858304" lon="4.829327238727948"><ele>99.0</ele><time>2026-04-06T09:17:55.983Z</time></trkpt><trkpt lat="44.84865749510237" lon="4.829199258262646"><ele>99.0</ele><time>2026-04-06T09:17:57.983Z</time></trkpt><trkpt lat="44.84858851658377" lon="4.829091515396516"><ele>99.0</ele><time>2026-04-06T09:17:59.983Z</time></trkpt><trkpt lat="44.848518872426276" lon="4.828988842274837"><ele>99.0</ele><time>2026-04-06T09:18:01.983Z</time></trkpt><trkpt lat="44.84845773722197" lon="4.828883222788458"><ele>99.0</ele><time>2026-04-06T09:18:03.983Z</time></trkpt><trkpt lat="44.84838886873789" lon="4.828768034870456"><ele>99.0</ele><time>2026-04-06T09:18:05.983Z</time></trkpt><trkpt lat="44.84832779140542" lon="4.8286485763029035"><ele>99.0</ele><time>2026-04-06T09:18:07.983Z</time></trkpt><trkpt lat="44.84825907495038" lon="4.828539992283554"><ele>98.80000000000001</ele><time>2026-04-06T09:18:09.983Z</time></trkpt><trkpt lat="44.84818822598598" lon="4.828447579263795"><ele>98.60000000000001</ele><time>2026-04-06T09:18:11.983Z</time></trkpt><trkpt lat="44.84811732234726" lon="4.828355028054164"><ele>98.4</ele><time>2026-04-06T09:18:13.983Z</time></trkpt><trkpt lat="44.84806292951163" lon="4.828257931714336"><ele>98.2</ele><time>2026-04-06T09:18:15.983Z</time></trkpt><trkpt lat="44.84799772450266" lon="4.828139695174142"><ele>98.0</ele><time>2026-04-06T09:18:17.983Z</time></trkpt><trkpt lat="44.847926746355846" lon="4.8280392875546845"><ele>98.0</ele><time>2026-04-06T09:18:19.983Z</time></trkpt><trkpt lat="44.84786307231833" lon="4.8279225274884165"><ele>98.0</ele><time>2026-04-06T09:18:21.983Z</time></trkpt><trkpt lat="44.847787786513166" lon="4.827808545447804"><ele>98.0</ele><time>2026-04-06T09:18:23.983Z</time></trkpt><trkpt lat="44.84771636200372" lon="4.827694211095746"><ele>98.0</ele><time>2026-04-06T09:18:25.983Z</time></trkpt><trkpt lat="44.847654261057215" lon="4.827572401642341"><ele>98.0</ele><time>2026-04-06T09:18:27.983Z</time></trkpt><trkpt lat="44.84757717025918" lon="4.827442224366675"><ele>97.80000000000001</ele><time>2026-04-06T09:18:29.983Z</time></trkpt><trkpt lat="44.84750016932306" lon="4.8273407923569405"><ele>97.6</ele><time>2026-04-06T09:18:31.983Z</time></trkpt><trkpt lat="44.84743013343545" lon="4.827216261426368"><ele>97.4</ele><time>2026-04-06T09:18:33.983Z</time></trkpt><trkpt lat="44.847361597853" lon="4.827099021252178"><ele>97.19999999999999</ele><time>2026-04-06T09:18:35.983Z</time></trkpt><trkpt lat="44.847292303203346" lon="4.826986234286812"><ele>97.0</ele><time>2026-04-06T09:18:37.983Z</time></trkpt><trkpt lat="44.84722456177726" lon="4.82687139190304"><ele>97.0</ele><time>2026-04-06T09:18:39.983Z</time></trkpt><trkpt lat="44.847154201087044" lon="4.8267645740536524"><ele>97.0</ele><time>2026-04-06T09:18:41.983Z</time></trkpt><trkpt lat="44.84708413270334" lon="4.8266613703502514"><ele>97.0</ele><time>2026-04-06T09:18:43.983Z</time></trkpt><trkpt lat="44.84701539222242" lon="4.826558062919339"><ele>97.0</ele><time>2026-04-06T09:18:45.983Z</time></trkpt><trkpt lat="44.84694796074488" lon="4.826450557930777"><ele>97.0</ele><time>2026-04-06T09:18:47.983Z</time></trkpt><trkpt lat="44.84688690801019" lon="4.826342622763757"><ele>97.0</ele><time>2026-04-06T09:18:49.983Z</time></trkpt><trkpt lat="44.84681875807164" lon="4.82624067976582"><ele>97.0</ele><time>2026-04-06T09:18:51.983Z</time></trkpt><trkpt lat="44.84675890327173" lon="4.826128746016568"><ele>97.0</ele><time>2026-04-06T09:18:53.983Z</time></trkpt><trkpt lat="44.846690800554754" lon="4.826028812374199"><ele>97.0</ele><time>2026-04-06T09:18:55.983Z</time></trkpt><trkpt lat="44.8466288590219" lon="4.825921992390757"><ele>97.0</ele><time>2026-04-06T09:18:57.983Z</time></trkpt><trkpt lat="44.84655909713754" lon="4.825814831222192"><ele>96.8</ele><time>2026-04-06T09:18:59.983Z</time></trkpt><trkpt lat="44.84649359620644" lon="4.8257097592991824"><ele>96.6</ele><time>2026-04-06T09:19:01.983Z</time></trkpt><trkpt lat="44.84642317463592" lon="4.8256108751262925"><ele>96.39999999999999</ele><time>2026-04-06T09:19:03.983Z</time></trkpt><trkpt lat="44.84636035862465" lon="4.825499176515968"><ele>96.19999999999999</ele><time>2026-04-06T09:19:05.983Z</time></trkpt><trkpt lat="44.84630448251867" lon="4.8254001888113525"><ele>96.0</ele><time>2026-04-06T09:19:07.983Z</time></trkpt><trkpt lat="44.84624356891865" lon="4.825298899147882"><ele>96.0</ele><time>2026-04-06T09:19:09.983Z</time></trkpt><trkpt lat="44.846185197215505" lon="4.825191294518456"><ele>96.0</ele><time>2026-04-06T09:19:11.983Z</time></trkpt><trkpt lat="44.84612939698824" lon="4.8250963075815685"><ele>96.0</ele><time>2026-04-06T09:19:13.983Z</time></trkpt><trkpt lat="44.8460724532778" lon="4.825004575277834"><ele>96.0</ele><time>2026-04-06T09:19:15.983Z</time></trkpt><trkpt lat="44.84601571980443" lon="4.824915188015855"><ele>96.0</ele><time>2026-04-06T09:19:17.983Z</time></trkpt><trkpt lat="44.845947967615004" lon="4.824813581591394"><ele>96.4</ele><time>2026-04-06T09:19:19.983Z</time></trkpt><trkpt lat="44.84589220099091" lon="4.824729346379265"><ele>96.8</ele><time>2026-04-06T09:19:21.983Z</time></trkpt><trkpt lat="44.8458237672918" lon="4.82463263242941"><ele>97.2</ele><time>2026-04-06T09:19:23.983Z</time></trkpt><trkpt lat="44.84576541615512" lon="4.824548067051227"><ele>97.60000000000001</ele><time>2026-04-06T09:19:25.983Z</time></trkpt><trkpt lat="44.84569466326888" lon="4.824469056240954"><ele>98.0</ele><time>2026-04-06T09:19:27.983Z</time></trkpt><trkpt lat="44.84562283745042" lon="4.824347157695409"><ele>98.0</ele><time>2026-04-06T09:19:29.983Z</time></trkpt><trkpt lat="44.845567990450455" lon="4.824248028862818"><ele>98.0</ele><time>2026-04-06T09:19:31.983Z</time></trkpt><trkpt lat="44.84549964706345" lon="4.824145837184935"><ele>98.0</ele><time>2026-04-06T09:19:33.983Z</time></trkpt><trkpt lat="44.845429917670536" lon="4.82404024530985"><ele>98.0</ele><time>2026-04-06T09:19:35.982Z</time></trkpt><trkpt lat="44.8453709886749" lon="4.823941572350182"><ele>98.0</ele><time>2026-04-06T09:19:37.982Z</time></trkpt><trkpt lat="44.84529945567797" lon="4.823845472136372"><ele>98.0</ele><time>2026-04-06T09:19:39.983Z</time></trkpt><trkpt lat="44.84523322430792" lon="4.823748473707409"><ele>98.0</ele><time>2026-04-06T09:19:41.982Z</time></trkpt><trkpt lat="44.84514978638601" lon="4.823670255083536"><ele>98.0</ele><time>2026-04-06T09:19:43.982Z</time></trkpt><trkpt lat="44.84508320698327" lon="4.823555192649145"><ele>98.0</ele><time>2026-04-06T09:19:45.982Z</time></trkpt><trkpt lat="44.84501065582791" lon="4.823454903048979"><ele>98.0</ele><time>2026-04-06T09:19:47.982Z</time></trkpt><trkpt lat="44.84494711539235" lon="4.823357088953388"><ele>98.0</ele><time>2026-04-06T09:19:49.982Z</time></trkpt><trkpt lat="44.844877588823515" lon="4.823261466637412"><ele>98.0</ele><time>2026-04-06T09:19:51.982Z</time></trkpt><trkpt lat="44.84481211563949" lon="4.823159156418848"><ele>98.0</ele><time>2026-04-06T09:19:53.982Z</time></trkpt><trkpt lat="44.84474765525627" lon="4.8230585588760615"><ele>98.0</ele><time>2026-04-06T09:19:55.982Z</time></trkpt><trkpt lat="44.8446792421465" lon="4.8229639280195435"><ele>98.0</ele><time>2026-04-06T09:19:57.982Z</time></trkpt><trkpt lat="44.844610979084656" lon="4.822875064598922"><ele>98.0</ele><time>2026-04-06T09:19:59.982Z</time></trkpt><trkpt lat="44.84455075876808" lon="4.822762804248691"><ele>98.0</ele><time>2026-04-06T09:20:01.982Z</time></trkpt><trkpt lat="44.844478076603366" lon="4.822652050507516"><ele>98.0</ele><time>2026-04-06T09:20:03.982Z</time></trkpt><trkpt lat="44.84441062279939" lon="4.822549442001614"><ele>98.0</ele><time>2026-04-06T09:20:05.982Z</time></trkpt><trkpt lat="44.84433966837655" lon="4.8224747198964035"><ele>98.0</ele><time>2026-04-06T09:20:07.982Z</time></trkpt><trkpt lat="44.844272893144826" lon="4.822414382137321"><ele>98.66666666666666</ele><time>2026-04-06T09:20:09.982Z</time></trkpt><trkpt lat="44.844205839180496" lon="4.82234862127884"><ele>99.33333333333333</ele><time>2026-04-06T09:20:11.982Z</time></trkpt><trkpt lat="44.844170087266036" lon="4.8222450413587135"><ele>100.0</ele><time>2026-04-06T09:20:13.982Z</time></trkpt><trkpt lat="44.844173550026525" lon="4.822151239641812"><ele>100.66666666666666</ele><time>2026-04-06T09:20:15.982Z</time></trkpt><trkpt lat="44.84419425270332" lon="4.822066539893913"><ele>101.33333333333333</ele><time>2026-04-06T09:20:17.982Z</time></trkpt><trkpt lat="44.84424565821851" lon="4.821984401612018"><ele>102.0</ele><time>2026-04-06T09:20:20.982Z</time></trkpt><trkpt lat="44.844307361644795" lon="4.821905588900765"><ele>102.0</ele><time>2026-04-06T09:20:23.982Z</time></trkpt><trkpt lat="44.84435184802418" lon="4.821838410124764"><ele>102.0</ele><time>2026-04-06T09:20:25.982Z</time></trkpt><trkpt lat="44.84440241032124" lon="4.821745577998773"><ele>102.0</ele><time>2026-04-06T09:20:28.982Z</time></trkpt><trkpt lat="44.84445149939609" lon="4.821662682746842"><ele>102.0</ele><time>2026-04-06T09:20:31.982Z</time></trkpt><trkpt lat="44.84448330681721" lon="4.821550784202583"><ele>102.0</ele><time>2026-04-06T09:20:34.982Z</time></trkpt><trkpt lat="44.844476140458006" lon="4.821425517261107"><ele>102.0</ele><time>2026-04-06T09:20:37.982Z</time></trkpt><trkpt lat="44.84443658157239" lon="4.821325058309292"><ele>102.5</ele><time>2026-04-06T09:20:40.982Z</time></trkpt><trkpt lat="44.844372282186676" lon="4.821246956466361"><ele>103.0</ele><time>2026-04-06T09:20:43.982Z</time></trkpt><trkpt lat="44.844306520830756" lon="4.821164721027527"><ele>103.5</ele><time>2026-04-06T09:20:46.982Z</time></trkpt><trkpt lat="44.84423013022497" lon="4.821112596319857"><ele>104.0</ele><time>2026-04-06T09:20:49.982Z</time></trkpt><trkpt lat="44.844147434249265" lon="4.821053120815452"><ele>104.5</ele><time>2026-04-06T09:20:52.982Z</time></trkpt><trkpt lat="44.8440850478463" lon="4.821017430517199"><ele>105.0</ele><time>2026-04-06T09:20:54.982Z</time></trkpt><trkpt lat="44.844026136255565" lon="4.82097344641805"><ele>105.0</ele><time>2026-04-06T09:20:56.982Z</time></trkpt><trkpt lat="44.843934538153185" lon="4.820911911337318"><ele>105.0</ele><time>2026-04-06T09:20:59.982Z</time></trkpt><trkpt lat="44.84387003242868" lon="4.820870755867722"><ele>105.0</ele><time>2026-04-06T09:21:01.982Z</time></trkpt><trkpt lat="44.84380609914043" lon="4.820822459853656"><ele>105.0</ele><time>2026-04-06T09:21:03.982Z</time></trkpt><trkpt lat="44.843733220188255" lon="4.820770715912838"><ele>105.0</ele><time>2026-04-06T09:21:05.982Z</time></trkpt><trkpt lat="44.843665921716834" lon="4.8207187487439604"><ele>105.0</ele><time>2026-04-06T09:21:07.982Z</time></trkpt><trkpt lat="44.8435999540525" lon="4.8206631763141194"><ele>105.0</ele><time>2026-04-06T09:21:09.982Z</time></trkpt><trkpt lat="44.84353056563153" lon="4.820609772546061"><ele>105.0</ele><time>2026-04-06T09:21:11.982Z</time></trkpt><trkpt lat="44.843463977768074" lon="4.820553404746992"><ele>105.0</ele><time>2026-04-06T09:21:13.982Z</time></trkpt><trkpt lat="44.843392324738495" lon="4.820492663448999"><ele>105.0</ele><time>2026-04-06T09:21:15.982Z</time></trkpt><trkpt lat="44.84332109872748" lon="4.820441851643383"><ele>105.0</ele><time>2026-04-06T09:21:17.982Z</time></trkpt><trkpt lat="44.84325397583231" lon="4.820381889384852"><ele>105.0</ele><time>2026-04-06T09:21:19.982Z</time></trkpt><trkpt lat="44.84319061439061" lon="4.820323877796629"><ele>105.14285714285714</ele><time>2026-04-06T09:21:21.982Z</time></trkpt><trkpt lat="44.84313670060797" lon="4.820262365621749"><ele>105.28571428571428</ele><time>2026-04-06T09:21:23.982Z</time></trkpt><trkpt lat="44.843084827640666" lon="4.820206913302235"><ele>105.42857142857143</ele><time>2026-04-06T09:21:25.982Z</time></trkpt><trkpt lat="44.84300428924026" lon="4.820134868732752"><ele>105.57142857142857</ele><time>2026-04-06T09:21:28.982Z</time></trkpt><trkpt lat="44.84292882200637" lon="4.820065220253121"><ele>105.71428571428571</ele><time>2026-04-06T09:21:31.982Z</time></trkpt><trkpt lat="44.84287308863449" lon="4.820020734924113"><ele>105.85714285714286</ele><time>2026-04-06T09:21:33.982Z</time></trkpt><trkpt lat="44.842815104861856" lon="4.819981534544864"><ele>106.0</ele><time>2026-04-06T09:21:35.982Z</time></trkpt><trkpt lat="44.842752179163455" lon="4.819929773981884"><ele>105.66666666666667</ele><time>2026-04-06T09:21:37.982Z</time></trkpt><trkpt lat="44.84269239046065" lon="4.819882154515368"><ele>105.33333333333334</ele><time>2026-04-06T09:21:39.982Z</time></trkpt><trkpt lat="44.84262810688184" lon="4.81983742556201"><ele>105.0</ele><time>2026-04-06T09:21:41.981Z</time></trkpt><trkpt lat="44.842565626762216" lon="4.819791203338104"><ele>104.66666666666666</ele><time>2026-04-06T09:21:43.982Z</time></trkpt><trkpt lat="44.84250388162094" lon="4.819745460425014"><ele>104.33333333333333</ele><time>2026-04-06T09:21:45.982Z</time></trkpt><trkpt lat="44.842416633731986" lon="4.819713852577511"><ele>104.0</ele><time>2026-04-06T09:21:47.982Z</time></trkpt><trkpt lat="44.84232473271305" lon="4.81966019837013"><ele>103.80000000000001</ele><time>2026-04-06T09:21:49.982Z</time></trkpt><trkpt lat="44.84223866286002" lon="4.819590611047401"><ele>103.60000000000001</ele><time>2026-04-06T09:21:51.982Z</time></trkpt><trkpt lat="44.84214598786932" lon="4.819546806401818"><ele>103.4</ele><time>2026-04-06T09:21:53.982Z</time></trkpt><trkpt lat="44.8420614609602" lon="4.81948454907778"><ele>103.2</ele><time>2026-04-06T09:21:55.982Z</time></trkpt><trkpt lat="44.84197557588561" lon="4.8194254101484235"><ele>103.0</ele><time>2026-04-06T09:21:57.982Z</time></trkpt><trkpt lat="44.8418937976891" lon="4.8193656752321345"><ele>103.4</ele><time>2026-04-06T09:21:59.982Z</time></trkpt><trkpt lat="44.8418099827265" lon="4.819300524813632"><ele>103.80000000000001</ele><time>2026-04-06T09:22:01.982Z</time></trkpt><trkpt lat="44.84172840169961" lon="4.819242762128866"><ele>104.2</ele><time>2026-04-06T09:22:03.982Z</time></trkpt><trkpt lat="44.841644697720355" lon="4.819181393822923"><ele>104.6</ele><time>2026-04-06T09:22:05.982Z</time></trkpt><trkpt lat="44.84155741143431" lon="4.819124215823753"><ele>105.0</ele><time>2026-04-06T09:22:07.982Z</time></trkpt><trkpt lat="44.84147145877833" lon="4.819059052188384"><ele>105.0</ele><time>2026-04-06T09:22:09.982Z</time></trkpt><trkpt lat="44.8413767325314" lon="4.818978889609116"><ele>105.0</ele><time>2026-04-06T09:22:11.982Z</time></trkpt><trkpt lat="44.84127557488668" lon="4.818904446408509"><ele>105.0</ele><time>2026-04-06T09:22:13.982Z</time></trkpt><trkpt lat="44.84117678966863" lon="4.818832956368987"><ele>105.0</ele><time>2026-04-06T09:22:15.982Z</time></trkpt><trkpt lat="44.84108295982519" lon="4.818772687811429"><ele>105.0</ele><time>2026-04-06T09:22:17.982Z</time></trkpt><trkpt lat="44.8409931499396" lon="4.81871130189962"><ele>104.66666666666667</ele><time>2026-04-06T09:22:19.982Z</time></trkpt><trkpt lat="44.84091724768039" lon="4.8186422652636445"><ele>104.33333333333334</ele><time>2026-04-06T09:22:21.982Z</time></trkpt><trkpt lat="44.84083337629038" lon="4.8185755026988994"><ele>104.0</ele><time>2026-04-06T09:22:23.982Z</time></trkpt><trkpt lat="44.840748218028395" lon="4.8185365362933785"><ele>103.66666666666667</ele><time>2026-04-06T09:22:25.982Z</time></trkpt><trkpt lat="44.84067546153709" lon="4.818495775437844"><ele>103.33333333333334</ele><time>2026-04-06T09:22:27.982Z</time></trkpt><trkpt lat="44.84060488014817" lon="4.818454693963304"><ele>103.0</ele><time>2026-04-06T09:22:29.982Z</time></trkpt><trkpt lat="44.84052068457835" lon="4.8184330679770735"><ele>102.2</ele><time>2026-04-06T09:22:31.982Z</time></trkpt><trkpt lat="44.840431962932584" lon="4.818398186702472"><ele>101.4</ele><time>2026-04-06T09:22:33.982Z</time></trkpt><trkpt lat="44.8403425591828" lon="4.818360136831012"><ele>100.60000000000001</ele><time>2026-04-06T09:22:35.982Z</time></trkpt><trkpt lat="44.840247108634756" lon="4.818312589858921"><ele>99.80000000000001</ele><time>2026-04-06T09:22:37.982Z</time></trkpt><trkpt lat="44.840155280873155" lon="4.818258567598182"><ele>99.0</ele><time>2026-04-06T09:22:39.982Z</time></trkpt><trkpt lat="44.84005959799357" lon="4.818195870931932"><ele>99.0</ele><time>2026-04-06T09:22:41.982Z</time></trkpt><trkpt lat="44.83996923451779" lon="4.818123461334326"><ele>99.0</ele><time>2026-04-06T09:22:43.982Z</time></trkpt><trkpt lat="44.83987242270743" lon="4.818050814801367"><ele>99.0</ele><time>2026-04-06T09:22:45.982Z</time></trkpt><trkpt lat="44.83977939786844" lon="4.817975619941382"><ele>99.0</ele><time>2026-04-06T09:22:47.982Z</time></trkpt><trkpt lat="44.83968486968636" lon="4.817901808321157"><ele>99.0</ele><time>2026-04-06T09:22:49.982Z</time></trkpt><trkpt lat="44.839589632121694" lon="4.817826238852057"><ele>99.0</ele><time>2026-04-06T09:22:51.982Z</time></trkpt><trkpt lat="44.839499573010585" lon="4.81775645487998"><ele>99.0</ele><time>2026-04-06T09:22:53.982Z</time></trkpt><trkpt lat="44.83940729449798" lon="4.817682920249004"><ele>99.0</ele><time>2026-04-06T09:22:55.981Z</time></trkpt><trkpt lat="44.839314017635964" lon="4.817611900344259"><ele>99.0</ele><time>2026-04-06T09:22:57.981Z</time></trkpt><trkpt lat="44.8392210885932" lon="4.817545778187289"><ele>99.0</ele><time>2026-04-06T09:22:59.981Z</time></trkpt><trkpt lat="44.839129855688284" lon="4.817476338252192"><ele>99.6</ele><time>2026-04-06T09:23:01.981Z</time></trkpt><trkpt lat="44.839033575873934" lon="4.817411954689845"><ele>100.2</ele><time>2026-04-06T09:23:03.981Z</time></trkpt><trkpt lat="44.83893357366757" lon="4.817353573683944"><ele>100.8</ele><time>2026-04-06T09:23:05.981Z</time></trkpt><trkpt lat="44.83883379951852" lon="4.817290386995699"><ele>101.39999999999999</ele><time>2026-04-06T09:23:07.981Z</time></trkpt><trkpt lat="44.838734298880475" lon="4.817227366816434"><ele>102.0</ele><time>2026-04-06T09:23:09.981Z</time></trkpt><trkpt lat="44.838634887392125" lon="4.8171629917544045"><ele>102.0</ele><time>2026-04-06T09:23:11.981Z</time></trkpt><trkpt lat="44.83853320682818" lon="4.817104137168465"><ele>102.0</ele><time>2026-04-06T09:23:13.981Z</time></trkpt><trkpt lat="44.83843062797376" lon="4.817048936957854"><ele>102.0</ele><time>2026-04-06T09:23:15.981Z</time></trkpt><trkpt lat="44.83833242112997" lon="4.8169866106890495"><ele>102.0</ele><time>2026-04-06T09:23:17.981Z</time></trkpt><trkpt lat="44.83822432269535" lon="4.816926893127064"><ele>102.0</ele><time>2026-04-06T09:23:19.981Z</time></trkpt><trkpt lat="44.83812634181612" lon="4.816873751654827"><ele>101.39999999999999</ele><time>2026-04-06T09:23:21.981Z</time></trkpt><trkpt lat="44.83802708529679" lon="4.816825058053795"><ele>100.8</ele><time>2026-04-06T09:23:23.981Z</time></trkpt><trkpt lat="44.837930970743486" lon="4.816776240507251"><ele>100.2</ele><time>2026-04-06T09:23:25.981Z</time></trkpt><trkpt lat="44.83783334606958" lon="4.816731656585404"><ele>99.6</ele><time>2026-04-06T09:23:27.981Z</time></trkpt><trkpt lat="44.837733987811056" lon="4.81668330236965"><ele>99.0</ele><time>2026-04-06T09:23:29.981Z</time></trkpt><trkpt lat="44.83763419493242" lon="4.816635478948003"><ele>99.0</ele><time>2026-04-06T09:23:31.981Z</time></trkpt><trkpt lat="44.8375332289164" lon="4.816593472009072"><ele>99.0</ele><time>2026-04-06T09:23:33.981Z</time></trkpt><trkpt lat="44.83743521466924" lon="4.816551078068561"><ele>99.0</ele><time>2026-04-06T09:23:35.981Z</time></trkpt><trkpt lat="44.837333216812944" lon="4.816506681699047"><ele>99.0</ele><time>2026-04-06T09:23:37.981Z</time></trkpt><trkpt lat="44.83722979097593" lon="4.816466855615684"><ele>99.0</ele><time>2026-04-06T09:23:39.981Z</time></trkpt><trkpt lat="44.837130508518285" lon="4.816424981630553"><ele>99.0</ele><time>2026-04-06T09:23:41.981Z</time></trkpt><trkpt lat="44.83703020611104" lon="4.816388035665602"><ele>99.0</ele><time>2026-04-06T09:23:43.981Z</time></trkpt><trkpt lat="44.83693053654135" lon="4.81634561043094"><ele>99.0</ele><time>2026-04-06T09:23:45.981Z</time></trkpt><trkpt lat="44.8368270457483" lon="4.816306199956089"><ele>99.0</ele><time>2026-04-06T09:23:47.981Z</time></trkpt><trkpt lat="44.83671870550646" lon="4.816265129955762"><ele>99.0</ele><time>2026-04-06T09:23:49.981Z</time></trkpt><trkpt lat="44.83661513422602" lon="4.816225302376192"><ele>98.2</ele><time>2026-04-06T09:23:51.981Z</time></trkpt><trkpt lat="44.83650999319013" lon="4.816184606629547"><ele>97.4</ele><time>2026-04-06T09:23:53.982Z</time></trkpt><trkpt lat="44.83640374461967" lon="4.816140861741028"><ele>96.6</ele><time>2026-04-06T09:23:55.981Z</time></trkpt><trkpt lat="44.83629644828555" lon="4.816097836345227"><ele>95.8</ele><time>2026-04-06T09:23:57.981Z</time></trkpt><trkpt lat="44.83618615726518" lon="4.816058698549433"><ele>95.0</ele><time>2026-04-06T09:23:59.982Z</time></trkpt><trkpt lat="44.83607908149529" lon="4.816019092252917"><ele>95.0</ele><time>2026-04-06T09:24:01.982Z</time></trkpt><trkpt lat="44.83597174711708" lon="4.815974463029178"><ele>95.0</ele><time>2026-04-06T09:24:03.982Z</time></trkpt><trkpt lat="44.835864749374444" lon="4.815930839312099"><ele>95.0</ele><time>2026-04-06T09:24:05.982Z</time></trkpt><trkpt lat="44.83575824946821" lon="4.81589200491805"><ele>95.0</ele><time>2026-04-06T09:24:07.982Z</time></trkpt><trkpt lat="44.83565045701894" lon="4.815848558248744"><ele>95.0</ele><time>2026-04-06T09:24:09.981Z</time></trkpt><trkpt lat="44.835542023336615" lon="4.815802604378843"><ele>95.0</ele><time>2026-04-06T09:24:11.981Z</time></trkpt><trkpt lat="44.83543733148099" lon="4.815756087223428"><ele>95.0</ele><time>2026-04-06T09:24:13.981Z</time></trkpt><trkpt lat="44.83533070308758" lon="4.815716187238068"><ele>95.0</ele><time>2026-04-06T09:24:15.981Z</time></trkpt><trkpt lat="44.83522767793742" lon="4.81567158729056"><ele>95.0</ele><time>2026-04-06T09:24:17.981Z</time></trkpt><trkpt lat="44.8351238860646" lon="4.815631933744221"><ele>95.0</ele><time>2026-04-06T09:24:19.981Z</time></trkpt><trkpt lat="44.835019327151336" lon="4.815585734692964"><ele>95.0</ele><time>2026-04-06T09:24:21.981Z</time></trkpt><trkpt lat="44.83491320939313" lon="4.815543628910411"><ele>95.0</ele><time>2026-04-06T09:24:23.981Z</time></trkpt><trkpt lat="44.834807801547704" lon="4.81549835878203"><ele>95.0</ele><time>2026-04-06T09:24:25.981Z</time></trkpt><trkpt lat="44.83470023660248" lon="4.815449134095906"><ele>95.0</ele><time>2026-04-06T09:24:27.981Z</time></trkpt><trkpt lat="44.83459577001565" lon="4.815395452945245"><ele>95.0</ele><time>2026-04-06T09:24:29.981Z</time></trkpt><trkpt lat="44.8344924255003" lon="4.815345245919112"><ele>95.0</ele><time>2026-04-06T09:24:31.981Z</time></trkpt><trkpt lat="44.83438315583009" lon="4.815294493134248"><ele>95.0</ele><time>2026-04-06T09:24:33.981Z</time></trkpt><trkpt lat="44.834280191464316" lon="4.815240532583705"><ele>95.0</ele><time>2026-04-06T09:24:35.981Z</time></trkpt><trkpt lat="44.83417158913168" lon="4.815187619455436"><ele>95.0</ele><time>2026-04-06T09:24:37.981Z</time></trkpt><trkpt lat="44.834068745878135" lon="4.815126306327684"><ele>95.6</ele><time>2026-04-06T09:24:39.981Z</time></trkpt><trkpt lat="44.833965171843694" lon="4.815067357982298"><ele>96.2</ele><time>2026-04-06T09:24:41.982Z</time></trkpt><trkpt lat="44.83386245403704" lon="4.815006832010912"><ele>96.80000000000001</ele><time>2026-04-06T09:24:43.982Z</time></trkpt><trkpt lat="44.833763378774464" lon="4.814941859762891"><ele>97.4</ele><time>2026-04-06T09:24:45.982Z</time></trkpt><trkpt lat="44.833662016837785" lon="4.814878500267458"><ele>98.0</ele><time>2026-04-06T09:24:47.982Z</time></trkpt><trkpt lat="44.833564439294456" lon="4.814817166193822"><ele>97.80000000000001</ele><time>2026-04-06T09:24:49.982Z</time></trkpt><trkpt lat="44.83346936622185" lon="4.814748580442808"><ele>97.6</ele><time>2026-04-06T09:24:51.982Z</time></trkpt><trkpt lat="44.833374169041406" lon="4.814681580569807"><ele>97.4</ele><time>2026-04-06T09:24:53.982Z</time></trkpt><trkpt lat="44.833279185787475" lon="4.814609876792016"><ele>97.19999999999999</ele><time>2026-04-06T09:24:55.982Z</time></trkpt><trkpt lat="44.83318232854357" lon="4.814536645384965"><ele>97.0</ele><time>2026-04-06T09:24:57.982Z</time></trkpt><trkpt lat="44.83308805191227" lon="4.814466925926635"><ele>97.0</ele><time>2026-04-06T09:24:59.982Z</time></trkpt><trkpt lat="44.83299693125772" lon="4.8143898509194925"><ele>97.0</ele><time>2026-04-06T09:25:01.982Z</time></trkpt><trkpt lat="44.832904499050315" lon="4.814316018346936"><ele>97.0</ele><time>2026-04-06T09:25:03.983Z</time></trkpt><trkpt lat="44.832815315161476" lon="4.81424351090212"><ele>97.0</ele><time>2026-04-06T09:25:05.983Z</time></trkpt><trkpt lat="44.83272534104174" lon="4.814162055533848"><ele>97.0</ele><time>2026-04-06T09:25:07.983Z</time></trkpt><trkpt lat="44.83263526607398" lon="4.814078515520686"><ele>96.8</ele><time>2026-04-06T09:25:09.983Z</time></trkpt><trkpt lat="44.83254407290118" lon="4.813994334699108"><ele>96.6</ele><time>2026-04-06T09:25:11.983Z</time></trkpt><trkpt lat="44.832454697654434" lon="4.813910695369809"><ele>96.39999999999999</ele><time>2026-04-06T09:25:13.983Z</time></trkpt><trkpt lat="44.8323682364048" lon="4.813826388153918"><ele>96.19999999999999</ele><time>2026-04-06T09:25:15.983Z</time></trkpt><trkpt lat="44.83227726089381" lon="4.8137399933658385"><ele>96.0</ele><time>2026-04-06T09:25:17.983Z</time></trkpt><trkpt lat="44.83218894060529" lon="4.813653548437071"><ele>96.0</ele><time>2026-04-06T09:25:19.983Z</time></trkpt><trkpt lat="44.83210261764825" lon="4.813563855945291"><ele>96.0</ele><time>2026-04-06T09:25:21.983Z</time></trkpt><trkpt lat="44.83201977859047" lon="4.813472796829553"><ele>96.0</ele><time>2026-04-06T09:25:23.983Z</time></trkpt><trkpt lat="44.83192744774283" lon="4.813393023810046"><ele>96.0</ele><time>2026-04-06T09:25:25.983Z</time></trkpt><trkpt lat="44.83184323468894" lon="4.813298736010636"><ele>96.0</ele><time>2026-04-06T09:25:27.983Z</time></trkpt><trkpt lat="44.83175206444158" lon="4.813221080984222"><ele>95.8</ele><time>2026-04-06T09:25:29.983Z</time></trkpt><trkpt lat="44.83166692662928" lon="4.813127111123574"><ele>95.6</ele><time>2026-04-06T09:25:31.983Z</time></trkpt><trkpt lat="44.83158324740781" lon="4.813037457664466"><ele>95.4</ele><time>2026-04-06T09:25:33.983Z</time></trkpt><trkpt lat="44.83149730912369" lon="4.812953658124159"><ele>95.2</ele><time>2026-04-06T09:25:35.983Z</time></trkpt><trkpt lat="44.83141286860995" lon="4.812868829995162"><ele>95.0</ele><time>2026-04-06T09:25:37.983Z</time></trkpt><trkpt lat="44.83132935052336" lon="4.812785668513384"><ele>95.0</ele><time>2026-04-06T09:25:39.983Z</time></trkpt><trkpt lat="44.83124837976454" lon="4.812704702805092"><ele>95.0</ele><time>2026-04-06T09:25:41.983Z</time></trkpt><trkpt lat="44.831168620868596" lon="4.812618691964155"><ele>95.0</ele><time>2026-04-06T09:25:43.983Z</time></trkpt><trkpt lat="44.831087778608044" lon="4.812540652897592"><ele>95.0</ele><time>2026-04-06T09:25:45.983Z</time></trkpt><trkpt lat="44.831003620322555" lon="4.812458788883736"><ele>95.0</ele><time>2026-04-06T09:25:47.983Z</time></trkpt><trkpt lat="44.83091886427162" lon="4.812371001867761"><ele>95.2</ele><time>2026-04-06T09:25:49.983Z</time></trkpt><trkpt lat="44.830833933866806" lon="4.812284587352793"><ele>95.4</ele><time>2026-04-06T09:25:51.983Z</time></trkpt><trkpt lat="44.830746840093596" lon="4.812201540564061"><ele>95.6</ele><time>2026-04-06T09:25:53.982Z</time></trkpt><trkpt lat="44.83066056515766" lon="4.812114341731651"><ele>95.8</ele><time>2026-04-06T09:25:55.982Z</time></trkpt><trkpt lat="44.830571482469075" lon="4.8120270671871115"><ele>96.0</ele><time>2026-04-06T09:25:57.982Z</time></trkpt><trkpt lat="44.83048110780594" lon="4.811947881233533"><ele>96.0</ele><time>2026-04-06T09:25:59.982Z</time></trkpt><trkpt lat="44.83039050922599" lon="4.811872325954628"><ele>96.0</ele><time>2026-04-06T09:26:01.982Z</time></trkpt><trkpt lat="44.830303949574976" lon="4.81177949933309"><ele>96.0</ele><time>2026-04-06T09:26:03.982Z</time></trkpt><trkpt lat="44.83020793509139" lon="4.811712617100128"><ele>96.0</ele><time>2026-04-06T09:26:05.982Z</time></trkpt><trkpt lat="44.830114039498376" lon="4.811626570832987"><ele>96.0</ele><time>2026-04-06T09:26:07.982Z</time></trkpt><trkpt lat="44.830021403155875" lon="4.811542363785979"><ele>96.75</ele><time>2026-04-06T09:26:09.982Z</time></trkpt><trkpt lat="44.829917971811604" lon="4.811466549440945"><ele>97.5</ele><time>2026-04-06T09:26:11.982Z</time></trkpt><trkpt lat="44.8298125341897" lon="4.81138816477785"><ele>98.25</ele><time>2026-04-06T09:26:13.982Z</time></trkpt><trkpt lat="44.82970651561355" lon="4.811319248277677"><ele>99.0</ele><time>2026-04-06T09:26:15.982Z</time></trkpt><trkpt lat="44.82959804073249" lon="4.8112539900658575"><ele>99.0</ele><time>2026-04-06T09:26:17.982Z</time></trkpt><trkpt lat="44.829491066426996" lon="4.811192739579608"><ele>99.0</ele><time>2026-04-06T09:26:19.982Z</time></trkpt><trkpt lat="44.82938248538845" lon="4.811130350344402"><ele>99.0</ele><time>2026-04-06T09:26:21.982Z</time></trkpt><trkpt lat="44.82927387551399" lon="4.811064494085371"><ele>99.0</ele><time>2026-04-06T09:26:23.982Z</time></trkpt><trkpt lat="44.8291646783131" lon="4.8110021898687805"><ele>99.25</ele><time>2026-04-06T09:26:25.982Z</time></trkpt><trkpt lat="44.82905211299915" lon="4.810946811954027"><ele>99.5</ele><time>2026-04-06T09:26:27.982Z</time></trkpt><trkpt lat="44.828945633889" lon="4.810890513921818"><ele>99.75</ele><time>2026-04-06T09:26:29.982Z</time></trkpt><trkpt lat="44.82883810443928" lon="4.810837804938467"><ele>100.0</ele><time>2026-04-06T09:26:31.982Z</time></trkpt><trkpt lat="44.828735316900676" lon="4.810783528991454"><ele>100.0</ele><time>2026-04-06T09:26:33.982Z</time></trkpt><trkpt lat="44.82863456843053" lon="4.81072788285293"><ele>100.0</ele><time>2026-04-06T09:26:35.982Z</time></trkpt><trkpt lat="44.82852972338334" lon="4.810679356539173"><ele>100.0</ele><time>2026-04-06T09:26:37.982Z</time></trkpt><trkpt lat="44.82842607098584" lon="4.810626129420833"><ele>100.0</ele><time>2026-04-06T09:26:39.982Z</time></trkpt><trkpt lat="44.82831871369557" lon="4.810590138936639"><ele>100.0</ele><time>2026-04-06T09:26:41.982Z</time></trkpt><trkpt lat="44.82822016179491" lon="4.810549599043407"><ele>100.4</ele><time>2026-04-06T09:26:43.982Z</time></trkpt><trkpt lat="44.82811884214633" lon="4.810503741925807"><ele>100.8</ele><time>2026-04-06T09:26:45.982Z</time></trkpt><trkpt lat="44.82801938658909" lon="4.810459972064633"><ele>101.19999999999999</ele><time>2026-04-06T09:26:47.982Z</time></trkpt><trkpt lat="44.82791538671756" lon="4.810422683021934"><ele>101.6</ele><time>2026-04-06T09:26:49.982Z</time></trkpt><trkpt lat="44.82781770161857" lon="4.8103732600385705"><ele>102.0</ele><time>2026-04-06T09:26:51.982Z</time></trkpt><trkpt lat="44.82771619862811" lon="4.810324814458612"><ele>101.6</ele><time>2026-04-06T09:26:53.982Z</time></trkpt><trkpt lat="44.827611399448244" lon="4.810273164626024"><ele>101.19999999999999</ele><time>2026-04-06T09:26:55.982Z</time></trkpt><trkpt lat="44.827507741298064" lon="4.810230650480855"><ele>100.8</ele><time>2026-04-06T09:26:57.982Z</time></trkpt><trkpt lat="44.82740520736625" lon="4.8101961591956215"><ele>100.4</ele><time>2026-04-06T09:26:59.982Z</time></trkpt><trkpt lat="44.827304586782105" lon="4.8101540912799985"><ele>100.0</ele><time>2026-04-06T09:27:01.982Z</time></trkpt><trkpt lat="44.82720340812091" lon="4.810107203360921"><ele>100.0</ele><time>2026-04-06T09:27:03.982Z</time></trkpt><trkpt lat="44.82710379347019" lon="4.810061592561048"><ele>100.0</ele><time>2026-04-06T09:27:05.982Z</time></trkpt><trkpt lat="44.82700802678066" lon="4.810020249592847"><ele>100.0</ele><time>2026-04-06T09:27:07.982Z</time></trkpt><trkpt lat="44.82691092328758" lon="4.809982466500452"><ele>100.0</ele><time>2026-04-06T09:27:09.982Z</time></trkpt><trkpt lat="44.82681380270418" lon="4.809934039936622"><ele>100.0</ele><time>2026-04-06T09:27:11.982Z</time></trkpt><trkpt lat="44.82671664513535" lon="4.809886739166007"><ele>100.2</ele><time>2026-04-06T09:27:13.982Z</time></trkpt><trkpt lat="44.82661241804024" lon="4.809852052566628"><ele>100.4</ele><time>2026-04-06T09:27:15.981Z</time></trkpt><trkpt lat="44.826510970536816" lon="4.8098237978667635"><ele>100.6</ele><time>2026-04-06T09:27:17.981Z</time></trkpt><trkpt lat="44.82640563034227" lon="4.8098189374373375"><ele>100.8</ele><time>2026-04-06T09:27:19.981Z</time></trkpt><trkpt lat="44.826301780557564" lon="4.8098443765529835"><ele>101.0</ele><time>2026-04-06T09:27:21.981Z</time></trkpt><trkpt lat="44.82620789208119" lon="4.809896009017577"><ele>101.0</ele><time>2026-04-06T09:27:23.981Z</time></trkpt><trkpt lat="44.8261222199778" lon="4.8099692782544805"><ele>101.0</ele><time>2026-04-06T09:27:25.981Z</time></trkpt><trkpt lat="44.82604907184872" lon="4.810042086231209"><ele>101.0</ele><time>2026-04-06T09:27:27.981Z</time></trkpt><trkpt lat="44.82597064425495" lon="4.8101198328521555"><ele>101.0</ele><time>2026-04-06T09:27:29.981Z</time></trkpt><trkpt lat="44.825879222522964" lon="4.810170796984788"><ele>101.0</ele><time>2026-04-06T09:27:31.981Z</time></trkpt><trkpt lat="44.82577893842739" lon="4.81021162235755"><ele>100.6</ele><time>2026-04-06T09:27:33.981Z</time></trkpt><trkpt lat="44.82567567312073" lon="4.810241127692263"><ele>100.19999999999999</ele><time>2026-04-06T09:27:35.981Z</time></trkpt><trkpt lat="44.82556977164492" lon="4.810208602451088"><ele>99.80000000000001</ele><time>2026-04-06T09:27:37.981Z</time></trkpt><trkpt lat="44.825451741104956" lon="4.81016600851221"><ele>99.4</ele><time>2026-04-06T09:27:39.981Z</time></trkpt><trkpt lat="44.82538873258641" lon="4.810143579674944"><ele>99.0</ele><time>2026-04-06T09:27:40.981Z</time></trkpt><trkpt lat="44.82532383255623" lon="4.810122314668546"><ele>98.71428571428572</ele><time>2026-04-06T09:27:41.981Z</time></trkpt><trkpt lat="44.82525753591588" lon="4.810098404318123"><ele>98.42857142857142</ele><time>2026-04-06T09:27:42.981Z</time></trkpt><trkpt lat="44.82519026994801" lon="4.810069799121366"><ele>98.14285714285714</ele><time>2026-04-06T09:27:43.981Z</time></trkpt><trkpt lat="44.82512060838571" lon="4.810046557332445"><ele>97.85714285714286</ele><time>2026-04-06T09:27:44.981Z</time></trkpt><trkpt lat="44.825048662521105" lon="4.810023008332333"><ele>97.57142857142858</ele><time>2026-04-06T09:27:45.981Z</time></trkpt><trkpt lat="44.82498167097866" lon="4.809977898523426"><ele>97.28571428571428</ele><time>2026-04-06T09:27:46.981Z</time></trkpt><trkpt lat="44.824919731520716" lon="4.809909019123956"><ele>97.0</ele><time>2026-04-06T09:27:47.981Z</time></trkpt><trkpt lat="44.82486977483002" lon="4.809829866894943"><ele>97.0</ele><time>2026-04-06T09:27:48.981Z</time></trkpt><trkpt lat="44.824824946553804" lon="4.809756885806228"><ele>97.0</ele><time>2026-04-06T09:27:49.981Z</time></trkpt><trkpt lat="44.82477354211808" lon="4.809691950129013"><ele>97.0</ele><time>2026-04-06T09:27:50.981Z</time></trkpt><trkpt lat="44.82466979701609" lon="4.809583764906689"><ele>97.0</ele><time>2026-04-06T09:27:52.981Z</time></trkpt><trkpt lat="44.824574996427906" lon="4.809482040246093"><ele>97.0</ele><time>2026-04-06T09:27:54.981Z</time></trkpt><trkpt lat="44.824481830404544" lon="4.80937635976997"><ele>97.0</ele><time>2026-04-06T09:27:56.981Z</time></trkpt><trkpt lat="44.82439194897445" lon="4.80928605020802"><ele>97.0</ele><time>2026-04-06T09:27:58.981Z</time></trkpt><trkpt lat="44.82430572071695" lon="4.809193211468541"><ele>97.0</ele><time>2026-04-06T09:28:00.981Z</time></trkpt><trkpt lat="44.824220939741714" lon="4.809110457367569"><ele>97.0</ele><time>2026-04-06T09:28:02.981Z</time></trkpt><trkpt lat="44.82414133846577" lon="4.809036629480989"><ele>97.0</ele><time>2026-04-06T09:28:04.981Z</time></trkpt><trkpt lat="44.82407278753356" lon="4.808997129356917"><ele>97.00000000000001</ele><time>2026-04-06T09:28:06.981Z</time></trkpt><trkpt lat="44.82399860607741" lon="4.808950441409129"><ele>97.0</ele><time>2026-04-06T09:28:08.981Z</time></trkpt><trkpt lat="44.82396219559337" lon="4.808860745280571"><ele>97.0</ele><time>2026-04-06T09:28:11.981Z</time></trkpt><trkpt lat="44.82399311843204" lon="4.808750997384816"><ele>97.0</ele><time>2026-04-06T09:28:13.981Z</time></trkpt><trkpt lat="44.824036666692635" lon="4.808589931244885"><ele>97.00000000000001</ele><time>2026-04-06T09:28:15.981Z</time></trkpt><trkpt lat="44.82404807999499" lon="4.808481298368271"><ele>97.0</ele><time>2026-04-06T09:28:16.981Z</time></trkpt><trkpt lat="44.82406861901973" lon="4.808373311655409"><ele>96.83333333333334</ele><time>2026-04-06T09:28:17.981Z</time></trkpt><trkpt lat="44.82409248353735" lon="4.808272425528436"><ele>96.66666666666667</ele><time>2026-04-06T09:28:18.981Z</time></trkpt><trkpt lat="44.824114466691995" lon="4.808159721708513"><ele>96.5</ele><time>2026-04-06T09:28:19.981Z</time></trkpt><trkpt lat="44.82413679063927" lon="4.808035567382408"><ele>96.33333333333334</ele><time>2026-04-06T09:28:20.981Z</time></trkpt><trkpt lat="44.82416495840907" lon="4.807900080982865"><ele>96.16666666666667</ele><time>2026-04-06T09:28:21.981Z</time></trkpt><trkpt lat="44.82418104699501" lon="4.80778302736728"><ele>96.0</ele><time>2026-04-06T09:28:22.981Z</time></trkpt><trkpt lat="44.82419850784753" lon="4.807670492897465"><ele>95.99999999999999</ele><time>2026-04-06T09:28:23.981Z</time></trkpt><trkpt lat="44.82421732695324" lon="4.8075635334244895"><ele>96.0</ele><time>2026-04-06T09:28:24.981Z</time></trkpt><trkpt lat="44.82423612033308" lon="4.807461786556022"><ele>96.0</ele><time>2026-04-06T09:28:25.981Z</time></trkpt><trkpt lat="44.82425470303839" lon="4.807363146788214"><ele>96.0</ele><time>2026-04-06T09:28:26.981Z</time></trkpt><trkpt lat="44.82427208214826" lon="4.807275384845345"><ele>96.0</ele><time>2026-04-06T09:28:27.981Z</time></trkpt><trkpt lat="44.82428385680838" lon="4.807176336405255"><ele>95.99999999999999</ele><time>2026-04-06T09:28:28.981Z</time></trkpt><trkpt lat="44.824298464651385" lon="4.80708484269172"><ele>96.0</ele><time>2026-04-06T09:28:29.981Z</time></trkpt><trkpt lat="44.8243183200803" lon="4.806988832694806"><ele>96.14285714285714</ele><time>2026-04-06T09:28:30.981Z</time></trkpt><trkpt lat="44.82433671083498" lon="4.806890178115482"><ele>96.28571428571428</ele><time>2026-04-06T09:28:31.981Z</time></trkpt><trkpt lat="44.82435050945179" lon="4.806793696574846"><ele>96.42857142857142</ele><time>2026-04-06T09:28:32.981Z</time></trkpt><trkpt lat="44.82436571819173" lon="4.806697433720035"><ele>96.57142857142857</ele><time>2026-04-06T09:28:33.981Z</time></trkpt><trkpt lat="44.82438297363685" lon="4.8065988059312845"><ele>96.71428571428572</ele><time>2026-04-06T09:28:34.981Z</time></trkpt><trkpt lat="44.82439874071714" lon="4.806503271832286"><ele>96.85714285714285</ele><time>2026-04-06T09:28:35.981Z</time></trkpt><trkpt lat="44.82441379826511" lon="4.806411282583354"><ele>97.0</ele><time>2026-04-06T09:28:36.981Z</time></trkpt><trkpt lat="44.82443719779811" lon="4.806319364345623"><ele>97.0</ele><time>2026-04-06T09:28:37.981Z</time></trkpt><trkpt lat="44.82446254224953" lon="4.806227496691841"><ele>97.0</ele><time>2026-04-06T09:28:38.981Z</time></trkpt><trkpt lat="44.824487148583536" lon="4.806136947929609"><ele>97.0</ele><time>2026-04-06T09:28:39.981Z</time></trkpt><trkpt lat="44.82451689111813" lon="4.806048486866631"><ele>97.0</ele><time>2026-04-06T09:28:40.981Z</time></trkpt><trkpt lat="44.8245509380442" lon="4.80597180070798"><ele>97.0</ele><time>2026-04-06T09:28:41.981Z</time></trkpt><trkpt lat="44.824590639015156" lon="4.805901492727299"><ele>97.0</ele><time>2026-04-06T09:28:42.981Z</time></trkpt><trkpt lat="44.82463301245818" lon="4.805832972228678"><ele>97.0</ele><time>2026-04-06T09:28:43.981Z</time></trkpt><trkpt lat="44.82471726574983" lon="4.805717286112125"><ele>97.19999999999999</ele><time>2026-04-06T09:28:45.981Z</time></trkpt><trkpt lat="44.82481169802523" lon="4.805602873358595"><ele>97.4</ele><time>2026-04-06T09:28:47.981Z</time></trkpt><trkpt lat="44.82490602953795" lon="4.805500371123491"><ele>97.6</ele><time>2026-04-06T09:28:49.981Z</time></trkpt><trkpt lat="44.82495791901235" lon="4.805441652733744"><ele>97.80000000000001</ele><time>2026-04-06T09:28:50.981Z</time></trkpt><trkpt lat="44.825043130861346" lon="4.805319044353639"><ele>98.0</ele><time>2026-04-06T09:28:52.981Z</time></trkpt><trkpt lat="44.825126908572635" lon="4.805187546563689"><ele>97.75</ele><time>2026-04-06T09:28:54.981Z</time></trkpt><trkpt lat="44.8251834421786" lon="4.805032811028287"><ele>97.5</ele><time>2026-04-06T09:28:56.981Z</time></trkpt><trkpt lat="44.825225333855705" lon="4.804869622580477"><ele>97.25</ele><time>2026-04-06T09:28:58.981Z</time></trkpt><trkpt lat="44.82526857552026" lon="4.80470873191559"><ele>97.0</ele><time>2026-04-06T09:29:00.981Z</time></trkpt><trkpt lat="44.825312322422675" lon="4.804554433995562"><ele>97.0</ele><time>2026-04-06T09:29:02.981Z</time></trkpt><trkpt lat="44.82535228940297" lon="4.804399563082491"><ele>97.0</ele><time>2026-04-06T09:29:04.981Z</time></trkpt><trkpt lat="44.82539651315124" lon="4.804241852284467"><ele>97.0</ele><time>2026-04-06T09:29:06.981Z</time></trkpt><trkpt lat="44.82543442427081" lon="4.804081357619557"><ele>97.0</ele><time>2026-04-06T09:29:08.981Z</time></trkpt><trkpt lat="44.82547751998605" lon="4.803932973006221"><ele>97.19999999999999</ele><time>2026-04-06T09:29:10.981Z</time></trkpt><trkpt lat="44.82551768780422" lon="4.803783594881791"><ele>97.4</ele><time>2026-04-06T09:29:12.981Z</time></trkpt><trkpt lat="44.825555408938364" lon="4.803640961579449"><ele>97.6</ele><time>2026-04-06T09:29:14.981Z</time></trkpt><trkpt lat="44.82559981704073" lon="4.803495496833204"><ele>97.80000000000001</ele><time>2026-04-06T09:29:16.981Z</time></trkpt><trkpt lat="44.82563541433848" lon="4.803356905329073"><ele>98.0</ele><time>2026-04-06T09:29:18.981Z</time></trkpt><trkpt lat="44.82567461718118" lon="4.803214151702562"><ele>98.2</ele><time>2026-04-06T09:29:20.98Z</time></trkpt><trkpt lat="44.82573628272243" lon="4.803101296485562"><ele>98.4</ele><time>2026-04-06T09:29:22.98Z</time></trkpt><trkpt lat="44.82582364234133" lon="4.803014266993588"><ele>98.60000000000001</ele><time>2026-04-06T09:29:24.98Z</time></trkpt><trkpt lat="44.82589923652275" lon="4.802926818213831"><ele>98.80000000000001</ele><time>2026-04-06T09:29:26.98Z</time></trkpt><trkpt lat="44.82597460714542" lon="4.802845610369221"><ele>99.0</ele><time>2026-04-06T09:29:28.98Z</time></trkpt><trkpt lat="44.82605802807351" lon="4.802837264747699"><ele>99.83333333333333</ele><time>2026-04-06T09:29:30.98Z</time></trkpt><trkpt lat="44.826130433170874" lon="4.802859104282782"><ele>100.66666666666666</ele><time>2026-04-06T09:29:32.98Z</time></trkpt><trkpt lat="44.82621041087548" lon="4.802850197203528"><ele>101.5</ele><time>2026-04-06T09:29:34.98Z</time></trkpt><trkpt lat="44.82626981020429" lon="4.802900859156425"><ele>102.33333333333333</ele><time>2026-04-06T09:29:36.98Z</time></trkpt><trkpt lat="44.8263295416805" lon="4.802992203911764"><ele>103.16666666666666</ele><time>2026-04-06T09:29:38.98Z</time></trkpt><trkpt lat="44.82638603894379" lon="4.803084266759355"><ele>104.0</ele><time>2026-04-06T09:29:40.98Z</time></trkpt><trkpt lat="44.8264416263597" lon="4.803175372988638"><ele>103.99999999999999</ele><time>2026-04-06T09:29:42.98Z</time></trkpt><trkpt lat="44.826499205667815" lon="4.803268388176231"><ele>104.0</ele><time>2026-04-06T09:29:44.98Z</time></trkpt><trkpt lat="44.82654386212683" lon="4.803359100763728"><ele>104.0</ele><time>2026-04-06T09:29:46.98Z</time></trkpt><trkpt lat="44.82660650353469" lon="4.80343446097098"><ele>104.0</ele><time>2026-04-06T09:29:48.98Z</time></trkpt><trkpt lat="44.826679678861936" lon="4.803502203469079"><ele>103.99999999999999</ele><time>2026-04-06T09:29:50.98Z</time></trkpt><trkpt lat="44.82674249666163" lon="4.803583299510906"><ele>104.0</ele><time>2026-04-06T09:29:52.98Z</time></trkpt><trkpt lat="44.82680277669218" lon="4.803660307786318"><ele>105.2</ele><time>2026-04-06T09:29:54.98Z</time></trkpt><trkpt lat="44.82688753497085" lon="4.803745258428687"><ele>106.4</ele><time>2026-04-06T09:29:56.98Z</time></trkpt><trkpt lat="44.82695689531166" lon="4.80383378338244"><ele>107.6</ele><time>2026-04-06T09:29:58.98Z</time></trkpt><trkpt lat="44.82704666168453" lon="4.8039225034376924"><ele>108.8</ele><time>2026-04-06T09:30:00.98Z</time></trkpt><trkpt lat="44.82712484645564" lon="4.804016856469772"><ele>110.0</ele><time>2026-04-06T09:30:02.98Z</time></trkpt><trkpt lat="44.827195096060485" lon="4.804112175046567"><ele>109.99999999999999</ele><time>2026-04-06T09:30:04.981Z</time></trkpt><trkpt lat="44.82726656820652" lon="4.80419175875848"><ele>110.0</ele><time>2026-04-06T09:30:06.981Z</time></trkpt><trkpt lat="44.827321629882434" lon="4.804282115561514"><ele>110.0</ele><time>2026-04-06T09:30:08.98Z</time></trkpt><trkpt lat="44.82738610104481" lon="4.804355770426651"><ele>110.0</ele><time>2026-04-06T09:30:10.98Z</time></trkpt><trkpt lat="44.82745502734398" lon="4.804434313215353"><ele>109.99999999999999</ele><time>2026-04-06T09:30:12.98Z</time></trkpt><trkpt lat="44.82752782798116" lon="4.804502251076014"><ele>110.0</ele><time>2026-04-06T09:30:14.981Z</time></trkpt><trkpt lat="44.82759359491487" lon="4.804579525411941"><ele>110.2</ele><time>2026-04-06T09:30:16.98Z</time></trkpt><trkpt lat="44.82766679809642" lon="4.804630105680849"><ele>110.4</ele><time>2026-04-06T09:30:18.98Z</time></trkpt><trkpt lat="44.82774168868879" lon="4.804696801673829"><ele>110.6</ele><time>2026-04-06T09:30:20.98Z</time></trkpt><trkpt lat="44.82782194158426" lon="4.8047478682727265"><ele>110.8</ele><time>2026-04-06T09:30:22.98Z</time></trkpt><trkpt lat="44.82791165020409" lon="4.804802632104921"><ele>111.0</ele><time>2026-04-06T09:30:24.98Z</time></trkpt><trkpt lat="44.82798979161476" lon="4.804877885098258"><ele>111.0</ele><time>2026-04-06T09:30:26.98Z</time></trkpt><trkpt lat="44.82806467848838" lon="4.804951255958986"><ele>111.0</ele><time>2026-04-06T09:30:28.98Z</time></trkpt><trkpt lat="44.82813965696616" lon="4.805028545992954"><ele>111.0</ele><time>2026-04-06T09:30:30.98Z</time></trkpt><trkpt lat="44.82821622481527" lon="4.805100334596582"><ele>111.0</ele><time>2026-04-06T09:30:32.98Z</time></trkpt><trkpt lat="44.828310717541015" lon="4.805182890002878"><ele>111.0</ele><time>2026-04-06T09:30:34.98Z</time></trkpt><trkpt lat="44.82839856879851" lon="4.805273341889148"><ele>110.19999999999999</ele><time>2026-04-06T09:30:36.98Z</time></trkpt><trkpt lat="44.828493898636836" lon="4.805351581090193"><ele>109.39999999999999</ele><time>2026-04-06T09:30:38.98Z</time></trkpt><trkpt lat="44.828567807295414" lon="4.805433135216279"><ele>108.6</ele><time>2026-04-06T09:30:40.98Z</time></trkpt><trkpt lat="44.82864675534858" lon="4.805502501936675"><ele>107.8</ele><time>2026-04-06T09:30:42.98Z</time></trkpt><trkpt lat="44.82874011221092" lon="4.805586790034895"><ele>107.0</ele><time>2026-04-06T09:30:44.98Z</time></trkpt><trkpt lat="44.82884130579574" lon="4.80566066298769"><ele>107.0</ele><time>2026-04-06T09:30:46.98Z</time></trkpt><trkpt lat="44.8289254038352" lon="4.805727161944457"><ele>106.99999999999999</ele><time>2026-04-06T09:30:48.98Z</time></trkpt><trkpt lat="44.82901473218945" lon="4.80579032692321"><ele>106.99999999999999</ele><time>2026-04-06T09:30:50.98Z</time></trkpt><trkpt lat="44.829112511449885" lon="4.8058491397854395"><ele>107.0</ele><time>2026-04-06T09:30:52.98Z</time></trkpt><trkpt lat="44.82919467295931" lon="4.805898777077977"><ele>107.0</ele><time>2026-04-06T09:30:54.98Z</time></trkpt><trkpt lat="44.8292654253057" lon="4.80593932860016"><ele>105.99999999999999</ele><time>2026-04-06T09:30:56.98Z</time></trkpt><trkpt lat="44.82932719920692" lon="4.805978357064826"><ele>105.0</ele><time>2026-04-06T09:30:58.98Z</time></trkpt><trkpt lat="44.82940058579569" lon="4.806027788091478"><ele>104.0</ele><time>2026-04-06T09:31:00.98Z</time></trkpt><trkpt lat="44.82948346810323" lon="4.806087729413934"><ele>103.0</ele><time>2026-04-06T09:31:02.98Z</time></trkpt><trkpt lat="44.829564105423586" lon="4.806144820134626"><ele>101.99999999999999</ele><time>2026-04-06T09:31:04.98Z</time></trkpt><trkpt lat="44.82965395287908" lon="4.806215437450543"><ele>101.0</ele><time>2026-04-06T09:31:06.98Z</time></trkpt><trkpt lat="44.829734148377874" lon="4.806285086240063"><ele>101.0</ele><time>2026-04-06T09:31:08.98Z</time></trkpt><trkpt lat="44.82982203792403" lon="4.806376950491215"><ele>101.0</ele><time>2026-04-06T09:31:10.98Z</time></trkpt><trkpt lat="44.82992114068139" lon="4.806462633210345"><ele>101.0</ele><time>2026-04-06T09:31:12.98Z</time></trkpt><trkpt lat="44.830011261745796" lon="4.806532559597266"><ele>101.0</ele><time>2026-04-06T09:31:14.98Z</time></trkpt><trkpt lat="44.83010492302227" lon="4.806609765424891"><ele>101.0</ele><time>2026-04-06T09:31:16.98Z</time></trkpt><trkpt lat="44.8301802601677" lon="4.806683823544575"><ele>100.4</ele><time>2026-04-06T09:31:18.98Z</time></trkpt><trkpt lat="44.83026535422888" lon="4.806764696539261"><ele>99.8</ele><time>2026-04-06T09:31:20.98Z</time></trkpt><trkpt lat="44.83035970183044" lon="4.8068256916467975"><ele>99.2</ele><time>2026-04-06T09:31:22.98Z</time></trkpt><trkpt lat="44.830450141819846" lon="4.806901833796798"><ele>98.60000000000001</ele><time>2026-04-06T09:31:24.98Z</time></trkpt><trkpt lat="44.83054545684042" lon="4.806992233337884"><ele>98.0</ele><time>2026-04-06T09:31:26.98Z</time></trkpt><trkpt lat="44.83062793017945" lon="4.807062687514652"><ele>98.0</ele><time>2026-04-06T09:31:28.98Z</time></trkpt><trkpt lat="44.830724124992486" lon="4.807141325949606"><ele>98.0</ele><time>2026-04-06T09:31:30.98Z</time></trkpt><trkpt lat="44.83078060207751" lon="4.807187161504263"><ele>98.0</ele><time>2026-04-06T09:31:31.98Z</time></trkpt><trkpt lat="44.83086720877242" lon="4.807260461980975"><ele>98.0</ele><time>2026-04-06T09:31:33.98Z</time></trkpt><trkpt lat="44.83094573112967" lon="4.807332661718434"><ele>98.0</ele><time>2026-04-06T09:31:35.98Z</time></trkpt><trkpt lat="44.83104573855571" lon="4.807407500538624"><ele>98.25</ele><time>2026-04-06T09:31:37.98Z</time></trkpt><trkpt lat="44.83113314900361" lon="4.807487400223927"><ele>98.5</ele><time>2026-04-06T09:31:39.979Z</time></trkpt><trkpt lat="44.83123822444177" lon="4.807581918958108"><ele>98.75</ele><time>2026-04-06T09:31:41.979Z</time></trkpt><trkpt lat="44.83133956200683" lon="4.807672179194425"><ele>99.0</ele><time>2026-04-06T09:31:43.979Z</time></trkpt><trkpt lat="44.831432409320364" lon="4.807777000411193"><ele>99.0</ele><time>2026-04-06T09:31:45.979Z</time></trkpt><trkpt lat="44.83151178292341" lon="4.807891282980169"><ele>99.0</ele><time>2026-04-06T09:31:47.979Z</time></trkpt><trkpt lat="44.83159188394765" lon="4.808007953164817"><ele>99.0</ele><time>2026-04-06T09:31:49.979Z</time></trkpt><trkpt lat="44.83165999513169" lon="4.808128970474979"><ele>99.0</ele><time>2026-04-06T09:31:51.979Z</time></trkpt><trkpt lat="44.83172450854717" lon="4.808236738496313"><ele>99.0</ele><time>2026-04-06T09:31:53.979Z</time></trkpt><trkpt lat="44.83175246496975" lon="4.808318288640707"><ele>99.0</ele><time>2026-04-06T09:31:55.979Z</time></trkpt><trkpt lat="44.83171567630511" lon="4.8084053498258905"><ele>99.0</ele><time>2026-04-06T09:31:57.979Z</time></trkpt><trkpt lat="44.8316214747614" lon="4.808477938166808"><ele>99.0</ele><time>2026-04-06T09:31:59.979Z</time></trkpt><trkpt lat="44.83156763349786" lon="4.808535281261572"><ele>99.0</ele><time>2026-04-06T09:32:00.979Z</time></trkpt><trkpt lat="44.83150993070014" lon="4.808599514661317"><ele>99.0</ele><time>2026-04-06T09:32:01.979Z</time></trkpt><trkpt lat="44.83140034479153" lon="4.808682100164448"><ele>99.0</ele><time>2026-04-06T09:32:03.979Z</time></trkpt><trkpt lat="44.831350189376586" lon="4.808738264363369"><ele>98.6</ele><time>2026-04-06T09:32:04.979Z</time></trkpt><trkpt lat="44.8312487598023" lon="4.808829960363179"><ele>98.2</ele><time>2026-04-06T09:32:06.979Z</time></trkpt><trkpt lat="44.83115668955497" lon="4.808927031433182"><ele>97.8</ele><time>2026-04-06T09:32:08.979Z</time></trkpt><trkpt lat="44.83106916843765" lon="4.809018537090575"><ele>97.39999999999999</ele><time>2026-04-06T09:32:10.98Z</time></trkpt><trkpt lat="44.830971013875285" lon="4.809050128705188"><ele>97.0</ele><time>2026-04-06T09:32:12.979Z</time></trkpt><trkpt lat="44.83087211885891" lon="4.80908520317943"><ele>96.0</ele><time>2026-04-06T09:32:14.98Z</time></trkpt><trkpt lat="44.83079646787833" lon="4.8091564031188225"><ele>96.0</ele><time>2026-04-06T09:32:16.98Z</time></trkpt><trkpt lat="44.83071494430708" lon="4.809218889329234"><ele>96.0</ele><time>2026-04-06T09:32:18.979Z</time></trkpt><trkpt lat="44.83064884198532" lon="4.809293711894965"><ele>96.0</ele><time>2026-04-06T09:32:20.98Z</time></trkpt><trkpt lat="44.830586542442184" lon="4.809345174051518"><ele>97.0</ele><time>2026-04-06T09:32:22.979Z</time></trkpt><trkpt lat="44.83052688430963" lon="4.809386110563698"><ele>97.0</ele><time>2026-04-06T09:32:24.979Z</time></trkpt></trkseg></trk></gpx>